<?xml version="1.0" encoding="UTF-8" standalone="no" ?>
<gpx xmlns="http://www.topografix.com/GPX/1/1" xmlns:xsi="http://www.w3.org/2001/XMLSchema-instance" xsi:schemaLocation="http://www.topografix.com/GPX/1/1 http://www.topografix.com/GPX/1/1/gpx.xsd" version="1.1" creator="VisuGPX - https://www.visugpx.com">
  <metadata>
    <name>villeneuve la comptal</name>
  </metadata>
  <trk>
    <name><![CDATA[villeneuve la comptal_1]]></name>
    <extensions>
      <line xmlns="http://www.topografix.com/GPX/gpx_style/0/2">
        <color>0000FF</color>
        <width>4</width>
      </line>
    </extensions>
    <trkseg>
      <trkpt lat="43.28634" lon="1.92167">
        <ele>201.17399597168</ele>
        <time>2012-07-22T06:43:23Z</time>
      </trkpt>
      <trkpt lat="43.28629" lon="1.92175">
        <ele>201.17399597168</ele>
        <time>2012-07-22T06:43:27Z</time>
      </trkpt>
      <trkpt lat="43.28614" lon="1.92184">
        <ele>203.14399719238</ele>
        <time>2012-07-22T06:43:34Z</time>
      </trkpt>
      <trkpt lat="43.28589" lon="1.922">
        <ele>203.91000366211</ele>
        <time>2012-07-22T06:43:44Z</time>
      </trkpt>
      <trkpt lat="43.28572" lon="1.92209">
        <ele>204.88400268555</ele>
        <time>2012-07-22T06:43:51Z</time>
      </trkpt>
      <trkpt lat="43.28555" lon="1.92227">
        <ele>206.77000427246</ele>
        <time>2012-07-22T06:43:59Z</time>
      </trkpt>
      <trkpt lat="43.28549" lon="1.92233">
        <ele>207.16900634766</ele>
        <time>2012-07-22T06:44:01Z</time>
      </trkpt>
      <trkpt lat="43.28532" lon="1.92245">
        <ele>209.53799438477</ele>
        <time>2012-07-22T06:44:06Z</time>
      </trkpt>
      <trkpt lat="43.28527" lon="1.92254">
        <ele>209.67100524902</ele>
        <time>2012-07-22T06:44:09Z</time>
      </trkpt>
      <trkpt lat="43.28529" lon="1.92268">
        <ele>210.24899291992</ele>
        <time>2012-07-22T06:44:13Z</time>
      </trkpt>
      <trkpt lat="43.28543" lon="1.92295">
        <ele>212.06199645996</ele>
        <time>2012-07-22T06:44:22Z</time>
      </trkpt>
      <trkpt lat="43.28553" lon="1.9231">
        <ele>212.88999938965</ele>
        <time>2012-07-22T06:44:28Z</time>
      </trkpt>
      <trkpt lat="43.28559" lon="1.92331">
        <ele>213.47099304199</ele>
        <time>2012-07-22T06:44:34Z</time>
      </trkpt>
      <trkpt lat="43.28555" lon="1.92349">
        <ele>213.9700012207</ele>
        <time>2012-07-22T06:44:39Z</time>
      </trkpt>
      <trkpt lat="43.28538" lon="1.9237">
        <ele>214.93600463867</ele>
        <time>2012-07-22T06:44:47Z</time>
      </trkpt>
      <trkpt lat="43.28519" lon="1.92387">
        <ele>215.41799926758</ele>
        <time>2012-07-22T06:44:55Z</time>
      </trkpt>
      <trkpt lat="43.28502" lon="1.92403">
        <ele>215.95700073242</ele>
        <time>2012-07-22T06:45:02Z</time>
      </trkpt>
      <trkpt lat="43.28479" lon="1.92425">
        <ele>216.89700317383</ele>
        <time>2012-07-22T06:45:12Z</time>
      </trkpt>
      <trkpt lat="43.28456" lon="1.92445">
        <ele>217.85800170898</ele>
        <time>2012-07-22T06:45:21Z</time>
      </trkpt>
      <trkpt lat="43.28431" lon="1.92467">
        <ele>218.99099731445</ele>
        <time>2012-07-22T06:45:31Z</time>
      </trkpt>
      <trkpt lat="43.28418" lon="1.92477">
        <ele>219.60400390625</ele>
        <time>2012-07-22T06:45:36Z</time>
      </trkpt>
      <trkpt lat="43.28398" lon="1.92489">
        <ele>220.87300109863</ele>
        <time>2012-07-22T06:45:44Z</time>
      </trkpt>
      <trkpt lat="43.28386" lon="1.92496">
        <ele>221.43499755859</ele>
        <time>2012-07-22T06:45:49Z</time>
      </trkpt>
      <trkpt lat="43.28361" lon="1.9251">
        <ele>221.63999938965</ele>
        <time>2012-07-22T06:45:57Z</time>
      </trkpt>
      <trkpt lat="43.28341" lon="1.92523">
        <ele>222.35699462891</ele>
        <time>2012-07-22T06:46:04Z</time>
      </trkpt>
      <trkpt lat="43.28326" lon="1.92535">
        <ele>222.95700073242</ele>
        <time>2012-07-22T06:46:10Z</time>
      </trkpt>
      <trkpt lat="43.28313" lon="1.92551">
        <ele>223.95899963379</ele>
        <time>2012-07-22T06:46:16Z</time>
      </trkpt>
      <trkpt lat="43.28302" lon="1.92556">
        <ele>224.81599426269</ele>
        <time>2012-07-22T06:46:22Z</time>
      </trkpt>
      <trkpt lat="43.283" lon="1.92558">
        <ele>224.87300109863</ele>
        <time>2012-07-22T06:46:23Z</time>
      </trkpt>
      <trkpt lat="43.28282" lon="1.92569">
        <ele>225.17799377441</ele>
        <time>2012-07-22T06:46:29Z</time>
      </trkpt>
      <trkpt lat="43.28267" lon="1.92564">
        <ele>226.23599243164</ele>
        <time>2012-07-22T06:46:34Z</time>
      </trkpt>
      <trkpt lat="43.28246" lon="1.92547">
        <ele>227.37399291992</ele>
        <time>2012-07-22T06:46:42Z</time>
      </trkpt>
      <trkpt lat="43.28231" lon="1.9254">
        <ele>228.41600036621</ele>
        <time>2012-07-22T06:46:48Z</time>
      </trkpt>
      <trkpt lat="43.28215" lon="1.92537">
        <ele>230.34599304199</ele>
        <time>2012-07-22T06:46:56Z</time>
      </trkpt>
      <trkpt lat="43.28202" lon="1.92536">
        <ele>232.44299316406</ele>
        <time>2012-07-22T06:47:03Z</time>
      </trkpt>
      <trkpt lat="43.28192" lon="1.92535">
        <ele>233.71000671387</ele>
        <time>2012-07-22T06:47:08Z</time>
      </trkpt>
      <trkpt lat="43.28181" lon="1.92537">
        <ele>234.07299804688</ele>
        <time>2012-07-22T06:47:13Z</time>
      </trkpt>
      <trkpt lat="43.28164" lon="1.92539">
        <ele>233.67999267578</ele>
        <time>2012-07-22T06:47:18Z</time>
      </trkpt>
      <trkpt lat="43.28146" lon="1.92544">
        <ele>233.60800170898</ele>
        <time>2012-07-22T06:47:24Z</time>
      </trkpt>
      <trkpt lat="43.28124" lon="1.92557">
        <ele>233.70599365234</ele>
        <time>2012-07-22T06:47:31Z</time>
      </trkpt>
      <trkpt lat="43.28121" lon="1.92558">
        <ele>233.75</ele>
        <time>2012-07-22T06:47:32Z</time>
      </trkpt>
      <trkpt lat="43.28108" lon="1.92567">
        <ele>233.23500061035</ele>
        <time>2012-07-22T06:47:35Z</time>
      </trkpt>
      <trkpt lat="43.28074" lon="1.9259">
        <ele>232.21800231934</ele>
        <time>2012-07-22T06:47:42Z</time>
      </trkpt>
      <trkpt lat="43.28052" lon="1.92609">
        <ele>232.34700012207</ele>
        <time>2012-07-22T06:47:48Z</time>
      </trkpt>
      <trkpt lat="43.28035" lon="1.92621">
        <ele>232.62899780273</ele>
        <time>2012-07-22T06:47:54Z</time>
      </trkpt>
      <trkpt lat="43.28021" lon="1.92636">
        <ele>233.14199829102</ele>
        <time>2012-07-22T06:48:00Z</time>
      </trkpt>
      <trkpt lat="43.28001" lon="1.92664">
        <ele>234.01400756836</ele>
        <time>2012-07-22T06:48:09Z</time>
      </trkpt>
      <trkpt lat="43.27986" lon="1.9268">
        <ele>235.36599731445</ele>
        <time>2012-07-22T06:48:15Z</time>
      </trkpt>
      <trkpt lat="43.27959" lon="1.92699">
        <ele>237.4880065918</ele>
        <time>2012-07-22T06:48:25Z</time>
      </trkpt>
      <trkpt lat="43.27947" lon="1.9271">
        <ele>238.61399841309</ele>
        <time>2012-07-22T06:48:31Z</time>
      </trkpt>
      <trkpt lat="43.27929" lon="1.92727">
        <ele>238.50999450684</ele>
        <time>2012-07-22T06:48:37Z</time>
      </trkpt>
      <trkpt lat="43.27912" lon="1.92734">
        <ele>237.88000488281</ele>
        <time>2012-07-22T06:48:41Z</time>
      </trkpt>
      <trkpt lat="43.27882" lon="1.9273">
        <ele>237.95100402832</ele>
        <time>2012-07-22T06:48:49Z</time>
      </trkpt>
      <trkpt lat="43.27864" lon="1.92729">
        <ele>239.27900695801</ele>
        <time>2012-07-22T06:48:55Z</time>
      </trkpt>
      <trkpt lat="43.27858" lon="1.92732">
        <ele>239.58599853516</ele>
        <time>2012-07-22T06:48:57Z</time>
      </trkpt>
      <trkpt lat="43.27853" lon="1.92747">
        <ele>241.54100036621</ele>
        <time>2012-07-22T06:49:02Z</time>
      </trkpt>
      <trkpt lat="43.27842" lon="1.92763">
        <ele>243.96899414062</ele>
        <time>2012-07-22T06:49:08Z</time>
      </trkpt>
      <trkpt lat="43.27829" lon="1.92775">
        <ele>245.71800231934</ele>
        <time>2012-07-22T06:49:14Z</time>
      </trkpt>
      <trkpt lat="43.27807" lon="1.92794">
        <ele>247.39700317383</ele>
        <time>2012-07-22T06:49:24Z</time>
      </trkpt>
      <trkpt lat="43.2779" lon="1.92813">
        <ele>249.6369934082</ele>
        <time>2012-07-22T06:49:33Z</time>
      </trkpt>
      <trkpt lat="43.2778" lon="1.92829">
        <ele>249.51600646973</ele>
        <time>2012-07-22T06:49:38Z</time>
      </trkpt>
      <trkpt lat="43.27771" lon="1.92858">
        <ele>248.80700683594</ele>
        <time>2012-07-22T06:49:44Z</time>
      </trkpt>
      <trkpt lat="43.27769" lon="1.92875">
        <ele>248.39799499512</ele>
        <time>2012-07-22T06:49:47Z</time>
      </trkpt>
      <trkpt lat="43.27767" lon="1.92899">
        <ele>248.13800048828</ele>
        <time>2012-07-22T06:49:52Z</time>
      </trkpt>
      <trkpt lat="43.27768" lon="1.92921">
        <ele>247.82200622559</ele>
        <time>2012-07-22T06:49:58Z</time>
      </trkpt>
      <trkpt lat="43.27766" lon="1.92948">
        <ele>249.07499694824</ele>
        <time>2012-07-22T06:50:05Z</time>
      </trkpt>
      <trkpt lat="43.27763" lon="1.9297">
        <ele>249.97399902344</ele>
        <time>2012-07-22T06:50:12Z</time>
      </trkpt>
      <trkpt lat="43.27757" lon="1.92989">
        <ele>251.08099365234</ele>
        <time>2012-07-22T06:50:19Z</time>
      </trkpt>
      <trkpt lat="43.27749" lon="1.9301">
        <ele>252.27400207519</ele>
        <time>2012-07-22T06:50:27Z</time>
      </trkpt>
      <trkpt lat="43.2774" lon="1.93033">
        <ele>253.27200317383</ele>
        <time>2012-07-22T06:50:35Z</time>
      </trkpt>
      <trkpt lat="43.27735" lon="1.93054">
        <ele>254.60099792481</ele>
        <time>2012-07-22T06:50:42Z</time>
      </trkpt>
      <trkpt lat="43.27727" lon="1.93069">
        <ele>254.95399475098</ele>
        <time>2012-07-22T06:50:48Z</time>
      </trkpt>
      <trkpt lat="43.27717" lon="1.93086">
        <ele>256.16598510742</ele>
        <time>2012-07-22T06:50:55Z</time>
      </trkpt>
      <trkpt lat="43.27711" lon="1.93106">
        <ele>257.38400268555</ele>
        <time>2012-07-22T06:51:02Z</time>
      </trkpt>
      <trkpt lat="43.27709" lon="1.93122">
        <ele>258.30999755859</ele>
        <time>2012-07-22T06:51:07Z</time>
      </trkpt>
      <trkpt lat="43.27696" lon="1.93145">
        <ele>260.5419921875</ele>
        <time>2012-07-22T06:51:16Z</time>
      </trkpt>
      <trkpt lat="43.27689" lon="1.93159">
        <ele>262.06298828125</ele>
        <time>2012-07-22T06:51:22Z</time>
      </trkpt>
      <trkpt lat="43.2768" lon="1.93179">
        <ele>264.14700317383</ele>
        <time>2012-07-22T06:51:31Z</time>
      </trkpt>
      <trkpt lat="43.27671" lon="1.93196">
        <ele>266.49899291992</ele>
        <time>2012-07-22T06:51:40Z</time>
      </trkpt>
      <trkpt lat="43.2766" lon="1.9321">
        <ele>268.60900878906</ele>
        <time>2012-07-22T06:51:48Z</time>
      </trkpt>
      <trkpt lat="43.27649" lon="1.93227">
        <ele>271.09600830078</ele>
        <time>2012-07-22T06:51:58Z</time>
      </trkpt>
      <trkpt lat="43.27642" lon="1.93244">
        <ele>273.13198852539</ele>
        <time>2012-07-22T06:52:06Z</time>
      </trkpt>
      <trkpt lat="43.27638" lon="1.93264">
        <ele>274.78399658203</ele>
        <time>2012-07-22T06:52:14Z</time>
      </trkpt>
      <trkpt lat="43.27634" lon="1.93284">
        <ele>277.10900878906</ele>
        <time>2012-07-22T06:52:23Z</time>
      </trkpt>
      <trkpt lat="43.27628" lon="1.93303">
        <ele>279.16000366211</ele>
        <time>2012-07-22T06:52:31Z</time>
      </trkpt>
      <trkpt lat="43.27621" lon="1.93322">
        <ele>281.51098632812</ele>
        <time>2012-07-22T06:52:39Z</time>
      </trkpt>
      <trkpt lat="43.27615" lon="1.93345">
        <ele>284.2080078125</ele>
        <time>2012-07-22T06:52:49Z</time>
      </trkpt>
      <trkpt lat="43.27611" lon="1.93362">
        <ele>286.35198974609</ele>
        <time>2012-07-22T06:52:56Z</time>
      </trkpt>
      <trkpt lat="43.27602" lon="1.9337">
        <ele>287.63000488281</ele>
        <time>2012-07-22T06:53:02Z</time>
      </trkpt>
      <trkpt lat="43.27589" lon="1.9337">
        <ele>288.9280090332</ele>
        <time>2012-07-22T06:53:10Z</time>
      </trkpt>
      <trkpt lat="43.27575" lon="1.93358">
        <ele>290.4580078125</ele>
        <time>2012-07-22T06:53:19Z</time>
      </trkpt>
      <trkpt lat="43.27562" lon="1.93341">
        <ele>292.14099121094</ele>
        <time>2012-07-22T06:53:29Z</time>
      </trkpt>
      <trkpt lat="43.27551" lon="1.93324">
        <ele>293.97900390625</ele>
        <time>2012-07-22T06:53:38Z</time>
      </trkpt>
      <trkpt lat="43.27544" lon="1.9331">
        <ele>295.41400146484</ele>
        <time>2012-07-22T06:53:45Z</time>
      </trkpt>
      <trkpt lat="43.27534" lon="1.93283">
        <ele>296.8869934082</ele>
        <time>2012-07-22T06:53:57Z</time>
      </trkpt>
      <trkpt lat="43.27529" lon="1.93262">
        <ele>297.76300048828</ele>
        <time>2012-07-22T06:54:06Z</time>
      </trkpt>
      <trkpt lat="43.27528" lon="1.93243">
        <ele>299.20001220703</ele>
        <time>2012-07-22T06:54:15Z</time>
      </trkpt>
      <trkpt lat="43.27526" lon="1.93224">
        <ele>302.33898925781</ele>
        <time>2012-07-22T06:54:24Z</time>
      </trkpt>
      <trkpt lat="43.27524" lon="1.93207">
        <ele>306.44000244141</ele>
        <time>2012-07-22T06:54:32Z</time>
      </trkpt>
      <trkpt lat="43.27523" lon="1.93198">
        <ele>308.56698608398</ele>
        <time>2012-07-22T06:54:36Z</time>
      </trkpt>
      <trkpt lat="43.27524" lon="1.93192">
        <ele>311.33099365234</ele>
        <time>2012-07-22T06:54:42Z</time>
      </trkpt>
      <trkpt lat="43.27524" lon="1.93191">
        <ele>309.95599365234</ele>
        <time>2012-07-22T06:55:46Z</time>
      </trkpt>
      <trkpt lat="43.27524" lon="1.93187">
        <ele>310.6130065918</ele>
        <time>2012-07-22T06:55:50Z</time>
      </trkpt>
      <trkpt lat="43.27523" lon="1.9317">
        <ele>312.17700195312</ele>
        <time>2012-07-22T06:55:58Z</time>
      </trkpt>
      <trkpt lat="43.27522" lon="1.93154">
        <ele>311.51699829102</ele>
        <time>2012-07-22T06:56:04Z</time>
      </trkpt>
      <trkpt lat="43.27514" lon="1.93136">
        <ele>311.14099121094</ele>
        <time>2012-07-22T06:56:11Z</time>
      </trkpt>
      <trkpt lat="43.27499" lon="1.93124">
        <ele>311.5950012207</ele>
        <time>2012-07-22T06:56:17Z</time>
      </trkpt>
      <trkpt lat="43.27478" lon="1.93115">
        <ele>311.70001220703</ele>
        <time>2012-07-22T06:56:24Z</time>
      </trkpt>
      <trkpt lat="43.27475" lon="1.93114">
        <ele>311.50201416016</ele>
        <time>2012-07-22T06:56:25Z</time>
      </trkpt>
      <trkpt lat="43.27444" lon="1.93115">
        <ele>311.43499755859</ele>
        <time>2012-07-22T06:56:33Z</time>
      </trkpt>
      <trkpt lat="43.27438" lon="1.93115">
        <ele>312.31500244141</ele>
        <time>2012-07-22T06:56:35Z</time>
      </trkpt>
      <trkpt lat="43.27418" lon="1.93118">
        <ele>315.06799316406</ele>
        <time>2012-07-22T06:56:42Z</time>
      </trkpt>
      <trkpt lat="43.27408" lon="1.93121">
        <ele>315.19100952148</ele>
        <time>2012-07-22T06:56:47Z</time>
      </trkpt>
      <trkpt lat="43.27401" lon="1.93131">
        <ele>314.01998901367</ele>
        <time>2012-07-22T06:56:52Z</time>
      </trkpt>
      <trkpt lat="43.2739" lon="1.93154">
        <ele>312.79098510742</ele>
        <time>2012-07-22T06:56:56Z</time>
      </trkpt>
      <trkpt lat="43.27372" lon="1.93193">
        <ele>309.54598999023</ele>
        <time>2012-07-22T06:57:01Z</time>
      </trkpt>
      <trkpt lat="43.27368" lon="1.93201">
        <ele>309.10699462891</ele>
        <time>2012-07-22T06:57:02Z</time>
      </trkpt>
      <trkpt lat="43.27349" lon="1.93232">
        <ele>304.3330078125</ele>
        <time>2012-07-22T06:57:06Z</time>
      </trkpt>
      <trkpt lat="43.27338" lon="1.93252">
        <ele>302.64199829102</ele>
        <time>2012-07-22T06:57:08Z</time>
      </trkpt>
      <trkpt lat="43.27326" lon="1.93284">
        <ele>299.76998901367</ele>
        <time>2012-07-22T06:57:12Z</time>
      </trkpt>
      <trkpt lat="43.27325" lon="1.93289">
        <ele>299.50799560547</ele>
        <time>2012-07-22T06:57:13Z</time>
      </trkpt>
      <trkpt lat="43.27324" lon="1.93294">
        <ele>299.08099365234</ele>
        <time>2012-07-22T06:57:14Z</time>
      </trkpt>
      <trkpt lat="43.27312" lon="1.93315">
        <ele>297.75201416016</ele>
        <time>2012-07-22T06:57:18Z</time>
      </trkpt>
      <trkpt lat="43.27298" lon="1.93317">
        <ele>297.85900878906</ele>
        <time>2012-07-22T06:57:21Z</time>
      </trkpt>
      <trkpt lat="43.27294" lon="1.93314">
        <ele>298.32598876953</ele>
        <time>2012-07-22T06:57:23Z</time>
      </trkpt>
      <trkpt lat="43.27288" lon="1.93299">
        <ele>299.70599365234</ele>
        <time>2012-07-22T06:57:31Z</time>
      </trkpt>
      <trkpt lat="43.27282" lon="1.93285">
        <ele>303.43600463867</ele>
        <time>2012-07-22T06:57:39Z</time>
      </trkpt>
      <trkpt lat="43.27282" lon="1.93284">
        <ele>303.66500854492</ele>
        <time>2012-07-22T06:57:40Z</time>
      </trkpt>
      <trkpt lat="43.27281" lon="1.93283">
        <ele>305.0119934082</ele>
        <time>2012-07-22T06:57:46Z</time>
      </trkpt>
      <trkpt lat="43.27277" lon="1.93277">
        <ele>306.35598754883</ele>
        <time>2012-07-22T06:57:59Z</time>
      </trkpt>
      <trkpt lat="43.27276" lon="1.93273">
        <ele>307.11199951172</ele>
        <time>2012-07-22T06:58:06Z</time>
      </trkpt>
      <trkpt lat="43.27268" lon="1.93268">
        <ele>307.89199829102</ele>
        <time>2012-07-22T06:58:12Z</time>
      </trkpt>
      <trkpt lat="43.27252" lon="1.93257">
        <ele>308.41000366211</ele>
        <time>2012-07-22T06:58:21Z</time>
      </trkpt>
      <trkpt lat="43.27241" lon="1.93251">
        <ele>308.08200073242</ele>
        <time>2012-07-22T06:58:27Z</time>
      </trkpt>
      <trkpt lat="43.27224" lon="1.93241">
        <ele>307.64300537109</ele>
        <time>2012-07-22T06:58:32Z</time>
      </trkpt>
      <trkpt lat="43.2722" lon="1.93239">
        <ele>307.53399658203</ele>
        <time>2012-07-22T06:58:33Z</time>
      </trkpt>
      <trkpt lat="43.27202" lon="1.93243">
        <ele>305.78601074219</ele>
        <time>2012-07-22T06:58:37Z</time>
      </trkpt>
      <trkpt lat="43.27197" lon="1.93246">
        <ele>305.52499389648</ele>
        <time>2012-07-22T06:58:38Z</time>
      </trkpt>
      <trkpt lat="43.27187" lon="1.93253">
        <ele>305.01098632812</ele>
        <time>2012-07-22T06:58:40Z</time>
      </trkpt>
      <trkpt lat="43.27173" lon="1.93269">
        <ele>304.46798706055</ele>
        <time>2012-07-22T06:58:43Z</time>
      </trkpt>
      <trkpt lat="43.27161" lon="1.9328">
        <ele>303.94500732422</ele>
        <time>2012-07-22T06:58:45Z</time>
      </trkpt>
      <trkpt lat="43.27146" lon="1.93307">
        <ele>301.25799560547</ele>
        <time>2012-07-22T06:58:49Z</time>
      </trkpt>
      <trkpt lat="43.27139" lon="1.93325">
        <ele>300.17199707031</ele>
        <time>2012-07-22T06:58:51Z</time>
      </trkpt>
      <trkpt lat="43.27135" lon="1.93334">
        <ele>299.38101196289</ele>
        <time>2012-07-22T06:58:52Z</time>
      </trkpt>
      <trkpt lat="43.27124" lon="1.93351">
        <ele>297.68600463867</ele>
        <time>2012-07-22T06:58:55Z</time>
      </trkpt>
      <trkpt lat="43.27097" lon="1.93372">
        <ele>296.85299682617</ele>
        <time>2012-07-22T06:59:00Z</time>
      </trkpt>
      <trkpt lat="43.27079" lon="1.93385">
        <ele>295.86700439453</ele>
        <time>2012-07-22T06:59:03Z</time>
      </trkpt>
      <trkpt lat="43.27066" lon="1.93402">
        <ele>296.9580078125</ele>
        <time>2012-07-22T06:59:08Z</time>
      </trkpt>
      <trkpt lat="43.27064" lon="1.93404">
        <ele>297.03500366211</ele>
        <time>2012-07-22T06:59:09Z</time>
      </trkpt>
      <trkpt lat="43.27045" lon="1.93419">
        <ele>296.67999267578</ele>
        <time>2012-07-22T06:59:17Z</time>
      </trkpt>
      <trkpt lat="43.27035" lon="1.93437">
        <ele>296.54400634766</ele>
        <time>2012-07-22T06:59:23Z</time>
      </trkpt>
      <trkpt lat="43.27031" lon="1.93461">
        <ele>296.95498657227</ele>
        <time>2012-07-22T06:59:30Z</time>
      </trkpt>
      <trkpt lat="43.2703" lon="1.93487">
        <ele>297.15200805664</ele>
        <time>2012-07-22T06:59:38Z</time>
      </trkpt>
      <trkpt lat="43.2703" lon="1.9349">
        <ele>296.85198974609</ele>
        <time>2012-07-22T06:59:41Z</time>
      </trkpt>
      <trkpt lat="43.2703" lon="1.93497">
        <ele>296.35000610352</ele>
        <time>2012-07-22T06:59:48Z</time>
      </trkpt>
      <trkpt lat="43.27029" lon="1.93514">
        <ele>295.83599853516</ele>
        <time>2012-07-22T06:59:52Z</time>
      </trkpt>
      <trkpt lat="43.27019" lon="1.93555">
        <ele>294.23699951172</ele>
        <time>2012-07-22T06:59:57Z</time>
      </trkpt>
      <trkpt lat="43.27014" lon="1.93579">
        <ele>292.98199462891</ele>
        <time>2012-07-22T07:00:00Z</time>
      </trkpt>
      <trkpt lat="43.27007" lon="1.93582">
        <ele>292.19000244141</ele>
        <time>2012-07-22T07:00:06Z</time>
      </trkpt>
      <trkpt lat="43.27003" lon="1.93569">
        <ele>292.93899536133</ele>
        <time>2012-07-22T07:00:11Z</time>
      </trkpt>
      <trkpt lat="43.27003" lon="1.93566">
        <ele>293.32598876953</ele>
        <time>2012-07-22T07:00:12Z</time>
      </trkpt>
      <trkpt lat="43.27" lon="1.93544">
        <ele>297.22601318359</ele>
        <time>2012-07-22T07:00:19Z</time>
      </trkpt>
      <trkpt lat="43.26999" lon="1.93528">
        <ele>299.35000610352</ele>
        <time>2012-07-22T07:00:25Z</time>
      </trkpt>
      <trkpt lat="43.26996" lon="1.93515">
        <ele>300.53201293945</ele>
        <time>2012-07-22T07:00:30Z</time>
      </trkpt>
      <trkpt lat="43.2699" lon="1.93499">
        <ele>302.50500488281</ele>
        <time>2012-07-22T07:00:37Z</time>
      </trkpt>
      <trkpt lat="43.26986" lon="1.93485">
        <ele>304.12298583984</ele>
        <time>2012-07-22T07:00:43Z</time>
      </trkpt>
      <trkpt lat="43.26984" lon="1.9348">
        <ele>304.5</ele>
        <time>2012-07-22T07:00:45Z</time>
      </trkpt>
      <trkpt lat="43.26981" lon="1.93472">
        <ele>305.12799072266</ele>
        <time>2012-07-22T07:00:49Z</time>
      </trkpt>
      <trkpt lat="43.2697" lon="1.93451">
        <ele>306.71899414062</ele>
        <time>2012-07-22T07:00:59Z</time>
      </trkpt>
      <trkpt lat="43.2696" lon="1.93436">
        <ele>308.01800537109</ele>
        <time>2012-07-22T07:01:07Z</time>
      </trkpt>
      <trkpt lat="43.26951" lon="1.93425">
        <ele>308.66299438477</ele>
        <time>2012-07-22T07:01:14Z</time>
      </trkpt>
      <trkpt lat="43.26938" lon="1.93413">
        <ele>310.6549987793</ele>
        <time>2012-07-22T07:01:23Z</time>
      </trkpt>
      <trkpt lat="43.26926" lon="1.93407">
        <ele>312.64599609375</ele>
        <time>2012-07-22T07:01:30Z</time>
      </trkpt>
      <trkpt lat="43.26912" lon="1.93405">
        <ele>314.23901367188</ele>
        <time>2012-07-22T07:01:37Z</time>
      </trkpt>
      <trkpt lat="43.26897" lon="1.93405">
        <ele>315.47900390625</ele>
        <time>2012-07-22T07:01:45Z</time>
      </trkpt>
      <trkpt lat="43.26885" lon="1.93407">
        <ele>315.89498901367</ele>
        <time>2012-07-22T07:01:51Z</time>
      </trkpt>
      <trkpt lat="43.26868" lon="1.93413">
        <ele>315.375</ele>
        <time>2012-07-22T07:01:57Z</time>
      </trkpt>
      <trkpt lat="43.26842" lon="1.9342">
        <ele>314.02700805664</ele>
        <time>2012-07-22T07:02:02Z</time>
      </trkpt>
      <trkpt lat="43.26815" lon="1.93448">
        <ele>311.59899902344</ele>
        <time>2012-07-22T07:02:07Z</time>
      </trkpt>
      <trkpt lat="43.2681" lon="1.93455">
        <ele>311.07299804688</ele>
        <time>2012-07-22T07:02:08Z</time>
      </trkpt>
      <trkpt lat="43.268" lon="1.93468">
        <ele>308.56100463867</ele>
        <time>2012-07-22T07:02:10Z</time>
      </trkpt>
      <trkpt lat="43.26783" lon="1.93485">
        <ele>304.49200439453</ele>
        <time>2012-07-22T07:02:14Z</time>
      </trkpt>
      <trkpt lat="43.2677" lon="1.93471">
        <ele>301.98199462891</ele>
        <time>2012-07-22T07:02:17Z</time>
      </trkpt>
      <trkpt lat="43.26761" lon="1.93448">
        <ele>300.15100097656</ele>
        <time>2012-07-22T07:02:20Z</time>
      </trkpt>
      <trkpt lat="43.26749" lon="1.93423">
        <ele>297.88000488281</ele>
        <time>2012-07-22T07:02:23Z</time>
      </trkpt>
      <trkpt lat="43.26734" lon="1.93398">
        <ele>293.74899291992</ele>
        <time>2012-07-22T07:02:27Z</time>
      </trkpt>
      <trkpt lat="43.26723" lon="1.93386">
        <ele>292.81500244141</ele>
        <time>2012-07-22T07:02:29Z</time>
      </trkpt>
      <trkpt lat="43.26715" lon="1.93373">
        <ele>292.10299682617</ele>
        <time>2012-07-22T07:02:31Z</time>
      </trkpt>
      <trkpt lat="43.26707" lon="1.93352">
        <ele>292.20599365234</ele>
        <time>2012-07-22T07:02:36Z</time>
      </trkpt>
      <trkpt lat="43.26701" lon="1.93333">
        <ele>293.13000488281</ele>
        <time>2012-07-22T07:02:43Z</time>
      </trkpt>
      <trkpt lat="43.26696" lon="1.93311">
        <ele>293.3630065918</ele>
        <time>2012-07-22T07:02:51Z</time>
      </trkpt>
      <trkpt lat="43.26694" lon="1.93286">
        <ele>294.93899536133</ele>
        <time>2012-07-22T07:03:00Z</time>
      </trkpt>
      <trkpt lat="43.26697" lon="1.93261">
        <ele>297.60598754883</ele>
        <time>2012-07-22T07:03:08Z</time>
      </trkpt>
      <trkpt lat="43.267" lon="1.93246">
        <ele>299.80999755859</ele>
        <time>2012-07-22T07:03:13Z</time>
      </trkpt>
      <trkpt lat="43.26704" lon="1.93226">
        <ele>301.56698608398</ele>
        <time>2012-07-22T07:03:20Z</time>
      </trkpt>
      <trkpt lat="43.26699" lon="1.93214">
        <ele>302.45901489258</ele>
        <time>2012-07-22T07:03:25Z</time>
      </trkpt>
      <trkpt lat="43.26689" lon="1.93209">
        <ele>303.70700073242</ele>
        <time>2012-07-22T07:03:30Z</time>
      </trkpt>
      <trkpt lat="43.26677" lon="1.93205">
        <ele>304.59698486328</ele>
        <time>2012-07-22T07:03:36Z</time>
      </trkpt>
      <trkpt lat="43.26663" lon="1.93202">
        <ele>304.4289855957</ele>
        <time>2012-07-22T07:03:42Z</time>
      </trkpt>
      <trkpt lat="43.26644" lon="1.93199">
        <ele>304.95599365234</ele>
        <time>2012-07-22T07:03:49Z</time>
      </trkpt>
      <trkpt lat="43.26631" lon="1.93186">
        <ele>304.94500732422</ele>
        <time>2012-07-22T07:03:54Z</time>
      </trkpt>
      <trkpt lat="43.26625" lon="1.93166">
        <ele>305.48498535156</ele>
        <time>2012-07-22T07:04:00Z</time>
      </trkpt>
      <trkpt lat="43.26621" lon="1.93138">
        <ele>306.11499023438</ele>
        <time>2012-07-22T07:04:09Z</time>
      </trkpt>
      <trkpt lat="43.26617" lon="1.93111">
        <ele>308.2200012207</ele>
        <time>2012-07-22T07:04:18Z</time>
      </trkpt>
      <trkpt lat="43.26616" lon="1.93109">
        <ele>308.42300415039</ele>
        <time>2012-07-22T07:04:19Z</time>
      </trkpt>
      <trkpt lat="43.26611" lon="1.93106">
        <ele>309.13198852539</ele>
        <time>2012-07-22T07:04:24Z</time>
      </trkpt>
      <trkpt lat="43.26612" lon="1.93101">
        <ele>309.48699951172</ele>
        <time>2012-07-22T07:04:28Z</time>
      </trkpt>
      <trkpt lat="43.26613" lon="1.93095">
        <ele>309.59100341797</ele>
        <time>2012-07-22T07:04:33Z</time>
      </trkpt>
      <trkpt lat="43.26612" lon="1.9309">
        <ele>309.71301269531</ele>
        <time>2012-07-22T07:04:35Z</time>
      </trkpt>
      <trkpt lat="43.26608" lon="1.93065">
        <ele>309.48098754883</ele>
        <time>2012-07-22T07:04:44Z</time>
      </trkpt>
      <trkpt lat="43.26602" lon="1.93049">
        <ele>309.55899047852</ele>
        <time>2012-07-22T07:04:50Z</time>
      </trkpt>
      <trkpt lat="43.26595" lon="1.93034">
        <ele>309.89001464844</ele>
        <time>2012-07-22T07:04:57Z</time>
      </trkpt>
      <trkpt lat="43.26583" lon="1.93017">
        <ele>309.98098754883</ele>
        <time>2012-07-22T07:05:05Z</time>
      </trkpt>
      <trkpt lat="43.26571" lon="1.93003">
        <ele>309.82299804688</ele>
        <time>2012-07-22T07:05:12Z</time>
      </trkpt>
      <trkpt lat="43.26555" lon="1.9299">
        <ele>310.20098876953</ele>
        <time>2012-07-22T07:05:20Z</time>
      </trkpt>
      <trkpt lat="43.26544" lon="1.92981">
        <ele>310.69799804688</ele>
        <time>2012-07-22T07:05:26Z</time>
      </trkpt>
      <trkpt lat="43.26537" lon="1.92975">
        <ele>310.9169921875</ele>
        <time>2012-07-22T07:05:30Z</time>
      </trkpt>
      <trkpt lat="43.26524" lon="1.92958">
        <ele>310.53201293945</ele>
        <time>2012-07-22T07:05:38Z</time>
      </trkpt>
      <trkpt lat="43.26521" lon="1.92955">
        <ele>310.34201049805</ele>
        <time>2012-07-22T07:05:39Z</time>
      </trkpt>
      <trkpt lat="43.26502" lon="1.9293">
        <ele>309.16900634766</ele>
        <time>2012-07-22T07:05:45Z</time>
      </trkpt>
      <trkpt lat="43.26489" lon="1.92915">
        <ele>308.95098876953</ele>
        <time>2012-07-22T07:05:48Z</time>
      </trkpt>
      <trkpt lat="43.26458" lon="1.92872">
        <ele>306.26400756836</ele>
        <time>2012-07-22T07:05:55Z</time>
      </trkpt>
      <trkpt lat="43.26437" lon="1.92859">
        <ele>305.37100219727</ele>
        <time>2012-07-22T07:06:00Z</time>
      </trkpt>
      <trkpt lat="43.26434" lon="1.92858">
        <ele>305.40701293945</ele>
        <time>2012-07-22T07:06:01Z</time>
      </trkpt>
      <trkpt lat="43.26412" lon="1.92861">
        <ele>305.57400512695</ele>
        <time>2012-07-22T07:06:08Z</time>
      </trkpt>
      <trkpt lat="43.264" lon="1.92873">
        <ele>306.00100708008</ele>
        <time>2012-07-22T07:06:13Z</time>
      </trkpt>
      <trkpt lat="43.26388" lon="1.92891">
        <ele>305.49700927734</ele>
        <time>2012-07-22T07:06:18Z</time>
      </trkpt>
      <trkpt lat="43.26368" lon="1.929">
        <ele>304.44100952148</ele>
        <time>2012-07-22T07:06:23Z</time>
      </trkpt>
      <trkpt lat="43.26348" lon="1.92884">
        <ele>304.11199951172</ele>
        <time>2012-07-22T07:06:28Z</time>
      </trkpt>
      <trkpt lat="43.2633" lon="1.92863">
        <ele>304.69500732422</ele>
        <time>2012-07-22T07:06:35Z</time>
      </trkpt>
      <trkpt lat="43.26311" lon="1.92835">
        <ele>306.39599609375</ele>
        <time>2012-07-22T07:06:44Z</time>
      </trkpt>
      <trkpt lat="43.26303" lon="1.9281">
        <ele>307.53900146484</ele>
        <time>2012-07-22T07:06:51Z</time>
      </trkpt>
      <trkpt lat="43.26302" lon="1.92773">
        <ele>308.90899658203</ele>
        <time>2012-07-22T07:06:59Z</time>
      </trkpt>
      <trkpt lat="43.26308" lon="1.92737">
        <ele>309.39498901367</ele>
        <time>2012-07-22T07:07:07Z</time>
      </trkpt>
      <trkpt lat="43.26316" lon="1.92706">
        <ele>309.87399291992</ele>
        <time>2012-07-22T07:07:14Z</time>
      </trkpt>
      <trkpt lat="43.26325" lon="1.92678">
        <ele>310.88800048828</ele>
        <time>2012-07-22T07:07:19Z</time>
      </trkpt>
      <trkpt lat="43.26336" lon="1.92642">
        <ele>311.52200317383</ele>
        <time>2012-07-22T07:07:26Z</time>
      </trkpt>
      <trkpt lat="43.26334" lon="1.92624">
        <ele>311.72900390625</ele>
        <time>2012-07-22T07:07:30Z</time>
      </trkpt>
      <trkpt lat="43.26321" lon="1.9261">
        <ele>313.07699584961</ele>
        <time>2012-07-22T07:07:35Z</time>
      </trkpt>
      <trkpt lat="43.26301" lon="1.92598">
        <ele>315.10699462891</ele>
        <time>2012-07-22T07:07:42Z</time>
      </trkpt>
      <trkpt lat="43.26272" lon="1.9258">
        <ele>314.71200561523</ele>
        <time>2012-07-22T07:07:51Z</time>
      </trkpt>
      <trkpt lat="43.26252" lon="1.92567">
        <ele>314.55599975586</ele>
        <time>2012-07-22T07:07:58Z</time>
      </trkpt>
      <trkpt lat="43.26232" lon="1.92554">
        <ele>314.40701293945</ele>
        <time>2012-07-22T07:08:05Z</time>
      </trkpt>
      <trkpt lat="43.262" lon="1.92535">
        <ele>313.93600463867</ele>
        <time>2012-07-22T07:08:14Z</time>
      </trkpt>
      <trkpt lat="43.26171" lon="1.92516">
        <ele>314.01800537109</ele>
        <time>2012-07-22T07:08:22Z</time>
      </trkpt>
      <trkpt lat="43.26156" lon="1.92505">
        <ele>313.60400390625</ele>
        <time>2012-07-22T07:08:27Z</time>
      </trkpt>
      <trkpt lat="43.26134" lon="1.9248">
        <ele>312.97500610352</ele>
        <time>2012-07-22T07:08:33Z</time>
      </trkpt>
      <trkpt lat="43.26114" lon="1.92447">
        <ele>312.26000976562</ele>
        <time>2012-07-22T07:08:39Z</time>
      </trkpt>
      <trkpt lat="43.26101" lon="1.92421">
        <ele>312.99798583984</ele>
        <time>2012-07-22T07:08:45Z</time>
      </trkpt>
      <trkpt lat="43.26096" lon="1.92412">
        <ele>312.87600708008</ele>
        <time>2012-07-22T07:08:47Z</time>
      </trkpt>
      <trkpt lat="43.26065" lon="1.92383">
        <ele>312.11401367188</ele>
        <time>2012-07-22T07:08:54Z</time>
      </trkpt>
      <trkpt lat="43.26055" lon="1.92376">
        <ele>311.83200073242</ele>
        <time>2012-07-22T07:08:56Z</time>
      </trkpt>
      <trkpt lat="43.26037" lon="1.92378">
        <ele>310.85598754883</ele>
        <time>2012-07-22T07:08:59Z</time>
      </trkpt>
      <trkpt lat="43.26033" lon="1.92391">
        <ele>310.00299072266</ele>
        <time>2012-07-22T07:09:01Z</time>
      </trkpt>
      <trkpt lat="43.26032" lon="1.92397">
        <ele>309.73400878906</ele>
        <time>2012-07-22T07:09:02Z</time>
      </trkpt>
      <trkpt lat="43.26031" lon="1.92407">
        <ele>308.51699829102</ele>
        <time>2012-07-22T07:09:04Z</time>
      </trkpt>
      <trkpt lat="43.26022" lon="1.92413">
        <ele>307.75100708008</ele>
        <time>2012-07-22T07:09:08Z</time>
      </trkpt>
      <trkpt lat="43.25991" lon="1.92417">
        <ele>310.25201416016</ele>
        <time>2012-07-22T07:09:17Z</time>
      </trkpt>
      <trkpt lat="43.25953" lon="1.92431">
        <ele>312.32598876953</ele>
        <time>2012-07-22T07:09:28Z</time>
      </trkpt>
      <trkpt lat="43.2593" lon="1.92439">
        <ele>313.88400268555</ele>
        <time>2012-07-22T07:09:34Z</time>
      </trkpt>
      <trkpt lat="43.25906" lon="1.92447">
        <ele>315.24499511719</ele>
        <time>2012-07-22T07:09:40Z</time>
      </trkpt>
      <trkpt lat="43.25886" lon="1.92455">
        <ele>316.15899658203</ele>
        <time>2012-07-22T07:09:46Z</time>
      </trkpt>
      <trkpt lat="43.25848" lon="1.92469">
        <ele>318.57699584961</ele>
        <time>2012-07-22T07:09:57Z</time>
      </trkpt>
      <trkpt lat="43.25813" lon="1.92484">
        <ele>319.7799987793</ele>
        <time>2012-07-22T07:10:07Z</time>
      </trkpt>
      <trkpt lat="43.25779" lon="1.92502">
        <ele>320.04800415039</ele>
        <time>2012-07-22T07:10:16Z</time>
      </trkpt>
      <trkpt lat="43.25748" lon="1.92522">
        <ele>320.04400634766</ele>
        <time>2012-07-22T07:10:25Z</time>
      </trkpt>
      <trkpt lat="43.25725" lon="1.92545">
        <ele>320.62701416016</ele>
        <time>2012-07-22T07:10:32Z</time>
      </trkpt>
      <trkpt lat="43.25703" lon="1.92586">
        <ele>320.42001342773</ele>
        <time>2012-07-22T07:10:40Z</time>
      </trkpt>
      <trkpt lat="43.25678" lon="1.92635">
        <ele>320.80499267578</ele>
        <time>2012-07-22T07:10:49Z</time>
      </trkpt>
      <trkpt lat="43.25654" lon="1.92681">
        <ele>320.71499633789</ele>
        <time>2012-07-22T07:10:58Z</time>
      </trkpt>
      <trkpt lat="43.25632" lon="1.92721">
        <ele>320.42700195312</ele>
        <time>2012-07-22T07:11:06Z</time>
      </trkpt>
      <trkpt lat="43.25614" lon="1.92756">
        <ele>320.59600830078</ele>
        <time>2012-07-22T07:11:14Z</time>
      </trkpt>
      <trkpt lat="43.25587" lon="1.928">
        <ele>321.29098510742</ele>
        <time>2012-07-22T07:11:24Z</time>
      </trkpt>
      <trkpt lat="43.25558" lon="1.92842">
        <ele>321.78900146484</ele>
        <time>2012-07-22T07:11:34Z</time>
      </trkpt>
      <trkpt lat="43.25518" lon="1.92901">
        <ele>321.94198608398</ele>
        <time>2012-07-22T07:11:47Z</time>
      </trkpt>
      <trkpt lat="43.25513" lon="1.92911">
        <ele>321.76599121094</ele>
        <time>2012-07-22T07:11:49Z</time>
      </trkpt>
      <trkpt lat="43.25491" lon="1.92965">
        <ele>321.41598510742</ele>
        <time>2012-07-22T07:11:59Z</time>
      </trkpt>
      <trkpt lat="43.25465" lon="1.93024">
        <ele>321.54598999023</ele>
        <time>2012-07-22T07:12:09Z</time>
      </trkpt>
      <trkpt lat="43.25462" lon="1.9303">
        <ele>321.60299682617</ele>
        <time>2012-07-22T07:12:10Z</time>
      </trkpt>
      <trkpt lat="43.2544" lon="1.93054">
        <ele>321.92300415039</ele>
        <time>2012-07-22T07:12:15Z</time>
      </trkpt>
      <trkpt lat="43.25404" lon="1.93071">
        <ele>323.89199829102</ele>
        <time>2012-07-22T07:12:21Z</time>
      </trkpt>
      <trkpt lat="43.25386" lon="1.93069">
        <ele>324.46798706055</ele>
        <time>2012-07-22T07:12:24Z</time>
      </trkpt>
      <trkpt lat="43.25354" lon="1.93057">
        <ele>326.86700439453</ele>
        <time>2012-07-22T07:12:29Z</time>
      </trkpt>
      <trkpt lat="43.25323" lon="1.93042">
        <ele>327.63101196289</ele>
        <time>2012-07-22T07:12:35Z</time>
      </trkpt>
      <trkpt lat="43.25285" lon="1.93027">
        <ele>329.8219909668</ele>
        <time>2012-07-22T07:12:43Z</time>
      </trkpt>
      <trkpt lat="43.25266" lon="1.93026">
        <ele>330.53799438477</ele>
        <time>2012-07-22T07:12:47Z</time>
      </trkpt>
      <trkpt lat="43.25232" lon="1.93038">
        <ele>331.61599731445</ele>
        <time>2012-07-22T07:12:55Z</time>
      </trkpt>
      <trkpt lat="43.252" lon="1.93061">
        <ele>332.1960144043</ele>
        <time>2012-07-22T07:13:04Z</time>
      </trkpt>
      <trkpt lat="43.25178" lon="1.93089">
        <ele>331.42401123047</ele>
        <time>2012-07-22T07:13:11Z</time>
      </trkpt>
      <trkpt lat="43.25157" lon="1.93123">
        <ele>330.84799194336</ele>
        <time>2012-07-22T07:13:19Z</time>
      </trkpt>
      <trkpt lat="43.25127" lon="1.93172">
        <ele>330.64001464844</ele>
        <time>2012-07-22T07:13:30Z</time>
      </trkpt>
      <trkpt lat="43.251" lon="1.93216">
        <ele>330.89401245117</ele>
        <time>2012-07-22T07:13:40Z</time>
      </trkpt>
      <trkpt lat="43.2508" lon="1.93251">
        <ele>331.46099853516</ele>
        <time>2012-07-22T07:13:48Z</time>
      </trkpt>
      <trkpt lat="43.25055" lon="1.93294">
        <ele>331.9880065918</ele>
        <time>2012-07-22T07:13:57Z</time>
      </trkpt>
      <trkpt lat="43.25052" lon="1.93299">
        <ele>332.04400634766</ele>
        <time>2012-07-22T07:13:58Z</time>
      </trkpt>
      <trkpt lat="43.2504" lon="1.93348">
        <ele>332.63500976562</ele>
        <time>2012-07-22T07:14:06Z</time>
      </trkpt>
      <trkpt lat="43.25024" lon="1.93408">
        <ele>333.97100830078</ele>
        <time>2012-07-22T07:14:16Z</time>
      </trkpt>
      <trkpt lat="43.25011" lon="1.93459">
        <ele>335.88198852539</ele>
        <time>2012-07-22T07:14:25Z</time>
      </trkpt>
      <trkpt lat="43.24998" lon="1.9349">
        <ele>337.51000976562</ele>
        <time>2012-07-22T07:14:32Z</time>
      </trkpt>
      <trkpt lat="43.25002" lon="1.93496">
        <ele>337.85998535156</ele>
        <time>2012-07-22T07:14:36Z</time>
      </trkpt>
      <trkpt lat="43.25006" lon="1.93492">
        <ele>338.17401123047</ele>
        <time>2012-07-22T07:14:38Z</time>
      </trkpt>
      <trkpt lat="43.25025" lon="1.93475">
        <ele>338.37298583984</ele>
        <time>2012-07-22T07:14:44Z</time>
      </trkpt>
      <trkpt lat="43.25037" lon="1.93466">
        <ele>336.58801269531</ele>
        <time>2012-07-22T07:14:48Z</time>
      </trkpt>
      <trkpt lat="43.25039" lon="1.93464">
        <ele>335.01000976562</ele>
        <time>2012-07-22T07:14:51Z</time>
      </trkpt>
      <trkpt lat="43.25039" lon="1.93462">
        <ele>334.66299438477</ele>
        <time>2012-07-22T07:14:54Z</time>
      </trkpt>
      <trkpt lat="43.25039" lon="1.93456">
        <ele>334.78799438477</ele>
        <time>2012-07-22T07:15:01Z</time>
      </trkpt>
      <trkpt lat="43.25039" lon="1.93455">
        <ele>334.74899291992</ele>
        <time>2012-07-22T07:15:02Z</time>
      </trkpt>
      <trkpt lat="43.25053" lon="1.93453">
        <ele>333.43200683594</ele>
        <time>2012-07-22T07:15:08Z</time>
      </trkpt>
      <trkpt lat="43.2506" lon="1.93448">
        <ele>332.35101318359</ele>
        <time>2012-07-22T07:15:10Z</time>
      </trkpt>
      <trkpt lat="43.25071" lon="1.93439">
        <ele>331.18899536133</ele>
        <time>2012-07-22T07:15:12Z</time>
      </trkpt>
      <trkpt lat="43.25104" lon="1.93426">
        <ele>327.72198486328</ele>
        <time>2012-07-22T07:15:16Z</time>
      </trkpt>
      <trkpt lat="43.25142" lon="1.93404">
        <ele>321.72799682617</ele>
        <time>2012-07-22T07:15:21Z</time>
      </trkpt>
      <trkpt lat="43.2515" lon="1.93401">
        <ele>320.21099853516</ele>
        <time>2012-07-22T07:15:22Z</time>
      </trkpt>
      <trkpt lat="43.25166" lon="1.934">
        <ele>317.57501220703</ele>
        <time>2012-07-22T07:15:24Z</time>
      </trkpt>
      <trkpt lat="43.25199" lon="1.93409">
        <ele>311.52700805664</ele>
        <time>2012-07-22T07:15:28Z</time>
      </trkpt>
      <trkpt lat="43.25211" lon="1.93419">
        <ele>310.07501220703</ele>
        <time>2012-07-22T07:15:30Z</time>
      </trkpt>
      <trkpt lat="43.25241" lon="1.93447">
        <ele>306.32598876953</ele>
        <time>2012-07-22T07:15:35Z</time>
      </trkpt>
      <trkpt lat="43.25245" lon="1.93454">
        <ele>301.25201416016</ele>
        <time>2012-07-22T07:15:39Z</time>
      </trkpt>
      <trkpt lat="43.25245" lon="1.93453">
        <ele>300.99099731445</ele>
        <time>2012-07-22T07:15:40Z</time>
      </trkpt>
      <trkpt lat="43.25243" lon="1.93452">
        <ele>301.20901489258</ele>
        <time>2012-07-22T07:15:43Z</time>
      </trkpt>
      <trkpt lat="43.2524" lon="1.93455">
        <ele>301.34799194336</ele>
        <time>2012-07-22T07:15:49Z</time>
      </trkpt>
      <trkpt lat="43.2524" lon="1.93456">
        <ele>301.30700683594</ele>
        <time>2012-07-22T07:15:50Z</time>
      </trkpt>
      <trkpt lat="43.25236" lon="1.93471">
        <ele>300.43600463867</ele>
        <time>2012-07-22T07:15:55Z</time>
      </trkpt>
      <trkpt lat="43.2522" lon="1.9348">
        <ele>298.89401245117</ele>
        <time>2012-07-22T07:15:59Z</time>
      </trkpt>
      <trkpt lat="43.25211" lon="1.93485">
        <ele>297.62701416016</ele>
        <time>2012-07-22T07:16:01Z</time>
      </trkpt>
      <trkpt lat="43.25203" lon="1.935">
        <ele>295.09100341797</ele>
        <time>2012-07-22T07:16:05Z</time>
      </trkpt>
      <trkpt lat="43.25205" lon="1.93509">
        <ele>294.37200927734</ele>
        <time>2012-07-22T07:16:07Z</time>
      </trkpt>
      <trkpt lat="43.25217" lon="1.93514">
        <ele>292.22100830078</ele>
        <time>2012-07-22T07:16:10Z</time>
      </trkpt>
      <trkpt lat="43.25235" lon="1.93518">
        <ele>288.60699462891</ele>
        <time>2012-07-22T07:16:15Z</time>
      </trkpt>
      <trkpt lat="43.25239" lon="1.93518">
        <ele>288.10000610352</ele>
        <time>2012-07-22T07:16:16Z</time>
      </trkpt>
      <trkpt lat="43.25249" lon="1.93514">
        <ele>287.36898803711</ele>
        <time>2012-07-22T07:16:18Z</time>
      </trkpt>
      <trkpt lat="43.2526" lon="1.9351">
        <ele>286.56201171875</ele>
        <time>2012-07-22T07:16:20Z</time>
      </trkpt>
      <trkpt lat="43.25285" lon="1.93495">
        <ele>284.83599853516</ele>
        <time>2012-07-22T07:16:24Z</time>
      </trkpt>
      <trkpt lat="43.25315" lon="1.9349">
        <ele>282.18099975586</ele>
        <time>2012-07-22T07:16:28Z</time>
      </trkpt>
      <trkpt lat="43.25322" lon="1.93494">
        <ele>281.86898803711</ele>
        <time>2012-07-22T07:16:29Z</time>
      </trkpt>
      <trkpt lat="43.25357" lon="1.93506">
        <ele>280.18899536133</ele>
        <time>2012-07-22T07:16:34Z</time>
      </trkpt>
      <trkpt lat="43.25384" lon="1.93503">
        <ele>277.58499145508</ele>
        <time>2012-07-22T07:16:38Z</time>
      </trkpt>
      <trkpt lat="43.25398" lon="1.93502">
        <ele>276.66198730469</ele>
        <time>2012-07-22T07:16:40Z</time>
      </trkpt>
      <trkpt lat="43.25418" lon="1.93508">
        <ele>275.41900634766</ele>
        <time>2012-07-22T07:16:43Z</time>
      </trkpt>
      <trkpt lat="43.25424" lon="1.9351">
        <ele>275.11801147461</ele>
        <time>2012-07-22T07:16:44Z</time>
      </trkpt>
      <trkpt lat="43.25476" lon="1.93538">
        <ele>273.04998779297</ele>
        <time>2012-07-22T07:16:52Z</time>
      </trkpt>
      <trkpt lat="43.2551" lon="1.93554">
        <ele>271.88800048828</ele>
        <time>2012-07-22T07:16:57Z</time>
      </trkpt>
      <trkpt lat="43.25534" lon="1.93575">
        <ele>269.42700195312</ele>
        <time>2012-07-22T07:17:01Z</time>
      </trkpt>
      <trkpt lat="43.25536" lon="1.93581">
        <ele>267.08898925781</ele>
        <time>2012-07-22T07:17:03Z</time>
      </trkpt>
      <trkpt lat="43.25534" lon="1.93588">
        <ele>265.47299194336</ele>
        <time>2012-07-22T07:17:06Z</time>
      </trkpt>
      <trkpt lat="43.25534" lon="1.9359">
        <ele>265.58898925781</ele>
        <time>2012-07-22T07:17:07Z</time>
      </trkpt>
      <trkpt lat="43.2553" lon="1.9361">
        <ele>266.53698730469</ele>
        <time>2012-07-22T07:17:13Z</time>
      </trkpt>
      <trkpt lat="43.25526" lon="1.9364">
        <ele>266.92700195312</ele>
        <time>2012-07-22T07:17:19Z</time>
      </trkpt>
      <trkpt lat="43.25519" lon="1.93687">
        <ele>267.25900268555</ele>
        <time>2012-07-22T07:17:27Z</time>
      </trkpt>
      <trkpt lat="43.25512" lon="1.93725">
        <ele>266.22299194336</ele>
        <time>2012-07-22T07:17:32Z</time>
      </trkpt>
      <trkpt lat="43.25504" lon="1.93765">
        <ele>264.89300537109</ele>
        <time>2012-07-22T07:17:36Z</time>
      </trkpt>
      <trkpt lat="43.25492" lon="1.93809">
        <ele>263.35699462891</ele>
        <time>2012-07-22T07:17:40Z</time>
      </trkpt>
      <trkpt lat="43.25488" lon="1.93831">
        <ele>262.70901489258</ele>
        <time>2012-07-22T07:17:42Z</time>
      </trkpt>
      <trkpt lat="43.25475" lon="1.93877">
        <ele>261.86099243164</ele>
        <time>2012-07-22T07:17:47Z</time>
      </trkpt>
      <trkpt lat="43.25468" lon="1.93924">
        <ele>261.84600830078</ele>
        <time>2012-07-22T07:17:53Z</time>
      </trkpt>
      <trkpt lat="43.25458" lon="1.9398">
        <ele>262.11199951172</ele>
        <time>2012-07-22T07:18:01Z</time>
      </trkpt>
      <trkpt lat="43.25444" lon="1.94034">
        <ele>263.74899291992</ele>
        <time>2012-07-22T07:18:10Z</time>
      </trkpt>
      <trkpt lat="43.25429" lon="1.94094">
        <ele>265.26599121094</ele>
        <time>2012-07-22T07:18:20Z</time>
      </trkpt>
      <trkpt lat="43.25412" lon="1.94111">
        <ele>265.40301513672</ele>
        <time>2012-07-22T07:18:25Z</time>
      </trkpt>
      <trkpt lat="43.25404" lon="1.94103">
        <ele>265.63500976562</ele>
        <time>2012-07-22T07:18:28Z</time>
      </trkpt>
      <trkpt lat="43.25399" lon="1.94082">
        <ele>266.60900878906</ele>
        <time>2012-07-22T07:18:33Z</time>
      </trkpt>
      <trkpt lat="43.25386" lon="1.94049">
        <ele>267.77600097656</ele>
        <time>2012-07-22T07:18:41Z</time>
      </trkpt>
      <trkpt lat="43.25373" lon="1.94026">
        <ele>268.14999389648</ele>
        <time>2012-07-22T07:18:48Z</time>
      </trkpt>
      <trkpt lat="43.25362" lon="1.94008">
        <ele>268.88800048828</ele>
        <time>2012-07-22T07:18:54Z</time>
      </trkpt>
      <trkpt lat="43.25349" lon="1.9399">
        <ele>268.74700927734</ele>
        <time>2012-07-22T07:19:02Z</time>
      </trkpt>
      <trkpt lat="43.25339" lon="1.93987">
        <ele>268.19000244141</ele>
        <time>2012-07-22T07:19:05Z</time>
      </trkpt>
      <trkpt lat="43.25325" lon="1.94003">
        <ele>267.61898803711</ele>
        <time>2012-07-22T07:19:09Z</time>
      </trkpt>
      <trkpt lat="43.25323" lon="1.94028">
        <ele>266.40301513672</ele>
        <time>2012-07-22T07:19:12Z</time>
      </trkpt>
      <trkpt lat="43.25323" lon="1.94039">
        <ele>265.95300292969</ele>
        <time>2012-07-22T07:19:13Z</time>
      </trkpt>
      <trkpt lat="43.25322" lon="1.94088">
        <ele>262.33999633789</ele>
        <time>2012-07-22T07:19:17Z</time>
      </trkpt>
      <trkpt lat="43.25326" lon="1.94133">
        <ele>255.43899536133</ele>
        <time>2012-07-22T07:19:22Z</time>
      </trkpt>
      <trkpt lat="43.25336" lon="1.94149">
        <ele>253.21699523926</ele>
        <time>2012-07-22T07:19:25Z</time>
      </trkpt>
      <trkpt lat="43.25355" lon="1.94154">
        <ele>251.73599243164</ele>
        <time>2012-07-22T07:19:28Z</time>
      </trkpt>
      <trkpt lat="43.25366" lon="1.94169">
        <ele>250.54100036621</ele>
        <time>2012-07-22T07:19:31Z</time>
      </trkpt>
      <trkpt lat="43.25375" lon="1.94202">
        <ele>249.21699523926</ele>
        <time>2012-07-22T07:19:35Z</time>
      </trkpt>
      <trkpt lat="43.25378" lon="1.94233">
        <ele>247.89500427246</ele>
        <time>2012-07-22T07:19:38Z</time>
      </trkpt>
      <trkpt lat="43.25383" lon="1.94253">
        <ele>247.07400512695</ele>
        <time>2012-07-22T07:19:40Z</time>
      </trkpt>
      <trkpt lat="43.25382" lon="1.9428">
        <ele>245.94099426269</ele>
        <time>2012-07-22T07:19:43Z</time>
      </trkpt>
      <trkpt lat="43.2537" lon="1.94315">
        <ele>245.75999450684</ele>
        <time>2012-07-22T07:19:48Z</time>
      </trkpt>
      <trkpt lat="43.25364" lon="1.94361">
        <ele>245.60899353027</ele>
        <time>2012-07-22T07:19:54Z</time>
      </trkpt>
      <trkpt lat="43.25362" lon="1.94409">
        <ele>243.84599304199</ele>
        <time>2012-07-22T07:19:59Z</time>
      </trkpt>
      <trkpt lat="43.25359" lon="1.94439">
        <ele>242.35499572754</ele>
        <time>2012-07-22T07:20:02Z</time>
      </trkpt>
      <trkpt lat="43.25349" lon="1.94478">
        <ele>241.28399658203</ele>
        <time>2012-07-22T07:20:06Z</time>
      </trkpt>
      <trkpt lat="43.25333" lon="1.94508">
        <ele>240.75199890137</ele>
        <time>2012-07-22T07:20:10Z</time>
      </trkpt>
      <trkpt lat="43.25318" lon="1.94517">
        <ele>240.77799987793</ele>
        <time>2012-07-22T07:20:13Z</time>
      </trkpt>
      <trkpt lat="43.25289" lon="1.94522">
        <ele>239.14500427246</ele>
        <time>2012-07-22T07:20:18Z</time>
      </trkpt>
      <trkpt lat="43.25281" lon="1.94535">
        <ele>238.3869934082</ele>
        <time>2012-07-22T07:20:22Z</time>
      </trkpt>
      <trkpt lat="43.25285" lon="1.94546">
        <ele>238.52600097656</ele>
        <time>2012-07-22T07:20:24Z</time>
      </trkpt>
      <trkpt lat="43.25302" lon="1.94595">
        <ele>239.64199829102</ele>
        <time>2012-07-22T07:20:32Z</time>
      </trkpt>
      <trkpt lat="43.25314" lon="1.94626">
        <ele>239.54600524902</ele>
        <time>2012-07-22T07:20:38Z</time>
      </trkpt>
      <trkpt lat="43.25325" lon="1.94665">
        <ele>238.66999816894</ele>
        <time>2012-07-22T07:20:43Z</time>
      </trkpt>
      <trkpt lat="43.25333" lon="1.94715">
        <ele>237.3869934082</ele>
        <time>2012-07-22T07:20:48Z</time>
      </trkpt>
      <trkpt lat="43.25338" lon="1.94757">
        <ele>236.36999511719</ele>
        <time>2012-07-22T07:20:52Z</time>
      </trkpt>
      <trkpt lat="43.25339" lon="1.94807">
        <ele>235.43200683594</ele>
        <time>2012-07-22T07:20:58Z</time>
      </trkpt>
      <trkpt lat="43.25338" lon="1.94826">
        <ele>234.65600585938</ele>
        <time>2012-07-22T07:21:02Z</time>
      </trkpt>
      <trkpt lat="43.25335" lon="1.94846">
        <ele>234.40899658203</ele>
        <time>2012-07-22T07:21:09Z</time>
      </trkpt>
      <trkpt lat="43.25335" lon="1.94847">
        <ele>234.42900085449</ele>
        <time>2012-07-22T07:21:10Z</time>
      </trkpt>
      <trkpt lat="43.25329" lon="1.94863">
        <ele>234.57099914551</ele>
        <time>2012-07-22T07:21:17Z</time>
      </trkpt>
      <trkpt lat="43.25324" lon="1.94886">
        <ele>234.52400207519</ele>
        <time>2012-07-22T07:21:22Z</time>
      </trkpt>
      <trkpt lat="43.25333" lon="1.9491">
        <ele>234.99299621582</ele>
        <time>2012-07-22T07:21:28Z</time>
      </trkpt>
      <trkpt lat="43.25348" lon="1.94935">
        <ele>236.89300537109</ele>
        <time>2012-07-22T07:21:35Z</time>
      </trkpt>
      <trkpt lat="43.25352" lon="1.94953">
        <ele>238.67700195312</ele>
        <time>2012-07-22T07:21:39Z</time>
      </trkpt>
      <trkpt lat="43.25345" lon="1.94971">
        <ele>240.28700256348</ele>
        <time>2012-07-22T07:21:43Z</time>
      </trkpt>
      <trkpt lat="43.2534" lon="1.94986">
        <ele>240.89199829102</ele>
        <time>2012-07-22T07:21:46Z</time>
      </trkpt>
      <trkpt lat="43.25336" lon="1.95023">
        <ele>240.98199462891</ele>
        <time>2012-07-22T07:21:53Z</time>
      </trkpt>
      <trkpt lat="43.25337" lon="1.9505">
        <ele>241.96899414062</ele>
        <time>2012-07-22T07:22:00Z</time>
      </trkpt>
      <trkpt lat="43.25349" lon="1.95066">
        <ele>242.82099914551</ele>
        <time>2012-07-22T07:22:05Z</time>
      </trkpt>
      <trkpt lat="43.25366" lon="1.9507">
        <ele>243.33500671387</ele>
        <time>2012-07-22T07:22:10Z</time>
      </trkpt>
      <trkpt lat="43.25389" lon="1.95076">
        <ele>244.43499755859</ele>
        <time>2012-07-22T07:22:17Z</time>
      </trkpt>
      <trkpt lat="43.25411" lon="1.95102">
        <ele>246.46600341797</ele>
        <time>2012-07-22T07:22:26Z</time>
      </trkpt>
      <trkpt lat="43.25425" lon="1.9513">
        <ele>249.04200744629</ele>
        <time>2012-07-22T07:22:34Z</time>
      </trkpt>
      <trkpt lat="43.25435" lon="1.9516">
        <ele>250.90299987793</ele>
        <time>2012-07-22T07:22:42Z</time>
      </trkpt>
      <trkpt lat="43.25441" lon="1.95203">
        <ele>253.16400146484</ele>
        <time>2012-07-22T07:22:52Z</time>
      </trkpt>
      <trkpt lat="43.25444" lon="1.95241">
        <ele>255.20100402832</ele>
        <time>2012-07-22T07:23:01Z</time>
      </trkpt>
      <trkpt lat="43.25438" lon="1.95266">
        <ele>257.06698608398</ele>
        <time>2012-07-22T07:23:08Z</time>
      </trkpt>
      <trkpt lat="43.25427" lon="1.95279">
        <ele>258.32699584961</ele>
        <time>2012-07-22T07:23:13Z</time>
      </trkpt>
      <trkpt lat="43.25412" lon="1.95294">
        <ele>259.34298706055</ele>
        <time>2012-07-22T07:23:20Z</time>
      </trkpt>
      <trkpt lat="43.25394" lon="1.95319">
        <ele>258.5419921875</ele>
        <time>2012-07-22T07:23:26Z</time>
      </trkpt>
      <trkpt lat="43.25388" lon="1.95328">
        <ele>258.63800048828</ele>
        <time>2012-07-22T07:23:28Z</time>
      </trkpt>
      <trkpt lat="43.25381" lon="1.95344">
        <ele>258.59399414062</ele>
        <time>2012-07-22T07:23:31Z</time>
      </trkpt>
      <trkpt lat="43.2538" lon="1.9537">
        <ele>257.95001220703</ele>
        <time>2012-07-22T07:23:36Z</time>
      </trkpt>
      <trkpt lat="43.25381" lon="1.95375">
        <ele>257.90701293945</ele>
        <time>2012-07-22T07:23:37Z</time>
      </trkpt>
      <trkpt lat="43.25399" lon="1.95416">
        <ele>258.45901489258</ele>
        <time>2012-07-22T07:23:46Z</time>
      </trkpt>
      <trkpt lat="43.25407" lon="1.95443">
        <ele>259.52499389648</ele>
        <time>2012-07-22T07:23:53Z</time>
      </trkpt>
      <trkpt lat="43.25415" lon="1.95476">
        <ele>260.1789855957</ele>
        <time>2012-07-22T07:24:00Z</time>
      </trkpt>
      <trkpt lat="43.25427" lon="1.95516">
        <ele>261.50900268555</ele>
        <time>2012-07-22T07:24:09Z</time>
      </trkpt>
      <trkpt lat="43.2544" lon="1.95555">
        <ele>263.19299316406</ele>
        <time>2012-07-22T07:24:18Z</time>
      </trkpt>
      <trkpt lat="43.25442" lon="1.95576">
        <ele>264.70901489258</ele>
        <time>2012-07-22T07:24:23Z</time>
      </trkpt>
      <trkpt lat="43.25434" lon="1.95609">
        <ele>266.38000488281</ele>
        <time>2012-07-22T07:24:30Z</time>
      </trkpt>
      <trkpt lat="43.25421" lon="1.95639">
        <ele>266.86999511719</ele>
        <time>2012-07-22T07:24:37Z</time>
      </trkpt>
      <trkpt lat="43.25401" lon="1.95661">
        <ele>267.60699462891</ele>
        <time>2012-07-22T07:24:44Z</time>
      </trkpt>
      <trkpt lat="43.25389" lon="1.95684">
        <ele>268.19400024414</ele>
        <time>2012-07-22T07:24:50Z</time>
      </trkpt>
      <trkpt lat="43.25387" lon="1.95694">
        <ele>268.21301269531</ele>
        <time>2012-07-22T07:24:52Z</time>
      </trkpt>
      <trkpt lat="43.25386" lon="1.95735">
        <ele>267.48300170898</ele>
        <time>2012-07-22T07:24:58Z</time>
      </trkpt>
      <trkpt lat="43.25389" lon="1.9576">
        <ele>266.10101318359</ele>
        <time>2012-07-22T07:25:01Z</time>
      </trkpt>
      <trkpt lat="43.25392" lon="1.95774">
        <ele>265.68099975586</ele>
        <time>2012-07-22T07:25:03Z</time>
      </trkpt>
      <trkpt lat="43.25401" lon="1.95798">
        <ele>263.81799316406</ele>
        <time>2012-07-22T07:25:09Z</time>
      </trkpt>
      <trkpt lat="43.25412" lon="1.95805">
        <ele>263.27301025391</ele>
        <time>2012-07-22T07:25:14Z</time>
      </trkpt>
      <trkpt lat="43.25416" lon="1.95807">
        <ele>263.2200012207</ele>
        <time>2012-07-22T07:25:16Z</time>
      </trkpt>
      <trkpt lat="43.25418" lon="1.95811">
        <ele>263.08801269531</ele>
        <time>2012-07-22T07:25:21Z</time>
      </trkpt>
      <trkpt lat="43.25417" lon="1.9581">
        <ele>263.125</ele>
        <time>2012-07-22T07:26:37Z</time>
      </trkpt>
      <trkpt lat="43.25418" lon="1.95818">
        <ele>263.58401489258</ele>
        <time>2012-07-22T07:26:41Z</time>
      </trkpt>
      <trkpt lat="43.25423" lon="1.95845">
        <ele>265.33401489258</ele>
        <time>2012-07-22T07:26:49Z</time>
      </trkpt>
      <trkpt lat="43.25426" lon="1.95861">
        <ele>266.68600463867</ele>
        <time>2012-07-22T07:26:54Z</time>
      </trkpt>
      <trkpt lat="43.25421" lon="1.9587">
        <ele>268.03298950195</ele>
        <time>2012-07-22T07:26:58Z</time>
      </trkpt>
      <trkpt lat="43.25409" lon="1.95877">
        <ele>269.85699462891</ele>
        <time>2012-07-22T07:27:04Z</time>
      </trkpt>
      <trkpt lat="43.25401" lon="1.95868">
        <ele>269.04800415039</ele>
        <time>2012-07-22T07:27:08Z</time>
      </trkpt>
      <trkpt lat="43.25396" lon="1.95852">
        <ele>268.28601074219</ele>
        <time>2012-07-22T07:27:13Z</time>
      </trkpt>
      <trkpt lat="43.25391" lon="1.95838">
        <ele>266.91900634766</ele>
        <time>2012-07-22T07:27:20Z</time>
      </trkpt>
      <trkpt lat="43.25386" lon="1.95826">
        <ele>264.84298706055</ele>
        <time>2012-07-22T07:27:24Z</time>
      </trkpt>
      <trkpt lat="43.2538" lon="1.95817">
        <ele>262.52200317383</ele>
        <time>2012-07-22T07:27:28Z</time>
      </trkpt>
      <trkpt lat="43.25374" lon="1.95816">
        <ele>261.92401123047</ele>
        <time>2012-07-22T07:27:33Z</time>
      </trkpt>
      <trkpt lat="43.25366" lon="1.9581">
        <ele>261.55599975586</ele>
        <time>2012-07-22T07:27:36Z</time>
      </trkpt>
      <trkpt lat="43.25358" lon="1.95807">
        <ele>260.27801513672</ele>
        <time>2012-07-22T07:27:38Z</time>
      </trkpt>
      <trkpt lat="43.25352" lon="1.95818">
        <ele>257.6789855957</ele>
        <time>2012-07-22T07:27:42Z</time>
      </trkpt>
      <trkpt lat="43.25352" lon="1.95852">
        <ele>256.67700195312</ele>
        <time>2012-07-22T07:27:51Z</time>
      </trkpt>
      <trkpt lat="43.25355" lon="1.95892">
        <ele>256.93499755859</ele>
        <time>2012-07-22T07:28:00Z</time>
      </trkpt>
      <trkpt lat="43.25367" lon="1.95919">
        <ele>257.07501220703</ele>
        <time>2012-07-22T07:28:06Z</time>
      </trkpt>
      <trkpt lat="43.2537" lon="1.95924">
        <ele>257.07400512695</ele>
        <time>2012-07-22T07:28:07Z</time>
      </trkpt>
      <trkpt lat="43.25381" lon="1.9595">
        <ele>255.88600158691</ele>
        <time>2012-07-22T07:28:13Z</time>
      </trkpt>
      <trkpt lat="43.25389" lon="1.95965">
        <ele>254.50199890137</ele>
        <time>2012-07-22T07:28:18Z</time>
      </trkpt>
      <trkpt lat="43.25389" lon="1.95967">
        <ele>254.40600585938</ele>
        <time>2012-07-22T07:28:19Z</time>
      </trkpt>
      <trkpt lat="43.2538" lon="1.95966">
        <ele>253.75399780273</ele>
        <time>2012-07-22T07:28:24Z</time>
      </trkpt>
      <trkpt lat="43.2536" lon="1.95975">
        <ele>251.78300476074</ele>
        <time>2012-07-22T07:28:29Z</time>
      </trkpt>
      <trkpt lat="43.25338" lon="1.9601">
        <ele>246.90299987793</ele>
        <time>2012-07-22T07:28:33Z</time>
      </trkpt>
      <trkpt lat="43.25333" lon="1.96018">
        <ele>245.90699768066</ele>
        <time>2012-07-22T07:28:34Z</time>
      </trkpt>
      <trkpt lat="43.25319" lon="1.96056">
        <ele>238.5119934082</ele>
        <time>2012-07-22T07:28:38Z</time>
      </trkpt>
      <trkpt lat="43.25312" lon="1.96083">
        <ele>234.1609954834</ele>
        <time>2012-07-22T07:28:41Z</time>
      </trkpt>
      <trkpt lat="43.25312" lon="1.96133">
        <ele>228.95399475098</ele>
        <time>2012-07-22T07:28:45Z</time>
      </trkpt>
      <trkpt lat="43.25325" lon="1.96202">
        <ele>221.23500061035</ele>
        <time>2012-07-22T07:28:50Z</time>
      </trkpt>
      <trkpt lat="43.25332" lon="1.96222">
        <ele>218.86099243164</ele>
        <time>2012-07-22T07:28:52Z</time>
      </trkpt>
      <trkpt lat="43.25344" lon="1.96244">
        <ele>214.62699890137</ele>
        <time>2012-07-22T07:28:56Z</time>
      </trkpt>
      <trkpt lat="43.25346" lon="1.96247">
        <ele>214.34100341797</ele>
        <time>2012-07-22T07:28:57Z</time>
      </trkpt>
      <trkpt lat="43.25348" lon="1.96253">
        <ele>214.21699523926</ele>
        <time>2012-07-22T07:29:02Z</time>
      </trkpt>
      <trkpt lat="43.25345" lon="1.96246">
        <ele>214.66499328613</ele>
        <time>2012-07-22T07:29:07Z</time>
      </trkpt>
      <trkpt lat="43.25341" lon="1.96239">
        <ele>214.75100708008</ele>
        <time>2012-07-22T07:29:09Z</time>
      </trkpt>
      <trkpt lat="43.25336" lon="1.96232">
        <ele>214.55200195312</ele>
        <time>2012-07-22T07:29:11Z</time>
      </trkpt>
      <trkpt lat="43.25312" lon="1.96218">
        <ele>213.72700500488</ele>
        <time>2012-07-22T07:29:16Z</time>
      </trkpt>
      <trkpt lat="43.25276" lon="1.96204">
        <ele>212.72900390625</ele>
        <time>2012-07-22T07:29:22Z</time>
      </trkpt>
      <trkpt lat="43.25273" lon="1.96204">
        <ele>212.49699401856</ele>
        <time>2012-07-22T07:29:23Z</time>
      </trkpt>
      <trkpt lat="43.25266" lon="1.96218">
        <ele>210.33700561523</ele>
        <time>2012-07-22T07:29:27Z</time>
      </trkpt>
      <trkpt lat="43.25267" lon="1.96226">
        <ele>210.1609954834</ele>
        <time>2012-07-22T07:29:29Z</time>
      </trkpt>
      <trkpt lat="43.25279" lon="1.96258">
        <ele>210.90899658203</ele>
        <time>2012-07-22T07:29:37Z</time>
      </trkpt>
      <trkpt lat="43.25281" lon="1.9628">
        <ele>211.7559967041</ele>
        <time>2012-07-22T07:29:42Z</time>
      </trkpt>
      <trkpt lat="43.25283" lon="1.96315">
        <ele>212.54299926758</ele>
        <time>2012-07-22T07:29:49Z</time>
      </trkpt>
      <trkpt lat="43.25291" lon="1.96345">
        <ele>212.78500366211</ele>
        <time>2012-07-22T07:29:56Z</time>
      </trkpt>
      <trkpt lat="43.25296" lon="1.9638">
        <ele>213.17700195312</ele>
        <time>2012-07-22T07:30:03Z</time>
      </trkpt>
      <trkpt lat="43.25293" lon="1.96416">
        <ele>213.94999694824</ele>
        <time>2012-07-22T07:30:11Z</time>
      </trkpt>
      <trkpt lat="43.25288" lon="1.96452">
        <ele>214.53900146484</ele>
        <time>2012-07-22T07:30:20Z</time>
      </trkpt>
      <trkpt lat="43.25287" lon="1.96484">
        <ele>214.85000610352</ele>
        <time>2012-07-22T07:30:28Z</time>
      </trkpt>
      <trkpt lat="43.2528" lon="1.965">
        <ele>215.33099365234</ele>
        <time>2012-07-22T07:30:33Z</time>
      </trkpt>
      <trkpt lat="43.25266" lon="1.96504">
        <ele>217.04400634766</ele>
        <time>2012-07-22T07:30:38Z</time>
      </trkpt>
      <trkpt lat="43.25247" lon="1.96501">
        <ele>218.99699401856</ele>
        <time>2012-07-22T07:30:45Z</time>
      </trkpt>
      <trkpt lat="43.25226" lon="1.96497">
        <ele>220.81300354004</ele>
        <time>2012-07-22T07:30:53Z</time>
      </trkpt>
      <trkpt lat="43.25204" lon="1.96493">
        <ele>221.71299743652</ele>
        <time>2012-07-22T07:31:01Z</time>
      </trkpt>
      <trkpt lat="43.2519" lon="1.96491">
        <ele>222.93800354004</ele>
        <time>2012-07-22T07:31:07Z</time>
      </trkpt>
      <trkpt lat="43.25172" lon="1.96488">
        <ele>224.33099365234</ele>
        <time>2012-07-22T07:31:15Z</time>
      </trkpt>
      <trkpt lat="43.25158" lon="1.96486">
        <ele>225.82400512695</ele>
        <time>2012-07-22T07:31:22Z</time>
      </trkpt>
      <trkpt lat="43.25145" lon="1.96484">
        <ele>226.89399719238</ele>
        <time>2012-07-22T07:31:28Z</time>
      </trkpt>
      <trkpt lat="43.25131" lon="1.96476">
        <ele>228.23100280762</ele>
        <time>2012-07-22T07:31:35Z</time>
      </trkpt>
      <trkpt lat="43.25127" lon="1.96461">
        <ele>229.67199707031</ele>
        <time>2012-07-22T07:31:41Z</time>
      </trkpt>
      <trkpt lat="43.25127" lon="1.96439">
        <ele>231.53100585938</ele>
        <time>2012-07-22T07:31:48Z</time>
      </trkpt>
      <trkpt lat="43.25121" lon="1.96418">
        <ele>232.61099243164</ele>
        <time>2012-07-22T07:31:55Z</time>
      </trkpt>
      <trkpt lat="43.25111" lon="1.96415">
        <ele>232.78199768066</ele>
        <time>2012-07-22T07:31:59Z</time>
      </trkpt>
      <trkpt lat="43.25094" lon="1.96426">
        <ele>233.58799743652</ele>
        <time>2012-07-22T07:32:06Z</time>
      </trkpt>
      <trkpt lat="43.25084" lon="1.96437">
        <ele>235.16000366211</ele>
        <time>2012-07-22T07:32:12Z</time>
      </trkpt>
      <trkpt lat="43.25072" lon="1.96455">
        <ele>237.83999633789</ele>
        <time>2012-07-22T07:32:21Z</time>
      </trkpt>
      <trkpt lat="43.25062" lon="1.96467">
        <ele>240.02499389648</ele>
        <time>2012-07-22T07:32:28Z</time>
      </trkpt>
      <trkpt lat="43.2505" lon="1.96482">
        <ele>241.97999572754</ele>
        <time>2012-07-22T07:32:36Z</time>
      </trkpt>
      <trkpt lat="43.25038" lon="1.96497">
        <ele>243.85899353027</ele>
        <time>2012-07-22T07:32:44Z</time>
      </trkpt>
      <trkpt lat="43.25026" lon="1.96516">
        <ele>244.54499816894</ele>
        <time>2012-07-22T07:32:52Z</time>
      </trkpt>
      <trkpt lat="43.25011" lon="1.96542">
        <ele>245.28999328613</ele>
        <time>2012-07-22T07:33:02Z</time>
      </trkpt>
      <trkpt lat="43.24997" lon="1.96565">
        <ele>245.06300354004</ele>
        <time>2012-07-22T07:33:09Z</time>
      </trkpt>
      <trkpt lat="43.24977" lon="1.96592">
        <ele>245.19599914551</ele>
        <time>2012-07-22T07:33:17Z</time>
      </trkpt>
      <trkpt lat="43.24965" lon="1.96594">
        <ele>245.46200561523</ele>
        <time>2012-07-22T07:33:21Z</time>
      </trkpt>
      <trkpt lat="43.24949" lon="1.96587">
        <ele>246.49200439453</ele>
        <time>2012-07-22T07:33:27Z</time>
      </trkpt>
      <trkpt lat="43.24934" lon="1.96592">
        <ele>246.81100463867</ele>
        <time>2012-07-22T07:33:32Z</time>
      </trkpt>
      <trkpt lat="43.24925" lon="1.96625">
        <ele>245.84599304199</ele>
        <time>2012-07-22T07:33:37Z</time>
      </trkpt>
      <trkpt lat="43.24926" lon="1.96642">
        <ele>245.64599609375</ele>
        <time>2012-07-22T07:33:39Z</time>
      </trkpt>
      <trkpt lat="43.24931" lon="1.96694">
        <ele>244.16499328613</ele>
        <time>2012-07-22T07:33:45Z</time>
      </trkpt>
      <trkpt lat="43.24925" lon="1.96741">
        <ele>242.46800231934</ele>
        <time>2012-07-22T07:33:50Z</time>
      </trkpt>
      <trkpt lat="43.24912" lon="1.96771">
        <ele>239.95899963379</ele>
        <time>2012-07-22T07:33:53Z</time>
      </trkpt>
      <trkpt lat="43.24905" lon="1.96801">
        <ele>234.53300476074</ele>
        <time>2012-07-22T07:33:57Z</time>
      </trkpt>
      <trkpt lat="43.24905" lon="1.96812">
        <ele>231.29499816894</ele>
        <time>2012-07-22T07:34:01Z</time>
      </trkpt>
      <trkpt lat="43.24905" lon="1.96813">
        <ele>231.21800231934</ele>
        <time>2012-07-22T07:34:05Z</time>
      </trkpt>
      <trkpt lat="43.24903" lon="1.96815">
        <ele>231.25900268555</ele>
        <time>2012-07-22T07:35:00Z</time>
      </trkpt>
      <trkpt lat="43.24904" lon="1.96831">
        <ele>231.04800415039</ele>
        <time>2012-07-22T07:35:06Z</time>
      </trkpt>
      <trkpt lat="43.24911" lon="1.9685">
        <ele>230.42500305176</ele>
        <time>2012-07-22T07:35:11Z</time>
      </trkpt>
      <trkpt lat="43.24924" lon="1.96865">
        <ele>229.21600341797</ele>
        <time>2012-07-22T07:35:16Z</time>
      </trkpt>
      <trkpt lat="43.24934" lon="1.96871">
        <ele>228.67900085449</ele>
        <time>2012-07-22T07:35:19Z</time>
      </trkpt>
      <trkpt lat="43.24964" lon="1.96883">
        <ele>227.43499755859</ele>
        <time>2012-07-22T07:35:25Z</time>
      </trkpt>
      <trkpt lat="43.25003" lon="1.96899">
        <ele>224.60000610352</ele>
        <time>2012-07-22T07:35:31Z</time>
      </trkpt>
      <trkpt lat="43.2502" lon="1.96905">
        <ele>222.56199645996</ele>
        <time>2012-07-22T07:35:34Z</time>
      </trkpt>
      <trkpt lat="43.25033" lon="1.9692">
        <ele>219.17500305176</ele>
        <time>2012-07-22T07:35:38Z</time>
      </trkpt>
      <trkpt lat="43.25033" lon="1.96934">
        <ele>218.45399475098</ele>
        <time>2012-07-22T07:35:40Z</time>
      </trkpt>
      <trkpt lat="43.25032" lon="1.9695">
        <ele>217.74200439453</ele>
        <time>2012-07-22T07:35:42Z</time>
      </trkpt>
      <trkpt lat="43.25032" lon="1.96993">
        <ele>215.55000305176</ele>
        <time>2012-07-22T07:35:47Z</time>
      </trkpt>
      <trkpt lat="43.25041" lon="1.97002">
        <ele>214.30999755859</ele>
        <time>2012-07-22T07:35:49Z</time>
      </trkpt>
      <trkpt lat="43.25047" lon="1.97003">
        <ele>214.08299255371</ele>
        <time>2012-07-22T07:35:50Z</time>
      </trkpt>
      <trkpt lat="43.25052" lon="1.97003">
        <ele>213.82600402832</ele>
        <time>2012-07-22T07:35:51Z</time>
      </trkpt>
      <trkpt lat="43.25086" lon="1.97002">
        <ele>216.03199768066</ele>
        <time>2012-07-22T07:35:58Z</time>
      </trkpt>
      <trkpt lat="43.25118" lon="1.9701">
        <ele>217.28999328613</ele>
        <time>2012-07-22T07:36:05Z</time>
      </trkpt>
      <trkpt lat="43.25141" lon="1.97019">
        <ele>216.42900085449</ele>
        <time>2012-07-22T07:36:09Z</time>
      </trkpt>
      <trkpt lat="43.25164" lon="1.97038">
        <ele>214.83799743652</ele>
        <time>2012-07-22T07:36:14Z</time>
      </trkpt>
      <trkpt lat="43.25172" lon="1.97062">
        <ele>212.75799560547</ele>
        <time>2012-07-22T07:36:17Z</time>
      </trkpt>
      <trkpt lat="43.25171" lon="1.97101">
        <ele>210.29400634766</ele>
        <time>2012-07-22T07:36:21Z</time>
      </trkpt>
      <trkpt lat="43.25169" lon="1.97159">
        <ele>205.66200256348</ele>
        <time>2012-07-22T07:36:26Z</time>
      </trkpt>
      <trkpt lat="43.25184" lon="1.97178">
        <ele>203.05400085449</ele>
        <time>2012-07-22T07:36:29Z</time>
      </trkpt>
      <trkpt lat="43.252" lon="1.97195">
        <ele>201.6130065918</ele>
        <time>2012-07-22T07:36:32Z</time>
      </trkpt>
      <trkpt lat="43.25201" lon="1.97203">
        <ele>200.89100646973</ele>
        <time>2012-07-22T07:36:33Z</time>
      </trkpt>
      <trkpt lat="43.252" lon="1.97234">
        <ele>199.36999511719</ele>
        <time>2012-07-22T07:36:38Z</time>
      </trkpt>
      <trkpt lat="43.25193" lon="1.97246">
        <ele>200.07699584961</ele>
        <time>2012-07-22T07:36:42Z</time>
      </trkpt>
      <trkpt lat="43.25175" lon="1.97263">
        <ele>201.85800170898</ele>
        <time>2012-07-22T07:36:50Z</time>
      </trkpt>
      <trkpt lat="43.25157" lon="1.97274">
        <ele>202.95300292969</ele>
        <time>2012-07-22T07:36:56Z</time>
      </trkpt>
      <trkpt lat="43.25137" lon="1.97288">
        <ele>204.95899963379</ele>
        <time>2012-07-22T07:37:03Z</time>
      </trkpt>
      <trkpt lat="43.2512" lon="1.97304">
        <ele>207.21499633789</ele>
        <time>2012-07-22T07:37:10Z</time>
      </trkpt>
      <trkpt lat="43.25104" lon="1.97326">
        <ele>209.17199707031</ele>
        <time>2012-07-22T07:37:18Z</time>
      </trkpt>
      <trkpt lat="43.25096" lon="1.97354">
        <ele>210.41799926758</ele>
        <time>2012-07-22T07:37:25Z</time>
      </trkpt>
      <trkpt lat="43.25093" lon="1.97386">
        <ele>211.22900390625</ele>
        <time>2012-07-22T07:37:33Z</time>
      </trkpt>
      <trkpt lat="43.25089" lon="1.9742">
        <ele>212.33599853516</ele>
        <time>2012-07-22T07:37:42Z</time>
      </trkpt>
      <trkpt lat="43.25085" lon="1.9745">
        <ele>213.15899658203</ele>
        <time>2012-07-22T07:37:50Z</time>
      </trkpt>
      <trkpt lat="43.25075" lon="1.97479">
        <ele>213.43699645996</ele>
        <time>2012-07-22T07:37:58Z</time>
      </trkpt>
      <trkpt lat="43.25063" lon="1.97505">
        <ele>212.96000671387</ele>
        <time>2012-07-22T07:38:05Z</time>
      </trkpt>
      <trkpt lat="43.2505" lon="1.9753">
        <ele>212.61799621582</ele>
        <time>2012-07-22T07:38:11Z</time>
      </trkpt>
      <trkpt lat="43.25031" lon="1.97564">
        <ele>212.42799377441</ele>
        <time>2012-07-22T07:38:19Z</time>
      </trkpt>
      <trkpt lat="43.25006" lon="1.9761">
        <ele>211.48500061035</ele>
        <time>2012-07-22T07:38:29Z</time>
      </trkpt>
      <trkpt lat="43.24992" lon="1.97645">
        <ele>210.71899414062</ele>
        <time>2012-07-22T07:38:34Z</time>
      </trkpt>
      <trkpt lat="43.2497" lon="1.97687">
        <ele>209.16900634766</ele>
        <time>2012-07-22T07:38:39Z</time>
      </trkpt>
      <trkpt lat="43.24939" lon="1.97727">
        <ele>207.71800231934</ele>
        <time>2012-07-22T07:38:44Z</time>
      </trkpt>
      <trkpt lat="43.24902" lon="1.97755">
        <ele>206.3869934082</ele>
        <time>2012-07-22T07:38:49Z</time>
      </trkpt>
      <trkpt lat="43.24866" lon="1.97786">
        <ele>207.65299987793</ele>
        <time>2012-07-22T07:38:54Z</time>
      </trkpt>
      <trkpt lat="43.2484" lon="1.97822">
        <ele>208.69900512695</ele>
        <time>2012-07-22T07:38:59Z</time>
      </trkpt>
      <trkpt lat="43.24803" lon="1.97874">
        <ele>207.95399475098</ele>
        <time>2012-07-22T07:39:07Z</time>
      </trkpt>
      <trkpt lat="43.24768" lon="1.97927">
        <ele>206.8390045166</ele>
        <time>2012-07-22T07:39:15Z</time>
      </trkpt>
      <trkpt lat="43.24759" lon="1.9794">
        <ele>206.58000183106</ele>
        <time>2012-07-22T07:39:17Z</time>
      </trkpt>
      <trkpt lat="43.24738" lon="1.97976">
        <ele>206.70700073242</ele>
        <time>2012-07-22T07:39:24Z</time>
      </trkpt>
      <trkpt lat="43.24733" lon="1.97985">
        <ele>206.35800170898</ele>
        <time>2012-07-22T07:39:26Z</time>
      </trkpt>
      <trkpt lat="43.24731" lon="1.98008">
        <ele>205.35699462891</ele>
        <time>2012-07-22T07:39:30Z</time>
      </trkpt>
      <trkpt lat="43.24725" lon="1.98042">
        <ele>201.78199768066</ele>
        <time>2012-07-22T07:39:35Z</time>
      </trkpt>
      <trkpt lat="43.24722" lon="1.98054">
        <ele>199.05499267578</ele>
        <time>2012-07-22T07:39:38Z</time>
      </trkpt>
      <trkpt lat="43.2472" lon="1.98067">
        <ele>197.45500183106</ele>
        <time>2012-07-22T07:39:43Z</time>
      </trkpt>
      <trkpt lat="43.24718" lon="1.98072">
        <ele>197.23199462891</ele>
        <time>2012-07-22T07:39:44Z</time>
      </trkpt>
      <trkpt lat="43.24707" lon="1.981">
        <ele>194.69799804688</ele>
        <time>2012-07-22T07:39:49Z</time>
      </trkpt>
      <trkpt lat="43.24703" lon="1.98118">
        <ele>192.09399414062</ele>
        <time>2012-07-22T07:39:53Z</time>
      </trkpt>
      <trkpt lat="43.24711" lon="1.98132">
        <ele>191.32400512695</ele>
        <time>2012-07-22T07:39:57Z</time>
      </trkpt>
      <trkpt lat="43.24714" lon="1.98135">
        <ele>191.32099914551</ele>
        <time>2012-07-22T07:39:58Z</time>
      </trkpt>
      <trkpt lat="43.24717" lon="1.98156">
        <ele>190.82400512695</ele>
        <time>2012-07-22T07:40:02Z</time>
      </trkpt>
      <trkpt lat="43.24703" lon="1.98215">
        <ele>186.38000488281</ele>
        <time>2012-07-22T07:40:09Z</time>
      </trkpt>
      <trkpt lat="43.24702" lon="1.98221">
        <ele>185.39999389648</ele>
        <time>2012-07-22T07:40:10Z</time>
      </trkpt>
      <trkpt lat="43.24692" lon="1.9823">
        <ele>182.71200561523</ele>
        <time>2012-07-22T07:40:15Z</time>
      </trkpt>
      <trkpt lat="43.24686" lon="1.98233">
        <ele>182.79699707031</ele>
        <time>2012-07-22T07:40:17Z</time>
      </trkpt>
      <trkpt lat="43.24676" lon="1.9824">
        <ele>183.56199645996</ele>
        <time>2012-07-22T07:40:22Z</time>
      </trkpt>
      <trkpt lat="43.2467" lon="1.98244">
        <ele>184.60200500488</ele>
        <time>2012-07-22T07:40:26Z</time>
      </trkpt>
      <trkpt lat="43.24663" lon="1.98252">
        <ele>185.78999328613</ele>
        <time>2012-07-22T07:40:31Z</time>
      </trkpt>
      <trkpt lat="43.24656" lon="1.98271">
        <ele>188.46699523926</ele>
        <time>2012-07-22T07:40:37Z</time>
      </trkpt>
      <trkpt lat="43.24651" lon="1.98289">
        <ele>190.46099853516</ele>
        <time>2012-07-22T07:40:43Z</time>
      </trkpt>
      <trkpt lat="43.24648" lon="1.98305">
        <ele>191.05999755859</ele>
        <time>2012-07-22T07:40:49Z</time>
      </trkpt>
      <trkpt lat="43.24645" lon="1.98314">
        <ele>191.59800720215</ele>
        <time>2012-07-22T07:40:53Z</time>
      </trkpt>
      <trkpt lat="43.24633" lon="1.98317">
        <ele>192.70399475098</ele>
        <time>2012-07-22T07:40:59Z</time>
      </trkpt>
      <trkpt lat="43.2462" lon="1.98317">
        <ele>193.81500244141</ele>
        <time>2012-07-22T07:41:06Z</time>
      </trkpt>
      <trkpt lat="43.24606" lon="1.98319">
        <ele>194.93400573731</ele>
        <time>2012-07-22T07:41:14Z</time>
      </trkpt>
      <trkpt lat="43.2459" lon="1.98322">
        <ele>196.29100036621</ele>
        <time>2012-07-22T07:41:22Z</time>
      </trkpt>
      <trkpt lat="43.24576" lon="1.9832">
        <ele>197.94900512695</ele>
        <time>2012-07-22T07:41:29Z</time>
      </trkpt>
      <trkpt lat="43.2456" lon="1.98318">
        <ele>199.58999633789</ele>
        <time>2012-07-22T07:41:37Z</time>
      </trkpt>
      <trkpt lat="43.24546" lon="1.98316">
        <ele>201.37800598144</ele>
        <time>2012-07-22T07:41:45Z</time>
      </trkpt>
      <trkpt lat="43.24532" lon="1.98314">
        <ele>203.56300354004</ele>
        <time>2012-07-22T07:41:53Z</time>
      </trkpt>
      <trkpt lat="43.24518" lon="1.98313">
        <ele>204.45500183106</ele>
        <time>2012-07-22T07:42:00Z</time>
      </trkpt>
      <trkpt lat="43.245" lon="1.98312">
        <ele>205.96800231934</ele>
        <time>2012-07-22T07:42:09Z</time>
      </trkpt>
      <trkpt lat="43.24482" lon="1.98304">
        <ele>209.0890045166</ele>
        <time>2012-07-22T07:42:18Z</time>
      </trkpt>
      <trkpt lat="43.24472" lon="1.98299">
        <ele>210.74699401856</ele>
        <time>2012-07-22T07:42:24Z</time>
      </trkpt>
      <trkpt lat="43.24458" lon="1.98292">
        <ele>213.10699462891</ele>
        <time>2012-07-22T07:42:32Z</time>
      </trkpt>
      <trkpt lat="43.24443" lon="1.98285">
        <ele>215.09599304199</ele>
        <time>2012-07-22T07:42:41Z</time>
      </trkpt>
      <trkpt lat="43.2443" lon="1.98278">
        <ele>216.83099365234</ele>
        <time>2012-07-22T07:42:49Z</time>
      </trkpt>
      <trkpt lat="43.24416" lon="1.98271">
        <ele>218.54100036621</ele>
        <time>2012-07-22T07:42:58Z</time>
      </trkpt>
      <trkpt lat="43.24405" lon="1.98266">
        <ele>219.00900268555</ele>
        <time>2012-07-22T07:43:07Z</time>
      </trkpt>
      <trkpt lat="43.24402" lon="1.98265">
        <ele>219.04699707031</ele>
        <time>2012-07-22T07:43:09Z</time>
      </trkpt>
      <trkpt lat="43.24398" lon="1.98263">
        <ele>219.30599975586</ele>
        <time>2012-07-22T07:43:13Z</time>
      </trkpt>
      <trkpt lat="43.24391" lon="1.9826">
        <ele>219.69099426269</ele>
        <time>2012-07-22T07:43:19Z</time>
      </trkpt>
      <trkpt lat="43.24388" lon="1.98259">
        <ele>219.83399963379</ele>
        <time>2012-07-22T07:43:22Z</time>
      </trkpt>
      <trkpt lat="43.24387" lon="1.98257">
        <ele>219.85499572754</ele>
        <time>2012-07-22T07:43:24Z</time>
      </trkpt>
      <trkpt lat="43.24383" lon="1.98256">
        <ele>219.9880065918</ele>
        <time>2012-07-22T07:43:31Z</time>
      </trkpt>
      <trkpt lat="43.24382" lon="1.98256">
        <ele>219.92599487305</ele>
        <time>2012-07-22T07:43:41Z</time>
      </trkpt>
      <trkpt lat="43.24378" lon="1.98254">
        <ele>219.92399597168</ele>
        <time>2012-07-22T07:43:48Z</time>
      </trkpt>
      <trkpt lat="43.24373" lon="1.98252">
        <ele>220.35800170898</ele>
        <time>2012-07-22T07:47:23Z</time>
      </trkpt>
      <trkpt lat="43.24364" lon="1.98247">
        <ele>220.42500305176</ele>
        <time>2012-07-22T07:47:29Z</time>
      </trkpt>
      <trkpt lat="43.24353" lon="1.98238">
        <ele>220.45700073242</ele>
        <time>2012-07-22T07:47:35Z</time>
      </trkpt>
      <trkpt lat="43.24341" lon="1.98226">
        <ele>220.53700256348</ele>
        <time>2012-07-22T07:47:41Z</time>
      </trkpt>
      <trkpt lat="43.24323" lon="1.98209">
        <ele>220.20399475098</ele>
        <time>2012-07-22T07:47:49Z</time>
      </trkpt>
      <trkpt lat="43.24292" lon="1.98185">
        <ele>219.79600524902</ele>
        <time>2012-07-22T07:47:59Z</time>
      </trkpt>
      <trkpt lat="43.24264" lon="1.98164">
        <ele>219.79200744629</ele>
        <time>2012-07-22T07:48:07Z</time>
      </trkpt>
      <trkpt lat="43.24235" lon="1.98133">
        <ele>220.12300109863</ele>
        <time>2012-07-22T07:48:16Z</time>
      </trkpt>
      <trkpt lat="43.24218" lon="1.98112">
        <ele>220.65899658203</ele>
        <time>2012-07-22T07:48:22Z</time>
      </trkpt>
      <trkpt lat="43.24199" lon="1.98088">
        <ele>220.42599487305</ele>
        <time>2012-07-22T07:48:29Z</time>
      </trkpt>
      <trkpt lat="43.24182" lon="1.98057">
        <ele>219.85400390625</ele>
        <time>2012-07-22T07:48:36Z</time>
      </trkpt>
      <trkpt lat="43.24165" lon="1.98022">
        <ele>219.32099914551</ele>
        <time>2012-07-22T07:48:43Z</time>
      </trkpt>
      <trkpt lat="43.24146" lon="1.97993">
        <ele>218.89799499512</ele>
        <time>2012-07-22T07:48:50Z</time>
      </trkpt>
      <trkpt lat="43.2413" lon="1.97971">
        <ele>218.96200561523</ele>
        <time>2012-07-22T07:48:56Z</time>
      </trkpt>
      <trkpt lat="43.24109" lon="1.97943">
        <ele>219.28700256348</ele>
        <time>2012-07-22T07:49:04Z</time>
      </trkpt>
      <trkpt lat="43.24096" lon="1.97906">
        <ele>219.35000610352</ele>
        <time>2012-07-22T07:49:12Z</time>
      </trkpt>
      <trkpt lat="43.24091" lon="1.97873">
        <ele>219.64599609375</ele>
        <time>2012-07-22T07:49:19Z</time>
      </trkpt>
      <trkpt lat="43.24084" lon="1.97851">
        <ele>220.17599487305</ele>
        <time>2012-07-22T07:49:24Z</time>
      </trkpt>
      <trkpt lat="43.24075" lon="1.97823">
        <ele>221.75900268555</ele>
        <time>2012-07-22T07:49:31Z</time>
      </trkpt>
      <trkpt lat="43.24067" lon="1.97799">
        <ele>222.76600646973</ele>
        <time>2012-07-22T07:49:38Z</time>
      </trkpt>
      <trkpt lat="43.24062" lon="1.97781">
        <ele>223.72300720215</ele>
        <time>2012-07-22T07:49:44Z</time>
      </trkpt>
      <trkpt lat="43.24054" lon="1.97749">
        <ele>225.20300292969</ele>
        <time>2012-07-22T07:49:54Z</time>
      </trkpt>
      <trkpt lat="43.24049" lon="1.97719">
        <ele>227.12600708008</ele>
        <time>2012-07-22T07:50:03Z</time>
      </trkpt>
      <trkpt lat="43.24048" lon="1.97685">
        <ele>228.29299926758</ele>
        <time>2012-07-22T07:50:12Z</time>
      </trkpt>
      <trkpt lat="43.24047" lon="1.97652">
        <ele>229.25</ele>
        <time>2012-07-22T07:50:20Z</time>
      </trkpt>
      <trkpt lat="43.24048" lon="1.97611">
        <ele>229.50500488281</ele>
        <time>2012-07-22T07:50:29Z</time>
      </trkpt>
      <trkpt lat="43.24052" lon="1.97561">
        <ele>229.97799682617</ele>
        <time>2012-07-22T07:50:39Z</time>
      </trkpt>
      <trkpt lat="43.24052" lon="1.97522">
        <ele>230.40400695801</ele>
        <time>2012-07-22T07:50:47Z</time>
      </trkpt>
      <trkpt lat="43.24045" lon="1.97486">
        <ele>231.70199584961</ele>
        <time>2012-07-22T07:50:55Z</time>
      </trkpt>
      <trkpt lat="43.24036" lon="1.97463">
        <ele>233.10000610352</ele>
        <time>2012-07-22T07:51:01Z</time>
      </trkpt>
      <trkpt lat="43.2402" lon="1.97424">
        <ele>234.25100708008</ele>
        <time>2012-07-22T07:51:11Z</time>
      </trkpt>
      <trkpt lat="43.24016" lon="1.97388">
        <ele>235.92900085449</ele>
        <time>2012-07-22T07:51:20Z</time>
      </trkpt>
      <trkpt lat="43.24016" lon="1.97345">
        <ele>237.17199707031</ele>
        <time>2012-07-22T07:51:31Z</time>
      </trkpt>
      <trkpt lat="43.2402" lon="1.97317">
        <ele>238.49200439453</ele>
        <time>2012-07-22T07:51:39Z</time>
      </trkpt>
      <trkpt lat="43.2403" lon="1.97302">
        <ele>239.04499816894</ele>
        <time>2012-07-22T07:51:44Z</time>
      </trkpt>
      <trkpt lat="43.24033" lon="1.97295">
        <ele>238.81799316406</ele>
        <time>2012-07-22T07:51:46Z</time>
      </trkpt>
      <trkpt lat="43.24029" lon="1.97282">
        <ele>238.96699523926</ele>
        <time>2012-07-22T07:51:51Z</time>
      </trkpt>
      <trkpt lat="43.2402" lon="1.97272">
        <ele>241.09899902344</ele>
        <time>2012-07-22T07:51:58Z</time>
      </trkpt>
      <trkpt lat="43.2401" lon="1.97259">
        <ele>243.83799743652</ele>
        <time>2012-07-22T07:52:06Z</time>
      </trkpt>
      <trkpt lat="43.23999" lon="1.97247">
        <ele>245.77099609375</ele>
        <time>2012-07-22T07:52:14Z</time>
      </trkpt>
      <trkpt lat="43.23988" lon="1.97233">
        <ele>247.86700439453</ele>
        <time>2012-07-22T07:52:22Z</time>
      </trkpt>
      <trkpt lat="43.23975" lon="1.97216">
        <ele>250.67799377441</ele>
        <time>2012-07-22T07:52:31Z</time>
      </trkpt>
      <trkpt lat="43.23965" lon="1.97199">
        <ele>252.96000671387</ele>
        <time>2012-07-22T07:52:39Z</time>
      </trkpt>
      <trkpt lat="43.23952" lon="1.97179">
        <ele>254.09399414062</ele>
        <time>2012-07-22T07:52:48Z</time>
      </trkpt>
      <trkpt lat="43.23938" lon="1.9716">
        <ele>254.49299621582</ele>
        <time>2012-07-22T07:52:56Z</time>
      </trkpt>
      <trkpt lat="43.23918" lon="1.97134">
        <ele>255.49800109863</ele>
        <time>2012-07-22T07:53:06Z</time>
      </trkpt>
      <trkpt lat="43.23892" lon="1.97103">
        <ele>256.4289855957</ele>
        <time>2012-07-22T07:53:17Z</time>
      </trkpt>
      <trkpt lat="43.23868" lon="1.97071">
        <ele>258.14599609375</ele>
        <time>2012-07-22T07:53:28Z</time>
      </trkpt>
      <trkpt lat="43.23845" lon="1.97041">
        <ele>259.9880065918</ele>
        <time>2012-07-22T07:53:39Z</time>
      </trkpt>
      <trkpt lat="43.23829" lon="1.97023">
        <ele>261.45098876953</ele>
        <time>2012-07-22T07:53:47Z</time>
      </trkpt>
      <trkpt lat="43.23813" lon="1.96997">
        <ele>263.20599365234</ele>
        <time>2012-07-22T07:53:56Z</time>
      </trkpt>
      <trkpt lat="43.23793" lon="1.96962">
        <ele>266.37200927734</ele>
        <time>2012-07-22T07:54:08Z</time>
      </trkpt>
      <trkpt lat="43.23782" lon="1.96941">
        <ele>267.18099975586</ele>
        <time>2012-07-22T07:54:15Z</time>
      </trkpt>
      <trkpt lat="43.23767" lon="1.9691">
        <ele>267.22698974609</ele>
        <time>2012-07-22T07:54:24Z</time>
      </trkpt>
      <trkpt lat="43.23755" lon="1.96875">
        <ele>266.58898925781</ele>
        <time>2012-07-22T07:54:31Z</time>
      </trkpt>
      <trkpt lat="43.23744" lon="1.96844">
        <ele>266.90701293945</ele>
        <time>2012-07-22T07:54:38Z</time>
      </trkpt>
      <trkpt lat="43.23726" lon="1.96803">
        <ele>268.5710144043</ele>
        <time>2012-07-22T07:54:49Z</time>
      </trkpt>
      <trkpt lat="43.23712" lon="1.96776">
        <ele>271.17999267578</ele>
        <time>2012-07-22T07:54:58Z</time>
      </trkpt>
      <trkpt lat="43.23701" lon="1.9675">
        <ele>273.00100708008</ele>
        <time>2012-07-22T07:55:06Z</time>
      </trkpt>
      <trkpt lat="43.23682" lon="1.96711">
        <ele>274.18798828125</ele>
        <time>2012-07-22T07:55:17Z</time>
      </trkpt>
      <trkpt lat="43.23669" lon="1.96684">
        <ele>275.62799072266</ele>
        <time>2012-07-22T07:55:25Z</time>
      </trkpt>
      <trkpt lat="43.23653" lon="1.96661">
        <ele>276.36801147461</ele>
        <time>2012-07-22T07:55:32Z</time>
      </trkpt>
      <trkpt lat="43.23637" lon="1.96642">
        <ele>278.06298828125</ele>
        <time>2012-07-22T07:55:40Z</time>
      </trkpt>
      <trkpt lat="43.23623" lon="1.96629">
        <ele>279.23199462891</ele>
        <time>2012-07-22T07:55:47Z</time>
      </trkpt>
      <trkpt lat="43.23607" lon="1.96615">
        <ele>281.3210144043</ele>
        <time>2012-07-22T07:55:55Z</time>
      </trkpt>
      <trkpt lat="43.23594" lon="1.96599">
        <ele>282.73199462891</ele>
        <time>2012-07-22T07:56:02Z</time>
      </trkpt>
      <trkpt lat="43.2358" lon="1.96576">
        <ele>283.62600708008</ele>
        <time>2012-07-22T07:56:10Z</time>
      </trkpt>
      <trkpt lat="43.23562" lon="1.9655">
        <ele>285.05700683594</ele>
        <time>2012-07-22T07:56:20Z</time>
      </trkpt>
      <trkpt lat="43.23544" lon="1.96525">
        <ele>286.59100341797</ele>
        <time>2012-07-22T07:56:29Z</time>
      </trkpt>
      <trkpt lat="43.23529" lon="1.96508">
        <ele>287.27899169922</ele>
        <time>2012-07-22T07:56:36Z</time>
      </trkpt>
      <trkpt lat="43.23513" lon="1.96502">
        <ele>286.87200927734</ele>
        <time>2012-07-22T07:56:42Z</time>
      </trkpt>
      <trkpt lat="43.2349" lon="1.96499">
        <ele>289.05499267578</ele>
        <time>2012-07-22T07:56:51Z</time>
      </trkpt>
      <trkpt lat="43.23473" lon="1.96497">
        <ele>291.21099853516</ele>
        <time>2012-07-22T07:56:58Z</time>
      </trkpt>
      <trkpt lat="43.23455" lon="1.96497">
        <ele>292.70700073242</ele>
        <time>2012-07-22T07:57:05Z</time>
      </trkpt>
      <trkpt lat="43.23447" lon="1.96497">
        <ele>292.90701293945</ele>
        <time>2012-07-22T07:57:08Z</time>
      </trkpt>
      <trkpt lat="43.23421" lon="1.96489">
        <ele>292.03900146484</ele>
        <time>2012-07-22T07:57:13Z</time>
      </trkpt>
      <trkpt lat="43.23385" lon="1.96469">
        <ele>289.84698486328</ele>
        <time>2012-07-22T07:57:19Z</time>
      </trkpt>
      <trkpt lat="43.23369" lon="1.96458">
        <ele>289.26599121094</ele>
        <time>2012-07-22T07:57:23Z</time>
      </trkpt>
      <trkpt lat="43.23345" lon="1.96446">
        <ele>288.93600463867</ele>
        <time>2012-07-22T07:57:30Z</time>
      </trkpt>
      <trkpt lat="43.23317" lon="1.9644">
        <ele>287.9580078125</ele>
        <time>2012-07-22T07:57:38Z</time>
      </trkpt>
      <trkpt lat="43.23314" lon="1.9644">
        <ele>287.87899780273</ele>
        <time>2012-07-22T07:57:39Z</time>
      </trkpt>
      <trkpt lat="43.23306" lon="1.96447">
        <ele>287.48199462891</ele>
        <time>2012-07-22T07:57:43Z</time>
      </trkpt>
      <trkpt lat="43.23306" lon="1.96446">
        <ele>287.22799682617</ele>
        <time>2012-07-22T07:57:46Z</time>
      </trkpt>
      <trkpt lat="43.23304" lon="1.96447">
        <ele>287.33401489258</ele>
        <time>2012-07-22T07:57:52Z</time>
      </trkpt>
      <trkpt lat="43.23303" lon="1.96442">
        <ele>288.28201293945</ele>
        <time>2012-07-22T08:00:34Z</time>
      </trkpt>
      <trkpt lat="43.23302" lon="1.96441">
        <ele>288.3869934082</ele>
        <time>2012-07-22T08:00:35Z</time>
      </trkpt>
      <trkpt lat="43.23295" lon="1.96434">
        <ele>289.01501464844</ele>
        <time>2012-07-22T08:00:41Z</time>
      </trkpt>
      <trkpt lat="43.23294" lon="1.96431">
        <ele>289.00601196289</ele>
        <time>2012-07-22T08:00:42Z</time>
      </trkpt>
      <trkpt lat="43.23292" lon="1.96407">
        <ele>288.95001220703</ele>
        <time>2012-07-22T08:00:48Z</time>
      </trkpt>
      <trkpt lat="43.23291" lon="1.96386">
        <ele>287.83700561523</ele>
        <time>2012-07-22T08:00:55Z</time>
      </trkpt>
      <trkpt lat="43.23292" lon="1.96385">
        <ele>287.39099121094</ele>
        <time>2012-07-22T08:00:56Z</time>
      </trkpt>
      <trkpt lat="43.23289" lon="1.96386">
        <ele>286.3630065918</ele>
        <time>2012-07-22T08:01:01Z</time>
      </trkpt>
      <trkpt lat="43.23291" lon="1.96389">
        <ele>286.78698730469</ele>
        <time>2012-07-22T08:01:07Z</time>
      </trkpt>
      <trkpt lat="43.23286" lon="1.96388">
        <ele>287.4880065918</ele>
        <time>2012-07-22T08:01:11Z</time>
      </trkpt>
      <trkpt lat="43.23275" lon="1.9638">
        <ele>287.54901123047</ele>
        <time>2012-07-22T08:01:16Z</time>
      </trkpt>
      <trkpt lat="43.23273" lon="1.96378">
        <ele>287.54901123047</ele>
        <time>2012-07-22T08:01:17Z</time>
      </trkpt>
      <trkpt lat="43.23261" lon="1.96358">
        <ele>287.38198852539</ele>
        <time>2012-07-22T08:01:24Z</time>
      </trkpt>
      <trkpt lat="43.23252" lon="1.96332">
        <ele>287.07000732422</ele>
        <time>2012-07-22T08:01:31Z</time>
      </trkpt>
      <trkpt lat="43.23246" lon="1.96302">
        <ele>287.08898925781</ele>
        <time>2012-07-22T08:01:39Z</time>
      </trkpt>
      <trkpt lat="43.2325" lon="1.96285">
        <ele>287.23699951172</ele>
        <time>2012-07-22T08:01:44Z</time>
      </trkpt>
      <trkpt lat="43.2326" lon="1.96267">
        <ele>288.27600097656</ele>
        <time>2012-07-22T08:01:51Z</time>
      </trkpt>
      <trkpt lat="43.23274" lon="1.96264">
        <ele>289.1669921875</ele>
        <time>2012-07-22T08:01:57Z</time>
      </trkpt>
      <trkpt lat="43.23291" lon="1.96264">
        <ele>289.64401245117</ele>
        <time>2012-07-22T08:02:04Z</time>
      </trkpt>
      <trkpt lat="43.23308" lon="1.96262">
        <ele>290.98300170898</ele>
        <time>2012-07-22T08:02:11Z</time>
      </trkpt>
      <trkpt lat="43.23326" lon="1.96254">
        <ele>292.73300170898</ele>
        <time>2012-07-22T08:02:19Z</time>
      </trkpt>
      <trkpt lat="43.23337" lon="1.96243">
        <ele>294.29299926758</ele>
        <time>2012-07-22T08:02:25Z</time>
      </trkpt>
      <trkpt lat="43.2335" lon="1.96223">
        <ele>296.46499633789</ele>
        <time>2012-07-22T08:02:34Z</time>
      </trkpt>
      <trkpt lat="43.23356" lon="1.96206">
        <ele>297.88400268555</ele>
        <time>2012-07-22T08:02:41Z</time>
      </trkpt>
      <trkpt lat="43.23357" lon="1.96199">
        <ele>298.06799316406</ele>
        <time>2012-07-22T08:02:44Z</time>
      </trkpt>
      <trkpt lat="43.23354" lon="1.9619">
        <ele>299.2619934082</ele>
        <time>2012-07-22T08:02:48Z</time>
      </trkpt>
      <trkpt lat="43.23351" lon="1.96184">
        <ele>300.02398681641</ele>
        <time>2012-07-22T08:02:51Z</time>
      </trkpt>
      <trkpt lat="43.23341" lon="1.96189">
        <ele>301.56698608398</ele>
        <time>2012-07-22T08:02:57Z</time>
      </trkpt>
      <trkpt lat="43.23338" lon="1.96201">
        <ele>302.58200073242</ele>
        <time>2012-07-22T08:03:01Z</time>
      </trkpt>
      <trkpt lat="43.23326" lon="1.96214">
        <ele>303.68399047852</ele>
        <time>2012-07-22T08:03:08Z</time>
      </trkpt>
      <trkpt lat="43.23314" lon="1.96219">
        <ele>304.1669921875</ele>
        <time>2012-07-22T08:03:14Z</time>
      </trkpt>
      <trkpt lat="43.23302" lon="1.96214">
        <ele>304.90701293945</ele>
        <time>2012-07-22T08:03:20Z</time>
      </trkpt>
      <trkpt lat="43.23291" lon="1.96202">
        <ele>307.0710144043</ele>
        <time>2012-07-22T08:03:27Z</time>
      </trkpt>
      <trkpt lat="43.23278" lon="1.96184">
        <ele>308.87200927734</ele>
        <time>2012-07-22T08:03:35Z</time>
      </trkpt>
      <trkpt lat="43.23263" lon="1.96174">
        <ele>310</ele>
        <time>2012-07-22T08:03:42Z</time>
      </trkpt>
      <trkpt lat="43.23245" lon="1.9617">
        <ele>311.5950012207</ele>
        <time>2012-07-22T08:03:50Z</time>
      </trkpt>
      <trkpt lat="43.2323" lon="1.96172">
        <ele>312.91101074219</ele>
        <time>2012-07-22T08:03:57Z</time>
      </trkpt>
      <trkpt lat="43.23209" lon="1.9618">
        <ele>314.25100708008</ele>
        <time>2012-07-22T08:04:06Z</time>
      </trkpt>
      <trkpt lat="43.23194" lon="1.96191">
        <ele>315.97500610352</ele>
        <time>2012-07-22T08:04:14Z</time>
      </trkpt>
      <trkpt lat="43.23186" lon="1.96207">
        <ele>316.92599487305</ele>
        <time>2012-07-22T08:04:20Z</time>
      </trkpt>
      <trkpt lat="43.23177" lon="1.96223">
        <ele>317.86898803711</ele>
        <time>2012-07-22T08:04:26Z</time>
      </trkpt>
      <trkpt lat="43.23177" lon="1.96226">
        <ele>317.98999023438</ele>
        <time>2012-07-22T08:04:27Z</time>
      </trkpt>
      <trkpt lat="43.23166" lon="1.96248">
        <ele>319.54800415039</ele>
        <time>2012-07-22T08:04:35Z</time>
      </trkpt>
      <trkpt lat="43.23155" lon="1.96271">
        <ele>321.2080078125</ele>
        <time>2012-07-22T08:04:44Z</time>
      </trkpt>
      <trkpt lat="43.23146" lon="1.96288">
        <ele>322.65399169922</ele>
        <time>2012-07-22T08:04:50Z</time>
      </trkpt>
      <trkpt lat="43.23135" lon="1.96309">
        <ele>324.32598876953</ele>
        <time>2012-07-22T08:04:57Z</time>
      </trkpt>
      <trkpt lat="43.23129" lon="1.96336">
        <ele>325.89401245117</ele>
        <time>2012-07-22T08:05:05Z</time>
      </trkpt>
      <trkpt lat="43.23119" lon="1.96366">
        <ele>327.84100341797</ele>
        <time>2012-07-22T08:05:14Z</time>
      </trkpt>
      <trkpt lat="43.23109" lon="1.9638">
        <ele>329.20300292969</ele>
        <time>2012-07-22T08:05:20Z</time>
      </trkpt>
      <trkpt lat="43.23095" lon="1.96381">
        <ele>330.75399780273</ele>
        <time>2012-07-22T08:05:26Z</time>
      </trkpt>
      <trkpt lat="43.2308" lon="1.9637">
        <ele>332.55899047852</ele>
        <time>2012-07-22T08:05:33Z</time>
      </trkpt>
      <trkpt lat="43.23063" lon="1.96361">
        <ele>333.89599609375</ele>
        <time>2012-07-22T08:05:40Z</time>
      </trkpt>
      <trkpt lat="43.23041" lon="1.96357">
        <ele>335.85400390625</ele>
        <time>2012-07-22T08:05:49Z</time>
      </trkpt>
      <trkpt lat="43.23021" lon="1.96363">
        <ele>337.48001098633</ele>
        <time>2012-07-22T08:05:57Z</time>
      </trkpt>
      <trkpt lat="43.23003" lon="1.96378">
        <ele>339.7200012207</ele>
        <time>2012-07-22T08:06:06Z</time>
      </trkpt>
      <trkpt lat="43.22989" lon="1.96392">
        <ele>342.03399658203</ele>
        <time>2012-07-22T08:06:14Z</time>
      </trkpt>
      <trkpt lat="43.22974" lon="1.96407">
        <ele>344.35501098633</ele>
        <time>2012-07-22T08:06:22Z</time>
      </trkpt>
      <trkpt lat="43.22963" lon="1.96414">
        <ele>345.89801025391</ele>
        <time>2012-07-22T08:06:28Z</time>
      </trkpt>
      <trkpt lat="43.2295" lon="1.96413">
        <ele>346.91000366211</ele>
        <time>2012-07-22T08:06:34Z</time>
      </trkpt>
      <trkpt lat="43.22937" lon="1.96413">
        <ele>348.33200073242</ele>
        <time>2012-07-22T08:06:41Z</time>
      </trkpt>
      <trkpt lat="43.22913" lon="1.96419">
        <ele>350.08801269531</ele>
        <time>2012-07-22T08:06:51Z</time>
      </trkpt>
      <trkpt lat="43.22895" lon="1.96426">
        <ele>351.23098754883</ele>
        <time>2012-07-22T08:06:59Z</time>
      </trkpt>
      <trkpt lat="43.22882" lon="1.96436">
        <ele>353.10501098633</ele>
        <time>2012-07-22T08:07:07Z</time>
      </trkpt>
      <trkpt lat="43.22866" lon="1.96441">
        <ele>354.34698486328</ele>
        <time>2012-07-22T08:07:14Z</time>
      </trkpt>
      <trkpt lat="43.22844" lon="1.9645">
        <ele>356.07299804688</ele>
        <time>2012-07-22T08:07:23Z</time>
      </trkpt>
      <trkpt lat="43.22819" lon="1.96458">
        <ele>357.68200683594</ele>
        <time>2012-07-22T08:07:33Z</time>
      </trkpt>
      <trkpt lat="43.22804" lon="1.96465">
        <ele>360.27301025391</ele>
        <time>2012-07-22T08:07:39Z</time>
      </trkpt>
      <trkpt lat="43.22788" lon="1.96468">
        <ele>361.12701416016</ele>
        <time>2012-07-22T08:07:46Z</time>
      </trkpt>
      <trkpt lat="43.22777" lon="1.96461">
        <ele>361.78201293945</ele>
        <time>2012-07-22T08:07:52Z</time>
      </trkpt>
      <trkpt lat="43.22767" lon="1.9645">
        <ele>363.75100708008</ele>
        <time>2012-07-22T08:07:59Z</time>
      </trkpt>
      <trkpt lat="43.22766" lon="1.96449">
        <ele>364.37298583984</ele>
        <time>2012-07-22T08:08:00Z</time>
      </trkpt>
      <trkpt lat="43.22765" lon="1.96445">
        <ele>365.47299194336</ele>
        <time>2012-07-22T08:08:05Z</time>
      </trkpt>
      <trkpt lat="43.22765" lon="1.96444">
        <ele>364.67098999023</ele>
        <time>2012-07-22T08:08:11Z</time>
      </trkpt>
      <trkpt lat="43.22765" lon="1.96443">
        <ele>365.12701416016</ele>
        <time>2012-07-22T08:12:54Z</time>
      </trkpt>
      <trkpt lat="43.2276" lon="1.96439">
        <ele>365.1549987793</ele>
        <time>2012-07-22T08:13:00Z</time>
      </trkpt>
      <trkpt lat="43.22756" lon="1.96432">
        <ele>365.55599975586</ele>
        <time>2012-07-22T08:13:05Z</time>
      </trkpt>
      <trkpt lat="43.22747" lon="1.96417">
        <ele>367.13101196289</ele>
        <time>2012-07-22T08:13:14Z</time>
      </trkpt>
      <trkpt lat="43.22739" lon="1.96406">
        <ele>367.61599731445</ele>
        <time>2012-07-22T08:13:21Z</time>
      </trkpt>
      <trkpt lat="43.22737" lon="1.96403">
        <ele>367.72799682617</ele>
        <time>2012-07-22T08:13:23Z</time>
      </trkpt>
      <trkpt lat="43.22728" lon="1.964">
        <ele>367.94900512695</ele>
        <time>2012-07-22T08:13:28Z</time>
      </trkpt>
      <trkpt lat="43.22719" lon="1.96394">
        <ele>370.20901489258</ele>
        <time>2012-07-22T08:13:33Z</time>
      </trkpt>
      <trkpt lat="43.22711" lon="1.96387">
        <ele>372.1780090332</ele>
        <time>2012-07-22T08:13:39Z</time>
      </trkpt>
      <trkpt lat="43.22699" lon="1.96379">
        <ele>374.33599853516</ele>
        <time>2012-07-22T08:13:48Z</time>
      </trkpt>
      <trkpt lat="43.22691" lon="1.96373">
        <ele>375.89801025391</ele>
        <time>2012-07-22T08:13:55Z</time>
      </trkpt>
      <trkpt lat="43.22684" lon="1.96369">
        <ele>377.31399536133</ele>
        <time>2012-07-22T08:14:01Z</time>
      </trkpt>
      <trkpt lat="43.22673" lon="1.96375">
        <ele>379.64199829102</ele>
        <time>2012-07-22T08:14:09Z</time>
      </trkpt>
      <trkpt lat="43.22664" lon="1.96381">
        <ele>379.875</ele>
        <time>2012-07-22T08:14:15Z</time>
      </trkpt>
      <trkpt lat="43.22654" lon="1.96402">
        <ele>380.29998779297</ele>
        <time>2012-07-22T08:14:23Z</time>
      </trkpt>
      <trkpt lat="43.22644" lon="1.96416">
        <ele>379.75698852539</ele>
        <time>2012-07-22T08:14:28Z</time>
      </trkpt>
      <trkpt lat="43.22624" lon="1.96432">
        <ele>379.17199707031</ele>
        <time>2012-07-22T08:14:34Z</time>
      </trkpt>
      <trkpt lat="43.22598" lon="1.96449">
        <ele>379.52700805664</ele>
        <time>2012-07-22T08:14:42Z</time>
      </trkpt>
      <trkpt lat="43.22579" lon="1.96458">
        <ele>380.81298828125</ele>
        <time>2012-07-22T08:14:48Z</time>
      </trkpt>
      <trkpt lat="43.2257" lon="1.9646">
        <ele>380.8219909668</ele>
        <time>2012-07-22T08:14:54Z</time>
      </trkpt>
      <trkpt lat="43.22564" lon="1.96462">
        <ele>380.73098754883</ele>
        <time>2012-07-22T08:14:57Z</time>
      </trkpt>
      <trkpt lat="43.22559" lon="1.96481">
        <ele>381.17199707031</ele>
        <time>2012-07-22T08:15:02Z</time>
      </trkpt>
      <trkpt lat="43.22555" lon="1.96489">
        <ele>382.11199951172</ele>
        <time>2012-07-22T08:15:05Z</time>
      </trkpt>
      <trkpt lat="43.22545" lon="1.9651">
        <ele>382.53500366211</ele>
        <time>2012-07-22T08:15:11Z</time>
      </trkpt>
      <trkpt lat="43.22541" lon="1.96542">
        <ele>381.66101074219</ele>
        <time>2012-07-22T08:15:18Z</time>
      </trkpt>
      <trkpt lat="43.22532" lon="1.96584">
        <ele>380.76400756836</ele>
        <time>2012-07-22T08:15:26Z</time>
      </trkpt>
      <trkpt lat="43.22522" lon="1.96614">
        <ele>380.56201171875</ele>
        <time>2012-07-22T08:15:33Z</time>
      </trkpt>
      <trkpt lat="43.22516" lon="1.96638">
        <ele>381.19299316406</ele>
        <time>2012-07-22T08:15:39Z</time>
      </trkpt>
      <trkpt lat="43.22514" lon="1.96661">
        <ele>382.20001220703</ele>
        <time>2012-07-22T08:15:45Z</time>
      </trkpt>
      <trkpt lat="43.22503" lon="1.96693">
        <ele>383.45098876953</ele>
        <time>2012-07-22T08:15:54Z</time>
      </trkpt>
      <trkpt lat="43.22492" lon="1.96709">
        <ele>384.28698730469</ele>
        <time>2012-07-22T08:16:01Z</time>
      </trkpt>
      <trkpt lat="43.22482" lon="1.96716">
        <ele>384.66299438477</ele>
        <time>2012-07-22T08:16:07Z</time>
      </trkpt>
      <trkpt lat="43.22466" lon="1.96726">
        <ele>384.76501464844</ele>
        <time>2012-07-22T08:16:13Z</time>
      </trkpt>
      <trkpt lat="43.22442" lon="1.96734">
        <ele>384.77600097656</ele>
        <time>2012-07-22T08:16:21Z</time>
      </trkpt>
      <trkpt lat="43.2243" lon="1.96732">
        <ele>385.49200439453</ele>
        <time>2012-07-22T08:16:26Z</time>
      </trkpt>
      <trkpt lat="43.22413" lon="1.96724">
        <ele>386.01901245117</ele>
        <time>2012-07-22T08:16:32Z</time>
      </trkpt>
      <trkpt lat="43.22395" lon="1.96718">
        <ele>386.20999145508</ele>
        <time>2012-07-22T08:16:38Z</time>
      </trkpt>
      <trkpt lat="43.22379" lon="1.96711">
        <ele>387.04598999023</ele>
        <time>2012-07-22T08:16:44Z</time>
      </trkpt>
      <trkpt lat="43.22361" lon="1.9671">
        <ele>386.53298950195</ele>
        <time>2012-07-22T08:16:48Z</time>
      </trkpt>
      <trkpt lat="43.22339" lon="1.96711">
        <ele>386.81399536133</ele>
        <time>2012-07-22T08:16:54Z</time>
      </trkpt>
      <trkpt lat="43.22322" lon="1.96714">
        <ele>387.53601074219</ele>
        <time>2012-07-22T08:17:00Z</time>
      </trkpt>
      <trkpt lat="43.22321" lon="1.96716">
        <ele>387.60501098633</ele>
        <time>2012-07-22T08:17:01Z</time>
      </trkpt>
      <trkpt lat="43.22308" lon="1.96723">
        <ele>387.60198974609</ele>
        <time>2012-07-22T08:17:06Z</time>
      </trkpt>
      <trkpt lat="43.22288" lon="1.96749">
        <ele>387.85299682617</ele>
        <time>2012-07-22T08:17:14Z</time>
      </trkpt>
      <trkpt lat="43.22274" lon="1.96767">
        <ele>388.01599121094</ele>
        <time>2012-07-22T08:17:20Z</time>
      </trkpt>
      <trkpt lat="43.22253" lon="1.96793">
        <ele>388.67300415039</ele>
        <time>2012-07-22T08:17:29Z</time>
      </trkpt>
      <trkpt lat="43.22242" lon="1.96814">
        <ele>389.32400512695</ele>
        <time>2012-07-22T08:17:35Z</time>
      </trkpt>
      <trkpt lat="43.22235" lon="1.96837">
        <ele>390.48599243164</ele>
        <time>2012-07-22T08:17:40Z</time>
      </trkpt>
      <trkpt lat="43.22231" lon="1.96869">
        <ele>391.07400512695</ele>
        <time>2012-07-22T08:17:47Z</time>
      </trkpt>
      <trkpt lat="43.22224" lon="1.9689">
        <ele>391.12899780273</ele>
        <time>2012-07-22T08:17:52Z</time>
      </trkpt>
      <trkpt lat="43.22215" lon="1.96908">
        <ele>392.24301147461</ele>
        <time>2012-07-22T08:17:58Z</time>
      </trkpt>
      <trkpt lat="43.22205" lon="1.96924">
        <ele>389.85000610352</ele>
        <time>2012-07-22T08:18:04Z</time>
      </trkpt>
      <trkpt lat="43.22202" lon="1.96929">
        <ele>388.77301025391</ele>
        <time>2012-07-22T08:18:06Z</time>
      </trkpt>
      <trkpt lat="43.22202" lon="1.96936">
        <ele>387.41900634766</ele>
        <time>2012-07-22T08:18:09Z</time>
      </trkpt>
      <trkpt lat="43.22201" lon="1.96939">
        <ele>386.79998779297</ele>
        <time>2012-07-22T08:18:10Z</time>
      </trkpt>
      <trkpt lat="43.22197" lon="1.9696">
        <ele>380.96600341797</ele>
        <time>2012-07-22T08:18:16Z</time>
      </trkpt>
      <trkpt lat="43.22194" lon="1.96972">
        <ele>378.86898803711</ele>
        <time>2012-07-22T08:18:18Z</time>
      </trkpt>
      <trkpt lat="43.22192" lon="1.97">
        <ele>374.76699829102</ele>
        <time>2012-07-22T08:18:23Z</time>
      </trkpt>
      <trkpt lat="43.22191" lon="1.9701">
        <ele>373.97198486328</ele>
        <time>2012-07-22T08:18:25Z</time>
      </trkpt>
      <trkpt lat="43.22186" lon="1.97039">
        <ele>372.69400024414</ele>
        <time>2012-07-22T08:18:31Z</time>
      </trkpt>
      <trkpt lat="43.22187" lon="1.97061">
        <ele>372.92199707031</ele>
        <time>2012-07-22T08:18:37Z</time>
      </trkpt>
      <trkpt lat="43.22188" lon="1.97094">
        <ele>373.88198852539</ele>
        <time>2012-07-22T08:18:45Z</time>
      </trkpt>
      <trkpt lat="43.22188" lon="1.97116">
        <ele>375.26998901367</ele>
        <time>2012-07-22T08:18:50Z</time>
      </trkpt>
      <trkpt lat="43.22185" lon="1.97138">
        <ele>376.77600097656</ele>
        <time>2012-07-22T08:18:55Z</time>
      </trkpt>
      <trkpt lat="43.22181" lon="1.97171">
        <ele>376.59201049805</ele>
        <time>2012-07-22T08:19:02Z</time>
      </trkpt>
      <trkpt lat="43.22179" lon="1.97205">
        <ele>375.81298828125</ele>
        <time>2012-07-22T08:19:07Z</time>
      </trkpt>
      <trkpt lat="43.2218" lon="1.97227">
        <ele>372.92498779297</ele>
        <time>2012-07-22T08:19:11Z</time>
      </trkpt>
      <trkpt lat="43.22181" lon="1.97249">
        <ele>368.3030090332</ele>
        <time>2012-07-22T08:19:17Z</time>
      </trkpt>
      <trkpt lat="43.2218" lon="1.97273">
        <ele>364.82598876953</ele>
        <time>2012-07-22T08:19:21Z</time>
      </trkpt>
      <trkpt lat="43.22179" lon="1.97298">
        <ele>361.40600585938</ele>
        <time>2012-07-22T08:19:24Z</time>
      </trkpt>
      <trkpt lat="43.22176" lon="1.97324">
        <ele>359.59698486328</ele>
        <time>2012-07-22T08:19:27Z</time>
      </trkpt>
      <trkpt lat="43.22175" lon="1.97343">
        <ele>358.82800292969</ele>
        <time>2012-07-22T08:19:29Z</time>
      </trkpt>
      <trkpt lat="43.22176" lon="1.9736">
        <ele>358.63400268555</ele>
        <time>2012-07-22T08:19:31Z</time>
      </trkpt>
      <trkpt lat="43.22176" lon="1.97404">
        <ele>359.34899902344</ele>
        <time>2012-07-22T08:19:38Z</time>
      </trkpt>
      <trkpt lat="43.2217" lon="1.97446">
        <ele>359.10198974609</ele>
        <time>2012-07-22T08:19:45Z</time>
      </trkpt>
      <trkpt lat="43.22169" lon="1.97469">
        <ele>358.14801025391</ele>
        <time>2012-07-22T08:19:48Z</time>
      </trkpt>
      <trkpt lat="43.22158" lon="1.97487">
        <ele>356.95401000977</ele>
        <time>2012-07-22T08:19:52Z</time>
      </trkpt>
      <trkpt lat="43.22153" lon="1.97488">
        <ele>356.78100585938</ele>
        <time>2012-07-22T08:19:53Z</time>
      </trkpt>
      <trkpt lat="43.22127" lon="1.97494">
        <ele>356.53900146484</ele>
        <time>2012-07-22T08:20:00Z</time>
      </trkpt>
      <trkpt lat="43.22095" lon="1.97504">
        <ele>357.16799926758</ele>
        <time>2012-07-22T08:20:09Z</time>
      </trkpt>
      <trkpt lat="43.22077" lon="1.97515">
        <ele>358.06900024414</ele>
        <time>2012-07-22T08:20:15Z</time>
      </trkpt>
      <trkpt lat="43.2206" lon="1.97536">
        <ele>359.56399536133</ele>
        <time>2012-07-22T08:20:21Z</time>
      </trkpt>
      <trkpt lat="43.22047" lon="1.97551">
        <ele>360.88400268555</ele>
        <time>2012-07-22T08:20:26Z</time>
      </trkpt>
      <trkpt lat="43.22023" lon="1.97565">
        <ele>362.59399414062</ele>
        <time>2012-07-22T08:20:34Z</time>
      </trkpt>
      <trkpt lat="43.22002" lon="1.97582">
        <ele>363.66198730469</ele>
        <time>2012-07-22T08:20:42Z</time>
      </trkpt>
      <trkpt lat="43.21999" lon="1.97585">
        <ele>363.64001464844</ele>
        <time>2012-07-22T08:20:43Z</time>
      </trkpt>
      <trkpt lat="43.21988" lon="1.97603">
        <ele>363.27200317383</ele>
        <time>2012-07-22T08:20:47Z</time>
      </trkpt>
      <trkpt lat="43.21978" lon="1.97642">
        <ele>362.25299072266</ele>
        <time>2012-07-22T08:20:54Z</time>
      </trkpt>
      <trkpt lat="43.21973" lon="1.97669">
        <ele>362.86401367188</ele>
        <time>2012-07-22T08:21:00Z</time>
      </trkpt>
      <trkpt lat="43.21967" lon="1.97705">
        <ele>363.54800415039</ele>
        <time>2012-07-22T08:21:08Z</time>
      </trkpt>
      <trkpt lat="43.21957" lon="1.97716">
        <ele>364.13900756836</ele>
        <time>2012-07-22T08:21:12Z</time>
      </trkpt>
      <trkpt lat="43.21941" lon="1.97722">
        <ele>364.71600341797</ele>
        <time>2012-07-22T08:21:18Z</time>
      </trkpt>
      <trkpt lat="43.21921" lon="1.97728">
        <ele>365.91101074219</ele>
        <time>2012-07-22T08:21:25Z</time>
      </trkpt>
      <trkpt lat="43.21901" lon="1.97735">
        <ele>367.85000610352</ele>
        <time>2012-07-22T08:21:32Z</time>
      </trkpt>
      <trkpt lat="43.21884" lon="1.97753">
        <ele>370.04998779297</ele>
        <time>2012-07-22T08:21:39Z</time>
      </trkpt>
      <trkpt lat="43.21875" lon="1.9777">
        <ele>371.17199707031</ele>
        <time>2012-07-22T08:21:44Z</time>
      </trkpt>
      <trkpt lat="43.21874" lon="1.97783">
        <ele>371.34298706055</ele>
        <time>2012-07-22T08:21:47Z</time>
      </trkpt>
      <trkpt lat="43.21879" lon="1.97814">
        <ele>370.16000366211</ele>
        <time>2012-07-22T08:21:52Z</time>
      </trkpt>
      <trkpt lat="43.21881" lon="1.97821">
        <ele>369.75601196289</ele>
        <time>2012-07-22T08:21:53Z</time>
      </trkpt>
      <trkpt lat="43.21882" lon="1.97855">
        <ele>369.78399658203</ele>
        <time>2012-07-22T08:21:59Z</time>
      </trkpt>
      <trkpt lat="43.21885" lon="1.97862">
        <ele>369.75601196289</ele>
        <time>2012-07-22T08:22:01Z</time>
      </trkpt>
      <trkpt lat="43.2189" lon="1.97888">
        <ele>367.10299682617</ele>
        <time>2012-07-22T08:22:07Z</time>
      </trkpt>
      <trkpt lat="43.21894" lon="1.97909">
        <ele>364.01901245117</ele>
        <time>2012-07-22T08:22:11Z</time>
      </trkpt>
      <trkpt lat="43.21889" lon="1.97934">
        <ele>362.87799072266</ele>
        <time>2012-07-22T08:22:15Z</time>
      </trkpt>
      <trkpt lat="43.2188" lon="1.97959">
        <ele>361.72799682617</ele>
        <time>2012-07-22T08:22:18Z</time>
      </trkpt>
      <trkpt lat="43.21865" lon="1.97987">
        <ele>359.58401489258</ele>
        <time>2012-07-22T08:22:21Z</time>
      </trkpt>
      <trkpt lat="43.21856" lon="1.98034">
        <ele>354.79000854492</ele>
        <time>2012-07-22T08:22:25Z</time>
      </trkpt>
      <trkpt lat="43.21854" lon="1.98047">
        <ele>353.66198730469</ele>
        <time>2012-07-22T08:22:26Z</time>
      </trkpt>
      <trkpt lat="43.21862" lon="1.98091">
        <ele>351.15100097656</ele>
        <time>2012-07-22T08:22:30Z</time>
      </trkpt>
      <trkpt lat="43.21872" lon="1.98112">
        <ele>347.50100708008</ele>
        <time>2012-07-22T08:22:34Z</time>
      </trkpt>
      <trkpt lat="43.21869" lon="1.98118">
        <ele>346.65100097656</ele>
        <time>2012-07-22T08:22:36Z</time>
      </trkpt>
      <trkpt lat="43.21867" lon="1.98132">
        <ele>346.00201416016</ele>
        <time>2012-07-22T08:22:39Z</time>
      </trkpt>
      <trkpt lat="43.21865" lon="1.98136">
        <ele>345.82699584961</ele>
        <time>2012-07-22T08:22:40Z</time>
      </trkpt>
      <trkpt lat="43.21855" lon="1.9816">
        <ele>346.41500854492</ele>
        <time>2012-07-22T08:22:47Z</time>
      </trkpt>
      <trkpt lat="43.21849" lon="1.98169">
        <ele>347.25799560547</ele>
        <time>2012-07-22T08:22:51Z</time>
      </trkpt>
      <trkpt lat="43.21841" lon="1.9817">
        <ele>348.29000854492</ele>
        <time>2012-07-22T08:22:56Z</time>
      </trkpt>
      <trkpt lat="43.21819" lon="1.98173">
        <ele>348.50601196289</ele>
        <time>2012-07-22T08:23:02Z</time>
      </trkpt>
      <trkpt lat="43.21799" lon="1.98187">
        <ele>347.99301147461</ele>
        <time>2012-07-22T08:23:08Z</time>
      </trkpt>
      <trkpt lat="43.21786" lon="1.98208">
        <ele>348.55700683594</ele>
        <time>2012-07-22T08:23:14Z</time>
      </trkpt>
      <trkpt lat="43.21793" lon="1.98223">
        <ele>349.0299987793</ele>
        <time>2012-07-22T08:23:18Z</time>
      </trkpt>
      <trkpt lat="43.21799" lon="1.98243">
        <ele>348.73901367188</ele>
        <time>2012-07-22T08:23:22Z</time>
      </trkpt>
      <trkpt lat="43.21798" lon="1.98253">
        <ele>348.8039855957</ele>
        <time>2012-07-22T08:23:24Z</time>
      </trkpt>
      <trkpt lat="43.21789" lon="1.98287">
        <ele>350.60800170898</ele>
        <time>2012-07-22T08:23:32Z</time>
      </trkpt>
      <trkpt lat="43.21775" lon="1.98323">
        <ele>351.70999145508</ele>
        <time>2012-07-22T08:23:40Z</time>
      </trkpt>
      <trkpt lat="43.21758" lon="1.98351">
        <ele>351.88598632812</ele>
        <time>2012-07-22T08:23:46Z</time>
      </trkpt>
      <trkpt lat="43.21732" lon="1.98393">
        <ele>352.07998657227</ele>
        <time>2012-07-22T08:23:55Z</time>
      </trkpt>
      <trkpt lat="43.21718" lon="1.98422">
        <ele>353.44000244141</ele>
        <time>2012-07-22T08:24:02Z</time>
      </trkpt>
      <trkpt lat="43.21724" lon="1.98445">
        <ele>353.18200683594</ele>
        <time>2012-07-22T08:24:06Z</time>
      </trkpt>
      <trkpt lat="43.21738" lon="1.98466">
        <ele>352.36401367188</ele>
        <time>2012-07-22T08:24:09Z</time>
      </trkpt>
      <trkpt lat="43.21746" lon="1.98506">
        <ele>350.0299987793</ele>
        <time>2012-07-22T08:24:13Z</time>
      </trkpt>
      <trkpt lat="43.21746" lon="1.98517">
        <ele>348.90399169922</ele>
        <time>2012-07-22T08:24:14Z</time>
      </trkpt>
      <trkpt lat="43.21745" lon="1.98573">
        <ele>341.44198608398</ele>
        <time>2012-07-22T08:24:19Z</time>
      </trkpt>
      <trkpt lat="43.21759" lon="1.9861">
        <ele>334.39599609375</ele>
        <time>2012-07-22T08:24:23Z</time>
      </trkpt>
      <trkpt lat="43.21785" lon="1.98663">
        <ele>330.02801513672</ele>
        <time>2012-07-22T08:24:28Z</time>
      </trkpt>
      <trkpt lat="43.21798" lon="1.98686">
        <ele>328.27801513672</ele>
        <time>2012-07-22T08:24:30Z</time>
      </trkpt>
      <trkpt lat="43.21807" lon="1.98728">
        <ele>321.94799804688</ele>
        <time>2012-07-22T08:24:34Z</time>
      </trkpt>
      <trkpt lat="43.21806" lon="1.9874">
        <ele>321.28399658203</ele>
        <time>2012-07-22T08:24:35Z</time>
      </trkpt>
      <trkpt lat="43.21795" lon="1.9882">
        <ele>316.52600097656</ele>
        <time>2012-07-22T08:24:41Z</time>
      </trkpt>
      <trkpt lat="43.21791" lon="1.98872">
        <ele>310.79800415039</ele>
        <time>2012-07-22T08:24:45Z</time>
      </trkpt>
      <trkpt lat="43.21773" lon="1.98936">
        <ele>304.25900268555</ele>
        <time>2012-07-22T08:24:50Z</time>
      </trkpt>
      <trkpt lat="43.21758" lon="1.99012">
        <ele>297.17700195312</ele>
        <time>2012-07-22T08:24:55Z</time>
      </trkpt>
      <trkpt lat="43.21757" lon="1.99027">
        <ele>295.01998901367</ele>
        <time>2012-07-22T08:24:56Z</time>
      </trkpt>
      <trkpt lat="43.21759" lon="1.99075">
        <ele>290.62298583984</ele>
        <time>2012-07-22T08:24:59Z</time>
      </trkpt>
      <trkpt lat="43.21754" lon="1.99172">
        <ele>283.60400390625</ele>
        <time>2012-07-22T08:25:05Z</time>
      </trkpt>
      <trkpt lat="43.21752" lon="1.99203">
        <ele>282.27301025391</ele>
        <time>2012-07-22T08:25:07Z</time>
      </trkpt>
      <trkpt lat="43.21736" lon="1.99253">
        <ele>279.89999389648</ele>
        <time>2012-07-22T08:25:11Z</time>
      </trkpt>
      <trkpt lat="43.21707" lon="1.99313">
        <ele>277.63800048828</ele>
        <time>2012-07-22T08:25:17Z</time>
      </trkpt>
      <trkpt lat="43.21673" lon="1.99383">
        <ele>274.02600097656</ele>
        <time>2012-07-22T08:25:24Z</time>
      </trkpt>
      <trkpt lat="43.21648" lon="1.99444">
        <ele>268.81900024414</ele>
        <time>2012-07-22T08:25:29Z</time>
      </trkpt>
      <trkpt lat="43.21632" lon="1.99489">
        <ele>264.74200439453</ele>
        <time>2012-07-22T08:25:33Z</time>
      </trkpt>
      <trkpt lat="43.21627" lon="1.99503">
        <ele>261.11999511719</ele>
        <time>2012-07-22T08:25:36Z</time>
      </trkpt>
      <trkpt lat="43.21623" lon="1.99512">
        <ele>258.81201171875</ele>
        <time>2012-07-22T08:25:39Z</time>
      </trkpt>
      <trkpt lat="43.21623" lon="1.99527">
        <ele>258.25201416016</ele>
        <time>2012-07-22T08:25:45Z</time>
      </trkpt>
      <trkpt lat="43.21623" lon="1.9953">
        <ele>258.25900268555</ele>
        <time>2012-07-22T08:25:46Z</time>
      </trkpt>
      <trkpt lat="43.21618" lon="1.99545">
        <ele>258.67498779297</ele>
        <time>2012-07-22T08:25:53Z</time>
      </trkpt>
      <trkpt lat="43.21605" lon="1.99567">
        <ele>258.22299194336</ele>
        <time>2012-07-22T08:26:03Z</time>
      </trkpt>
      <trkpt lat="43.21602" lon="1.99569">
        <ele>258.03799438477</ele>
        <time>2012-07-22T08:26:08Z</time>
      </trkpt>
      <trkpt lat="43.21603" lon="1.99568">
        <ele>257.99398803711</ele>
        <time>2012-07-22T08:26:32Z</time>
      </trkpt>
      <trkpt lat="43.21605" lon="1.99567">
        <ele>257.40798950195</ele>
        <time>2012-07-22T08:26:38Z</time>
      </trkpt>
      <trkpt lat="43.21604" lon="1.99567">
        <ele>258.55499267578</ele>
        <time>2012-07-22T08:29:47Z</time>
      </trkpt>
      <trkpt lat="43.21601" lon="1.99571">
        <ele>258.73699951172</ele>
        <time>2012-07-22T08:29:53Z</time>
      </trkpt>
      <trkpt lat="43.21598" lon="1.99578">
        <ele>258.94900512695</ele>
        <time>2012-07-22T08:29:58Z</time>
      </trkpt>
      <trkpt lat="43.2159" lon="1.9959">
        <ele>258.89001464844</ele>
        <time>2012-07-22T08:30:06Z</time>
      </trkpt>
      <trkpt lat="43.21582" lon="1.99604">
        <ele>258.90100097656</ele>
        <time>2012-07-22T08:30:14Z</time>
      </trkpt>
      <trkpt lat="43.21573" lon="1.99618">
        <ele>259.08999633789</ele>
        <time>2012-07-22T08:30:22Z</time>
      </trkpt>
      <trkpt lat="43.21561" lon="1.99636">
        <ele>258.875</ele>
        <time>2012-07-22T08:30:31Z</time>
      </trkpt>
      <trkpt lat="43.21555" lon="1.99644">
        <ele>258.78900146484</ele>
        <time>2012-07-22T08:30:37Z</time>
      </trkpt>
      <trkpt lat="43.21554" lon="1.99645">
        <ele>258.79098510742</ele>
        <time>2012-07-22T08:30:38Z</time>
      </trkpt>
      <trkpt lat="43.21537" lon="1.99649">
        <ele>258.3450012207</ele>
        <time>2012-07-22T08:30:44Z</time>
      </trkpt>
      <trkpt lat="43.21532" lon="1.9965">
        <ele>257.97198486328</ele>
        <time>2012-07-22T08:30:45Z</time>
      </trkpt>
      <trkpt lat="43.21507" lon="1.99663">
        <ele>255.91000366211</ele>
        <time>2012-07-22T08:30:49Z</time>
      </trkpt>
      <trkpt lat="43.21487" lon="1.99701">
        <ele>252.22900390625</ele>
        <time>2012-07-22T08:30:53Z</time>
      </trkpt>
      <trkpt lat="43.21486" lon="1.99714">
        <ele>251.87600708008</ele>
        <time>2012-07-22T08:30:54Z</time>
      </trkpt>
      <trkpt lat="43.21482" lon="1.9975">
        <ele>250.63900756836</ele>
        <time>2012-07-22T08:30:57Z</time>
      </trkpt>
      <trkpt lat="43.21473" lon="1.99765">
        <ele>247.99800109863</ele>
        <time>2012-07-22T08:31:01Z</time>
      </trkpt>
      <trkpt lat="43.21469" lon="1.99763">
        <ele>247.7559967041</ele>
        <time>2012-07-22T08:31:02Z</time>
      </trkpt>
      <trkpt lat="43.21458" lon="1.99752">
        <ele>247.41700744629</ele>
        <time>2012-07-22T08:31:06Z</time>
      </trkpt>
      <trkpt lat="43.21441" lon="1.99743">
        <ele>247.62199401856</ele>
        <time>2012-07-22T08:31:13Z</time>
      </trkpt>
      <trkpt lat="43.21425" lon="1.99733">
        <ele>248.76899719238</ele>
        <time>2012-07-22T08:31:19Z</time>
      </trkpt>
      <trkpt lat="43.2141" lon="1.99725">
        <ele>249.98300170898</ele>
        <time>2012-07-22T08:31:25Z</time>
      </trkpt>
      <trkpt lat="43.21387" lon="1.99712">
        <ele>252.12600708008</ele>
        <time>2012-07-22T08:31:34Z</time>
      </trkpt>
      <trkpt lat="43.21371" lon="1.99705">
        <ele>253.86999511719</ele>
        <time>2012-07-22T08:31:41Z</time>
      </trkpt>
      <trkpt lat="43.21359" lon="1.99698">
        <ele>255.19400024414</ele>
        <time>2012-07-22T08:31:47Z</time>
      </trkpt>
      <trkpt lat="43.21351" lon="1.99692">
        <ele>256.58999633789</ele>
        <time>2012-07-22T08:31:52Z</time>
      </trkpt>
      <trkpt lat="43.21338" lon="1.99684">
        <ele>258.39199829102</ele>
        <time>2012-07-22T08:31:59Z</time>
      </trkpt>
      <trkpt lat="43.21326" lon="1.99677">
        <ele>260.15200805664</ele>
        <time>2012-07-22T08:32:05Z</time>
      </trkpt>
      <trkpt lat="43.21309" lon="1.99667">
        <ele>263.39401245117</ele>
        <time>2012-07-22T08:32:14Z</time>
      </trkpt>
      <trkpt lat="43.2129" lon="1.99656">
        <ele>266.11099243164</ele>
        <time>2012-07-22T08:32:23Z</time>
      </trkpt>
      <trkpt lat="43.21282" lon="1.99651">
        <ele>267.78698730469</ele>
        <time>2012-07-22T08:32:27Z</time>
      </trkpt>
      <trkpt lat="43.21281" lon="1.9965">
        <ele>268.26901245117</ele>
        <time>2012-07-22T08:32:28Z</time>
      </trkpt>
      <trkpt lat="43.21276" lon="1.99656">
        <ele>269.60800170898</ele>
        <time>2012-07-22T08:32:33Z</time>
      </trkpt>
      <trkpt lat="43.21276" lon="1.99658">
        <ele>269.57501220703</ele>
        <time>2012-07-22T08:32:34Z</time>
      </trkpt>
      <trkpt lat="43.2127" lon="1.99683">
        <ele>269.0710144043</ele>
        <time>2012-07-22T08:32:43Z</time>
      </trkpt>
      <trkpt lat="43.21262" lon="1.99722">
        <ele>268.73001098633</ele>
        <time>2012-07-22T08:32:54Z</time>
      </trkpt>
      <trkpt lat="43.21256" lon="1.99743">
        <ele>268.51599121094</ele>
        <time>2012-07-22T08:33:00Z</time>
      </trkpt>
      <trkpt lat="43.21248" lon="1.99778">
        <ele>267.98699951172</ele>
        <time>2012-07-22T08:33:10Z</time>
      </trkpt>
      <trkpt lat="43.21241" lon="1.99805">
        <ele>268.0530090332</ele>
        <time>2012-07-22T08:33:19Z</time>
      </trkpt>
      <trkpt lat="43.21235" lon="1.99829">
        <ele>267.98999023438</ele>
        <time>2012-07-22T08:33:27Z</time>
      </trkpt>
      <trkpt lat="43.21226" lon="1.99861">
        <ele>268.33898925781</ele>
        <time>2012-07-22T08:33:35Z</time>
      </trkpt>
      <trkpt lat="43.21217" lon="1.9989">
        <ele>268.5</ele>
        <time>2012-07-22T08:33:42Z</time>
      </trkpt>
      <trkpt lat="43.21205" lon="1.99929">
        <ele>269.0710144043</ele>
        <time>2012-07-22T08:33:51Z</time>
      </trkpt>
      <trkpt lat="43.21195" lon="1.99959">
        <ele>269.46099853516</ele>
        <time>2012-07-22T08:33:59Z</time>
      </trkpt>
      <trkpt lat="43.21185" lon="1.99989">
        <ele>269.31799316406</ele>
        <time>2012-07-22T08:34:07Z</time>
      </trkpt>
      <trkpt lat="43.21177" lon="2.00007">
        <ele>269.93600463867</ele>
        <time>2012-07-22T08:34:13Z</time>
      </trkpt>
      <trkpt lat="43.21163" lon="2.00037">
        <ele>270.24600219727</ele>
        <time>2012-07-22T08:34:22Z</time>
      </trkpt>
      <trkpt lat="43.21149" lon="2.00064">
        <ele>271.43200683594</ele>
        <time>2012-07-22T08:34:31Z</time>
      </trkpt>
      <trkpt lat="43.21141" lon="2.00083">
        <ele>271.89401245117</ele>
        <time>2012-07-22T08:34:37Z</time>
      </trkpt>
      <trkpt lat="43.21131" lon="2.00104">
        <ele>273.02200317383</ele>
        <time>2012-07-22T08:34:44Z</time>
      </trkpt>
      <trkpt lat="43.21122" lon="2.00127">
        <ele>274.40600585938</ele>
        <time>2012-07-22T08:34:52Z</time>
      </trkpt>
      <trkpt lat="43.21112" lon="2.0015">
        <ele>275.11599731445</ele>
        <time>2012-07-22T08:34:59Z</time>
      </trkpt>
      <trkpt lat="43.21095" lon="2.00191">
        <ele>275.70700073242</ele>
        <time>2012-07-22T08:35:10Z</time>
      </trkpt>
      <trkpt lat="43.2108" lon="2.00229">
        <ele>276.2080078125</ele>
        <time>2012-07-22T08:35:19Z</time>
      </trkpt>
      <trkpt lat="43.2106" lon="2.00277">
        <ele>276.78698730469</ele>
        <time>2012-07-22T08:35:30Z</time>
      </trkpt>
      <trkpt lat="43.21044" lon="2.00314">
        <ele>277.31600952148</ele>
        <time>2012-07-22T08:35:39Z</time>
      </trkpt>
      <trkpt lat="43.21025" lon="2.00357">
        <ele>278.36801147461</ele>
        <time>2012-07-22T08:35:50Z</time>
      </trkpt>
      <trkpt lat="43.21007" lon="2.00395">
        <ele>279.73699951172</ele>
        <time>2012-07-22T08:36:00Z</time>
      </trkpt>
      <trkpt lat="43.20989" lon="2.00425">
        <ele>279.78201293945</ele>
        <time>2012-07-22T08:36:07Z</time>
      </trkpt>
      <trkpt lat="43.20957" lon="2.00463">
        <ele>278.84201049805</ele>
        <time>2012-07-22T08:36:16Z</time>
      </trkpt>
      <trkpt lat="43.20933" lon="2.00498">
        <ele>277.96499633789</ele>
        <time>2012-07-22T08:36:23Z</time>
      </trkpt>
      <trkpt lat="43.2091" lon="2.00552">
        <ele>278.52099609375</ele>
        <time>2012-07-22T08:36:32Z</time>
      </trkpt>
      <trkpt lat="43.20884" lon="2.00616">
        <ele>279.39099121094</ele>
        <time>2012-07-22T08:36:42Z</time>
      </trkpt>
      <trkpt lat="43.20872" lon="2.00644">
        <ele>279.38500976562</ele>
        <time>2012-07-22T08:36:47Z</time>
      </trkpt>
      <trkpt lat="43.20877" lon="2.00667">
        <ele>279.25100708008</ele>
        <time>2012-07-22T08:36:51Z</time>
      </trkpt>
      <trkpt lat="43.20881" lon="2.00672">
        <ele>279.17001342773</ele>
        <time>2012-07-22T08:36:52Z</time>
      </trkpt>
      <trkpt lat="43.20908" lon="2.00703">
        <ele>277.1969909668</ele>
        <time>2012-07-22T08:36:57Z</time>
      </trkpt>
      <trkpt lat="43.20943" lon="2.0074">
        <ele>275.50698852539</ele>
        <time>2012-07-22T08:37:02Z</time>
      </trkpt>
      <trkpt lat="43.20982" lon="2.00776">
        <ele>273.2919921875</ele>
        <time>2012-07-22T08:37:07Z</time>
      </trkpt>
      <trkpt lat="43.21008" lon="2.00795">
        <ele>271.61499023438</ele>
        <time>2012-07-22T08:37:10Z</time>
      </trkpt>
      <trkpt lat="43.2103" lon="2.0082">
        <ele>270.13400268555</ele>
        <time>2012-07-22T08:37:13Z</time>
      </trkpt>
      <trkpt lat="43.21036" lon="2.0083">
        <ele>269.67401123047</ele>
        <time>2012-07-22T08:37:14Z</time>
      </trkpt>
      <trkpt lat="43.21058" lon="2.00869">
        <ele>267.73400878906</ele>
        <time>2012-07-22T08:37:18Z</time>
      </trkpt>
      <trkpt lat="43.21097" lon="2.00917">
        <ele>265.22601318359</ele>
        <time>2012-07-22T08:37:24Z</time>
      </trkpt>
      <trkpt lat="43.2114" lon="2.00974">
        <ele>261.00799560547</ele>
        <time>2012-07-22T08:37:31Z</time>
      </trkpt>
      <trkpt lat="43.21165" lon="2.01032">
        <ele>258.50799560547</ele>
        <time>2012-07-22T08:37:37Z</time>
      </trkpt>
      <trkpt lat="43.21184" lon="2.01097">
        <ele>257.27801513672</ele>
        <time>2012-07-22T08:37:43Z</time>
      </trkpt>
      <trkpt lat="43.21197" lon="2.01139">
        <ele>254.87100219727</ele>
        <time>2012-07-22T08:37:47Z</time>
      </trkpt>
      <trkpt lat="43.21215" lon="2.01161">
        <ele>252.77200317383</ele>
        <time>2012-07-22T08:37:51Z</time>
      </trkpt>
      <trkpt lat="43.21227" lon="2.01165">
        <ele>252.42399597168</ele>
        <time>2012-07-22T08:37:53Z</time>
      </trkpt>
      <trkpt lat="43.21248" lon="2.01167">
        <ele>252.02099609375</ele>
        <time>2012-07-22T08:37:56Z</time>
      </trkpt>
      <trkpt lat="43.21287" lon="2.01152">
        <ele>249.42100524902</ele>
        <time>2012-07-22T08:38:01Z</time>
      </trkpt>
      <trkpt lat="43.21321" lon="2.01147">
        <ele>246.77400207519</ele>
        <time>2012-07-22T08:38:05Z</time>
      </trkpt>
      <trkpt lat="43.21336" lon="2.01144">
        <ele>245.85000610352</ele>
        <time>2012-07-22T08:38:07Z</time>
      </trkpt>
      <trkpt lat="43.2135" lon="2.0114">
        <ele>245.00500488281</ele>
        <time>2012-07-22T08:38:09Z</time>
      </trkpt>
      <trkpt lat="43.21391" lon="2.01144">
        <ele>242.85400390625</ele>
        <time>2012-07-22T08:38:15Z</time>
      </trkpt>
      <trkpt lat="43.21406" lon="2.01148">
        <ele>242.67100524902</ele>
        <time>2012-07-22T08:38:17Z</time>
      </trkpt>
      <trkpt lat="43.21432" lon="2.01166">
        <ele>242.26100158691</ele>
        <time>2012-07-22T08:38:21Z</time>
      </trkpt>
      <trkpt lat="43.2145" lon="2.01188">
        <ele>241.10099792481</ele>
        <time>2012-07-22T08:38:24Z</time>
      </trkpt>
      <trkpt lat="43.21487" lon="2.0122">
        <ele>236.69999694824</ele>
        <time>2012-07-22T08:38:29Z</time>
      </trkpt>
      <trkpt lat="43.215" lon="2.01225">
        <ele>233.61500549316</ele>
        <time>2012-07-22T08:38:32Z</time>
      </trkpt>
      <trkpt lat="43.21497" lon="2.01225">
        <ele>232.14500427246</ele>
        <time>2012-07-22T08:40:21Z</time>
      </trkpt>
      <trkpt lat="43.2149" lon="2.01231">
        <ele>231.98899841309</ele>
        <time>2012-07-22T08:40:26Z</time>
      </trkpt>
      <trkpt lat="43.21479" lon="2.01238">
        <ele>231.49099731445</ele>
        <time>2012-07-22T08:40:29Z</time>
      </trkpt>
      <trkpt lat="43.21466" lon="2.01255">
        <ele>230.40199279785</ele>
        <time>2012-07-22T08:40:33Z</time>
      </trkpt>
      <trkpt lat="43.21473" lon="2.01281">
        <ele>229.60299682617</ele>
        <time>2012-07-22T08:40:38Z</time>
      </trkpt>
      <trkpt lat="43.21478" lon="2.01291">
        <ele>229.40699768066</ele>
        <time>2012-07-22T08:40:40Z</time>
      </trkpt>
      <trkpt lat="43.21492" lon="2.01315">
        <ele>228.96600341797</ele>
        <time>2012-07-22T08:40:44Z</time>
      </trkpt>
      <trkpt lat="43.21494" lon="2.01323">
        <ele>228.90899658203</ele>
        <time>2012-07-22T08:40:45Z</time>
      </trkpt>
      <trkpt lat="43.21496" lon="2.01348">
        <ele>228.89500427246</ele>
        <time>2012-07-22T08:40:48Z</time>
      </trkpt>
      <trkpt lat="43.21499" lon="2.01372">
        <ele>228.65899658203</ele>
        <time>2012-07-22T08:40:51Z</time>
      </trkpt>
      <trkpt lat="43.21502" lon="2.01422">
        <ele>228.67999267578</ele>
        <time>2012-07-22T08:40:57Z</time>
      </trkpt>
      <trkpt lat="43.21504" lon="2.01438">
        <ele>228.41499328613</ele>
        <time>2012-07-22T08:40:59Z</time>
      </trkpt>
      <trkpt lat="43.21517" lon="2.01473">
        <ele>226.57499694824</ele>
        <time>2012-07-22T08:41:03Z</time>
      </trkpt>
      <trkpt lat="43.21521" lon="2.01482">
        <ele>226.01600646973</ele>
        <time>2012-07-22T08:41:04Z</time>
      </trkpt>
      <trkpt lat="43.21532" lon="2.01501">
        <ele>225.28500366211</ele>
        <time>2012-07-22T08:41:06Z</time>
      </trkpt>
      <trkpt lat="43.21549" lon="2.01551">
        <ele>224.58200073242</ele>
        <time>2012-07-22T08:41:11Z</time>
      </trkpt>
      <trkpt lat="43.2156" lon="2.01602">
        <ele>223.73399353027</ele>
        <time>2012-07-22T08:41:16Z</time>
      </trkpt>
      <trkpt lat="43.21571" lon="2.01654">
        <ele>221.40600585938</ele>
        <time>2012-07-22T08:41:21Z</time>
      </trkpt>
      <trkpt lat="43.21591" lon="2.01709">
        <ele>215.30700683594</ele>
        <time>2012-07-22T08:41:26Z</time>
      </trkpt>
      <trkpt lat="43.21594" lon="2.01722">
        <ele>214.49699401856</ele>
        <time>2012-07-22T08:41:27Z</time>
      </trkpt>
      <trkpt lat="43.21596" lon="2.0177">
        <ele>210.25100708008</ele>
        <time>2012-07-22T08:41:31Z</time>
      </trkpt>
      <trkpt lat="43.21588" lon="2.01784">
        <ele>209.21499633789</ele>
        <time>2012-07-22T08:41:33Z</time>
      </trkpt>
      <trkpt lat="43.21575" lon="2.01795">
        <ele>208.17900085449</ele>
        <time>2012-07-22T08:41:36Z</time>
      </trkpt>
      <trkpt lat="43.21554" lon="2.0181">
        <ele>208.60600280762</ele>
        <time>2012-07-22T08:41:40Z</time>
      </trkpt>
      <trkpt lat="43.21524" lon="2.01823">
        <ele>209.25</ele>
        <time>2012-07-22T08:41:45Z</time>
      </trkpt>
      <trkpt lat="43.21502" lon="2.01844">
        <ele>210.79600524902</ele>
        <time>2012-07-22T08:41:50Z</time>
      </trkpt>
      <trkpt lat="43.21485" lon="2.01863">
        <ele>211.95199584961</ele>
        <time>2012-07-22T08:41:55Z</time>
      </trkpt>
      <trkpt lat="43.21472" lon="2.01873">
        <ele>213.43200683594</ele>
        <time>2012-07-22T08:41:59Z</time>
      </trkpt>
      <trkpt lat="43.2146" lon="2.0188">
        <ele>214.35600280762</ele>
        <time>2012-07-22T08:42:03Z</time>
      </trkpt>
      <trkpt lat="43.21453" lon="2.01888">
        <ele>214.11199951172</ele>
        <time>2012-07-22T08:42:07Z</time>
      </trkpt>
      <trkpt lat="43.21449" lon="2.01888">
        <ele>214.11500549316</ele>
        <time>2012-07-22T08:42:08Z</time>
      </trkpt>
      <trkpt lat="43.21431" lon="2.01878">
        <ele>215.20799255371</ele>
        <time>2012-07-22T08:42:15Z</time>
      </trkpt>
      <trkpt lat="43.21417" lon="2.01871">
        <ele>216.09800720215</ele>
        <time>2012-07-22T08:42:21Z</time>
      </trkpt>
      <trkpt lat="43.21396" lon="2.01861">
        <ele>217.43600463867</ele>
        <time>2012-07-22T08:42:29Z</time>
      </trkpt>
      <trkpt lat="43.21375" lon="2.01857">
        <ele>218.52000427246</ele>
        <time>2012-07-22T08:42:37Z</time>
      </trkpt>
      <trkpt lat="43.21368" lon="2.01857">
        <ele>219.55099487305</ele>
        <time>2012-07-22T08:42:41Z</time>
      </trkpt>
      <trkpt lat="43.21356" lon="2.01852">
        <ele>220.44000244141</ele>
        <time>2012-07-22T08:42:47Z</time>
      </trkpt>
      <trkpt lat="43.21339" lon="2.01838">
        <ele>220.71699523926</ele>
        <time>2012-07-22T08:42:53Z</time>
      </trkpt>
      <trkpt lat="43.21317" lon="2.01823">
        <ele>221.22999572754</ele>
        <time>2012-07-22T08:43:01Z</time>
      </trkpt>
      <trkpt lat="43.21304" lon="2.01821">
        <ele>221.80700683594</ele>
        <time>2012-07-22T08:43:06Z</time>
      </trkpt>
      <trkpt lat="43.21292" lon="2.01821">
        <ele>222.68099975586</ele>
        <time>2012-07-22T08:43:11Z</time>
      </trkpt>
      <trkpt lat="43.2128" lon="2.01816">
        <ele>223.75799560547</ele>
        <time>2012-07-22T08:43:17Z</time>
      </trkpt>
      <trkpt lat="43.21267" lon="2.01815">
        <ele>225.35800170898</ele>
        <time>2012-07-22T08:43:22Z</time>
      </trkpt>
      <trkpt lat="43.21253" lon="2.01825">
        <ele>225.77900695801</ele>
        <time>2012-07-22T08:43:28Z</time>
      </trkpt>
      <trkpt lat="43.21247" lon="2.01835">
        <ele>225.77299499512</ele>
        <time>2012-07-22T08:43:32Z</time>
      </trkpt>
      <trkpt lat="43.21239" lon="2.01851">
        <ele>227.04400634766</ele>
        <time>2012-07-22T08:43:38Z</time>
      </trkpt>
      <trkpt lat="43.21228" lon="2.01869">
        <ele>228.51400756836</ele>
        <time>2012-07-22T08:43:45Z</time>
      </trkpt>
      <trkpt lat="43.21221" lon="2.01887">
        <ele>229.77699279785</ele>
        <time>2012-07-22T08:43:51Z</time>
      </trkpt>
      <trkpt lat="43.21214" lon="2.0191">
        <ele>231.39999389648</ele>
        <time>2012-07-22T08:43:58Z</time>
      </trkpt>
      <trkpt lat="43.21209" lon="2.01931">
        <ele>232.50900268555</ele>
        <time>2012-07-22T08:44:04Z</time>
      </trkpt>
      <trkpt lat="43.21204" lon="2.01955">
        <ele>233.95500183106</ele>
        <time>2012-07-22T08:44:11Z</time>
      </trkpt>
      <trkpt lat="43.21198" lon="2.01979">
        <ele>236.16999816894</ele>
        <time>2012-07-22T08:44:18Z</time>
      </trkpt>
      <trkpt lat="43.2119" lon="2.01996">
        <ele>237.71299743652</ele>
        <time>2012-07-22T08:44:24Z</time>
      </trkpt>
      <trkpt lat="43.21181" lon="2.02015">
        <ele>239.62800598144</ele>
        <time>2012-07-22T08:44:31Z</time>
      </trkpt>
      <trkpt lat="43.2117" lon="2.02033">
        <ele>240.69299316406</ele>
        <time>2012-07-22T08:44:39Z</time>
      </trkpt>
      <trkpt lat="43.21159" lon="2.02054">
        <ele>241.91700744629</ele>
        <time>2012-07-22T08:44:48Z</time>
      </trkpt>
      <trkpt lat="43.21153" lon="2.02065">
        <ele>243.11199951172</ele>
        <time>2012-07-22T08:44:54Z</time>
      </trkpt>
      <trkpt lat="43.21148" lon="2.02076">
        <ele>244.45599365234</ele>
        <time>2012-07-22T08:45:00Z</time>
      </trkpt>
      <trkpt lat="43.21144" lon="2.02089">
        <ele>246.17799377441</ele>
        <time>2012-07-22T08:45:08Z</time>
      </trkpt>
      <trkpt lat="43.21145" lon="2.0209">
        <ele>246.66900634766</ele>
        <time>2012-07-22T08:45:13Z</time>
      </trkpt>
      <trkpt lat="43.21144" lon="2.02095">
        <ele>246.78199768066</ele>
        <time>2012-07-22T08:45:36Z</time>
      </trkpt>
      <trkpt lat="43.21135" lon="2.02108">
        <ele>248.39599609375</ele>
        <time>2012-07-22T08:45:43Z</time>
      </trkpt>
      <trkpt lat="43.21125" lon="2.02119">
        <ele>250.07099914551</ele>
        <time>2012-07-22T08:45:49Z</time>
      </trkpt>
      <trkpt lat="43.21114" lon="2.02134">
        <ele>251.98699951172</ele>
        <time>2012-07-22T08:45:56Z</time>
      </trkpt>
      <trkpt lat="43.21102" lon="2.0215">
        <ele>253.97200012207</ele>
        <time>2012-07-22T08:46:05Z</time>
      </trkpt>
      <trkpt lat="43.21097" lon="2.02159">
        <ele>255.4880065918</ele>
        <time>2012-07-22T08:46:12Z</time>
      </trkpt>
      <trkpt lat="43.21088" lon="2.02168">
        <ele>257.24600219727</ele>
        <time>2012-07-22T08:46:19Z</time>
      </trkpt>
      <trkpt lat="43.21077" lon="2.02176">
        <ele>259.6969909668</ele>
        <time>2012-07-22T08:46:28Z</time>
      </trkpt>
      <trkpt lat="43.21066" lon="2.02185">
        <ele>261.90798950195</ele>
        <time>2012-07-22T08:46:37Z</time>
      </trkpt>
      <trkpt lat="43.21055" lon="2.02195">
        <ele>264.55599975586</ele>
        <time>2012-07-22T08:46:46Z</time>
      </trkpt>
      <trkpt lat="43.21045" lon="2.02203">
        <ele>266.82501220703</ele>
        <time>2012-07-22T08:46:55Z</time>
      </trkpt>
      <trkpt lat="43.21034" lon="2.02214">
        <ele>269.51300048828</ele>
        <time>2012-07-22T08:47:05Z</time>
      </trkpt>
      <trkpt lat="43.21025" lon="2.02223">
        <ele>271.76501464844</ele>
        <time>2012-07-22T08:47:13Z</time>
      </trkpt>
      <trkpt lat="43.21016" lon="2.02231">
        <ele>273.84399414062</ele>
        <time>2012-07-22T08:47:21Z</time>
      </trkpt>
      <trkpt lat="43.21007" lon="2.02237">
        <ele>275.63800048828</ele>
        <time>2012-07-22T08:47:28Z</time>
      </trkpt>
      <trkpt lat="43.20998" lon="2.02245">
        <ele>277.36099243164</ele>
        <time>2012-07-22T08:47:35Z</time>
      </trkpt>
      <trkpt lat="43.20987" lon="2.02258">
        <ele>279.16500854492</ele>
        <time>2012-07-22T08:47:44Z</time>
      </trkpt>
      <trkpt lat="43.20986" lon="2.0226">
        <ele>279.46499633789</ele>
        <time>2012-07-22T08:47:45Z</time>
      </trkpt>
      <trkpt lat="43.20977" lon="2.02271">
        <ele>281.16299438477</ele>
        <time>2012-07-22T08:47:53Z</time>
      </trkpt>
      <trkpt lat="43.20971" lon="2.02282">
        <ele>282.93399047852</ele>
        <time>2012-07-22T08:48:00Z</time>
      </trkpt>
      <trkpt lat="43.20965" lon="2.02292">
        <ele>284.49899291992</ele>
        <time>2012-07-22T08:48:07Z</time>
      </trkpt>
      <trkpt lat="43.20955" lon="2.02306">
        <ele>286.84600830078</ele>
        <time>2012-07-22T08:48:17Z</time>
      </trkpt>
      <trkpt lat="43.20946" lon="2.02318">
        <ele>289.11099243164</ele>
        <time>2012-07-22T08:48:26Z</time>
      </trkpt>
      <trkpt lat="43.20945" lon="2.02319">
        <ele>289.41500854492</ele>
        <time>2012-07-22T08:48:27Z</time>
      </trkpt>
      <trkpt lat="43.20946" lon="2.02331">
        <ele>291.91299438477</ele>
        <time>2012-07-22T08:48:35Z</time>
      </trkpt>
      <trkpt lat="43.20952" lon="2.0234">
        <ele>293.30999755859</ele>
        <time>2012-07-22T08:48:43Z</time>
      </trkpt>
      <trkpt lat="43.20958" lon="2.02344">
        <ele>294.53601074219</ele>
        <time>2012-07-22T08:48:49Z</time>
      </trkpt>
      <trkpt lat="43.20959" lon="2.02346">
        <ele>294.58499145508</ele>
        <time>2012-07-22T08:48:53Z</time>
      </trkpt>
      <trkpt lat="43.20958" lon="2.02351">
        <ele>294.67401123047</ele>
        <time>2012-07-22T08:48:59Z</time>
      </trkpt>
      <trkpt lat="43.2096" lon="2.02348">
        <ele>294.24398803711</ele>
        <time>2012-07-22T08:50:18Z</time>
      </trkpt>
      <trkpt lat="43.20959" lon="2.02349">
        <ele>294.20599365234</ele>
        <time>2012-07-22T08:50:22Z</time>
      </trkpt>
      <trkpt lat="43.20952" lon="2.02356">
        <ele>295.17599487305</ele>
        <time>2012-07-22T08:50:30Z</time>
      </trkpt>
      <trkpt lat="43.20943" lon="2.02362">
        <ele>296.43499755859</ele>
        <time>2012-07-22T08:50:37Z</time>
      </trkpt>
      <trkpt lat="43.20933" lon="2.02363">
        <ele>297.25799560547</ele>
        <time>2012-07-22T08:50:43Z</time>
      </trkpt>
      <trkpt lat="43.20923" lon="2.02363">
        <ele>298.27899169922</ele>
        <time>2012-07-22T08:50:50Z</time>
      </trkpt>
      <trkpt lat="43.20914" lon="2.02367">
        <ele>299.30801391602</ele>
        <time>2012-07-22T08:50:57Z</time>
      </trkpt>
      <trkpt lat="43.20911" lon="2.0237">
        <ele>299.86199951172</ele>
        <time>2012-07-22T08:51:00Z</time>
      </trkpt>
      <trkpt lat="43.20907" lon="2.02378">
        <ele>300.80801391602</ele>
        <time>2012-07-22T08:51:05Z</time>
      </trkpt>
      <trkpt lat="43.20895" lon="2.02386">
        <ele>302.73098754883</ele>
        <time>2012-07-22T08:51:15Z</time>
      </trkpt>
      <trkpt lat="43.20891" lon="2.02389">
        <ele>304.68099975586</ele>
        <time>2012-07-22T08:51:21Z</time>
      </trkpt>
      <trkpt lat="43.20886" lon="2.02393">
        <ele>305.16799926758</ele>
        <time>2012-07-22T08:51:52Z</time>
      </trkpt>
      <trkpt lat="43.20878" lon="2.02395">
        <ele>307.60501098633</ele>
        <time>2012-07-22T08:51:57Z</time>
      </trkpt>
      <trkpt lat="43.20869" lon="2.02398">
        <ele>309.61599731445</ele>
        <time>2012-07-22T08:52:04Z</time>
      </trkpt>
      <trkpt lat="43.20862" lon="2.02408">
        <ele>310.13500976562</ele>
        <time>2012-07-22T08:52:12Z</time>
      </trkpt>
      <trkpt lat="43.20855" lon="2.02418">
        <ele>310.21301269531</ele>
        <time>2012-07-22T08:52:20Z</time>
      </trkpt>
      <trkpt lat="43.20853" lon="2.02422">
        <ele>310.38800048828</ele>
        <time>2012-07-22T08:52:25Z</time>
      </trkpt>
      <trkpt lat="43.20848" lon="2.02432">
        <ele>310.86599731445</ele>
        <time>2012-07-22T08:52:31Z</time>
      </trkpt>
      <trkpt lat="43.20839" lon="2.02448">
        <ele>310.91299438477</ele>
        <time>2012-07-22T08:52:38Z</time>
      </trkpt>
      <trkpt lat="43.20828" lon="2.02452">
        <ele>311.47100830078</ele>
        <time>2012-07-22T08:52:44Z</time>
      </trkpt>
      <trkpt lat="43.2081" lon="2.02462">
        <ele>312.28201293945</ele>
        <time>2012-07-22T08:52:53Z</time>
      </trkpt>
      <trkpt lat="43.20797" lon="2.02473">
        <ele>312.76300048828</ele>
        <time>2012-07-22T08:53:00Z</time>
      </trkpt>
      <trkpt lat="43.20785" lon="2.02499">
        <ele>313.68899536133</ele>
        <time>2012-07-22T08:53:09Z</time>
      </trkpt>
      <trkpt lat="43.20773" lon="2.02523">
        <ele>314.09298706055</ele>
        <time>2012-07-22T08:53:17Z</time>
      </trkpt>
      <trkpt lat="43.20762" lon="2.02542">
        <ele>314.50900268555</ele>
        <time>2012-07-22T08:53:24Z</time>
      </trkpt>
      <trkpt lat="43.20752" lon="2.02565">
        <ele>315.15301513672</ele>
        <time>2012-07-22T08:53:32Z</time>
      </trkpt>
      <trkpt lat="43.20742" lon="2.02593">
        <ele>314.72198486328</ele>
        <time>2012-07-22T08:53:40Z</time>
      </trkpt>
      <trkpt lat="43.20729" lon="2.02619">
        <ele>315.33401489258</ele>
        <time>2012-07-22T08:53:48Z</time>
      </trkpt>
      <trkpt lat="43.20713" lon="2.0264">
        <ele>316.08099365234</ele>
        <time>2012-07-22T08:53:56Z</time>
      </trkpt>
      <trkpt lat="43.207" lon="2.02651">
        <ele>316.70599365234</ele>
        <time>2012-07-22T08:54:02Z</time>
      </trkpt>
      <trkpt lat="43.20691" lon="2.02655">
        <ele>317.18200683594</ele>
        <time>2012-07-22T08:54:08Z</time>
      </trkpt>
      <trkpt lat="43.20679" lon="2.0266">
        <ele>317.74798583984</ele>
        <time>2012-07-22T08:54:15Z</time>
      </trkpt>
      <trkpt lat="43.2067" lon="2.02663">
        <ele>317.95599365234</ele>
        <time>2012-07-22T08:54:21Z</time>
      </trkpt>
      <trkpt lat="43.20666" lon="2.02664">
        <ele>317.9469909668</ele>
        <time>2012-07-22T08:54:26Z</time>
      </trkpt>
      <trkpt lat="43.20666" lon="2.02665">
        <ele>317.91799926758</ele>
        <time>2012-07-22T08:55:49Z</time>
      </trkpt>
      <trkpt lat="43.20666" lon="2.02677">
        <ele>318.32998657227</ele>
        <time>2012-07-22T08:55:56Z</time>
      </trkpt>
      <trkpt lat="43.20665" lon="2.02681">
        <ele>318.59899902344</ele>
        <time>2012-07-22T08:55:58Z</time>
      </trkpt>
      <trkpt lat="43.20658" lon="2.02699">
        <ele>319.87899780273</ele>
        <time>2012-07-22T08:56:07Z</time>
      </trkpt>
      <trkpt lat="43.20658" lon="2.02706">
        <ele>320.58499145508</ele>
        <time>2012-07-22T08:56:13Z</time>
      </trkpt>
      <trkpt lat="43.20658" lon="2.02718">
        <ele>320.21798706055</ele>
        <time>2012-07-22T08:56:25Z</time>
      </trkpt>
      <trkpt lat="43.2066" lon="2.02735">
        <ele>318.80899047852</ele>
        <time>2012-07-22T08:56:31Z</time>
      </trkpt>
      <trkpt lat="43.20662" lon="2.02752">
        <ele>315.82000732422</ele>
        <time>2012-07-22T08:56:38Z</time>
      </trkpt>
      <trkpt lat="43.20664" lon="2.02765">
        <ele>312.72900390625</ele>
        <time>2012-07-22T08:56:43Z</time>
      </trkpt>
      <trkpt lat="43.20664" lon="2.02773">
        <ele>311.53100585938</ele>
        <time>2012-07-22T08:56:45Z</time>
      </trkpt>
      <trkpt lat="43.20662" lon="2.0279">
        <ele>308.02899169922</ele>
        <time>2012-07-22T08:56:50Z</time>
      </trkpt>
      <trkpt lat="43.20662" lon="2.02806">
        <ele>306.62899780273</ele>
        <time>2012-07-22T08:56:54Z</time>
      </trkpt>
      <trkpt lat="43.20659" lon="2.02818">
        <ele>305.96899414062</ele>
        <time>2012-07-22T08:56:56Z</time>
      </trkpt>
      <trkpt lat="43.20655" lon="2.02835">
        <ele>303.48300170898</ele>
        <time>2012-07-22T08:56:59Z</time>
      </trkpt>
      <trkpt lat="43.20645" lon="2.02859">
        <ele>297.6960144043</ele>
        <time>2012-07-22T08:57:05Z</time>
      </trkpt>
      <trkpt lat="43.20644" lon="2.0286">
        <ele>296.31500244141</ele>
        <time>2012-07-22T08:57:12Z</time>
      </trkpt>
      <trkpt lat="43.20642" lon="2.02861">
        <ele>295.89898681641</ele>
        <time>2012-07-22T08:57:24Z</time>
      </trkpt>
      <trkpt lat="43.20639" lon="2.02863">
        <ele>295.35000610352</ele>
        <time>2012-07-22T08:57:36Z</time>
      </trkpt>
      <trkpt lat="43.20638" lon="2.02864">
        <ele>294.89898681641</ele>
        <time>2012-07-22T08:57:39Z</time>
      </trkpt>
      <trkpt lat="43.20635" lon="2.02866">
        <ele>293.58700561523</ele>
        <time>2012-07-22T08:57:45Z</time>
      </trkpt>
      <trkpt lat="43.20631" lon="2.02867">
        <ele>291.88500976562</ele>
        <time>2012-07-22T08:57:49Z</time>
      </trkpt>
      <trkpt lat="43.20631" lon="2.02868">
        <ele>291.31900024414</ele>
        <time>2012-07-22T08:57:50Z</time>
      </trkpt>
      <trkpt lat="43.20627" lon="2.02872">
        <ele>289.04000854492</ele>
        <time>2012-07-22T08:57:55Z</time>
      </trkpt>
      <trkpt lat="43.20625" lon="2.02873">
        <ele>287.51901245117</ele>
        <time>2012-07-22T08:58:00Z</time>
      </trkpt>
      <trkpt lat="43.2062" lon="2.02876">
        <ele>286.43301391602</ele>
        <time>2012-07-22T08:58:03Z</time>
      </trkpt>
      <trkpt lat="43.20613" lon="2.02877">
        <ele>284.61999511719</ele>
        <time>2012-07-22T08:58:06Z</time>
      </trkpt>
      <trkpt lat="43.20606" lon="2.02889">
        <ele>281.29400634766</ele>
        <time>2012-07-22T08:58:11Z</time>
      </trkpt>
      <trkpt lat="43.20605" lon="2.02894">
        <ele>279.73599243164</ele>
        <time>2012-07-22T08:58:13Z</time>
      </trkpt>
      <trkpt lat="43.20598" lon="2.029">
        <ele>275.49099731445</ele>
        <time>2012-07-22T08:58:19Z</time>
      </trkpt>
      <trkpt lat="43.20597" lon="2.02902">
        <ele>274.10900878906</ele>
        <time>2012-07-22T08:58:27Z</time>
      </trkpt>
      <trkpt lat="43.20595" lon="2.02906">
        <ele>271.74600219727</ele>
        <time>2012-07-22T08:58:38Z</time>
      </trkpt>
      <trkpt lat="43.20594" lon="2.02909">
        <ele>269.81399536133</ele>
        <time>2012-07-22T08:58:45Z</time>
      </trkpt>
      <trkpt lat="43.20586" lon="2.02914">
        <ele>268.2200012207</ele>
        <time>2012-07-22T08:58:50Z</time>
      </trkpt>
      <trkpt lat="43.20578" lon="2.02924">
        <ele>265.29998779297</ele>
        <time>2012-07-22T08:58:54Z</time>
      </trkpt>
      <trkpt lat="43.20574" lon="2.02929">
        <ele>263.50601196289</ele>
        <time>2012-07-22T08:58:56Z</time>
      </trkpt>
      <trkpt lat="43.20567" lon="2.02944">
        <ele>260.11801147461</ele>
        <time>2012-07-22T08:59:01Z</time>
      </trkpt>
      <trkpt lat="43.20561" lon="2.02962">
        <ele>257.57901000977</ele>
        <time>2012-07-22T08:59:05Z</time>
      </trkpt>
      <trkpt lat="43.20552" lon="2.0296">
        <ele>255.19400024414</ele>
        <time>2012-07-22T08:59:09Z</time>
      </trkpt>
      <trkpt lat="43.20538" lon="2.02951">
        <ele>253.69000244141</ele>
        <time>2012-07-22T08:59:13Z</time>
      </trkpt>
      <trkpt lat="43.20533" lon="2.02961">
        <ele>250.94599914551</ele>
        <time>2012-07-22T08:59:16Z</time>
      </trkpt>
      <trkpt lat="43.20531" lon="2.02973">
        <ele>249.55799865723</ele>
        <time>2012-07-22T08:59:18Z</time>
      </trkpt>
      <trkpt lat="43.20531" lon="2.03">
        <ele>246.72799682617</ele>
        <time>2012-07-22T08:59:22Z</time>
      </trkpt>
      <trkpt lat="43.20539" lon="2.0301">
        <ele>244.84599304199</ele>
        <time>2012-07-22T08:59:25Z</time>
      </trkpt>
      <trkpt lat="43.20553" lon="2.03021">
        <ele>243.01499938965</ele>
        <time>2012-07-22T08:59:30Z</time>
      </trkpt>
      <trkpt lat="43.2056" lon="2.03018">
        <ele>242.36500549316</ele>
        <time>2012-07-22T08:59:35Z</time>
      </trkpt>
      <trkpt lat="43.20572" lon="2.03017">
        <ele>243.62699890137</ele>
        <time>2012-07-22T08:59:41Z</time>
      </trkpt>
      <trkpt lat="43.20589" lon="2.03028">
        <ele>243.33299255371</ele>
        <time>2012-07-22T08:59:46Z</time>
      </trkpt>
      <trkpt lat="43.20594" lon="2.03032">
        <ele>243.03999328613</ele>
        <time>2012-07-22T08:59:47Z</time>
      </trkpt>
      <trkpt lat="43.20612" lon="2.03058">
        <ele>241.17100524902</ele>
        <time>2012-07-22T08:59:51Z</time>
      </trkpt>
      <trkpt lat="43.20624" lon="2.03085">
        <ele>239.94500732422</ele>
        <time>2012-07-22T08:59:54Z</time>
      </trkpt>
      <trkpt lat="43.20646" lon="2.03134">
        <ele>238.40299987793</ele>
        <time>2012-07-22T09:00:00Z</time>
      </trkpt>
      <trkpt lat="43.20652" lon="2.0315">
        <ele>236.94299316406</ele>
        <time>2012-07-22T09:00:02Z</time>
      </trkpt>
      <trkpt lat="43.20663" lon="2.03205">
        <ele>233.8450012207</ele>
        <time>2012-07-22T09:00:08Z</time>
      </trkpt>
      <trkpt lat="43.20666" lon="2.03232">
        <ele>233.93699645996</ele>
        <time>2012-07-22T09:00:12Z</time>
      </trkpt>
      <trkpt lat="43.20672" lon="2.03256">
        <ele>233.89500427246</ele>
        <time>2012-07-22T09:00:17Z</time>
      </trkpt>
      <trkpt lat="43.20683" lon="2.03288">
        <ele>234.84300231934</ele>
        <time>2012-07-22T09:00:25Z</time>
      </trkpt>
      <trkpt lat="43.20683" lon="2.03297">
        <ele>235.74699401856</ele>
        <time>2012-07-22T09:00:28Z</time>
      </trkpt>
      <trkpt lat="43.20677" lon="2.03301">
        <ele>235.8869934082</ele>
        <time>2012-07-22T09:00:32Z</time>
      </trkpt>
      <trkpt lat="43.20671" lon="2.03299">
        <ele>235.54299926758</ele>
        <time>2012-07-22T09:00:34Z</time>
      </trkpt>
      <trkpt lat="43.20641" lon="2.03293">
        <ele>234.16999816894</ele>
        <time>2012-07-22T09:00:40Z</time>
      </trkpt>
      <trkpt lat="43.20627" lon="2.0329">
        <ele>233.55799865723</ele>
        <time>2012-07-22T09:00:42Z</time>
      </trkpt>
      <trkpt lat="43.20596" lon="2.03296">
        <ele>230.99600219727</ele>
        <time>2012-07-22T09:00:46Z</time>
      </trkpt>
      <trkpt lat="43.20546" lon="2.03334">
        <ele>226.64999389648</ele>
        <time>2012-07-22T09:00:52Z</time>
      </trkpt>
      <trkpt lat="43.20495" lon="2.03376">
        <ele>224.37399291992</ele>
        <time>2012-07-22T09:00:58Z</time>
      </trkpt>
      <trkpt lat="43.20448" lon="2.03402">
        <ele>222.18099975586</ele>
        <time>2012-07-22T09:01:03Z</time>
      </trkpt>
      <trkpt lat="43.20429" lon="2.03413">
        <ele>220.79899597168</ele>
        <time>2012-07-22T09:01:05Z</time>
      </trkpt>
      <trkpt lat="43.20399" lon="2.03412">
        <ele>216.93200683594</ele>
        <time>2012-07-22T09:01:09Z</time>
      </trkpt>
      <trkpt lat="43.20381" lon="2.0339">
        <ele>213.82600402832</ele>
        <time>2012-07-22T09:01:12Z</time>
      </trkpt>
      <trkpt lat="43.20352" lon="2.03366">
        <ele>210.88999938965</ele>
        <time>2012-07-22T09:01:16Z</time>
      </trkpt>
      <trkpt lat="43.20302" lon="2.03346">
        <ele>207.41200256348</ele>
        <time>2012-07-22T09:01:21Z</time>
      </trkpt>
      <trkpt lat="43.20292" lon="2.03343">
        <ele>206.80099487305</ele>
        <time>2012-07-22T09:01:22Z</time>
      </trkpt>
      <trkpt lat="43.20248" lon="2.03346">
        <ele>204.30099487305</ele>
        <time>2012-07-22T09:01:26Z</time>
      </trkpt>
      <trkpt lat="43.2023" lon="2.03356">
        <ele>202.19799804688</ele>
        <time>2012-07-22T09:01:28Z</time>
      </trkpt>
      <trkpt lat="43.20215" lon="2.03366">
        <ele>197.8450012207</ele>
        <time>2012-07-22T09:01:32Z</time>
      </trkpt>
      <trkpt lat="43.20201" lon="2.03374">
        <ele>196.43099975586</ele>
        <time>2012-07-22T09:01:38Z</time>
      </trkpt>
      <trkpt lat="43.20194" lon="2.03375">
        <ele>196.04600524902</ele>
        <time>2012-07-22T09:01:40Z</time>
      </trkpt>
      <trkpt lat="43.2016" lon="2.03381">
        <ele>194.66999816894</ele>
        <time>2012-07-22T09:01:48Z</time>
      </trkpt>
      <trkpt lat="43.20129" lon="2.03386">
        <ele>194.11000061035</ele>
        <time>2012-07-22T09:01:55Z</time>
      </trkpt>
      <trkpt lat="43.20095" lon="2.03392">
        <ele>193.5299987793</ele>
        <time>2012-07-22T09:02:02Z</time>
      </trkpt>
      <trkpt lat="43.20071" lon="2.03391">
        <ele>193.375</ele>
        <time>2012-07-22T09:02:07Z</time>
      </trkpt>
      <trkpt lat="43.20055" lon="2.03383">
        <ele>194.06100463867</ele>
        <time>2012-07-22T09:02:12Z</time>
      </trkpt>
      <trkpt lat="43.20034" lon="2.03373">
        <ele>194.80700683594</ele>
        <time>2012-07-22T09:02:19Z</time>
      </trkpt>
      <trkpt lat="43.20012" lon="2.0337">
        <ele>196.20899963379</ele>
        <time>2012-07-22T09:02:27Z</time>
      </trkpt>
      <trkpt lat="43.19992" lon="2.03373">
        <ele>198.55700683594</ele>
        <time>2012-07-22T09:02:35Z</time>
      </trkpt>
      <trkpt lat="43.19972" lon="2.03377">
        <ele>201.2380065918</ele>
        <time>2012-07-22T09:02:44Z</time>
      </trkpt>
      <trkpt lat="43.19958" lon="2.0338">
        <ele>203.37199401856</ele>
        <time>2012-07-22T09:02:51Z</time>
      </trkpt>
      <trkpt lat="43.19941" lon="2.03383">
        <ele>205.03700256348</ele>
        <time>2012-07-22T09:02:59Z</time>
      </trkpt>
      <trkpt lat="43.19921" lon="2.03389">
        <ele>206.66499328613</ele>
        <time>2012-07-22T09:03:08Z</time>
      </trkpt>
      <trkpt lat="43.19904" lon="2.03397">
        <ele>208.65800476074</ele>
        <time>2012-07-22T09:03:16Z</time>
      </trkpt>
      <trkpt lat="43.19879" lon="2.03411">
        <ele>209.94700622559</ele>
        <time>2012-07-22T09:03:27Z</time>
      </trkpt>
      <trkpt lat="43.19854" lon="2.03423">
        <ele>211.60299682617</ele>
        <time>2012-07-22T09:03:38Z</time>
      </trkpt>
      <trkpt lat="43.1983" lon="2.03431">
        <ele>213.88999938965</ele>
        <time>2012-07-22T09:03:49Z</time>
      </trkpt>
      <trkpt lat="43.19807" lon="2.03438">
        <ele>215.73100280762</ele>
        <time>2012-07-22T09:03:59Z</time>
      </trkpt>
      <trkpt lat="43.19786" lon="2.03446">
        <ele>217.88900756836</ele>
        <time>2012-07-22T09:04:09Z</time>
      </trkpt>
      <trkpt lat="43.19768" lon="2.03458">
        <ele>219.47999572754</ele>
        <time>2012-07-22T09:04:18Z</time>
      </trkpt>
      <trkpt lat="43.19753" lon="2.03473">
        <ele>221.1609954834</ele>
        <time>2012-07-22T09:04:27Z</time>
      </trkpt>
      <trkpt lat="43.19742" lon="2.03489">
        <ele>223.45899963379</ele>
        <time>2012-07-22T09:04:35Z</time>
      </trkpt>
      <trkpt lat="43.1973" lon="2.0351">
        <ele>226.5359954834</ele>
        <time>2012-07-22T09:04:45Z</time>
      </trkpt>
      <trkpt lat="43.19716" lon="2.0352">
        <ele>228.73100280762</ele>
        <time>2012-07-22T09:04:53Z</time>
      </trkpt>
      <trkpt lat="43.19704" lon="2.03526">
        <ele>230.02099609375</ele>
        <time>2012-07-22T09:05:00Z</time>
      </trkpt>
      <trkpt lat="43.19687" lon="2.03533">
        <ele>231.89999389648</ele>
        <time>2012-07-22T09:05:09Z</time>
      </trkpt>
      <trkpt lat="43.19667" lon="2.03542">
        <ele>233.02900695801</ele>
        <time>2012-07-22T09:05:20Z</time>
      </trkpt>
      <trkpt lat="43.1965" lon="2.0355">
        <ele>236.81799316406</ele>
        <time>2012-07-22T09:05:30Z</time>
      </trkpt>
      <trkpt lat="43.19639" lon="2.03559">
        <ele>239.85000610352</ele>
        <time>2012-07-22T09:05:38Z</time>
      </trkpt>
      <trkpt lat="43.1963" lon="2.03574">
        <ele>241.76899719238</ele>
        <time>2012-07-22T09:05:46Z</time>
      </trkpt>
      <trkpt lat="43.19619" lon="2.03585">
        <ele>244.14300537109</ele>
        <time>2012-07-22T09:05:54Z</time>
      </trkpt>
      <trkpt lat="43.19609" lon="2.03586">
        <ele>245.39900207519</ele>
        <time>2012-07-22T09:06:00Z</time>
      </trkpt>
      <trkpt lat="43.196" lon="2.03588">
        <ele>245.60200500488</ele>
        <time>2012-07-22T09:06:08Z</time>
      </trkpt>
      <trkpt lat="43.19601" lon="2.03589">
        <ele>245.03999328613</ele>
        <time>2012-07-22T09:07:31Z</time>
      </trkpt>
      <trkpt lat="43.19599" lon="2.03591">
        <ele>244.80400085449</ele>
        <time>2012-07-22T09:07:44Z</time>
      </trkpt>
      <trkpt lat="43.19593" lon="2.03594">
        <ele>244.63000488281</ele>
        <time>2012-07-22T09:07:50Z</time>
      </trkpt>
      <trkpt lat="43.19577" lon="2.03606">
        <ele>244.22900390625</ele>
        <time>2012-07-22T09:07:58Z</time>
      </trkpt>
      <trkpt lat="43.19559" lon="2.03621">
        <ele>243.79699707031</ele>
        <time>2012-07-22T09:08:06Z</time>
      </trkpt>
      <trkpt lat="43.19543" lon="2.03626">
        <ele>243.80099487305</ele>
        <time>2012-07-22T09:08:13Z</time>
      </trkpt>
      <trkpt lat="43.19522" lon="2.03624">
        <ele>244.42300415039</ele>
        <time>2012-07-22T09:08:22Z</time>
      </trkpt>
      <trkpt lat="43.19502" lon="2.03621">
        <ele>245.23300170898</ele>
        <time>2012-07-22T09:08:31Z</time>
      </trkpt>
      <trkpt lat="43.19482" lon="2.03617">
        <ele>246.13900756836</ele>
        <time>2012-07-22T09:08:40Z</time>
      </trkpt>
      <trkpt lat="43.19469" lon="2.03613">
        <ele>246.67599487305</ele>
        <time>2012-07-22T09:08:46Z</time>
      </trkpt>
      <trkpt lat="43.19445" lon="2.03606">
        <ele>246.0359954834</ele>
        <time>2012-07-22T09:08:54Z</time>
      </trkpt>
      <trkpt lat="43.19424" lon="2.03607">
        <ele>245.7440032959</ele>
        <time>2012-07-22T09:09:00Z</time>
      </trkpt>
      <trkpt lat="43.19408" lon="2.03613">
        <ele>245.22700500488</ele>
        <time>2012-07-22T09:09:06Z</time>
      </trkpt>
      <trkpt lat="43.1939" lon="2.03622">
        <ele>245.27099609375</ele>
        <time>2012-07-22T09:09:12Z</time>
      </trkpt>
      <trkpt lat="43.19374" lon="2.03629">
        <ele>245.84700012207</ele>
        <time>2012-07-22T09:09:18Z</time>
      </trkpt>
      <trkpt lat="43.19353" lon="2.0364">
        <ele>246.34899902344</ele>
        <time>2012-07-22T09:09:26Z</time>
      </trkpt>
      <trkpt lat="43.19338" lon="2.03651">
        <ele>247.80700683594</ele>
        <time>2012-07-22T09:09:33Z</time>
      </trkpt>
      <trkpt lat="43.19323" lon="2.03665">
        <ele>249.41299438477</ele>
        <time>2012-07-22T09:09:41Z</time>
      </trkpt>
      <trkpt lat="43.19306" lon="2.0368">
        <ele>251.41700744629</ele>
        <time>2012-07-22T09:09:50Z</time>
      </trkpt>
      <trkpt lat="43.19292" lon="2.03692">
        <ele>251.71000671387</ele>
        <time>2012-07-22T09:09:58Z</time>
      </trkpt>
      <trkpt lat="43.19286" lon="2.03695">
        <ele>252.17100524902</ele>
        <time>2012-07-22T09:10:02Z</time>
      </trkpt>
      <trkpt lat="43.19268" lon="2.0369">
        <ele>255.08099365234</ele>
        <time>2012-07-22T09:10:12Z</time>
      </trkpt>
      <trkpt lat="43.19254" lon="2.0369">
        <ele>257.47198486328</ele>
        <time>2012-07-22T09:10:20Z</time>
      </trkpt>
      <trkpt lat="43.19241" lon="2.03688">
        <ele>259.45098876953</ele>
        <time>2012-07-22T09:10:28Z</time>
      </trkpt>
      <trkpt lat="43.19237" lon="2.03685">
        <ele>260.17999267578</ele>
        <time>2012-07-22T09:10:31Z</time>
      </trkpt>
      <trkpt lat="43.19233" lon="2.03678">
        <ele>260.9289855957</ele>
        <time>2012-07-22T09:10:35Z</time>
      </trkpt>
      <trkpt lat="43.19232" lon="2.03662">
        <ele>262.78399658203</ele>
        <time>2012-07-22T09:10:42Z</time>
      </trkpt>
      <trkpt lat="43.19235" lon="2.0365">
        <ele>264.20599365234</ele>
        <time>2012-07-22T09:10:47Z</time>
      </trkpt>
      <trkpt lat="43.19236" lon="2.0363">
        <ele>265.68499755859</ele>
        <time>2012-07-22T09:10:55Z</time>
      </trkpt>
      <trkpt lat="43.19235" lon="2.03609">
        <ele>267.12701416016</ele>
        <time>2012-07-22T09:11:03Z</time>
      </trkpt>
      <trkpt lat="43.19231" lon="2.0359">
        <ele>269.07901000977</ele>
        <time>2012-07-22T09:11:10Z</time>
      </trkpt>
      <trkpt lat="43.19225" lon="2.03574">
        <ele>270.45700073242</ele>
        <time>2012-07-22T09:11:17Z</time>
      </trkpt>
      <trkpt lat="43.19216" lon="2.03561">
        <ele>271.58499145508</ele>
        <time>2012-07-22T09:11:25Z</time>
      </trkpt>
      <trkpt lat="43.19211" lon="2.03551">
        <ele>271.72900390625</ele>
        <time>2012-07-22T09:11:31Z</time>
      </trkpt>
      <trkpt lat="43.1921" lon="2.0355">
        <ele>271.52700805664</ele>
        <time>2012-07-22T09:11:36Z</time>
      </trkpt>
      <trkpt lat="43.19206" lon="2.03547">
        <ele>271.8219909668</ele>
        <time>2012-07-22T09:12:35Z</time>
      </trkpt>
      <trkpt lat="43.19194" lon="2.03533">
        <ele>272.35101318359</ele>
        <time>2012-07-22T09:12:43Z</time>
      </trkpt>
      <trkpt lat="43.19181" lon="2.03524">
        <ele>273.04501342773</ele>
        <time>2012-07-22T09:12:50Z</time>
      </trkpt>
      <trkpt lat="43.19168" lon="2.03518">
        <ele>273.59698486328</ele>
        <time>2012-07-22T09:12:56Z</time>
      </trkpt>
      <trkpt lat="43.19149" lon="2.03511">
        <ele>274.10800170898</ele>
        <time>2012-07-22T09:13:04Z</time>
      </trkpt>
      <trkpt lat="43.19125" lon="2.03504">
        <ele>275.00201416016</ele>
        <time>2012-07-22T09:13:14Z</time>
      </trkpt>
      <trkpt lat="43.19106" lon="2.03492">
        <ele>276.10998535156</ele>
        <time>2012-07-22T09:13:23Z</time>
      </trkpt>
      <trkpt lat="43.19093" lon="2.03476">
        <ele>276.72100830078</ele>
        <time>2012-07-22T09:13:30Z</time>
      </trkpt>
      <trkpt lat="43.19084" lon="2.03451">
        <ele>277.28500366211</ele>
        <time>2012-07-22T09:13:38Z</time>
      </trkpt>
      <trkpt lat="43.1908" lon="2.03429">
        <ele>277.73498535156</ele>
        <time>2012-07-22T09:13:45Z</time>
      </trkpt>
      <trkpt lat="43.1908" lon="2.03408">
        <ele>278.18200683594</ele>
        <time>2012-07-22T09:13:51Z</time>
      </trkpt>
      <trkpt lat="43.19085" lon="2.03381">
        <ele>279.68798828125</ele>
        <time>2012-07-22T09:13:59Z</time>
      </trkpt>
      <trkpt lat="43.19098" lon="2.03353">
        <ele>280.42599487305</ele>
        <time>2012-07-22T09:14:08Z</time>
      </trkpt>
      <trkpt lat="43.19115" lon="2.03328">
        <ele>281.68099975586</ele>
        <time>2012-07-22T09:14:17Z</time>
      </trkpt>
      <trkpt lat="43.19132" lon="2.03304">
        <ele>282.48999023438</ele>
        <time>2012-07-22T09:14:25Z</time>
      </trkpt>
      <trkpt lat="43.19143" lon="2.03281">
        <ele>283.3450012207</ele>
        <time>2012-07-22T09:14:32Z</time>
      </trkpt>
      <trkpt lat="43.19156" lon="2.0325">
        <ele>283.80899047852</ele>
        <time>2012-07-22T09:14:40Z</time>
      </trkpt>
      <trkpt lat="43.19169" lon="2.03215">
        <ele>284.87100219727</ele>
        <time>2012-07-22T09:14:49Z</time>
      </trkpt>
      <trkpt lat="43.19182" lon="2.0318">
        <ele>285.99200439453</ele>
        <time>2012-07-22T09:14:58Z</time>
      </trkpt>
      <trkpt lat="43.19193" lon="2.0315">
        <ele>287.72900390625</ele>
        <time>2012-07-22T09:15:06Z</time>
      </trkpt>
      <trkpt lat="43.19204" lon="2.03123">
        <ele>288.61499023438</ele>
        <time>2012-07-22T09:15:13Z</time>
      </trkpt>
      <trkpt lat="43.19217" lon="2.03086">
        <ele>289.13299560547</ele>
        <time>2012-07-22T09:15:22Z</time>
      </trkpt>
      <trkpt lat="43.19223" lon="2.03054">
        <ele>289.20401000977</ele>
        <time>2012-07-22T09:15:30Z</time>
      </trkpt>
      <trkpt lat="43.19221" lon="2.03026">
        <ele>290.92401123047</ele>
        <time>2012-07-22T09:15:37Z</time>
      </trkpt>
      <trkpt lat="43.19214" lon="2.03001">
        <ele>291.42599487305</ele>
        <time>2012-07-22T09:15:44Z</time>
      </trkpt>
      <trkpt lat="43.19213" lon="2.02995">
        <ele>291.65200805664</ele>
        <time>2012-07-22T09:15:46Z</time>
      </trkpt>
      <trkpt lat="43.1921" lon="2.02989">
        <ele>291.57998657227</ele>
        <time>2012-07-22T09:15:51Z</time>
      </trkpt>
      <trkpt lat="43.1921" lon="2.0299">
        <ele>291.69400024414</ele>
        <time>2012-07-22T09:16:01Z</time>
      </trkpt>
      <trkpt lat="43.19201" lon="2.02983">
        <ele>291.86999511719</ele>
        <time>2012-07-22T09:16:07Z</time>
      </trkpt>
      <trkpt lat="43.19188" lon="2.02969">
        <ele>292.81201171875</ele>
        <time>2012-07-22T09:16:14Z</time>
      </trkpt>
      <trkpt lat="43.19168" lon="2.02959">
        <ele>293.84799194336</ele>
        <time>2012-07-22T09:16:22Z</time>
      </trkpt>
      <trkpt lat="43.19158" lon="2.02966">
        <ele>294.60699462891</ele>
        <time>2012-07-22T09:16:27Z</time>
      </trkpt>
      <trkpt lat="43.19148" lon="2.02987">
        <ele>295.74798583984</ele>
        <time>2012-07-22T09:16:34Z</time>
      </trkpt>
      <trkpt lat="43.19142" lon="2.03">
        <ele>296.91000366211</ele>
        <time>2012-07-22T09:16:39Z</time>
      </trkpt>
      <trkpt lat="43.19145" lon="2.02998">
        <ele>297.61199951172</ele>
        <time>2012-07-22T09:16:43Z</time>
      </trkpt>
      <trkpt lat="43.19148" lon="2.02992">
        <ele>297.78900146484</ele>
        <time>2012-07-22T09:16:45Z</time>
      </trkpt>
      <trkpt lat="43.19155" lon="2.02971">
        <ele>297.33999633789</ele>
        <time>2012-07-22T09:16:50Z</time>
      </trkpt>
      <trkpt lat="43.19152" lon="2.02958">
        <ele>295.41598510742</ele>
        <time>2012-07-22T09:16:55Z</time>
      </trkpt>
      <trkpt lat="43.19146" lon="2.02958">
        <ele>294.34600830078</ele>
        <time>2012-07-22T09:17:16Z</time>
      </trkpt>
      <trkpt lat="43.1913" lon="2.02964">
        <ele>294.49301147461</ele>
        <time>2012-07-22T09:17:23Z</time>
      </trkpt>
      <trkpt lat="43.19111" lon="2.02977">
        <ele>295.08499145508</ele>
        <time>2012-07-22T09:17:31Z</time>
      </trkpt>
      <trkpt lat="43.19093" lon="2.02995">
        <ele>295.83700561523</ele>
        <time>2012-07-22T09:17:39Z</time>
      </trkpt>
      <trkpt lat="43.19069" lon="2.03015">
        <ele>296.51901245117</ele>
        <time>2012-07-22T09:17:49Z</time>
      </trkpt>
      <trkpt lat="43.1905" lon="2.03022">
        <ele>298.29901123047</ele>
        <time>2012-07-22T09:17:55Z</time>
      </trkpt>
      <trkpt lat="43.19029" lon="2.03021">
        <ele>298.96200561523</ele>
        <time>2012-07-22T09:18:01Z</time>
      </trkpt>
      <trkpt lat="43.19006" lon="2.03008">
        <ele>300.03201293945</ele>
        <time>2012-07-22T09:18:09Z</time>
      </trkpt>
      <trkpt lat="43.18988" lon="2.02985">
        <ele>300.75900268555</ele>
        <time>2012-07-22T09:18:17Z</time>
      </trkpt>
      <trkpt lat="43.18977" lon="2.02955">
        <ele>301.76800537109</ele>
        <time>2012-07-22T09:18:25Z</time>
      </trkpt>
      <trkpt lat="43.18976" lon="2.02921">
        <ele>302.54098510742</ele>
        <time>2012-07-22T09:18:33Z</time>
      </trkpt>
      <trkpt lat="43.1898" lon="2.02891">
        <ele>303.63000488281</ele>
        <time>2012-07-22T09:18:40Z</time>
      </trkpt>
      <trkpt lat="43.18988" lon="2.02858">
        <ele>305.43899536133</ele>
        <time>2012-07-22T09:18:48Z</time>
      </trkpt>
      <trkpt lat="43.18994" lon="2.02814">
        <ele>306.85699462891</ele>
        <time>2012-07-22T09:18:58Z</time>
      </trkpt>
      <trkpt lat="43.18991" lon="2.0278">
        <ele>307.81900024414</ele>
        <time>2012-07-22T09:19:06Z</time>
      </trkpt>
      <trkpt lat="43.18981" lon="2.0275">
        <ele>307.85101318359</ele>
        <time>2012-07-22T09:19:13Z</time>
      </trkpt>
      <trkpt lat="43.18966" lon="2.02728">
        <ele>308.05801391602</ele>
        <time>2012-07-22T09:19:19Z</time>
      </trkpt>
      <trkpt lat="43.18944" lon="2.02711">
        <ele>308.04800415039</ele>
        <time>2012-07-22T09:19:26Z</time>
      </trkpt>
      <trkpt lat="43.1894" lon="2.02709">
        <ele>308.13900756836</ele>
        <time>2012-07-22T09:19:30Z</time>
      </trkpt>
      <trkpt lat="43.18938" lon="2.02709">
        <ele>307.98599243164</ele>
        <time>2012-07-22T09:19:42Z</time>
      </trkpt>
      <trkpt lat="43.18941" lon="2.02712">
        <ele>308.12100219727</ele>
        <time>2012-07-22T09:19:46Z</time>
      </trkpt>
      <trkpt lat="43.18943" lon="2.0271">
        <ele>308.10998535156</ele>
        <time>2012-07-22T09:19:48Z</time>
      </trkpt>
      <trkpt lat="43.1894" lon="2.027">
        <ele>308.60900878906</ele>
        <time>2012-07-22T09:19:54Z</time>
      </trkpt>
      <trkpt lat="43.18933" lon="2.02687">
        <ele>310.15600585938</ele>
        <time>2012-07-22T09:20:00Z</time>
      </trkpt>
      <trkpt lat="43.18929" lon="2.02681">
        <ele>311.64700317383</ele>
        <time>2012-07-22T09:20:04Z</time>
      </trkpt>
      <trkpt lat="43.18927" lon="2.02669">
        <ele>313.17599487305</ele>
        <time>2012-07-22T09:20:10Z</time>
      </trkpt>
      <trkpt lat="43.18929" lon="2.02658">
        <ele>313.3630065918</ele>
        <time>2012-07-22T09:20:15Z</time>
      </trkpt>
      <trkpt lat="43.18933" lon="2.02637">
        <ele>313.73300170898</ele>
        <time>2012-07-22T09:20:22Z</time>
      </trkpt>
      <trkpt lat="43.18939" lon="2.0261">
        <ele>313.67401123047</ele>
        <time>2012-07-22T09:20:26Z</time>
      </trkpt>
      <trkpt lat="43.18949" lon="2.02557">
        <ele>312.71099853516</ele>
        <time>2012-07-22T09:20:32Z</time>
      </trkpt>
      <trkpt lat="43.18953" lon="2.02541">
        <ele>312.125</ele>
        <time>2012-07-22T09:20:34Z</time>
      </trkpt>
      <trkpt lat="43.18953" lon="2.02489">
        <ele>309.84201049805</ele>
        <time>2012-07-22T09:20:40Z</time>
      </trkpt>
      <trkpt lat="43.18946" lon="2.02435">
        <ele>308.64599609375</ele>
        <time>2012-07-22T09:20:46Z</time>
      </trkpt>
      <trkpt lat="43.18934" lon="2.02408">
        <ele>308.06201171875</ele>
        <time>2012-07-22T09:20:50Z</time>
      </trkpt>
      <trkpt lat="43.18921" lon="2.02383">
        <ele>308.35000610352</ele>
        <time>2012-07-22T09:20:56Z</time>
      </trkpt>
      <trkpt lat="43.18919" lon="2.02353">
        <ele>310.35800170898</ele>
        <time>2012-07-22T09:21:03Z</time>
      </trkpt>
      <trkpt lat="43.18924" lon="2.02324">
        <ele>312.04598999023</ele>
        <time>2012-07-22T09:21:09Z</time>
      </trkpt>
      <trkpt lat="43.18933" lon="2.02284">
        <ele>311.43600463867</ele>
        <time>2012-07-22T09:21:16Z</time>
      </trkpt>
      <trkpt lat="43.18939" lon="2.02238">
        <ele>309.99398803711</ele>
        <time>2012-07-22T09:21:22Z</time>
      </trkpt>
      <trkpt lat="43.18937" lon="2.02193">
        <ele>308.3219909668</ele>
        <time>2012-07-22T09:21:27Z</time>
      </trkpt>
      <trkpt lat="43.18935" lon="2.02122">
        <ele>306.60699462891</ele>
        <time>2012-07-22T09:21:34Z</time>
      </trkpt>
      <trkpt lat="43.18939" lon="2.02091">
        <ele>305.22500610352</ele>
        <time>2012-07-22T09:21:37Z</time>
      </trkpt>
      <trkpt lat="43.18951" lon="2.02032">
        <ele>304.85101318359</ele>
        <time>2012-07-22T09:21:43Z</time>
      </trkpt>
      <trkpt lat="43.18961" lon="2.02008">
        <ele>304.08999633789</ele>
        <time>2012-07-22T09:21:46Z</time>
      </trkpt>
      <trkpt lat="43.1897" lon="2.0199">
        <ele>304.53500366211</ele>
        <time>2012-07-22T09:21:49Z</time>
      </trkpt>
      <trkpt lat="43.18978" lon="2.0198">
        <ele>305.73498535156</ele>
        <time>2012-07-22T09:21:51Z</time>
      </trkpt>
      <trkpt lat="43.18987" lon="2.01966">
        <ele>307.34600830078</ele>
        <time>2012-07-22T09:21:54Z</time>
      </trkpt>
      <trkpt lat="43.19005" lon="2.0192">
        <ele>306.76000976562</ele>
        <time>2012-07-22T09:22:04Z</time>
      </trkpt>
      <trkpt lat="43.19017" lon="2.01886">
        <ele>307.60501098633</ele>
        <time>2012-07-22T09:22:12Z</time>
      </trkpt>
      <trkpt lat="43.19026" lon="2.01866">
        <ele>307.27499389648</ele>
        <time>2012-07-22T09:22:18Z</time>
      </trkpt>
      <trkpt lat="43.19027" lon="2.0186">
        <ele>306.80499267578</ele>
        <time>2012-07-22T09:22:24Z</time>
      </trkpt>
      <trkpt lat="43.19027" lon="2.01861">
        <ele>306.71301269531</ele>
        <time>2012-07-22T09:22:36Z</time>
      </trkpt>
      <trkpt lat="43.19023" lon="2.01852">
        <ele>308.14300537109</ele>
        <time>2012-07-22T09:22:43Z</time>
      </trkpt>
      <trkpt lat="43.19021" lon="2.01843">
        <ele>309.27200317383</ele>
        <time>2012-07-22T09:22:49Z</time>
      </trkpt>
      <trkpt lat="43.19024" lon="2.01838">
        <ele>309.53799438477</ele>
        <time>2012-07-22T09:22:54Z</time>
      </trkpt>
      <trkpt lat="43.19024" lon="2.01837">
        <ele>309.33200073242</ele>
        <time>2012-07-22T09:22:57Z</time>
      </trkpt>
      <trkpt lat="43.19023" lon="2.0183">
        <ele>310.2799987793</ele>
        <time>2012-07-22T09:23:04Z</time>
      </trkpt>
      <trkpt lat="43.19025" lon="2.01826">
        <ele>310.45098876953</ele>
        <time>2012-07-22T09:23:11Z</time>
      </trkpt>
      <trkpt lat="43.19032" lon="2.01816">
        <ele>310.77899169922</ele>
        <time>2012-07-22T09:23:18Z</time>
      </trkpt>
      <trkpt lat="43.19036" lon="2.01813">
        <ele>310.48199462891</ele>
        <time>2012-07-22T09:23:20Z</time>
      </trkpt>
      <trkpt lat="43.1905" lon="2.018">
        <ele>309.13900756836</ele>
        <time>2012-07-22T09:23:24Z</time>
      </trkpt>
      <trkpt lat="43.19063" lon="2.01784">
        <ele>307.87399291992</ele>
        <time>2012-07-22T09:23:27Z</time>
      </trkpt>
      <trkpt lat="43.1908" lon="2.01756">
        <ele>306.42599487305</ele>
        <time>2012-07-22T09:23:33Z</time>
      </trkpt>
      <trkpt lat="43.19093" lon="2.01729">
        <ele>304.73999023438</ele>
        <time>2012-07-22T09:23:38Z</time>
      </trkpt>
      <trkpt lat="43.19107" lon="2.01705">
        <ele>303.76400756836</ele>
        <time>2012-07-22T09:23:43Z</time>
      </trkpt>
      <trkpt lat="43.19133" lon="2.01663">
        <ele>301.2080078125</ele>
        <time>2012-07-22T09:23:52Z</time>
      </trkpt>
      <trkpt lat="43.19152" lon="2.01631">
        <ele>300.19400024414</ele>
        <time>2012-07-22T09:23:58Z</time>
      </trkpt>
      <trkpt lat="43.19156" lon="2.01625">
        <ele>299.33898925781</ele>
        <time>2012-07-22T09:23:59Z</time>
      </trkpt>
      <trkpt lat="43.19164" lon="2.01612">
        <ele>298.42300415039</ele>
        <time>2012-07-22T09:24:01Z</time>
      </trkpt>
      <trkpt lat="43.19175" lon="2.01598">
        <ele>297.40701293945</ele>
        <time>2012-07-22T09:24:03Z</time>
      </trkpt>
      <trkpt lat="43.19191" lon="2.01561">
        <ele>295.02499389648</ele>
        <time>2012-07-22T09:24:07Z</time>
      </trkpt>
      <trkpt lat="43.19194" lon="2.01551">
        <ele>294.79098510742</ele>
        <time>2012-07-22T09:24:08Z</time>
      </trkpt>
      <trkpt lat="43.19217" lon="2.01513">
        <ele>293.31900024414</ele>
        <time>2012-07-22T09:24:13Z</time>
      </trkpt>
      <trkpt lat="43.19228" lon="2.01506">
        <ele>292.79901123047</ele>
        <time>2012-07-22T09:24:15Z</time>
      </trkpt>
      <trkpt lat="43.19254" lon="2.01497">
        <ele>290.66900634766</ele>
        <time>2012-07-22T09:24:19Z</time>
      </trkpt>
      <trkpt lat="43.19281" lon="2.01473">
        <ele>288.60900878906</ele>
        <time>2012-07-22T09:24:24Z</time>
      </trkpt>
      <trkpt lat="43.19296" lon="2.01459">
        <ele>285.88500976562</ele>
        <time>2012-07-22T09:24:28Z</time>
      </trkpt>
      <trkpt lat="43.19299" lon="2.01456">
        <ele>284.03799438477</ele>
        <time>2012-07-22T09:24:32Z</time>
      </trkpt>
      <trkpt lat="43.19302" lon="2.01453">
        <ele>283.7080078125</ele>
        <time>2012-07-22T09:24:53Z</time>
      </trkpt>
      <trkpt lat="43.19315" lon="2.01439">
        <ele>283.54098510742</ele>
        <time>2012-07-22T09:24:59Z</time>
      </trkpt>
      <trkpt lat="43.19331" lon="2.01421">
        <ele>282.86499023438</ele>
        <time>2012-07-22T09:25:05Z</time>
      </trkpt>
      <trkpt lat="43.19355" lon="2.01395">
        <ele>281.77398681641</ele>
        <time>2012-07-22T09:25:12Z</time>
      </trkpt>
      <trkpt lat="43.19375" lon="2.01381">
        <ele>280.61999511719</ele>
        <time>2012-07-22T09:25:16Z</time>
      </trkpt>
      <trkpt lat="43.19408" lon="2.01367">
        <ele>279.02499389648</ele>
        <time>2012-07-22T09:25:22Z</time>
      </trkpt>
      <trkpt lat="43.19447" lon="2.01352">
        <ele>278.33999633789</ele>
        <time>2012-07-22T09:25:29Z</time>
      </trkpt>
      <trkpt lat="43.1947" lon="2.01338">
        <ele>277.04998779297</ele>
        <time>2012-07-22T09:25:33Z</time>
      </trkpt>
      <trkpt lat="43.19494" lon="2.01322">
        <ele>274.36401367188</ele>
        <time>2012-07-22T09:25:37Z</time>
      </trkpt>
      <trkpt lat="43.19502" lon="2.01303">
        <ele>272.09600830078</ele>
        <time>2012-07-22T09:25:40Z</time>
      </trkpt>
      <trkpt lat="43.1951" lon="2.0126">
        <ele>263.55899047852</ele>
        <time>2012-07-22T09:25:45Z</time>
      </trkpt>
      <trkpt lat="43.19514" lon="2.01235">
        <ele>257.04501342773</ele>
        <time>2012-07-22T09:25:48Z</time>
      </trkpt>
      <trkpt lat="43.19526" lon="2.01204">
        <ele>248.21299743652</ele>
        <time>2012-07-22T09:25:53Z</time>
      </trkpt>
      <trkpt lat="43.19528" lon="2.01197">
        <ele>244.90899658203</ele>
        <time>2012-07-22T09:25:56Z</time>
      </trkpt>
      <trkpt lat="43.19531" lon="2.01174">
        <ele>241.79299926758</ele>
        <time>2012-07-22T09:26:00Z</time>
      </trkpt>
      <trkpt lat="43.19535" lon="2.01155">
        <ele>240.07200622559</ele>
        <time>2012-07-22T09:26:03Z</time>
      </trkpt>
      <trkpt lat="43.19543" lon="2.01141">
        <ele>237.44500732422</ele>
        <time>2012-07-22T09:26:06Z</time>
      </trkpt>
      <trkpt lat="43.19543" lon="2.01128">
        <ele>234.55700683594</ele>
        <time>2012-07-22T09:26:10Z</time>
      </trkpt>
      <trkpt lat="43.19542" lon="2.01117">
        <ele>232.14599609375</ele>
        <time>2012-07-22T09:26:13Z</time>
      </trkpt>
      <trkpt lat="43.19549" lon="2.01104">
        <ele>229.30799865723</ele>
        <time>2012-07-22T09:26:17Z</time>
      </trkpt>
      <trkpt lat="43.19561" lon="2.01095">
        <ele>228.06900024414</ele>
        <time>2012-07-22T09:26:21Z</time>
      </trkpt>
      <trkpt lat="43.19567" lon="2.01091">
        <ele>227.96000671387</ele>
        <time>2012-07-22T09:26:23Z</time>
      </trkpt>
      <trkpt lat="43.19572" lon="2.01087">
        <ele>228.02499389648</ele>
        <time>2012-07-22T09:26:25Z</time>
      </trkpt>
      <trkpt lat="43.19575" lon="2.0108">
        <ele>227.74299621582</ele>
        <time>2012-07-22T09:26:29Z</time>
      </trkpt>
      <trkpt lat="43.19579" lon="2.01075">
        <ele>227.29100036621</ele>
        <time>2012-07-22T09:26:32Z</time>
      </trkpt>
      <trkpt lat="43.19589" lon="2.01062">
        <ele>227.76100158691</ele>
        <time>2012-07-22T09:26:37Z</time>
      </trkpt>
      <trkpt lat="43.19596" lon="2.01053">
        <ele>227.99699401856</ele>
        <time>2012-07-22T09:26:40Z</time>
      </trkpt>
      <trkpt lat="43.19606" lon="2.01038">
        <ele>227.49200439453</ele>
        <time>2012-07-22T09:26:44Z</time>
      </trkpt>
      <trkpt lat="43.19611" lon="2.0103">
        <ele>227.14900207519</ele>
        <time>2012-07-22T09:26:46Z</time>
      </trkpt>
      <trkpt lat="43.19626" lon="2.01022">
        <ele>226.43400573731</ele>
        <time>2012-07-22T09:26:50Z</time>
      </trkpt>
      <trkpt lat="43.19652" lon="2.01017">
        <ele>224.06900024414</ele>
        <time>2012-07-22T09:26:56Z</time>
      </trkpt>
      <trkpt lat="43.19655" lon="2.01018">
        <ele>223.64900207519</ele>
        <time>2012-07-22T09:26:57Z</time>
      </trkpt>
      <trkpt lat="43.19669" lon="2.01022">
        <ele>220.59599304199</ele>
        <time>2012-07-22T09:27:02Z</time>
      </trkpt>
      <trkpt lat="43.19675" lon="2.01024">
        <ele>220.61199951172</ele>
        <time>2012-07-22T09:27:04Z</time>
      </trkpt>
      <trkpt lat="43.1969" lon="2.01038">
        <ele>220.62399291992</ele>
        <time>2012-07-22T09:27:09Z</time>
      </trkpt>
      <trkpt lat="43.19693" lon="2.0104">
        <ele>220.58799743652</ele>
        <time>2012-07-22T09:27:10Z</time>
      </trkpt>
      <trkpt lat="43.19701" lon="2.01049">
        <ele>220.50999450684</ele>
        <time>2012-07-22T09:27:13Z</time>
      </trkpt>
      <trkpt lat="43.1971" lon="2.01053">
        <ele>220.15199279785</ele>
        <time>2012-07-22T09:27:15Z</time>
      </trkpt>
      <trkpt lat="43.19725" lon="2.01058">
        <ele>219.54299926758</ele>
        <time>2012-07-22T09:27:18Z</time>
      </trkpt>
      <trkpt lat="43.19735" lon="2.01075">
        <ele>218.67300415039</ele>
        <time>2012-07-22T09:27:22Z</time>
      </trkpt>
      <trkpt lat="43.19737" lon="2.01082">
        <ele>217.86199951172</ele>
        <time>2012-07-22T09:27:25Z</time>
      </trkpt>
      <trkpt lat="43.19741" lon="2.01082">
        <ele>217.46600341797</ele>
        <time>2012-07-22T09:27:45Z</time>
      </trkpt>
      <trkpt lat="43.19738" lon="2.01077">
        <ele>217.60899353027</ele>
        <time>2012-07-22T09:27:49Z</time>
      </trkpt>
      <trkpt lat="43.19737" lon="2.01073">
        <ele>217.62899780273</ele>
        <time>2012-07-22T09:27:51Z</time>
      </trkpt>
      <trkpt lat="43.19732" lon="2.01061">
        <ele>217.91499328613</ele>
        <time>2012-07-22T09:27:57Z</time>
      </trkpt>
      <trkpt lat="43.19725" lon="2.01057">
        <ele>217.99800109863</ele>
        <time>2012-07-22T09:28:02Z</time>
      </trkpt>
      <trkpt lat="43.19717" lon="2.01056">
        <ele>218.67799377441</ele>
        <time>2012-07-22T09:28:06Z</time>
      </trkpt>
      <trkpt lat="43.19715" lon="2.01056">
        <ele>218.75999450684</ele>
        <time>2012-07-22T09:28:07Z</time>
      </trkpt>
      <trkpt lat="43.19704" lon="2.01051">
        <ele>219.5</ele>
        <time>2012-07-22T09:28:14Z</time>
      </trkpt>
      <trkpt lat="43.19698" lon="2.01045">
        <ele>219.82699584961</ele>
        <time>2012-07-22T09:28:19Z</time>
      </trkpt>
      <trkpt lat="43.19691" lon="2.01039">
        <ele>219.77499389648</ele>
        <time>2012-07-22T09:28:24Z</time>
      </trkpt>
      <trkpt lat="43.19688" lon="2.01037">
        <ele>219.97999572754</ele>
        <time>2012-07-22T09:28:30Z</time>
      </trkpt>
      <trkpt lat="43.19689" lon="2.0104">
        <ele>220.10800170898</ele>
        <time>2012-07-22T09:28:51Z</time>
      </trkpt>
      <trkpt lat="43.19691" lon="2.01039">
        <ele>220.15299987793</ele>
        <time>2012-07-22T09:28:56Z</time>
      </trkpt>
      <trkpt lat="43.19695" lon="2.01042">
        <ele>220.17399597168</ele>
        <time>2012-07-22T09:29:00Z</time>
      </trkpt>
      <trkpt lat="43.19699" lon="2.01047">
        <ele>220.22999572754</ele>
        <time>2012-07-22T09:29:05Z</time>
      </trkpt>
      <trkpt lat="43.19703" lon="2.01051">
        <ele>220.21899414062</ele>
        <time>2012-07-22T09:29:08Z</time>
      </trkpt>
      <trkpt lat="43.19714" lon="2.01055">
        <ele>220.07600402832</ele>
        <time>2012-07-22T09:29:13Z</time>
      </trkpt>
      <trkpt lat="43.19723" lon="2.01057">
        <ele>219.43699645996</ele>
        <time>2012-07-22T09:29:17Z</time>
      </trkpt>
      <trkpt lat="43.19731" lon="2.01066">
        <ele>218.80200195312</ele>
        <time>2012-07-22T09:29:23Z</time>
      </trkpt>
      <trkpt lat="43.19736" lon="2.01081">
        <ele>218.8630065918</ele>
        <time>2012-07-22T09:29:28Z</time>
      </trkpt>
      <trkpt lat="43.19738" lon="2.01088">
        <ele>218.81100463867</ele>
        <time>2012-07-22T09:29:30Z</time>
      </trkpt>
      <trkpt lat="43.19743" lon="2.01097">
        <ele>218.38400268555</ele>
        <time>2012-07-22T09:29:35Z</time>
      </trkpt>
      <trkpt lat="43.19743" lon="2.01095">
        <ele>217.89999389648</ele>
        <time>2012-07-22T09:30:03Z</time>
      </trkpt>
      <trkpt lat="43.19741" lon="2.01093">
        <ele>218.10699462891</ele>
        <time>2012-07-22T09:30:06Z</time>
      </trkpt>
      <trkpt lat="43.19738" lon="2.01078">
        <ele>218.57400512695</ele>
        <time>2012-07-22T09:30:11Z</time>
      </trkpt>
      <trkpt lat="43.19735" lon="2.01071">
        <ele>218.65299987793</ele>
        <time>2012-07-22T09:30:13Z</time>
      </trkpt>
      <trkpt lat="43.1973" lon="2.0106">
        <ele>218.50700378418</ele>
        <time>2012-07-22T09:30:20Z</time>
      </trkpt>
      <trkpt lat="43.19728" lon="2.01058">
        <ele>218.49299621582</ele>
        <time>2012-07-22T09:30:26Z</time>
      </trkpt>
      <trkpt lat="43.19716" lon="2.01056">
        <ele>219.23500061035</ele>
        <time>2012-07-22T09:30:33Z</time>
      </trkpt>
      <trkpt lat="43.19711" lon="2.01054">
        <ele>219.61199951172</ele>
        <time>2012-07-22T09:30:36Z</time>
      </trkpt>
      <trkpt lat="43.19703" lon="2.0105">
        <ele>220.32099914551</ele>
        <time>2012-07-22T09:30:41Z</time>
      </trkpt>
      <trkpt lat="43.1969" lon="2.01039">
        <ele>220.94400024414</ele>
        <time>2012-07-22T09:30:45Z</time>
      </trkpt>
      <trkpt lat="43.19679" lon="2.01028">
        <ele>220.92199707031</ele>
        <time>2012-07-22T09:30:49Z</time>
      </trkpt>
      <trkpt lat="43.19676" lon="2.01027">
        <ele>220.93800354004</ele>
        <time>2012-07-22T09:30:50Z</time>
      </trkpt>
      <trkpt lat="43.19669" lon="2.01018">
        <ele>220.69900512695</ele>
        <time>2012-07-22T09:30:55Z</time>
      </trkpt>
      <trkpt lat="43.19669" lon="2.01017">
        <ele>219.86500549316</ele>
        <time>2012-07-22T09:30:57Z</time>
      </trkpt>
      <trkpt lat="43.19671" lon="2.01013">
        <ele>218.86199951172</ele>
        <time>2012-07-22T09:31:03Z</time>
      </trkpt>
      <trkpt lat="43.19677" lon="2.01008">
        <ele>219.12800598144</ele>
        <time>2012-07-22T09:31:09Z</time>
      </trkpt>
      <trkpt lat="43.19679" lon="2.01007">
        <ele>220.27900695801</ele>
        <time>2012-07-22T09:31:17Z</time>
      </trkpt>
      <trkpt lat="43.19689" lon="2.01007">
        <ele>221.03799438477</ele>
        <time>2012-07-22T09:31:23Z</time>
      </trkpt>
      <trkpt lat="43.197" lon="2.01017">
        <ele>221.00999450684</ele>
        <time>2012-07-22T09:31:29Z</time>
      </trkpt>
      <trkpt lat="43.19703" lon="2.01019">
        <ele>220.98899841309</ele>
        <time>2012-07-22T09:31:30Z</time>
      </trkpt>
      <trkpt lat="43.1971" lon="2.01012">
        <ele>220.50799560547</ele>
        <time>2012-07-22T09:31:35Z</time>
      </trkpt>
      <trkpt lat="43.19708" lon="2.00995">
        <ele>221.92599487305</ele>
        <time>2012-07-22T09:31:43Z</time>
      </trkpt>
      <trkpt lat="43.19708" lon="2.00986">
        <ele>222.88499450684</ele>
        <time>2012-07-22T09:31:48Z</time>
      </trkpt>
      <trkpt lat="43.19707" lon="2.00984">
        <ele>223.22700500488</ele>
        <time>2012-07-22T09:31:57Z</time>
      </trkpt>
      <trkpt lat="43.19706" lon="2.00982">
        <ele>223.47099304199</ele>
        <time>2012-07-22T09:32:09Z</time>
      </trkpt>
      <trkpt lat="43.19708" lon="2.00968">
        <ele>225.37199401856</ele>
        <time>2012-07-22T09:32:17Z</time>
      </trkpt>
      <trkpt lat="43.19711" lon="2.00956">
        <ele>226.8869934082</ele>
        <time>2012-07-22T09:32:22Z</time>
      </trkpt>
      <trkpt lat="43.19711" lon="2.0094">
        <ele>229.58099365234</ele>
        <time>2012-07-22T09:32:29Z</time>
      </trkpt>
      <trkpt lat="43.19711" lon="2.00934">
        <ele>230.64500427246</ele>
        <time>2012-07-22T09:32:32Z</time>
      </trkpt>
      <trkpt lat="43.19711" lon="2.0092">
        <ele>233.43699645996</ele>
        <time>2012-07-22T09:32:40Z</time>
      </trkpt>
      <trkpt lat="43.1971" lon="2.00915">
        <ele>234.7140045166</ele>
        <time>2012-07-22T09:32:43Z</time>
      </trkpt>
      <trkpt lat="43.1971" lon="2.00909">
        <ele>236.08200073242</ele>
        <time>2012-07-22T09:32:46Z</time>
      </trkpt>
      <trkpt lat="43.19711" lon="2.00892">
        <ele>239.15899658203</ele>
        <time>2012-07-22T09:32:55Z</time>
      </trkpt>
      <trkpt lat="43.19711" lon="2.00886">
        <ele>239.96200561523</ele>
        <time>2012-07-22T09:32:58Z</time>
      </trkpt>
      <trkpt lat="43.19711" lon="2.00884">
        <ele>240.38600158691</ele>
        <time>2012-07-22T09:33:00Z</time>
      </trkpt>
      <trkpt lat="43.19713" lon="2.00873">
        <ele>242.09700012207</ele>
        <time>2012-07-22T09:33:06Z</time>
      </trkpt>
      <trkpt lat="43.19717" lon="2.00855">
        <ele>244.38800048828</ele>
        <time>2012-07-22T09:33:15Z</time>
      </trkpt>
      <trkpt lat="43.19716" lon="2.00849">
        <ele>244.93200683594</ele>
        <time>2012-07-22T09:33:18Z</time>
      </trkpt>
      <trkpt lat="43.19709" lon="2.00843">
        <ele>245.09100341797</ele>
        <time>2012-07-22T09:33:24Z</time>
      </trkpt>
      <trkpt lat="43.19703" lon="2.00853">
        <ele>245.12199401856</ele>
        <time>2012-07-22T09:33:29Z</time>
      </trkpt>
      <trkpt lat="43.19701" lon="2.00863">
        <ele>246.24000549316</ele>
        <time>2012-07-22T09:33:34Z</time>
      </trkpt>
      <trkpt lat="43.19693" lon="2.00877">
        <ele>248.4940032959</ele>
        <time>2012-07-22T09:33:42Z</time>
      </trkpt>
      <trkpt lat="43.1968" lon="2.00883">
        <ele>249.95300292969</ele>
        <time>2012-07-22T09:33:49Z</time>
      </trkpt>
      <trkpt lat="43.19676" lon="2.00882">
        <ele>250.43600463867</ele>
        <time>2012-07-22T09:33:51Z</time>
      </trkpt>
      <trkpt lat="43.1967" lon="2.00867">
        <ele>250.70399475098</ele>
        <time>2012-07-22T09:33:56Z</time>
      </trkpt>
      <trkpt lat="43.1967" lon="2.00843">
        <ele>251.75500488281</ele>
        <time>2012-07-22T09:34:04Z</time>
      </trkpt>
      <trkpt lat="43.19673" lon="2.00827">
        <ele>254.01699829102</ele>
        <time>2012-07-22T09:34:11Z</time>
      </trkpt>
      <trkpt lat="43.19674" lon="2.00806">
        <ele>256.42401123047</ele>
        <time>2012-07-22T09:34:20Z</time>
      </trkpt>
      <trkpt lat="43.19672" lon="2.00788">
        <ele>257.53100585938</ele>
        <time>2012-07-22T09:34:27Z</time>
      </trkpt>
      <trkpt lat="43.1967" lon="2.00773">
        <ele>258.68099975586</ele>
        <time>2012-07-22T09:34:33Z</time>
      </trkpt>
      <trkpt lat="43.19669" lon="2.00752">
        <ele>260.40701293945</ele>
        <time>2012-07-22T09:34:41Z</time>
      </trkpt>
      <trkpt lat="43.19665" lon="2.00728">
        <ele>263.05899047852</ele>
        <time>2012-07-22T09:34:51Z</time>
      </trkpt>
      <trkpt lat="43.19661" lon="2.00714">
        <ele>265.06799316406</ele>
        <time>2012-07-22T09:34:58Z</time>
      </trkpt>
      <trkpt lat="43.19659" lon="2.00696">
        <ele>267.64300537109</ele>
        <time>2012-07-22T09:35:06Z</time>
      </trkpt>
      <trkpt lat="43.1966" lon="2.00683">
        <ele>268.91500854492</ele>
        <time>2012-07-22T09:35:12Z</time>
      </trkpt>
      <trkpt lat="43.19665" lon="2.00665">
        <ele>268.89599609375</ele>
        <time>2012-07-22T09:35:19Z</time>
      </trkpt>
      <trkpt lat="43.19669" lon="2.00652">
        <ele>268.32699584961</ele>
        <time>2012-07-22T09:35:25Z</time>
      </trkpt>
      <trkpt lat="43.19675" lon="2.00632">
        <ele>267.89700317383</ele>
        <time>2012-07-22T09:35:30Z</time>
      </trkpt>
      <trkpt lat="43.19676" lon="2.00627">
        <ele>267.86199951172</ele>
        <time>2012-07-22T09:35:31Z</time>
      </trkpt>
      <trkpt lat="43.19676" lon="2.00602">
        <ele>266.50698852539</ele>
        <time>2012-07-22T09:35:35Z</time>
      </trkpt>
      <trkpt lat="43.19675" lon="2.00571">
        <ele>264.80599975586</ele>
        <time>2012-07-22T09:35:41Z</time>
      </trkpt>
      <trkpt lat="43.19682" lon="2.00548">
        <ele>264.03298950195</ele>
        <time>2012-07-22T09:35:47Z</time>
      </trkpt>
      <trkpt lat="43.19699" lon="2.00529">
        <ele>264.79598999023</ele>
        <time>2012-07-22T09:35:55Z</time>
      </trkpt>
      <trkpt lat="43.1971" lon="2.00515">
        <ele>266.47900390625</ele>
        <time>2012-07-22T09:36:02Z</time>
      </trkpt>
      <trkpt lat="43.19712" lon="2.00514">
        <ele>266.26699829102</ele>
        <time>2012-07-22T09:36:07Z</time>
      </trkpt>
      <trkpt lat="43.19712" lon="2.00516">
        <ele>266.18499755859</ele>
        <time>2012-07-22T09:38:38Z</time>
      </trkpt>
      <trkpt lat="43.19713" lon="2.00515">
        <ele>266.25500488281</ele>
        <time>2012-07-22T09:38:40Z</time>
      </trkpt>
      <trkpt lat="43.19711" lon="2.00505">
        <ele>266.28100585938</ele>
        <time>2012-07-22T09:38:45Z</time>
      </trkpt>
      <trkpt lat="43.19711" lon="2.00502">
        <ele>266.37600708008</ele>
        <time>2012-07-22T09:38:46Z</time>
      </trkpt>
      <trkpt lat="43.19712" lon="2.00483">
        <ele>268.03298950195</ele>
        <time>2012-07-22T09:38:52Z</time>
      </trkpt>
      <trkpt lat="43.19715" lon="2.00452">
        <ele>270.38500976562</ele>
        <time>2012-07-22T09:39:01Z</time>
      </trkpt>
      <trkpt lat="43.19716" lon="2.00448">
        <ele>270.65600585938</ele>
        <time>2012-07-22T09:39:02Z</time>
      </trkpt>
      <trkpt lat="43.19719" lon="2.00411">
        <ele>271.66299438477</ele>
        <time>2012-07-22T09:39:13Z</time>
      </trkpt>
      <trkpt lat="43.19722" lon="2.00383">
        <ele>273.96398925781</ele>
        <time>2012-07-22T09:39:21Z</time>
      </trkpt>
      <trkpt lat="43.19719" lon="2.00363">
        <ele>274.08801269531</ele>
        <time>2012-07-22T09:39:27Z</time>
      </trkpt>
      <trkpt lat="43.19709" lon="2.00355">
        <ele>273.93899536133</ele>
        <time>2012-07-22T09:39:32Z</time>
      </trkpt>
      <trkpt lat="43.19695" lon="2.00348">
        <ele>274.41799926758</ele>
        <time>2012-07-22T09:39:39Z</time>
      </trkpt>
      <trkpt lat="43.19679" lon="2.00339">
        <ele>274.69500732422</ele>
        <time>2012-07-22T09:39:45Z</time>
      </trkpt>
      <trkpt lat="43.19649" lon="2.00322">
        <ele>275.10800170898</ele>
        <time>2012-07-22T09:39:56Z</time>
      </trkpt>
      <trkpt lat="43.19627" lon="2.00311">
        <ele>275.13900756836</ele>
        <time>2012-07-22T09:40:03Z</time>
      </trkpt>
      <trkpt lat="43.19594" lon="2.00299">
        <ele>273.93798828125</ele>
        <time>2012-07-22T09:40:11Z</time>
      </trkpt>
      <trkpt lat="43.19563" lon="2.00288">
        <ele>274.08801269531</ele>
        <time>2012-07-22T09:40:18Z</time>
      </trkpt>
      <trkpt lat="43.19535" lon="2.00275">
        <ele>275.40899658203</ele>
        <time>2012-07-22T09:40:25Z</time>
      </trkpt>
      <trkpt lat="43.19525" lon="2.00265">
        <ele>275.64700317383</ele>
        <time>2012-07-22T09:40:28Z</time>
      </trkpt>
      <trkpt lat="43.19516" lon="2.00238">
        <ele>275.64599609375</ele>
        <time>2012-07-22T09:40:33Z</time>
      </trkpt>
      <trkpt lat="43.1951" lon="2.00175">
        <ele>276.91299438477</ele>
        <time>2012-07-22T09:40:44Z</time>
      </trkpt>
      <trkpt lat="43.19509" lon="2.00146">
        <ele>278.10699462891</ele>
        <time>2012-07-22T09:40:50Z</time>
      </trkpt>
      <trkpt lat="43.19512" lon="2.00137">
        <ele>278.34201049805</ele>
        <time>2012-07-22T09:40:52Z</time>
      </trkpt>
      <trkpt lat="43.19531" lon="2.00115">
        <ele>275.48901367188</ele>
        <time>2012-07-22T09:40:57Z</time>
      </trkpt>
      <trkpt lat="43.19562" lon="2.00094">
        <ele>273.29998779297</ele>
        <time>2012-07-22T09:41:03Z</time>
      </trkpt>
      <trkpt lat="43.1957" lon="2.00094">
        <ele>272.02600097656</ele>
        <time>2012-07-22T09:41:05Z</time>
      </trkpt>
      <trkpt lat="43.19576" lon="2.00103">
        <ele>271.40899658203</ele>
        <time>2012-07-22T09:41:07Z</time>
      </trkpt>
      <trkpt lat="43.19579" lon="2.0013">
        <ele>269.97100830078</ele>
        <time>2012-07-22T09:41:10Z</time>
      </trkpt>
      <trkpt lat="43.19595" lon="2.00167">
        <ele>267.90399169922</ele>
        <time>2012-07-22T09:41:14Z</time>
      </trkpt>
      <trkpt lat="43.19618" lon="2.00184">
        <ele>267.00799560547</ele>
        <time>2012-07-22T09:41:17Z</time>
      </trkpt>
      <trkpt lat="43.19635" lon="2.00188">
        <ele>266.08999633789</ele>
        <time>2012-07-22T09:41:19Z</time>
      </trkpt>
      <trkpt lat="43.19651" lon="2.00191">
        <ele>264.89199829102</ele>
        <time>2012-07-22T09:41:21Z</time>
      </trkpt>
      <trkpt lat="43.19685" lon="2.00184">
        <ele>262.1780090332</ele>
        <time>2012-07-22T09:41:25Z</time>
      </trkpt>
      <trkpt lat="43.19699" lon="2.00173">
        <ele>261.33200073242</ele>
        <time>2012-07-22T09:41:27Z</time>
      </trkpt>
      <trkpt lat="43.19725" lon="2.00145">
        <ele>260.7080078125</ele>
        <time>2012-07-22T09:41:31Z</time>
      </trkpt>
      <trkpt lat="43.19759" lon="2.00129">
        <ele>257.95999145508</ele>
        <time>2012-07-22T09:41:35Z</time>
      </trkpt>
      <trkpt lat="43.19778" lon="2.00129">
        <ele>256.29800415039</ele>
        <time>2012-07-22T09:41:37Z</time>
      </trkpt>
      <trkpt lat="43.19838" lon="2.00138">
        <ele>252.72599792481</ele>
        <time>2012-07-22T09:41:43Z</time>
      </trkpt>
      <trkpt lat="43.19866" lon="2.00148">
        <ele>250.35400390625</ele>
        <time>2012-07-22T09:41:46Z</time>
      </trkpt>
      <trkpt lat="43.19907" lon="2.00177">
        <ele>247.1609954834</ele>
        <time>2012-07-22T09:41:51Z</time>
      </trkpt>
      <trkpt lat="43.19946" lon="2.00199">
        <ele>245.42199707031</ele>
        <time>2012-07-22T09:41:55Z</time>
      </trkpt>
      <trkpt lat="43.20007" lon="2.00227">
        <ele>242.43699645996</ele>
        <time>2012-07-22T09:42:01Z</time>
      </trkpt>
      <trkpt lat="43.20038" lon="2.00234">
        <ele>241.07899475098</ele>
        <time>2012-07-22T09:42:04Z</time>
      </trkpt>
      <trkpt lat="43.20089" lon="2.00222">
        <ele>236.18499755859</ele>
        <time>2012-07-22T09:42:09Z</time>
      </trkpt>
      <trkpt lat="43.201" lon="2.00219">
        <ele>235.125</ele>
        <time>2012-07-22T09:42:10Z</time>
      </trkpt>
      <trkpt lat="43.20161" lon="2.00206">
        <ele>232.04699707031</ele>
        <time>2012-07-22T09:42:16Z</time>
      </trkpt>
      <trkpt lat="43.20219" lon="2.00194">
        <ele>228.43699645996</ele>
        <time>2012-07-22T09:42:22Z</time>
      </trkpt>
      <trkpt lat="43.20227" lon="2.00191">
        <ele>227.58500671387</ele>
        <time>2012-07-22T09:42:23Z</time>
      </trkpt>
      <trkpt lat="43.20253" lon="2.00196">
        <ele>224.42300415039</ele>
        <time>2012-07-22T09:42:27Z</time>
      </trkpt>
      <trkpt lat="43.20282" lon="2.00194">
        <ele>222.99600219727</ele>
        <time>2012-07-22T09:42:31Z</time>
      </trkpt>
      <trkpt lat="43.20298" lon="2.00175">
        <ele>222.26100158691</ele>
        <time>2012-07-22T09:42:34Z</time>
      </trkpt>
      <trkpt lat="43.20313" lon="2.00144">
        <ele>222.05499267578</ele>
        <time>2012-07-22T09:42:39Z</time>
      </trkpt>
      <trkpt lat="43.20312" lon="2.00097">
        <ele>222.90600585938</ele>
        <time>2012-07-22T09:42:47Z</time>
      </trkpt>
      <trkpt lat="43.2031" lon="2.00057">
        <ele>223.02900695801</ele>
        <time>2012-07-22T09:42:54Z</time>
      </trkpt>
      <trkpt lat="43.20306" lon="1.99986">
        <ele>224.14199829102</ele>
        <time>2012-07-22T09:43:05Z</time>
      </trkpt>
      <trkpt lat="43.20306" lon="1.99942">
        <ele>225.29400634766</ele>
        <time>2012-07-22T09:43:12Z</time>
      </trkpt>
      <trkpt lat="43.20313" lon="1.99898">
        <ele>226.58799743652</ele>
        <time>2012-07-22T09:43:20Z</time>
      </trkpt>
      <trkpt lat="43.20321" lon="1.99872">
        <ele>227.61799621582</ele>
        <time>2012-07-22T09:43:26Z</time>
      </trkpt>
      <trkpt lat="43.20329" lon="1.99838">
        <ele>229.54899597168</ele>
        <time>2012-07-22T09:43:33Z</time>
      </trkpt>
      <trkpt lat="43.20339" lon="1.99801">
        <ele>230.56199645996</ele>
        <time>2012-07-22T09:43:42Z</time>
      </trkpt>
      <trkpt lat="43.2035" lon="1.99759">
        <ele>232.94000244141</ele>
        <time>2012-07-22T09:43:52Z</time>
      </trkpt>
      <trkpt lat="43.20358" lon="1.99736">
        <ele>233.74800109863</ele>
        <time>2012-07-22T09:43:58Z</time>
      </trkpt>
      <trkpt lat="43.20372" lon="1.99706">
        <ele>235.00700378418</ele>
        <time>2012-07-22T09:44:07Z</time>
      </trkpt>
      <trkpt lat="43.20383" lon="1.99685">
        <ele>235.85600280762</ele>
        <time>2012-07-22T09:44:14Z</time>
      </trkpt>
      <trkpt lat="43.20394" lon="1.99674">
        <ele>236.78799438477</ele>
        <time>2012-07-22T09:44:19Z</time>
      </trkpt>
      <trkpt lat="43.20414" lon="1.99668">
        <ele>238.35000610352</ele>
        <time>2012-07-22T09:44:25Z</time>
      </trkpt>
      <trkpt lat="43.20434" lon="1.99652">
        <ele>238.7380065918</ele>
        <time>2012-07-22T09:44:32Z</time>
      </trkpt>
      <trkpt lat="43.20451" lon="1.9963">
        <ele>238.72200012207</ele>
        <time>2012-07-22T09:44:38Z</time>
      </trkpt>
      <trkpt lat="43.20462" lon="1.99614">
        <ele>238.00799560547</ele>
        <time>2012-07-22T09:44:41Z</time>
      </trkpt>
      <trkpt lat="43.20477" lon="1.99588">
        <ele>237.55700683594</ele>
        <time>2012-07-22T09:44:45Z</time>
      </trkpt>
      <trkpt lat="43.20485" lon="1.99557">
        <ele>236.19700622559</ele>
        <time>2012-07-22T09:44:49Z</time>
      </trkpt>
      <trkpt lat="43.20477" lon="1.99542">
        <ele>234.9880065918</ele>
        <time>2012-07-22T09:44:51Z</time>
      </trkpt>
      <trkpt lat="43.20458" lon="1.99536">
        <ele>233.82400512695</ele>
        <time>2012-07-22T09:44:54Z</time>
      </trkpt>
      <trkpt lat="43.20438" lon="1.99535">
        <ele>233.96000671387</ele>
        <time>2012-07-22T09:44:59Z</time>
      </trkpt>
      <trkpt lat="43.20424" lon="1.99534">
        <ele>232.75300598144</ele>
        <time>2012-07-22T09:45:05Z</time>
      </trkpt>
      <trkpt lat="43.20421" lon="1.99534">
        <ele>232.73599243164</ele>
        <time>2012-07-22T09:45:06Z</time>
      </trkpt>
      <trkpt lat="43.20418" lon="1.9953">
        <ele>232.72599792481</ele>
        <time>2012-07-22T09:45:11Z</time>
      </trkpt>
      <trkpt lat="43.20421" lon="1.99531">
        <ele>232.9049987793</ele>
        <time>2012-07-22T09:54:22Z</time>
      </trkpt>
      <trkpt lat="43.20422" lon="1.99532">
        <ele>232.71299743652</ele>
        <time>2012-07-22T09:54:35Z</time>
      </trkpt>
      <trkpt lat="43.20433" lon="1.9953">
        <ele>233.21800231934</ele>
        <time>2012-07-22T09:54:42Z</time>
      </trkpt>
      <trkpt lat="43.20438" lon="1.99523">
        <ele>232.94900512695</ele>
        <time>2012-07-22T09:54:46Z</time>
      </trkpt>
      <trkpt lat="43.20439" lon="1.99513">
        <ele>233.97300720215</ele>
        <time>2012-07-22T09:54:51Z</time>
      </trkpt>
      <trkpt lat="43.20444" lon="1.9949">
        <ele>236.34300231934</ele>
        <time>2012-07-22T09:55:00Z</time>
      </trkpt>
      <trkpt lat="43.20444" lon="1.99471">
        <ele>238.37699890137</ele>
        <time>2012-07-22T09:55:07Z</time>
      </trkpt>
      <trkpt lat="43.20446" lon="1.99463">
        <ele>239.75500488281</ele>
        <time>2012-07-22T09:55:10Z</time>
      </trkpt>
      <trkpt lat="43.20449" lon="1.99441">
        <ele>240.84700012207</ele>
        <time>2012-07-22T09:55:18Z</time>
      </trkpt>
      <trkpt lat="43.20456" lon="1.99419">
        <ele>243.09800720215</ele>
        <time>2012-07-22T09:55:27Z</time>
      </trkpt>
      <trkpt lat="43.20462" lon="1.99401">
        <ele>245.31500244141</ele>
        <time>2012-07-22T09:55:35Z</time>
      </trkpt>
      <trkpt lat="43.20468" lon="1.99388">
        <ele>246.34599304199</ele>
        <time>2012-07-22T09:55:41Z</time>
      </trkpt>
      <trkpt lat="43.20475" lon="1.99372">
        <ele>247.23500061035</ele>
        <time>2012-07-22T09:55:48Z</time>
      </trkpt>
      <trkpt lat="43.20482" lon="1.99349">
        <ele>249.12199401856</ele>
        <time>2012-07-22T09:55:58Z</time>
      </trkpt>
      <trkpt lat="43.20486" lon="1.99326">
        <ele>250.66000366211</ele>
        <time>2012-07-22T09:56:07Z</time>
      </trkpt>
      <trkpt lat="43.2049" lon="1.99308">
        <ele>252.07600402832</ele>
        <time>2012-07-22T09:56:14Z</time>
      </trkpt>
      <trkpt lat="43.20496" lon="1.99289">
        <ele>253.06599426269</ele>
        <time>2012-07-22T09:56:22Z</time>
      </trkpt>
      <trkpt lat="43.20503" lon="1.9927">
        <ele>253.81599426269</ele>
        <time>2012-07-22T09:56:30Z</time>
      </trkpt>
      <trkpt lat="43.20512" lon="1.9925">
        <ele>255.16900634766</ele>
        <time>2012-07-22T09:56:38Z</time>
      </trkpt>
      <trkpt lat="43.20525" lon="1.99222">
        <ele>255.42500305176</ele>
        <time>2012-07-22T09:56:48Z</time>
      </trkpt>
      <trkpt lat="43.20539" lon="1.99192">
        <ele>256.91598510742</ele>
        <time>2012-07-22T09:56:58Z</time>
      </trkpt>
      <trkpt lat="43.20555" lon="1.99157">
        <ele>258.05801391602</ele>
        <time>2012-07-22T09:57:09Z</time>
      </trkpt>
      <trkpt lat="43.20566" lon="1.99132">
        <ele>258.20498657227</ele>
        <time>2012-07-22T09:57:17Z</time>
      </trkpt>
      <trkpt lat="43.20575" lon="1.99112">
        <ele>259.00799560547</ele>
        <time>2012-07-22T09:57:24Z</time>
      </trkpt>
      <trkpt lat="43.20589" lon="1.99089">
        <ele>259.81100463867</ele>
        <time>2012-07-22T09:57:33Z</time>
      </trkpt>
      <trkpt lat="43.20604" lon="1.99067">
        <ele>262.49798583984</ele>
        <time>2012-07-22T09:57:42Z</time>
      </trkpt>
      <trkpt lat="43.20612" lon="1.9905">
        <ele>263.40798950195</ele>
        <time>2012-07-22T09:57:48Z</time>
      </trkpt>
      <trkpt lat="43.20621" lon="1.99021">
        <ele>264.99798583984</ele>
        <time>2012-07-22T09:57:57Z</time>
      </trkpt>
      <trkpt lat="43.20626" lon="1.98987">
        <ele>266.17401123047</ele>
        <time>2012-07-22T09:58:07Z</time>
      </trkpt>
      <trkpt lat="43.20633" lon="1.98963">
        <ele>267.28399658203</ele>
        <time>2012-07-22T09:58:15Z</time>
      </trkpt>
      <trkpt lat="43.20649" lon="1.98942">
        <ele>268.0950012207</ele>
        <time>2012-07-22T09:58:24Z</time>
      </trkpt>
      <trkpt lat="43.20663" lon="1.9893">
        <ele>268.96398925781</ele>
        <time>2012-07-22T09:58:31Z</time>
      </trkpt>
      <trkpt lat="43.20679" lon="1.98915">
        <ele>270.07501220703</ele>
        <time>2012-07-22T09:58:39Z</time>
      </trkpt>
      <trkpt lat="43.20692" lon="1.98894">
        <ele>271.50500488281</ele>
        <time>2012-07-22T09:58:47Z</time>
      </trkpt>
      <trkpt lat="43.20704" lon="1.98865">
        <ele>273.46600341797</ele>
        <time>2012-07-22T09:58:57Z</time>
      </trkpt>
      <trkpt lat="43.20711" lon="1.98844">
        <ele>274.09100341797</ele>
        <time>2012-07-22T09:59:05Z</time>
      </trkpt>
      <trkpt lat="43.2072" lon="1.98815">
        <ele>276.58599853516</ele>
        <time>2012-07-22T09:59:16Z</time>
      </trkpt>
      <trkpt lat="43.20726" lon="1.98799">
        <ele>277.52899169922</ele>
        <time>2012-07-22T09:59:23Z</time>
      </trkpt>
      <trkpt lat="43.20731" lon="1.98786">
        <ele>278.6369934082</ele>
        <time>2012-07-22T09:59:28Z</time>
      </trkpt>
      <trkpt lat="43.20741" lon="1.98769">
        <ele>280.65600585938</ele>
        <time>2012-07-22T09:59:36Z</time>
      </trkpt>
      <trkpt lat="43.2075" lon="1.98757">
        <ele>281.8219909668</ele>
        <time>2012-07-22T09:59:42Z</time>
      </trkpt>
      <trkpt lat="43.20765" lon="1.98742">
        <ele>283.61801147461</ele>
        <time>2012-07-22T09:59:51Z</time>
      </trkpt>
      <trkpt lat="43.20781" lon="1.98731">
        <ele>284.22799682617</ele>
        <time>2012-07-22T09:59:59Z</time>
      </trkpt>
      <trkpt lat="43.20792" lon="1.98723">
        <ele>284.66101074219</ele>
        <time>2012-07-22T10:00:05Z</time>
      </trkpt>
      <trkpt lat="43.20808" lon="1.98708">
        <ele>286.26699829102</ele>
        <time>2012-07-22T10:00:13Z</time>
      </trkpt>
      <trkpt lat="43.20821" lon="1.98688">
        <ele>287.63400268555</ele>
        <time>2012-07-22T10:00:21Z</time>
      </trkpt>
      <trkpt lat="43.20832" lon="1.98669">
        <ele>289.125</ele>
        <time>2012-07-22T10:00:29Z</time>
      </trkpt>
      <trkpt lat="43.20845" lon="1.98645">
        <ele>288.99200439453</ele>
        <time>2012-07-22T10:00:39Z</time>
      </trkpt>
      <trkpt lat="43.20855" lon="1.98626">
        <ele>289.91299438477</ele>
        <time>2012-07-22T10:00:47Z</time>
      </trkpt>
      <trkpt lat="43.20867" lon="1.98609">
        <ele>290.1969909668</ele>
        <time>2012-07-22T10:00:56Z</time>
      </trkpt>
      <trkpt lat="43.20874" lon="1.98599">
        <ele>292.92199707031</ele>
        <time>2012-07-22T10:01:02Z</time>
      </trkpt>
      <trkpt lat="43.20885" lon="1.98585">
        <ele>294.09298706055</ele>
        <time>2012-07-22T10:01:09Z</time>
      </trkpt>
      <trkpt lat="43.20895" lon="1.98571">
        <ele>295.11099243164</ele>
        <time>2012-07-22T10:01:16Z</time>
      </trkpt>
      <trkpt lat="43.20906" lon="1.98557">
        <ele>296.89199829102</ele>
        <time>2012-07-22T10:01:24Z</time>
      </trkpt>
      <trkpt lat="43.20919" lon="1.98542">
        <ele>299.22601318359</ele>
        <time>2012-07-22T10:01:32Z</time>
      </trkpt>
      <trkpt lat="43.20929" lon="1.98523">
        <ele>300.1369934082</ele>
        <time>2012-07-22T10:01:40Z</time>
      </trkpt>
      <trkpt lat="43.20934" lon="1.98509">
        <ele>301.01699829102</ele>
        <time>2012-07-22T10:01:46Z</time>
      </trkpt>
      <trkpt lat="43.20944" lon="1.98487">
        <ele>302.42199707031</ele>
        <time>2012-07-22T10:01:54Z</time>
      </trkpt>
      <trkpt lat="43.20956" lon="1.98465">
        <ele>303.12200927734</ele>
        <time>2012-07-22T10:02:02Z</time>
      </trkpt>
      <trkpt lat="43.20971" lon="1.98445">
        <ele>304.02700805664</ele>
        <time>2012-07-22T10:02:10Z</time>
      </trkpt>
      <trkpt lat="43.20989" lon="1.98431">
        <ele>304.94400024414</ele>
        <time>2012-07-22T10:02:19Z</time>
      </trkpt>
      <trkpt lat="43.21008" lon="1.98423">
        <ele>306.90899658203</ele>
        <time>2012-07-22T10:02:28Z</time>
      </trkpt>
      <trkpt lat="43.21028" lon="1.98414">
        <ele>308.4469909668</ele>
        <time>2012-07-22T10:02:38Z</time>
      </trkpt>
      <trkpt lat="43.21038" lon="1.98403">
        <ele>309.74499511719</ele>
        <time>2012-07-22T10:02:45Z</time>
      </trkpt>
      <trkpt lat="43.21049" lon="1.98386">
        <ele>311.71398925781</ele>
        <time>2012-07-22T10:02:53Z</time>
      </trkpt>
      <trkpt lat="43.21059" lon="1.98371">
        <ele>311.89700317383</ele>
        <time>2012-07-22T10:03:01Z</time>
      </trkpt>
      <trkpt lat="43.21069" lon="1.98358">
        <ele>312.6669921875</ele>
        <time>2012-07-22T10:03:08Z</time>
      </trkpt>
      <trkpt lat="43.21079" lon="1.98345">
        <ele>313.88598632812</ele>
        <time>2012-07-22T10:03:16Z</time>
      </trkpt>
      <trkpt lat="43.21088" lon="1.98329">
        <ele>315.79998779297</ele>
        <time>2012-07-22T10:03:24Z</time>
      </trkpt>
      <trkpt lat="43.21098" lon="1.98314">
        <ele>317.64801025391</ele>
        <time>2012-07-22T10:03:33Z</time>
      </trkpt>
      <trkpt lat="43.21106" lon="1.98305">
        <ele>319.09698486328</ele>
        <time>2012-07-22T10:03:41Z</time>
      </trkpt>
      <trkpt lat="43.21113" lon="1.98298">
        <ele>320.43200683594</ele>
        <time>2012-07-22T10:03:48Z</time>
      </trkpt>
      <trkpt lat="43.2112" lon="1.9829">
        <ele>322.31500244141</ele>
        <time>2012-07-22T10:03:56Z</time>
      </trkpt>
      <trkpt lat="43.21128" lon="1.98283">
        <ele>324.5719909668</ele>
        <time>2012-07-22T10:04:04Z</time>
      </trkpt>
      <trkpt lat="43.21135" lon="1.98276">
        <ele>326.56298828125</ele>
        <time>2012-07-22T10:04:12Z</time>
      </trkpt>
      <trkpt lat="43.21141" lon="1.9827">
        <ele>327.68701171875</ele>
        <time>2012-07-22T10:04:19Z</time>
      </trkpt>
      <trkpt lat="43.21149" lon="1.98261">
        <ele>328.91299438477</ele>
        <time>2012-07-22T10:04:27Z</time>
      </trkpt>
      <trkpt lat="43.21156" lon="1.98252">
        <ele>330.60998535156</ele>
        <time>2012-07-22T10:04:35Z</time>
      </trkpt>
      <trkpt lat="43.21164" lon="1.98244">
        <ele>331.85900878906</ele>
        <time>2012-07-22T10:04:43Z</time>
      </trkpt>
      <trkpt lat="43.21173" lon="1.98235">
        <ele>333.32998657227</ele>
        <time>2012-07-22T10:04:52Z</time>
      </trkpt>
      <trkpt lat="43.21185" lon="1.98229">
        <ele>336.13000488281</ele>
        <time>2012-07-22T10:05:01Z</time>
      </trkpt>
      <trkpt lat="43.21196" lon="1.98226">
        <ele>338.20901489258</ele>
        <time>2012-07-22T10:05:11Z</time>
      </trkpt>
      <trkpt lat="43.21207" lon="1.98221">
        <ele>339.14700317383</ele>
        <time>2012-07-22T10:05:19Z</time>
      </trkpt>
      <trkpt lat="43.21215" lon="1.98212">
        <ele>340.05999755859</ele>
        <time>2012-07-22T10:05:26Z</time>
      </trkpt>
      <trkpt lat="43.21225" lon="1.98201">
        <ele>341.92199707031</ele>
        <time>2012-07-22T10:05:35Z</time>
      </trkpt>
      <trkpt lat="43.21232" lon="1.98193">
        <ele>343.10400390625</ele>
        <time>2012-07-22T10:05:41Z</time>
      </trkpt>
      <trkpt lat="43.21242" lon="1.98181">
        <ele>344.42300415039</ele>
        <time>2012-07-22T10:05:49Z</time>
      </trkpt>
      <trkpt lat="43.2125" lon="1.98167">
        <ele>346.02301025391</ele>
        <time>2012-07-22T10:05:57Z</time>
      </trkpt>
      <trkpt lat="43.21258" lon="1.98148">
        <ele>347.79800415039</ele>
        <time>2012-07-22T10:06:06Z</time>
      </trkpt>
      <trkpt lat="43.21265" lon="1.9813">
        <ele>348.33999633789</ele>
        <time>2012-07-22T10:06:12Z</time>
      </trkpt>
      <trkpt lat="43.2128" lon="1.98101">
        <ele>346.94900512695</ele>
        <time>2012-07-22T10:06:19Z</time>
      </trkpt>
      <trkpt lat="43.21283" lon="1.98097">
        <ele>346.80999755859</ele>
        <time>2012-07-22T10:06:20Z</time>
      </trkpt>
      <trkpt lat="43.2128" lon="1.98088">
        <ele>344.7080078125</ele>
        <time>2012-07-22T10:06:24Z</time>
      </trkpt>
      <trkpt lat="43.2128" lon="1.98087">
        <ele>344.0830078125</ele>
        <time>2012-07-22T10:06:30Z</time>
      </trkpt>
      <trkpt lat="43.21278" lon="1.9809">
        <ele>344.11199951172</ele>
        <time>2012-07-22T10:07:33Z</time>
      </trkpt>
      <trkpt lat="43.21278" lon="1.98091">
        <ele>344.3030090332</ele>
        <time>2012-07-22T10:07:35Z</time>
      </trkpt>
      <trkpt lat="43.2127" lon="1.98094">
        <ele>344.60299682617</ele>
        <time>2012-07-22T10:07:41Z</time>
      </trkpt>
      <trkpt lat="43.21257" lon="1.98092">
        <ele>345.625</ele>
        <time>2012-07-22T10:07:47Z</time>
      </trkpt>
      <trkpt lat="43.21257" lon="1.98097">
        <ele>345.27099609375</ele>
        <time>2012-07-22T10:07:50Z</time>
      </trkpt>
      <trkpt lat="43.2127" lon="1.98096">
        <ele>345.3039855957</ele>
        <time>2012-07-22T10:07:55Z</time>
      </trkpt>
      <trkpt lat="43.21281" lon="1.98093">
        <ele>344.76901245117</ele>
        <time>2012-07-22T10:07:59Z</time>
      </trkpt>
      <trkpt lat="43.2128" lon="1.98091">
        <ele>344.63101196289</ele>
        <time>2012-07-22T10:10:46Z</time>
      </trkpt>
      <trkpt lat="43.21281" lon="1.98088">
        <ele>344.65301513672</ele>
        <time>2012-07-22T10:10:50Z</time>
      </trkpt>
      <trkpt lat="43.21275" lon="1.98091">
        <ele>345.05099487305</ele>
        <time>2012-07-22T10:10:54Z</time>
      </trkpt>
      <trkpt lat="43.21271" lon="1.98091">
        <ele>345.35900878906</ele>
        <time>2012-07-22T10:10:56Z</time>
      </trkpt>
      <trkpt lat="43.21254" lon="1.98093">
        <ele>346.24600219727</ele>
        <time>2012-07-22T10:11:04Z</time>
      </trkpt>
      <trkpt lat="43.21234" lon="1.98091">
        <ele>345.68600463867</ele>
        <time>2012-07-22T10:11:10Z</time>
      </trkpt>
      <trkpt lat="43.21199" lon="1.98073">
        <ele>344.72698974609</ele>
        <time>2012-07-22T10:11:17Z</time>
      </trkpt>
      <trkpt lat="43.2116" lon="1.98052">
        <ele>342.9169921875</ele>
        <time>2012-07-22T10:11:23Z</time>
      </trkpt>
      <trkpt lat="43.21093" lon="1.98017">
        <ele>339.86099243164</ele>
        <time>2012-07-22T10:11:32Z</time>
      </trkpt>
      <trkpt lat="43.21073" lon="1.98006">
        <ele>339.57998657227</ele>
        <time>2012-07-22T10:11:35Z</time>
      </trkpt>
      <trkpt lat="43.21051" lon="1.97982">
        <ele>339.27499389648</ele>
        <time>2012-07-22T10:11:40Z</time>
      </trkpt>
      <trkpt lat="43.21035" lon="1.9796">
        <ele>338.82000732422</ele>
        <time>2012-07-22T10:11:46Z</time>
      </trkpt>
      <trkpt lat="43.21029" lon="1.97953">
        <ele>338.48999023438</ele>
        <time>2012-07-22T10:11:48Z</time>
      </trkpt>
      <trkpt lat="43.21006" lon="1.97914">
        <ele>338.60598754883</ele>
        <time>2012-07-22T10:11:56Z</time>
      </trkpt>
      <trkpt lat="43.20983" lon="1.97893">
        <ele>338.18301391602</ele>
        <time>2012-07-22T10:12:02Z</time>
      </trkpt>
      <trkpt lat="43.20955" lon="1.97882">
        <ele>338.50201416016</ele>
        <time>2012-07-22T10:12:09Z</time>
      </trkpt>
      <trkpt lat="43.20922" lon="1.97869">
        <ele>338.56399536133</ele>
        <time>2012-07-22T10:12:18Z</time>
      </trkpt>
      <trkpt lat="43.20884" lon="1.97855">
        <ele>338.79699707031</ele>
        <time>2012-07-22T10:12:27Z</time>
      </trkpt>
      <trkpt lat="43.20859" lon="1.9786">
        <ele>338.65798950195</ele>
        <time>2012-07-22T10:12:33Z</time>
      </trkpt>
      <trkpt lat="43.20848" lon="1.97868">
        <ele>338.23599243164</ele>
        <time>2012-07-22T10:12:36Z</time>
      </trkpt>
      <trkpt lat="43.20819" lon="1.97903">
        <ele>337.4049987793</ele>
        <time>2012-07-22T10:12:45Z</time>
      </trkpt>
      <trkpt lat="43.20797" lon="1.97939">
        <ele>337.32000732422</ele>
        <time>2012-07-22T10:12:53Z</time>
      </trkpt>
      <trkpt lat="43.20787" lon="1.97953">
        <ele>337.24200439453</ele>
        <time>2012-07-22T10:12:56Z</time>
      </trkpt>
      <trkpt lat="43.20765" lon="1.97967">
        <ele>337.53500366211</ele>
        <time>2012-07-22T10:13:01Z</time>
      </trkpt>
      <trkpt lat="43.20745" lon="1.97962">
        <ele>337.55099487305</ele>
        <time>2012-07-22T10:13:05Z</time>
      </trkpt>
      <trkpt lat="43.20741" lon="1.97959">
        <ele>337.48599243164</ele>
        <time>2012-07-22T10:13:06Z</time>
      </trkpt>
      <trkpt lat="43.20705" lon="1.9793">
        <ele>337.43701171875</ele>
        <time>2012-07-22T10:13:15Z</time>
      </trkpt>
      <trkpt lat="43.20693" lon="1.97923">
        <ele>337.36801147461</ele>
        <time>2012-07-22T10:13:18Z</time>
      </trkpt>
      <trkpt lat="43.2066" lon="1.97911">
        <ele>338.12100219727</ele>
        <time>2012-07-22T10:13:26Z</time>
      </trkpt>
      <trkpt lat="43.20643" lon="1.97908">
        <ele>338.82598876953</ele>
        <time>2012-07-22T10:13:30Z</time>
      </trkpt>
      <trkpt lat="43.20623" lon="1.97908">
        <ele>340.20901489258</ele>
        <time>2012-07-22T10:13:35Z</time>
      </trkpt>
      <trkpt lat="43.20611" lon="1.97913">
        <ele>340.1549987793</ele>
        <time>2012-07-22T10:13:38Z</time>
      </trkpt>
      <trkpt lat="43.20595" lon="1.97919">
        <ele>340.4700012207</ele>
        <time>2012-07-22T10:13:42Z</time>
      </trkpt>
      <trkpt lat="43.20588" lon="1.97924">
        <ele>340.70599365234</ele>
        <time>2012-07-22T10:13:44Z</time>
      </trkpt>
      <trkpt lat="43.20573" lon="1.97936">
        <ele>341.02099609375</ele>
        <time>2012-07-22T10:13:48Z</time>
      </trkpt>
      <trkpt lat="43.20555" lon="1.97957">
        <ele>341.0539855957</ele>
        <time>2012-07-22T10:13:53Z</time>
      </trkpt>
      <trkpt lat="43.20527" lon="1.98001">
        <ele>340.58499145508</ele>
        <time>2012-07-22T10:14:02Z</time>
      </trkpt>
      <trkpt lat="43.20518" lon="1.98017">
        <ele>338.61499023438</ele>
        <time>2012-07-22T10:14:06Z</time>
      </trkpt>
      <trkpt lat="43.20506" lon="1.98039">
        <ele>336.07501220703</ele>
        <time>2012-07-22T10:14:11Z</time>
      </trkpt>
      <trkpt lat="43.20493" lon="1.98065">
        <ele>332.89700317383</ele>
        <time>2012-07-22T10:14:15Z</time>
      </trkpt>
      <trkpt lat="43.20464" lon="1.98094">
        <ele>329.39801025391</ele>
        <time>2012-07-22T10:14:20Z</time>
      </trkpt>
      <trkpt lat="43.20447" lon="1.981">
        <ele>327.98199462891</ele>
        <time>2012-07-22T10:14:22Z</time>
      </trkpt>
      <trkpt lat="43.2042" lon="1.98107">
        <ele>326.70901489258</ele>
        <time>2012-07-22T10:14:25Z</time>
      </trkpt>
      <trkpt lat="43.20372" lon="1.98131">
        <ele>325.43099975586</ele>
        <time>2012-07-22T10:14:31Z</time>
      </trkpt>
      <trkpt lat="43.20327" lon="1.98146">
        <ele>323.24600219727</ele>
        <time>2012-07-22T10:14:37Z</time>
      </trkpt>
      <trkpt lat="43.20272" lon="1.98147">
        <ele>321.52600097656</ele>
        <time>2012-07-22T10:14:44Z</time>
      </trkpt>
      <trkpt lat="43.2023" lon="1.9815">
        <ele>320.75500488281</ele>
        <time>2012-07-22T10:14:50Z</time>
      </trkpt>
      <trkpt lat="43.20197" lon="1.98156">
        <ele>320.70700073242</ele>
        <time>2012-07-22T10:14:56Z</time>
      </trkpt>
      <trkpt lat="43.20187" lon="1.98159">
        <ele>320.76400756836</ele>
        <time>2012-07-22T10:14:58Z</time>
      </trkpt>
      <trkpt lat="43.20169" lon="1.98171">
        <ele>321.00601196289</ele>
        <time>2012-07-22T10:15:02Z</time>
      </trkpt>
      <trkpt lat="43.20155" lon="1.98186">
        <ele>321.34799194336</ele>
        <time>2012-07-22T10:15:06Z</time>
      </trkpt>
      <trkpt lat="43.20129" lon="1.98193">
        <ele>322.42401123047</ele>
        <time>2012-07-22T10:15:12Z</time>
      </trkpt>
      <trkpt lat="43.20124" lon="1.98192">
        <ele>322.50698852539</ele>
        <time>2012-07-22T10:15:13Z</time>
      </trkpt>
      <trkpt lat="43.2007" lon="1.98182">
        <ele>321.49798583984</ele>
        <time>2012-07-22T10:15:23Z</time>
      </trkpt>
      <trkpt lat="43.20009" lon="1.98184">
        <ele>319.08401489258</ele>
        <time>2012-07-22T10:15:32Z</time>
      </trkpt>
      <trkpt lat="43.19995" lon="1.98184">
        <ele>317.85800170898</ele>
        <time>2012-07-22T10:15:34Z</time>
      </trkpt>
      <trkpt lat="43.1998" lon="1.98197">
        <ele>315.55099487305</ele>
        <time>2012-07-22T10:15:37Z</time>
      </trkpt>
      <trkpt lat="43.19976" lon="1.98215">
        <ele>314.55200195312</ele>
        <time>2012-07-22T10:15:39Z</time>
      </trkpt>
      <trkpt lat="43.1997" lon="1.98276">
        <ele>313.05899047852</ele>
        <time>2012-07-22T10:15:46Z</time>
      </trkpt>
      <trkpt lat="43.1996" lon="1.98287">
        <ele>312.01998901367</ele>
        <time>2012-07-22T10:15:50Z</time>
      </trkpt>
      <trkpt lat="43.19958" lon="1.98285">
        <ele>312.2380065918</ele>
        <time>2012-07-22T10:15:51Z</time>
      </trkpt>
      <trkpt lat="43.19937" lon="1.98267">
        <ele>313.32998657227</ele>
        <time>2012-07-22T10:15:58Z</time>
      </trkpt>
      <trkpt lat="43.19919" lon="1.98254">
        <ele>314.78698730469</ele>
        <time>2012-07-22T10:16:04Z</time>
      </trkpt>
      <trkpt lat="43.19897" lon="1.98237">
        <ele>314.95498657227</ele>
        <time>2012-07-22T10:16:10Z</time>
      </trkpt>
      <trkpt lat="43.19879" lon="1.98207">
        <ele>315.74600219727</ele>
        <time>2012-07-22T10:16:16Z</time>
      </trkpt>
      <trkpt lat="43.1986" lon="1.98158">
        <ele>315.5710144043</ele>
        <time>2012-07-22T10:16:25Z</time>
      </trkpt>
      <trkpt lat="43.19843" lon="1.98113">
        <ele>314.86599731445</ele>
        <time>2012-07-22T10:16:34Z</time>
      </trkpt>
      <trkpt lat="43.1984" lon="1.98103">
        <ele>314.11700439453</ele>
        <time>2012-07-22T10:16:36Z</time>
      </trkpt>
      <trkpt lat="43.19843" lon="1.98081">
        <ele>314.19000244141</ele>
        <time>2012-07-22T10:16:40Z</time>
      </trkpt>
      <trkpt lat="43.19847" lon="1.98076">
        <ele>313.6789855957</ele>
        <time>2012-07-22T10:16:41Z</time>
      </trkpt>
      <trkpt lat="43.19889" lon="1.98052">
        <ele>310.22399902344</ele>
        <time>2012-07-22T10:16:50Z</time>
      </trkpt>
      <trkpt lat="43.19923" lon="1.9803">
        <ele>311.50399780273</ele>
        <time>2012-07-22T10:16:57Z</time>
      </trkpt>
      <trkpt lat="43.19955" lon="1.97985">
        <ele>312.20901489258</ele>
        <time>2012-07-22T10:17:06Z</time>
      </trkpt>
      <trkpt lat="43.19992" lon="1.97932">
        <ele>312.66198730469</ele>
        <time>2012-07-22T10:17:16Z</time>
      </trkpt>
      <trkpt lat="43.20025" lon="1.97888">
        <ele>312.20901489258</ele>
        <time>2012-07-22T10:17:25Z</time>
      </trkpt>
      <trkpt lat="43.20054" lon="1.97853">
        <ele>312.19000244141</ele>
        <time>2012-07-22T10:17:33Z</time>
      </trkpt>
      <trkpt lat="43.20062" lon="1.97846">
        <ele>312.18899536133</ele>
        <time>2012-07-22T10:17:35Z</time>
      </trkpt>
      <trkpt lat="43.20088" lon="1.97827">
        <ele>312.64099121094</ele>
        <time>2012-07-22T10:17:41Z</time>
      </trkpt>
      <trkpt lat="43.20132" lon="1.97782">
        <ele>313.04299926758</ele>
        <time>2012-07-22T10:17:52Z</time>
      </trkpt>
      <trkpt lat="43.20148" lon="1.97766">
        <ele>313.27899169922</ele>
        <time>2012-07-22T10:17:56Z</time>
      </trkpt>
      <trkpt lat="43.20176" lon="1.97756">
        <ele>313.00500488281</ele>
        <time>2012-07-22T10:18:02Z</time>
      </trkpt>
      <trkpt lat="43.20191" lon="1.97755">
        <ele>312.71301269531</ele>
        <time>2012-07-22T10:18:05Z</time>
      </trkpt>
      <trkpt lat="43.20213" lon="1.97737">
        <ele>314.31399536133</ele>
        <time>2012-07-22T10:18:10Z</time>
      </trkpt>
      <trkpt lat="43.20237" lon="1.977">
        <ele>313.88101196289</ele>
        <time>2012-07-22T10:18:18Z</time>
      </trkpt>
      <trkpt lat="43.20263" lon="1.97661">
        <ele>313.71301269531</ele>
        <time>2012-07-22T10:18:27Z</time>
      </trkpt>
      <trkpt lat="43.20294" lon="1.97614">
        <ele>314.05200195312</ele>
        <time>2012-07-22T10:18:38Z</time>
      </trkpt>
      <trkpt lat="43.20318" lon="1.97576">
        <ele>315.35501098633</ele>
        <time>2012-07-22T10:18:47Z</time>
      </trkpt>
      <trkpt lat="43.20347" lon="1.97532">
        <ele>316.11801147461</ele>
        <time>2012-07-22T10:18:58Z</time>
      </trkpt>
      <trkpt lat="43.20369" lon="1.97509">
        <ele>316.74700927734</ele>
        <time>2012-07-22T10:19:05Z</time>
      </trkpt>
      <trkpt lat="43.20398" lon="1.97478">
        <ele>318.39999389648</ele>
        <time>2012-07-22T10:19:15Z</time>
      </trkpt>
      <trkpt lat="43.20417" lon="1.97457">
        <ele>319.21499633789</ele>
        <time>2012-07-22T10:19:21Z</time>
      </trkpt>
      <trkpt lat="43.20433" lon="1.97438">
        <ele>320.7380065918</ele>
        <time>2012-07-22T10:19:27Z</time>
      </trkpt>
      <trkpt lat="43.20445" lon="1.97413">
        <ele>322.23999023438</ele>
        <time>2012-07-22T10:19:34Z</time>
      </trkpt>
      <trkpt lat="43.2046" lon="1.97376">
        <ele>323.48699951172</ele>
        <time>2012-07-22T10:19:43Z</time>
      </trkpt>
      <trkpt lat="43.20477" lon="1.97361">
        <ele>323.58099365234</ele>
        <time>2012-07-22T10:19:49Z</time>
      </trkpt>
      <trkpt lat="43.20502" lon="1.97356">
        <ele>324.58099365234</ele>
        <time>2012-07-22T10:19:56Z</time>
      </trkpt>
      <trkpt lat="43.20538" lon="1.97351">
        <ele>326.64401245117</ele>
        <time>2012-07-22T10:20:06Z</time>
      </trkpt>
      <trkpt lat="43.20568" lon="1.97345">
        <ele>327.14498901367</ele>
        <time>2012-07-22T10:20:14Z</time>
      </trkpt>
      <trkpt lat="43.20599" lon="1.9733">
        <ele>327.20901489258</ele>
        <time>2012-07-22T10:20:22Z</time>
      </trkpt>
      <trkpt lat="43.20625" lon="1.97303">
        <ele>328.36099243164</ele>
        <time>2012-07-22T10:20:30Z</time>
      </trkpt>
      <trkpt lat="43.20649" lon="1.97271">
        <ele>328.94400024414</ele>
        <time>2012-07-22T10:20:39Z</time>
      </trkpt>
      <trkpt lat="43.20679" lon="1.97238">
        <ele>329.32000732422</ele>
        <time>2012-07-22T10:20:49Z</time>
      </trkpt>
      <trkpt lat="43.20702" lon="1.97218">
        <ele>329.40798950195</ele>
        <time>2012-07-22T10:20:56Z</time>
      </trkpt>
      <trkpt lat="43.20732" lon="1.97186">
        <ele>330.07501220703</ele>
        <time>2012-07-22T10:21:05Z</time>
      </trkpt>
      <trkpt lat="43.20755" lon="1.97143">
        <ele>330.39401245117</ele>
        <time>2012-07-22T10:21:13Z</time>
      </trkpt>
      <trkpt lat="43.20776" lon="1.97099">
        <ele>329.75299072266</ele>
        <time>2012-07-22T10:21:21Z</time>
      </trkpt>
      <trkpt lat="43.20792" lon="1.97066">
        <ele>329.13800048828</ele>
        <time>2012-07-22T10:21:28Z</time>
      </trkpt>
      <trkpt lat="43.20811" lon="1.97028">
        <ele>329.8030090332</ele>
        <time>2012-07-22T10:21:36Z</time>
      </trkpt>
      <trkpt lat="43.20834" lon="1.96983">
        <ele>329.75</ele>
        <time>2012-07-22T10:21:45Z</time>
      </trkpt>
      <trkpt lat="43.20853" lon="1.96943">
        <ele>329.48599243164</ele>
        <time>2012-07-22T10:21:53Z</time>
      </trkpt>
      <trkpt lat="43.2087" lon="1.96908">
        <ele>329.88101196289</ele>
        <time>2012-07-22T10:22:00Z</time>
      </trkpt>
      <trkpt lat="43.20897" lon="1.96855">
        <ele>330.98901367188</ele>
        <time>2012-07-22T10:22:11Z</time>
      </trkpt>
      <trkpt lat="43.2092" lon="1.96807">
        <ele>331.23699951172</ele>
        <time>2012-07-22T10:22:21Z</time>
      </trkpt>
      <trkpt lat="43.20932" lon="1.96783">
        <ele>332.50299072266</ele>
        <time>2012-07-22T10:22:26Z</time>
      </trkpt>
      <trkpt lat="43.20946" lon="1.96755">
        <ele>334.30899047852</ele>
        <time>2012-07-22T10:22:33Z</time>
      </trkpt>
      <trkpt lat="43.20965" lon="1.96716">
        <ele>336.20199584961</ele>
        <time>2012-07-22T10:22:42Z</time>
      </trkpt>
      <trkpt lat="43.20982" lon="1.96682">
        <ele>334.98400878906</ele>
        <time>2012-07-22T10:22:50Z</time>
      </trkpt>
      <trkpt lat="43.21" lon="1.96642">
        <ele>334.73001098633</ele>
        <time>2012-07-22T10:22:57Z</time>
      </trkpt>
      <trkpt lat="43.21017" lon="1.96582">
        <ele>331.61898803711</ele>
        <time>2012-07-22T10:23:06Z</time>
      </trkpt>
      <trkpt lat="43.21029" lon="1.96533">
        <ele>329.24899291992</ele>
        <time>2012-07-22T10:23:12Z</time>
      </trkpt>
      <trkpt lat="43.21041" lon="1.96477">
        <ele>327.69100952148</ele>
        <time>2012-07-22T10:23:19Z</time>
      </trkpt>
      <trkpt lat="43.21052" lon="1.96435">
        <ele>327.12399291992</ele>
        <time>2012-07-22T10:23:26Z</time>
      </trkpt>
      <trkpt lat="43.21054" lon="1.96429">
        <ele>327.04901123047</ele>
        <time>2012-07-22T10:23:27Z</time>
      </trkpt>
      <trkpt lat="43.21074" lon="1.96394">
        <ele>327.81298828125</ele>
        <time>2012-07-22T10:23:35Z</time>
      </trkpt>
      <trkpt lat="43.21094" lon="1.96366">
        <ele>329.07000732422</ele>
        <time>2012-07-22T10:23:43Z</time>
      </trkpt>
      <trkpt lat="43.21116" lon="1.96336">
        <ele>330.89898681641</ele>
        <time>2012-07-22T10:23:52Z</time>
      </trkpt>
      <trkpt lat="43.21142" lon="1.963">
        <ele>330.70901489258</ele>
        <time>2012-07-22T10:24:03Z</time>
      </trkpt>
      <trkpt lat="43.21165" lon="1.96269">
        <ele>332.78900146484</ele>
        <time>2012-07-22T10:24:13Z</time>
      </trkpt>
      <trkpt lat="43.2118" lon="1.96248">
        <ele>334.72500610352</ele>
        <time>2012-07-22T10:24:21Z</time>
      </trkpt>
      <trkpt lat="43.21196" lon="1.96225">
        <ele>335.47299194336</ele>
        <time>2012-07-22T10:24:30Z</time>
      </trkpt>
      <trkpt lat="43.21206" lon="1.96204">
        <ele>336.80200195312</ele>
        <time>2012-07-22T10:24:37Z</time>
      </trkpt>
      <trkpt lat="43.21209" lon="1.96175">
        <ele>337.1549987793</ele>
        <time>2012-07-22T10:24:45Z</time>
      </trkpt>
      <trkpt lat="43.21204" lon="1.96152">
        <ele>337.18301391602</ele>
        <time>2012-07-22T10:24:51Z</time>
      </trkpt>
      <trkpt lat="43.212" lon="1.96121">
        <ele>337.10400390625</ele>
        <time>2012-07-22T10:24:58Z</time>
      </trkpt>
      <trkpt lat="43.21202" lon="1.96086">
        <ele>336.72100830078</ele>
        <time>2012-07-22T10:25:06Z</time>
      </trkpt>
      <trkpt lat="43.21204" lon="1.9608">
        <ele>336.59298706055</ele>
        <time>2012-07-22T10:25:09Z</time>
      </trkpt>
      <trkpt lat="43.21204" lon="1.96079">
        <ele>336.22698974609</ele>
        <time>2012-07-22T10:25:51Z</time>
      </trkpt>
      <trkpt lat="43.21204" lon="1.96071">
        <ele>336.47698974609</ele>
        <time>2012-07-22T10:25:55Z</time>
      </trkpt>
      <trkpt lat="43.21206" lon="1.96054">
        <ele>337.34100341797</ele>
        <time>2012-07-22T10:26:02Z</time>
      </trkpt>
      <trkpt lat="43.21212" lon="1.96021">
        <ele>338.35000610352</ele>
        <time>2012-07-22T10:26:10Z</time>
      </trkpt>
      <trkpt lat="43.21219" lon="1.95975">
        <ele>340.05700683594</ele>
        <time>2012-07-22T10:26:20Z</time>
      </trkpt>
      <trkpt lat="43.21226" lon="1.95929">
        <ele>340.32000732422</ele>
        <time>2012-07-22T10:26:30Z</time>
      </trkpt>
      <trkpt lat="43.21231" lon="1.95898">
        <ele>341.61999511719</ele>
        <time>2012-07-22T10:26:37Z</time>
      </trkpt>
      <trkpt lat="43.21236" lon="1.95868">
        <ele>342.39401245117</ele>
        <time>2012-07-22T10:26:44Z</time>
      </trkpt>
      <trkpt lat="43.21241" lon="1.95837">
        <ele>343.12899780273</ele>
        <time>2012-07-22T10:26:51Z</time>
      </trkpt>
      <trkpt lat="43.21247" lon="1.95803">
        <ele>343.79098510742</ele>
        <time>2012-07-22T10:26:59Z</time>
      </trkpt>
      <trkpt lat="43.21254" lon="1.95766">
        <ele>345.17700195312</ele>
        <time>2012-07-22T10:27:08Z</time>
      </trkpt>
      <trkpt lat="43.21262" lon="1.95749">
        <ele>346.27801513672</ele>
        <time>2012-07-22T10:27:14Z</time>
      </trkpt>
      <trkpt lat="43.21276" lon="1.95743">
        <ele>348.42199707031</ele>
        <time>2012-07-22T10:27:21Z</time>
      </trkpt>
      <trkpt lat="43.21289" lon="1.95744">
        <ele>349.91101074219</ele>
        <time>2012-07-22T10:27:28Z</time>
      </trkpt>
      <trkpt lat="43.213" lon="1.95747">
        <ele>351.91299438477</ele>
        <time>2012-07-22T10:27:35Z</time>
      </trkpt>
      <trkpt lat="43.2131" lon="1.95753">
        <ele>353.64999389648</ele>
        <time>2012-07-22T10:27:41Z</time>
      </trkpt>
      <trkpt lat="43.2132" lon="1.95766">
        <ele>355.44500732422</ele>
        <time>2012-07-22T10:27:49Z</time>
      </trkpt>
      <trkpt lat="43.21326" lon="1.95784">
        <ele>356.64199829102</ele>
        <time>2012-07-22T10:27:56Z</time>
      </trkpt>
      <trkpt lat="43.2133" lon="1.95807">
        <ele>357.91198730469</ele>
        <time>2012-07-22T10:28:04Z</time>
      </trkpt>
      <trkpt lat="43.21332" lon="1.95834">
        <ele>359.36801147461</ele>
        <time>2012-07-22T10:28:13Z</time>
      </trkpt>
      <trkpt lat="43.21331" lon="1.95857">
        <ele>360.25100708008</ele>
        <time>2012-07-22T10:28:20Z</time>
      </trkpt>
      <trkpt lat="43.21324" lon="1.95891">
        <ele>360.51400756836</ele>
        <time>2012-07-22T10:28:30Z</time>
      </trkpt>
      <trkpt lat="43.2132" lon="1.95917">
        <ele>361.21301269531</ele>
        <time>2012-07-22T10:28:37Z</time>
      </trkpt>
      <trkpt lat="43.21323" lon="1.95937">
        <ele>361.8039855957</ele>
        <time>2012-07-22T10:28:42Z</time>
      </trkpt>
      <trkpt lat="43.21334" lon="1.95944">
        <ele>362.3039855957</ele>
        <time>2012-07-22T10:28:46Z</time>
      </trkpt>
      <trkpt lat="43.21351" lon="1.95942">
        <ele>364.01699829102</ele>
        <time>2012-07-22T10:28:53Z</time>
      </trkpt>
      <trkpt lat="43.21353" lon="1.95942">
        <ele>364.26901245117</ele>
        <time>2012-07-22T10:28:54Z</time>
      </trkpt>
      <trkpt lat="43.21374" lon="1.9593">
        <ele>366.75299072266</ele>
        <time>2012-07-22T10:29:03Z</time>
      </trkpt>
      <trkpt lat="43.21376" lon="1.95928">
        <ele>366.99499511719</ele>
        <time>2012-07-22T10:29:04Z</time>
      </trkpt>
      <trkpt lat="43.21388" lon="1.95909">
        <ele>368.82598876953</ele>
        <time>2012-07-22T10:29:10Z</time>
      </trkpt>
      <trkpt lat="43.21394" lon="1.9588">
        <ele>370.38598632812</ele>
        <time>2012-07-22T10:29:18Z</time>
      </trkpt>
      <trkpt lat="43.21397" lon="1.95846">
        <ele>370.81799316406</ele>
        <time>2012-07-22T10:29:27Z</time>
      </trkpt>
      <trkpt lat="43.21402" lon="1.95816">
        <ele>373.03500366211</ele>
        <time>2012-07-22T10:29:35Z</time>
      </trkpt>
      <trkpt lat="43.21414" lon="1.95791">
        <ele>373.55599975586</ele>
        <time>2012-07-22T10:29:42Z</time>
      </trkpt>
      <trkpt lat="43.21437" lon="1.95752">
        <ele>375.36099243164</ele>
        <time>2012-07-22T10:29:53Z</time>
      </trkpt>
      <trkpt lat="43.21456" lon="1.95711">
        <ele>376.41400146484</ele>
        <time>2012-07-22T10:30:03Z</time>
      </trkpt>
      <trkpt lat="43.21478" lon="1.95671">
        <ele>375.84600830078</ele>
        <time>2012-07-22T10:30:12Z</time>
      </trkpt>
      <trkpt lat="43.21499" lon="1.95629">
        <ele>375.30899047852</ele>
        <time>2012-07-22T10:30:21Z</time>
      </trkpt>
      <trkpt lat="43.21514" lon="1.95603">
        <ele>374.77301025391</ele>
        <time>2012-07-22T10:30:27Z</time>
      </trkpt>
      <trkpt lat="43.21517" lon="1.95598">
        <ele>374.80899047852</ele>
        <time>2012-07-22T10:30:28Z</time>
      </trkpt>
      <trkpt lat="43.21539" lon="1.95579">
        <ele>375.12899780273</ele>
        <time>2012-07-22T10:30:35Z</time>
      </trkpt>
      <trkpt lat="43.21562" lon="1.95566">
        <ele>377.85400390625</ele>
        <time>2012-07-22T10:30:43Z</time>
      </trkpt>
      <trkpt lat="43.21582" lon="1.95545">
        <ele>380.46499633789</ele>
        <time>2012-07-22T10:30:51Z</time>
      </trkpt>
      <trkpt lat="43.21596" lon="1.95521">
        <ele>381.92599487305</ele>
        <time>2012-07-22T10:30:58Z</time>
      </trkpt>
      <trkpt lat="43.21616" lon="1.95489">
        <ele>382.31900024414</ele>
        <time>2012-07-22T10:31:08Z</time>
      </trkpt>
      <trkpt lat="43.21633" lon="1.9546">
        <ele>383.14001464844</ele>
        <time>2012-07-22T10:31:17Z</time>
      </trkpt>
      <trkpt lat="43.2165" lon="1.95431">
        <ele>385.05599975586</ele>
        <time>2012-07-22T10:31:26Z</time>
      </trkpt>
      <trkpt lat="43.21667" lon="1.95406">
        <ele>387.38598632812</ele>
        <time>2012-07-22T10:31:34Z</time>
      </trkpt>
      <trkpt lat="43.21688" lon="1.95385">
        <ele>389.27899169922</ele>
        <time>2012-07-22T10:31:42Z</time>
      </trkpt>
      <trkpt lat="43.21716" lon="1.95365">
        <ele>389.93899536133</ele>
        <time>2012-07-22T10:31:51Z</time>
      </trkpt>
      <trkpt lat="43.21744" lon="1.95355">
        <ele>390.4880065918</ele>
        <time>2012-07-22T10:31:59Z</time>
      </trkpt>
      <trkpt lat="43.21768" lon="1.95348">
        <ele>391.46499633789</ele>
        <time>2012-07-22T10:32:06Z</time>
      </trkpt>
      <trkpt lat="43.21788" lon="1.95335">
        <ele>392.66101074219</ele>
        <time>2012-07-22T10:32:13Z</time>
      </trkpt>
      <trkpt lat="43.21813" lon="1.95312">
        <ele>392.41101074219</ele>
        <time>2012-07-22T10:32:21Z</time>
      </trkpt>
      <trkpt lat="43.21835" lon="1.95291">
        <ele>392.83401489258</ele>
        <time>2012-07-22T10:32:28Z</time>
      </trkpt>
      <trkpt lat="43.21854" lon="1.95272">
        <ele>392.08801269531</ele>
        <time>2012-07-22T10:32:34Z</time>
      </trkpt>
      <trkpt lat="43.21883" lon="1.95243">
        <ele>391.76400756836</ele>
        <time>2012-07-22T10:32:41Z</time>
      </trkpt>
      <trkpt lat="43.21919" lon="1.95207">
        <ele>390.87899780273</ele>
        <time>2012-07-22T10:32:48Z</time>
      </trkpt>
      <trkpt lat="43.21959" lon="1.95167">
        <ele>389.79901123047</ele>
        <time>2012-07-22T10:32:57Z</time>
      </trkpt>
      <trkpt lat="43.21986" lon="1.95137">
        <ele>390.33801269531</ele>
        <time>2012-07-22T10:33:04Z</time>
      </trkpt>
      <trkpt lat="43.21998" lon="1.95125">
        <ele>390.32501220703</ele>
        <time>2012-07-22T10:33:08Z</time>
      </trkpt>
      <trkpt lat="43.22022" lon="1.95097">
        <ele>391.90399169922</ele>
        <time>2012-07-22T10:33:17Z</time>
      </trkpt>
      <trkpt lat="43.22043" lon="1.95072">
        <ele>393.68301391602</ele>
        <time>2012-07-22T10:33:25Z</time>
      </trkpt>
      <trkpt lat="43.22062" lon="1.95046">
        <ele>394.62899780273</ele>
        <time>2012-07-22T10:33:34Z</time>
      </trkpt>
      <trkpt lat="43.22074" lon="1.95018">
        <ele>394.95498657227</ele>
        <time>2012-07-22T10:33:41Z</time>
      </trkpt>
      <trkpt lat="43.22087" lon="1.94976">
        <ele>393.39300537109</ele>
        <time>2012-07-22T10:33:49Z</time>
      </trkpt>
      <trkpt lat="43.22094" lon="1.94955">
        <ele>391.90100097656</ele>
        <time>2012-07-22T10:33:54Z</time>
      </trkpt>
      <trkpt lat="43.22095" lon="1.94953">
        <ele>390.71099853516</ele>
        <time>2012-07-22T10:33:58Z</time>
      </trkpt>
      <trkpt lat="43.22093" lon="1.94954">
        <ele>392.02700805664</ele>
        <time>2012-07-22T10:40:54Z</time>
      </trkpt>
      <trkpt lat="43.2209" lon="1.94946">
        <ele>392.12701416016</ele>
        <time>2012-07-22T10:41:00Z</time>
      </trkpt>
      <trkpt lat="43.22077" lon="1.94937">
        <ele>391.24398803711</ele>
        <time>2012-07-22T10:41:07Z</time>
      </trkpt>
      <trkpt lat="43.22056" lon="1.94927">
        <ele>391.11099243164</ele>
        <time>2012-07-22T10:41:12Z</time>
      </trkpt>
      <trkpt lat="43.22021" lon="1.9491">
        <ele>391.14099121094</ele>
        <time>2012-07-22T10:41:18Z</time>
      </trkpt>
      <trkpt lat="43.21992" lon="1.94895">
        <ele>389.86801147461</ele>
        <time>2012-07-22T10:41:24Z</time>
      </trkpt>
      <trkpt lat="43.21955" lon="1.94877">
        <ele>390.42599487305</ele>
        <time>2012-07-22T10:41:33Z</time>
      </trkpt>
      <trkpt lat="43.21923" lon="1.94861">
        <ele>391.41400146484</ele>
        <time>2012-07-22T10:41:42Z</time>
      </trkpt>
      <trkpt lat="43.21899" lon="1.9485">
        <ele>391.32998657227</ele>
        <time>2012-07-22T10:41:49Z</time>
      </trkpt>
      <trkpt lat="43.21873" lon="1.94837">
        <ele>390.64001464844</ele>
        <time>2012-07-22T10:41:55Z</time>
      </trkpt>
      <trkpt lat="43.21844" lon="1.94823">
        <ele>389.90600585938</ele>
        <time>2012-07-22T10:41:59Z</time>
      </trkpt>
      <trkpt lat="43.21805" lon="1.94804">
        <ele>386.87200927734</ele>
        <time>2012-07-22T10:42:04Z</time>
      </trkpt>
      <trkpt lat="43.21777" lon="1.9479">
        <ele>386.85598754883</ele>
        <time>2012-07-22T10:42:09Z</time>
      </trkpt>
      <trkpt lat="43.21754" lon="1.94776">
        <ele>389.5950012207</ele>
        <time>2012-07-22T10:42:15Z</time>
      </trkpt>
      <trkpt lat="43.21737" lon="1.94767">
        <ele>390.53601074219</ele>
        <time>2012-07-22T10:42:21Z</time>
      </trkpt>
      <trkpt lat="43.21717" lon="1.94755">
        <ele>391.00900268555</ele>
        <time>2012-07-22T10:42:29Z</time>
      </trkpt>
      <trkpt lat="43.21705" lon="1.94747">
        <ele>392.04098510742</ele>
        <time>2012-07-22T10:42:35Z</time>
      </trkpt>
      <trkpt lat="43.21687" lon="1.94739">
        <ele>393.73098754883</ele>
        <time>2012-07-22T10:42:43Z</time>
      </trkpt>
      <trkpt lat="43.21668" lon="1.94738">
        <ele>394.54901123047</ele>
        <time>2012-07-22T10:42:50Z</time>
      </trkpt>
      <trkpt lat="43.21643" lon="1.94741">
        <ele>394.60998535156</ele>
        <time>2012-07-22T10:42:58Z</time>
      </trkpt>
      <trkpt lat="43.21616" lon="1.94744">
        <ele>394.15701293945</ele>
        <time>2012-07-22T10:43:05Z</time>
      </trkpt>
      <trkpt lat="43.21593" lon="1.94747">
        <ele>394.04998779297</ele>
        <time>2012-07-22T10:43:11Z</time>
      </trkpt>
      <trkpt lat="43.21563" lon="1.94753">
        <ele>392.10400390625</ele>
        <time>2012-07-22T10:43:16Z</time>
      </trkpt>
      <trkpt lat="43.21549" lon="1.94755">
        <ele>391.33599853516</ele>
        <time>2012-07-22T10:43:18Z</time>
      </trkpt>
      <trkpt lat="43.21529" lon="1.94763">
        <ele>390.45098876953</ele>
        <time>2012-07-22T10:43:21Z</time>
      </trkpt>
      <trkpt lat="43.21509" lon="1.94779">
        <ele>388.9469909668</ele>
        <time>2012-07-22T10:43:24Z</time>
      </trkpt>
      <trkpt lat="43.21502" lon="1.94785">
        <ele>388.38500976562</ele>
        <time>2012-07-22T10:43:25Z</time>
      </trkpt>
      <trkpt lat="43.21475" lon="1.94822">
        <ele>385.77801513672</ele>
        <time>2012-07-22T10:43:30Z</time>
      </trkpt>
      <trkpt lat="43.21456" lon="1.94851">
        <ele>384.54501342773</ele>
        <time>2012-07-22T10:43:35Z</time>
      </trkpt>
      <trkpt lat="43.21429" lon="1.94887">
        <ele>385.39700317383</ele>
        <time>2012-07-22T10:43:44Z</time>
      </trkpt>
      <trkpt lat="43.21412" lon="1.94902">
        <ele>385.2200012207</ele>
        <time>2012-07-22T10:43:50Z</time>
      </trkpt>
      <trkpt lat="43.21397" lon="1.94898">
        <ele>386.35900878906</ele>
        <time>2012-07-22T10:43:55Z</time>
      </trkpt>
      <trkpt lat="43.21378" lon="1.94879">
        <ele>386.62799072266</ele>
        <time>2012-07-22T10:44:01Z</time>
      </trkpt>
      <trkpt lat="43.21353" lon="1.9484">
        <ele>386.69198608398</ele>
        <time>2012-07-22T10:44:10Z</time>
      </trkpt>
      <trkpt lat="43.21329" lon="1.94819">
        <ele>385.63400268555</ele>
        <time>2012-07-22T10:44:17Z</time>
      </trkpt>
      <trkpt lat="43.21302" lon="1.94808">
        <ele>383.93399047852</ele>
        <time>2012-07-22T10:44:21Z</time>
      </trkpt>
      <trkpt lat="43.2128" lon="1.94801">
        <ele>382.13598632812</ele>
        <time>2012-07-22T10:44:24Z</time>
      </trkpt>
      <trkpt lat="43.2126" lon="1.94811">
        <ele>381.2380065918</ele>
        <time>2012-07-22T10:44:28Z</time>
      </trkpt>
      <trkpt lat="43.21248" lon="1.94823">
        <ele>381.39300537109</ele>
        <time>2012-07-22T10:44:33Z</time>
      </trkpt>
      <trkpt lat="43.21233" lon="1.94842">
        <ele>383.75900268555</ele>
        <time>2012-07-22T10:44:42Z</time>
      </trkpt>
      <trkpt lat="43.21218" lon="1.94854">
        <ele>385.75900268555</ele>
        <time>2012-07-22T10:44:48Z</time>
      </trkpt>
      <trkpt lat="43.21215" lon="1.94846">
        <ele>387.5119934082</ele>
        <time>2012-07-22T10:44:52Z</time>
      </trkpt>
      <trkpt lat="43.21227" lon="1.94814">
        <ele>387.86099243164</ele>
        <time>2012-07-22T10:44:59Z</time>
      </trkpt>
      <trkpt lat="43.21233" lon="1.94799">
        <ele>387.45700073242</ele>
        <time>2012-07-22T10:45:02Z</time>
      </trkpt>
      <trkpt lat="43.2124" lon="1.94777">
        <ele>386.37100219727</ele>
        <time>2012-07-22T10:45:06Z</time>
      </trkpt>
      <trkpt lat="43.21254" lon="1.94727">
        <ele>385.18798828125</ele>
        <time>2012-07-22T10:45:14Z</time>
      </trkpt>
      <trkpt lat="43.21264" lon="1.94671">
        <ele>384.07998657227</ele>
        <time>2012-07-22T10:45:22Z</time>
      </trkpt>
      <trkpt lat="43.21273" lon="1.94616">
        <ele>382.93200683594</ele>
        <time>2012-07-22T10:45:30Z</time>
      </trkpt>
      <trkpt lat="43.21283" lon="1.94566">
        <ele>382.73400878906</ele>
        <time>2012-07-22T10:45:37Z</time>
      </trkpt>
      <trkpt lat="43.21289" lon="1.9451">
        <ele>380.71301269531</ele>
        <time>2012-07-22T10:45:45Z</time>
      </trkpt>
      <trkpt lat="43.21292" lon="1.94495">
        <ele>380.25698852539</ele>
        <time>2012-07-22T10:45:47Z</time>
      </trkpt>
      <trkpt lat="43.21305" lon="1.94445">
        <ele>377.20401000977</ele>
        <time>2012-07-22T10:45:52Z</time>
      </trkpt>
      <trkpt lat="43.21317" lon="1.94395">
        <ele>371.34100341797</ele>
        <time>2012-07-22T10:45:56Z</time>
      </trkpt>
      <trkpt lat="43.21322" lon="1.94348">
        <ele>367.29000854492</ele>
        <time>2012-07-22T10:46:00Z</time>
      </trkpt>
      <trkpt lat="43.21332" lon="1.94293">
        <ele>361.98098754883</ele>
        <time>2012-07-22T10:46:05Z</time>
      </trkpt>
      <trkpt lat="43.21333" lon="1.94248">
        <ele>357.51800537109</ele>
        <time>2012-07-22T10:46:09Z</time>
      </trkpt>
      <trkpt lat="43.21331" lon="1.94216">
        <ele>354.55801391602</ele>
        <time>2012-07-22T10:46:12Z</time>
      </trkpt>
      <trkpt lat="43.21329" lon="1.94191">
        <ele>350.20901489258</ele>
        <time>2012-07-22T10:46:15Z</time>
      </trkpt>
      <trkpt lat="43.21314" lon="1.94176">
        <ele>346.62298583984</ele>
        <time>2012-07-22T10:46:19Z</time>
      </trkpt>
      <trkpt lat="43.21304" lon="1.94169">
        <ele>346.00698852539</ele>
        <time>2012-07-22T10:46:21Z</time>
      </trkpt>
      <trkpt lat="43.21299" lon="1.94165">
        <ele>346.11999511719</ele>
        <time>2012-07-22T10:46:22Z</time>
      </trkpt>
      <trkpt lat="43.21285" lon="1.94143">
        <ele>344.70001220703</ele>
        <time>2012-07-22T10:46:27Z</time>
      </trkpt>
      <trkpt lat="43.21283" lon="1.94137">
        <ele>344.4169921875</ele>
        <time>2012-07-22T10:46:28Z</time>
      </trkpt>
      <trkpt lat="43.21282" lon="1.94131">
        <ele>344.0710144043</ele>
        <time>2012-07-22T10:46:29Z</time>
      </trkpt>
      <trkpt lat="43.2128" lon="1.94118">
        <ele>344.27301025391</ele>
        <time>2012-07-22T10:46:31Z</time>
      </trkpt>
      <trkpt lat="43.21263" lon="1.94075">
        <ele>342.42498779297</ele>
        <time>2012-07-22T10:46:36Z</time>
      </trkpt>
      <trkpt lat="43.2124" lon="1.94029">
        <ele>339.57000732422</ele>
        <time>2012-07-22T10:46:40Z</time>
      </trkpt>
      <trkpt lat="43.21208" lon="1.93975">
        <ele>335.48999023438</ele>
        <time>2012-07-22T10:46:45Z</time>
      </trkpt>
      <trkpt lat="43.21193" lon="1.93933">
        <ele>333.79901123047</ele>
        <time>2012-07-22T10:46:49Z</time>
      </trkpt>
      <trkpt lat="43.21193" lon="1.93915">
        <ele>333.14001464844</ele>
        <time>2012-07-22T10:46:51Z</time>
      </trkpt>
      <trkpt lat="43.21194" lon="1.939">
        <ele>332.80899047852</ele>
        <time>2012-07-22T10:46:53Z</time>
      </trkpt>
      <trkpt lat="43.21205" lon="1.93864">
        <ele>333.16000366211</ele>
        <time>2012-07-22T10:46:59Z</time>
      </trkpt>
      <trkpt lat="43.21223" lon="1.93807">
        <ele>332.60299682617</ele>
        <time>2012-07-22T10:47:07Z</time>
      </trkpt>
      <trkpt lat="43.21234" lon="1.9375">
        <ele>331.24301147461</ele>
        <time>2012-07-22T10:47:15Z</time>
      </trkpt>
      <trkpt lat="43.21236" lon="1.93727">
        <ele>330.18798828125</ele>
        <time>2012-07-22T10:47:19Z</time>
      </trkpt>
      <trkpt lat="43.21244" lon="1.93694">
        <ele>328.63500976562</ele>
        <time>2012-07-22T10:47:24Z</time>
      </trkpt>
      <trkpt lat="43.21242" lon="1.93667">
        <ele>328.4460144043</ele>
        <time>2012-07-22T10:47:27Z</time>
      </trkpt>
      <trkpt lat="43.21235" lon="1.93652">
        <ele>327.64401245117</ele>
        <time>2012-07-22T10:47:29Z</time>
      </trkpt>
      <trkpt lat="43.21209" lon="1.93596">
        <ele>325.06201171875</ele>
        <time>2012-07-22T10:47:37Z</time>
      </trkpt>
      <trkpt lat="43.21205" lon="1.93578">
        <ele>324.16900634766</ele>
        <time>2012-07-22T10:47:41Z</time>
      </trkpt>
      <trkpt lat="43.21205" lon="1.93549">
        <ele>324.15701293945</ele>
        <time>2012-07-22T10:47:47Z</time>
      </trkpt>
      <trkpt lat="43.21204" lon="1.93538">
        <ele>324.28698730469</ele>
        <time>2012-07-22T10:47:49Z</time>
      </trkpt>
      <trkpt lat="43.21202" lon="1.9349">
        <ele>323.98199462891</ele>
        <time>2012-07-22T10:47:57Z</time>
      </trkpt>
      <trkpt lat="43.21199" lon="1.9345">
        <ele>324.04400634766</ele>
        <time>2012-07-22T10:48:04Z</time>
      </trkpt>
      <trkpt lat="43.21193" lon="1.93424">
        <ele>322.0539855957</ele>
        <time>2012-07-22T10:48:09Z</time>
      </trkpt>
      <trkpt lat="43.21181" lon="1.93367">
        <ele>321.40798950195</ele>
        <time>2012-07-22T10:48:19Z</time>
      </trkpt>
      <trkpt lat="43.21172" lon="1.93323">
        <ele>320.83999633789</ele>
        <time>2012-07-22T10:48:27Z</time>
      </trkpt>
      <trkpt lat="43.21165" lon="1.93286">
        <ele>319.84600830078</ele>
        <time>2012-07-22T10:48:34Z</time>
      </trkpt>
      <trkpt lat="43.21152" lon="1.93243">
        <ele>318.8869934082</ele>
        <time>2012-07-22T10:48:41Z</time>
      </trkpt>
      <trkpt lat="43.2114" lon="1.93198">
        <ele>317.75100708008</ele>
        <time>2012-07-22T10:48:48Z</time>
      </trkpt>
      <trkpt lat="43.21137" lon="1.93174">
        <ele>316.74099731445</ele>
        <time>2012-07-22T10:48:53Z</time>
      </trkpt>
      <trkpt lat="43.21138" lon="1.93168">
        <ele>316.68399047852</ele>
        <time>2012-07-22T10:48:54Z</time>
      </trkpt>
      <trkpt lat="43.2115" lon="1.93149">
        <ele>316.19400024414</ele>
        <time>2012-07-22T10:48:59Z</time>
      </trkpt>
      <trkpt lat="43.21166" lon="1.93144">
        <ele>316.38101196289</ele>
        <time>2012-07-22T10:49:04Z</time>
      </trkpt>
      <trkpt lat="43.21185" lon="1.93136">
        <ele>317.74700927734</ele>
        <time>2012-07-22T10:49:11Z</time>
      </trkpt>
      <trkpt lat="43.21201" lon="1.93129">
        <ele>319.06799316406</ele>
        <time>2012-07-22T10:49:17Z</time>
      </trkpt>
      <trkpt lat="43.21215" lon="1.93123">
        <ele>320.20300292969</ele>
        <time>2012-07-22T10:49:22Z</time>
      </trkpt>
      <trkpt lat="43.21226" lon="1.9312">
        <ele>320.78500366211</ele>
        <time>2012-07-22T10:49:27Z</time>
      </trkpt>
      <trkpt lat="43.21228" lon="1.93119">
        <ele>320.89001464844</ele>
        <time>2012-07-22T10:49:30Z</time>
      </trkpt>
      <trkpt lat="43.21231" lon="1.93125">
        <ele>321.13800048828</ele>
        <time>2012-07-22T10:49:37Z</time>
      </trkpt>
      <trkpt lat="43.21229" lon="1.93122">
        <ele>320.95098876953</ele>
        <time>2012-07-22T10:49:41Z</time>
      </trkpt>
      <trkpt lat="43.21228" lon="1.93122">
        <ele>320.95700073242</ele>
        <time>2012-07-22T10:49:42Z</time>
      </trkpt>
      <trkpt lat="43.21226" lon="1.93119">
        <ele>320.79998779297</ele>
        <time>2012-07-22T10:49:45Z</time>
      </trkpt>
      <trkpt lat="43.21223" lon="1.93113">
        <ele>321.07598876953</ele>
        <time>2012-07-22T10:49:50Z</time>
      </trkpt>
      <trkpt lat="43.2122" lon="1.93105">
        <ele>322.10598754883</ele>
        <time>2012-07-22T10:49:55Z</time>
      </trkpt>
      <trkpt lat="43.21225" lon="1.93096">
        <ele>323.96099853516</ele>
        <time>2012-07-22T10:50:01Z</time>
      </trkpt>
      <trkpt lat="43.21229" lon="1.93091">
        <ele>324.8630065918</ele>
        <time>2012-07-22T10:50:05Z</time>
      </trkpt>
      <trkpt lat="43.21239" lon="1.9308">
        <ele>326.76599121094</ele>
        <time>2012-07-22T10:50:13Z</time>
      </trkpt>
      <trkpt lat="43.21249" lon="1.93069">
        <ele>328.55801391602</ele>
        <time>2012-07-22T10:50:21Z</time>
      </trkpt>
      <trkpt lat="43.21254" lon="1.93063">
        <ele>329.35598754883</ele>
        <time>2012-07-22T10:50:26Z</time>
      </trkpt>
      <trkpt lat="43.21255" lon="1.93061">
        <ele>329.72100830078</ele>
        <time>2012-07-22T10:50:28Z</time>
      </trkpt>
      <trkpt lat="43.21263" lon="1.93054">
        <ele>331.23400878906</ele>
        <time>2012-07-22T10:50:35Z</time>
      </trkpt>
      <trkpt lat="43.21266" lon="1.93052">
        <ele>331.47100830078</ele>
        <time>2012-07-22T10:50:37Z</time>
      </trkpt>
      <trkpt lat="43.21277" lon="1.93039">
        <ele>333.375</ele>
        <time>2012-07-22T10:50:46Z</time>
      </trkpt>
      <trkpt lat="43.21285" lon="1.93024">
        <ele>335.35598754883</ele>
        <time>2012-07-22T10:50:55Z</time>
      </trkpt>
      <trkpt lat="43.21289" lon="1.93011">
        <ele>336.6780090332</ele>
        <time>2012-07-22T10:51:02Z</time>
      </trkpt>
      <trkpt lat="43.21293" lon="1.93001">
        <ele>337.41299438477</ele>
        <time>2012-07-22T10:51:08Z</time>
      </trkpt>
      <trkpt lat="43.21297" lon="1.92989">
        <ele>338.10101318359</ele>
        <time>2012-07-22T10:51:15Z</time>
      </trkpt>
      <trkpt lat="43.21301" lon="1.92977">
        <ele>338.94299316406</ele>
        <time>2012-07-22T10:51:22Z</time>
      </trkpt>
      <trkpt lat="43.21304" lon="1.92967">
        <ele>340.04501342773</ele>
        <time>2012-07-22T10:51:28Z</time>
      </trkpt>
      <trkpt lat="43.21312" lon="1.92952">
        <ele>340.82800292969</ele>
        <time>2012-07-22T10:51:36Z</time>
      </trkpt>
      <trkpt lat="43.21318" lon="1.92939">
        <ele>341.95599365234</ele>
        <time>2012-07-22T10:51:43Z</time>
      </trkpt>
      <trkpt lat="43.21324" lon="1.92929">
        <ele>342.74600219727</ele>
        <time>2012-07-22T10:51:49Z</time>
      </trkpt>
      <trkpt lat="43.21331" lon="1.92916">
        <ele>344.10000610352</ele>
        <time>2012-07-22T10:51:56Z</time>
      </trkpt>
      <trkpt lat="43.21338" lon="1.929">
        <ele>345.40301513672</ele>
        <time>2012-07-22T10:52:04Z</time>
      </trkpt>
      <trkpt lat="43.21348" lon="1.92885">
        <ele>346.6130065918</ele>
        <time>2012-07-22T10:52:11Z</time>
      </trkpt>
      <trkpt lat="43.21357" lon="1.9287">
        <ele>347.4280090332</ele>
        <time>2012-07-22T10:52:18Z</time>
      </trkpt>
      <trkpt lat="43.21367" lon="1.92855">
        <ele>348.42599487305</ele>
        <time>2012-07-22T10:52:25Z</time>
      </trkpt>
      <trkpt lat="43.21376" lon="1.9284">
        <ele>349.43200683594</ele>
        <time>2012-07-22T10:52:32Z</time>
      </trkpt>
      <trkpt lat="43.21389" lon="1.9282">
        <ele>351</ele>
        <time>2012-07-22T10:52:42Z</time>
      </trkpt>
      <trkpt lat="43.21399" lon="1.92801">
        <ele>352.47799682617</ele>
        <time>2012-07-22T10:52:51Z</time>
      </trkpt>
      <trkpt lat="43.21409" lon="1.92783">
        <ele>352.96301269531</ele>
        <time>2012-07-22T10:53:00Z</time>
      </trkpt>
      <trkpt lat="43.21418" lon="1.92766">
        <ele>353.30999755859</ele>
        <time>2012-07-22T10:53:08Z</time>
      </trkpt>
      <trkpt lat="43.21423" lon="1.92753">
        <ele>353.41299438477</ele>
        <time>2012-07-22T10:53:14Z</time>
      </trkpt>
      <trkpt lat="43.21429" lon="1.92732">
        <ele>353.75399780273</ele>
        <time>2012-07-22T10:53:21Z</time>
      </trkpt>
      <trkpt lat="43.21436" lon="1.92715">
        <ele>354.09799194336</ele>
        <time>2012-07-22T10:53:28Z</time>
      </trkpt>
      <trkpt lat="43.21444" lon="1.92693">
        <ele>354.22799682617</ele>
        <time>2012-07-22T10:53:36Z</time>
      </trkpt>
      <trkpt lat="43.2145" lon="1.92672">
        <ele>354.48001098633</ele>
        <time>2012-07-22T10:53:42Z</time>
      </trkpt>
      <trkpt lat="43.21458" lon="1.92644">
        <ele>352.64498901367</ele>
        <time>2012-07-22T10:53:49Z</time>
      </trkpt>
      <trkpt lat="43.21471" lon="1.92617">
        <ele>352.00100708008</ele>
        <time>2012-07-22T10:53:56Z</time>
      </trkpt>
      <trkpt lat="43.21495" lon="1.92589">
        <ele>352.09399414062</ele>
        <time>2012-07-22T10:54:05Z</time>
      </trkpt>
      <trkpt lat="43.21521" lon="1.92559">
        <ele>352.66598510742</ele>
        <time>2012-07-22T10:54:14Z</time>
      </trkpt>
      <trkpt lat="43.21527" lon="1.92535">
        <ele>353.27700805664</ele>
        <time>2012-07-22T10:54:19Z</time>
      </trkpt>
      <trkpt lat="43.21535" lon="1.92498">
        <ele>356.34399414062</ele>
        <time>2012-07-22T10:54:27Z</time>
      </trkpt>
      <trkpt lat="43.21544" lon="1.92453">
        <ele>356.92401123047</ele>
        <time>2012-07-22T10:54:36Z</time>
      </trkpt>
      <trkpt lat="43.21547" lon="1.92437">
        <ele>355.62200927734</ele>
        <time>2012-07-22T10:54:39Z</time>
      </trkpt>
      <trkpt lat="43.21551" lon="1.92404">
        <ele>353.70300292969</ele>
        <time>2012-07-22T10:54:46Z</time>
      </trkpt>
      <trkpt lat="43.21557" lon="1.92385">
        <ele>352.62701416016</ele>
        <time>2012-07-22T10:54:51Z</time>
      </trkpt>
      <trkpt lat="43.21563" lon="1.92375">
        <ele>351.10699462891</ele>
        <time>2012-07-22T10:54:55Z</time>
      </trkpt>
      <trkpt lat="43.21563" lon="1.92373">
        <ele>350.20001220703</ele>
        <time>2012-07-22T10:55:01Z</time>
      </trkpt>
      <trkpt lat="43.21564" lon="1.92374">
        <ele>349.98001098633</ele>
        <time>2012-07-22T10:57:55Z</time>
      </trkpt>
      <trkpt lat="43.21574" lon="1.92359">
        <ele>350.77499389648</ele>
        <time>2012-07-22T10:58:03Z</time>
      </trkpt>
      <trkpt lat="43.21586" lon="1.92336">
        <ele>350.52700805664</ele>
        <time>2012-07-22T10:58:09Z</time>
      </trkpt>
      <trkpt lat="43.21603" lon="1.92303">
        <ele>349.93399047852</ele>
        <time>2012-07-22T10:58:15Z</time>
      </trkpt>
      <trkpt lat="43.21622" lon="1.92256">
        <ele>348.25698852539</ele>
        <time>2012-07-22T10:58:21Z</time>
      </trkpt>
      <trkpt lat="43.21635" lon="1.92226">
        <ele>346.62200927734</ele>
        <time>2012-07-22T10:58:24Z</time>
      </trkpt>
      <trkpt lat="43.21672" lon="1.92161">
        <ele>341.89401245117</ele>
        <time>2012-07-22T10:58:31Z</time>
      </trkpt>
      <trkpt lat="43.2173" lon="1.92084">
        <ele>336.75</ele>
        <time>2012-07-22T10:58:40Z</time>
      </trkpt>
      <trkpt lat="43.2177" lon="1.92026">
        <ele>334.42999267578</ele>
        <time>2012-07-22T10:58:47Z</time>
      </trkpt>
      <trkpt lat="43.21805" lon="1.91971">
        <ele>334.01098632812</ele>
        <time>2012-07-22T10:58:54Z</time>
      </trkpt>
      <trkpt lat="43.21816" lon="1.91936">
        <ele>333.14199829102</ele>
        <time>2012-07-22T10:58:58Z</time>
      </trkpt>
      <trkpt lat="43.21819" lon="1.91906">
        <ele>333.45599365234</ele>
        <time>2012-07-22T10:59:02Z</time>
      </trkpt>
      <trkpt lat="43.2182" lon="1.91893">
        <ele>332.06799316406</ele>
        <time>2012-07-22T10:59:04Z</time>
      </trkpt>
      <trkpt lat="43.21822" lon="1.91867">
        <ele>330.35598754883</ele>
        <time>2012-07-22T10:59:08Z</time>
      </trkpt>
      <trkpt lat="43.21838" lon="1.91813">
        <ele>328.0539855957</ele>
        <time>2012-07-22T10:59:17Z</time>
      </trkpt>
      <trkpt lat="43.21861" lon="1.91768">
        <ele>327.52099609375</ele>
        <time>2012-07-22T10:59:25Z</time>
      </trkpt>
      <trkpt lat="43.21882" lon="1.91724">
        <ele>325.56500244141</ele>
        <time>2012-07-22T10:59:32Z</time>
      </trkpt>
      <trkpt lat="43.21902" lon="1.91671">
        <ele>324.04400634766</ele>
        <time>2012-07-22T10:59:39Z</time>
      </trkpt>
      <trkpt lat="43.21904" lon="1.91664">
        <ele>323.99499511719</ele>
        <time>2012-07-22T10:59:40Z</time>
      </trkpt>
      <trkpt lat="43.21923" lon="1.9161">
        <ele>324.06799316406</ele>
        <time>2012-07-22T10:59:48Z</time>
      </trkpt>
      <trkpt lat="43.21936" lon="1.91574">
        <ele>322.31201171875</ele>
        <time>2012-07-22T10:59:53Z</time>
      </trkpt>
      <trkpt lat="43.21947" lon="1.91552">
        <ele>320.75399780273</ele>
        <time>2012-07-22T10:59:56Z</time>
      </trkpt>
      <trkpt lat="43.21964" lon="1.91531">
        <ele>320.1960144043</ele>
        <time>2012-07-22T11:00:00Z</time>
      </trkpt>
      <trkpt lat="43.21991" lon="1.91502">
        <ele>320.77700805664</ele>
        <time>2012-07-22T11:00:08Z</time>
      </trkpt>
      <trkpt lat="43.21997" lon="1.91487">
        <ele>320.82501220703</ele>
        <time>2012-07-22T11:00:12Z</time>
      </trkpt>
      <trkpt lat="43.21993" lon="1.91465">
        <ele>321.19799804688</ele>
        <time>2012-07-22T11:00:17Z</time>
      </trkpt>
      <trkpt lat="43.21987" lon="1.91448">
        <ele>321.625</ele>
        <time>2012-07-22T11:00:21Z</time>
      </trkpt>
      <trkpt lat="43.21963" lon="1.91418">
        <ele>320.77499389648</ele>
        <time>2012-07-22T11:00:28Z</time>
      </trkpt>
      <trkpt lat="43.21929" lon="1.91375">
        <ele>320.4169921875</ele>
        <time>2012-07-22T11:00:36Z</time>
      </trkpt>
      <trkpt lat="43.21896" lon="1.91339">
        <ele>319.19000244141</ele>
        <time>2012-07-22T11:00:43Z</time>
      </trkpt>
      <trkpt lat="43.21855" lon="1.91306">
        <ele>318.58499145508</ele>
        <time>2012-07-22T11:00:51Z</time>
      </trkpt>
      <trkpt lat="43.21811" lon="1.91276">
        <ele>317.96798706055</ele>
        <time>2012-07-22T11:00:59Z</time>
      </trkpt>
      <trkpt lat="43.21765" lon="1.9125">
        <ele>317.69400024414</ele>
        <time>2012-07-22T11:01:07Z</time>
      </trkpt>
      <trkpt lat="43.21712" lon="1.91225">
        <ele>317.48599243164</ele>
        <time>2012-07-22T11:01:16Z</time>
      </trkpt>
      <trkpt lat="43.21656" lon="1.91205">
        <ele>317.69900512695</ele>
        <time>2012-07-22T11:01:26Z</time>
      </trkpt>
      <trkpt lat="43.21621" lon="1.91194">
        <ele>318.97399902344</ele>
        <time>2012-07-22T11:01:33Z</time>
      </trkpt>
      <trkpt lat="43.21579" lon="1.91178">
        <ele>319.06799316406</ele>
        <time>2012-07-22T11:01:41Z</time>
      </trkpt>
      <trkpt lat="43.21526" lon="1.91153">
        <ele>317.99499511719</ele>
        <time>2012-07-22T11:01:50Z</time>
      </trkpt>
      <trkpt lat="43.2152" lon="1.91151">
        <ele>317.875</ele>
        <time>2012-07-22T11:01:51Z</time>
      </trkpt>
      <trkpt lat="43.21483" lon="1.91135">
        <ele>316.66598510742</ele>
        <time>2012-07-22T11:01:57Z</time>
      </trkpt>
      <trkpt lat="43.21434" lon="1.91124">
        <ele>314.28100585938</ele>
        <time>2012-07-22T11:02:04Z</time>
      </trkpt>
      <trkpt lat="43.21376" lon="1.91115">
        <ele>312.31100463867</ele>
        <time>2012-07-22T11:02:12Z</time>
      </trkpt>
      <trkpt lat="43.2131" lon="1.91105">
        <ele>310.02801513672</ele>
        <time>2012-07-22T11:02:21Z</time>
      </trkpt>
      <trkpt lat="43.21256" lon="1.91097">
        <ele>309.875</ele>
        <time>2012-07-22T11:02:29Z</time>
      </trkpt>
      <trkpt lat="43.21196" lon="1.91089">
        <ele>309.67098999023</ele>
        <time>2012-07-22T11:02:38Z</time>
      </trkpt>
      <trkpt lat="43.21152" lon="1.91083">
        <ele>309.5530090332</ele>
        <time>2012-07-22T11:02:45Z</time>
      </trkpt>
      <trkpt lat="43.21098" lon="1.91076">
        <ele>307.58898925781</ele>
        <time>2012-07-22T11:02:54Z</time>
      </trkpt>
      <trkpt lat="43.21088" lon="1.91074">
        <ele>307.45700073242</ele>
        <time>2012-07-22T11:02:57Z</time>
      </trkpt>
      <trkpt lat="43.21075" lon="1.91072">
        <ele>307.5299987793</ele>
        <time>2012-07-22T11:03:01Z</time>
      </trkpt>
      <trkpt lat="43.21068" lon="1.91059">
        <ele>307.54501342773</ele>
        <time>2012-07-22T11:03:06Z</time>
      </trkpt>
      <trkpt lat="43.21065" lon="1.91051">
        <ele>308.57501220703</ele>
        <time>2012-07-22T11:03:12Z</time>
      </trkpt>
      <trkpt lat="43.21066" lon="1.91042">
        <ele>310.5119934082</ele>
        <time>2012-07-22T11:03:19Z</time>
      </trkpt>
      <trkpt lat="43.21065" lon="1.91038">
        <ele>311.45001220703</ele>
        <time>2012-07-22T11:03:24Z</time>
      </trkpt>
      <trkpt lat="43.21062" lon="1.91039">
        <ele>311.30899047852</ele>
        <time>2012-07-22T11:03:33Z</time>
      </trkpt>
      <trkpt lat="43.21059" lon="1.91043">
        <ele>310.30499267578</ele>
        <time>2012-07-22T11:03:40Z</time>
      </trkpt>
      <trkpt lat="43.21054" lon="1.9104">
        <ele>310.67401123047</ele>
        <time>2012-07-22T11:03:47Z</time>
      </trkpt>
      <trkpt lat="43.21055" lon="1.9103">
        <ele>311.66799926758</ele>
        <time>2012-07-22T11:03:54Z</time>
      </trkpt>
      <trkpt lat="43.21055" lon="1.91021">
        <ele>312.74301147461</ele>
        <time>2012-07-22T11:03:59Z</time>
      </trkpt>
      <trkpt lat="43.21054" lon="1.91015">
        <ele>314.43798828125</ele>
        <time>2012-07-22T11:04:03Z</time>
      </trkpt>
      <trkpt lat="43.21052" lon="1.9101">
        <ele>314.83099365234</ele>
        <time>2012-07-22T11:04:06Z</time>
      </trkpt>
      <trkpt lat="43.2105" lon="1.91">
        <ele>316.40701293945</ele>
        <time>2012-07-22T11:04:12Z</time>
      </trkpt>
      <trkpt lat="43.2105" lon="1.90998">
        <ele>316.96600341797</ele>
        <time>2012-07-22T11:04:13Z</time>
      </trkpt>
      <trkpt lat="43.2105" lon="1.90995">
        <ele>317.79598999023</ele>
        <time>2012-07-22T11:04:15Z</time>
      </trkpt>
      <trkpt lat="43.2105" lon="1.9099">
        <ele>318.76599121094</ele>
        <time>2012-07-22T11:04:19Z</time>
      </trkpt>
      <trkpt lat="43.2105" lon="1.90987">
        <ele>319.06600952148</ele>
        <time>2012-07-22T11:04:21Z</time>
      </trkpt>
      <trkpt lat="43.21053" lon="1.90976">
        <ele>320.14199829102</ele>
        <time>2012-07-22T11:04:28Z</time>
      </trkpt>
      <trkpt lat="43.21053" lon="1.90974">
        <ele>320.34399414062</ele>
        <time>2012-07-22T11:04:29Z</time>
      </trkpt>
      <trkpt lat="43.2106" lon="1.90963">
        <ele>321.51300048828</ele>
        <time>2012-07-22T11:04:37Z</time>
      </trkpt>
      <trkpt lat="43.21065" lon="1.90953">
        <ele>322.36599731445</ele>
        <time>2012-07-22T11:04:44Z</time>
      </trkpt>
      <trkpt lat="43.21066" lon="1.90949">
        <ele>322.85598754883</ele>
        <time>2012-07-22T11:04:47Z</time>
      </trkpt>
      <trkpt lat="43.2107" lon="1.90939">
        <ele>323.54501342773</ele>
        <time>2012-07-22T11:04:54Z</time>
      </trkpt>
      <trkpt lat="43.21071" lon="1.90938">
        <ele>323.75</ele>
        <time>2012-07-22T11:04:55Z</time>
      </trkpt>
      <trkpt lat="43.21072" lon="1.90934">
        <ele>324.12701416016</ele>
        <time>2012-07-22T11:04:58Z</time>
      </trkpt>
      <trkpt lat="43.21075" lon="1.90924">
        <ele>324.83999633789</ele>
        <time>2012-07-22T11:05:05Z</time>
      </trkpt>
      <trkpt lat="43.21076" lon="1.90922">
        <ele>324.96099853516</ele>
        <time>2012-07-22T11:05:06Z</time>
      </trkpt>
      <trkpt lat="43.21077" lon="1.90917">
        <ele>325.36499023438</ele>
        <time>2012-07-22T11:05:09Z</time>
      </trkpt>
      <trkpt lat="43.21078" lon="1.90914">
        <ele>325.58099365234</ele>
        <time>2012-07-22T11:05:11Z</time>
      </trkpt>
      <trkpt lat="43.21082" lon="1.90903">
        <ele>326.76000976562</ele>
        <time>2012-07-22T11:05:18Z</time>
      </trkpt>
      <trkpt lat="43.21083" lon="1.90902">
        <ele>326.85198974609</ele>
        <time>2012-07-22T11:05:19Z</time>
      </trkpt>
      <trkpt lat="43.21088" lon="1.90886">
        <ele>327.8630065918</ele>
        <time>2012-07-22T11:05:28Z</time>
      </trkpt>
      <trkpt lat="43.2109" lon="1.90884">
        <ele>328.26599121094</ele>
        <time>2012-07-22T11:05:38Z</time>
      </trkpt>
      <trkpt lat="43.21091" lon="1.90882">
        <ele>328.42001342773</ele>
        <time>2012-07-22T11:05:44Z</time>
      </trkpt>
      <trkpt lat="43.21092" lon="1.90881">
        <ele>328.50900268555</ele>
        <time>2012-07-22T11:05:50Z</time>
      </trkpt>
      <trkpt lat="43.21094" lon="1.90876">
        <ele>328.70901489258</ele>
        <time>2012-07-22T11:06:12Z</time>
      </trkpt>
      <trkpt lat="43.21093" lon="1.9087">
        <ele>328.7919921875</ele>
        <time>2012-07-22T11:06:18Z</time>
      </trkpt>
      <trkpt lat="43.21095" lon="1.90868">
        <ele>329.01699829102</ele>
        <time>2012-07-22T11:06:25Z</time>
      </trkpt>
      <trkpt lat="43.21095" lon="1.90864">
        <ele>329.27801513672</ele>
        <time>2012-07-22T11:06:30Z</time>
      </trkpt>
      <trkpt lat="43.21098" lon="1.90855">
        <ele>329.85299682617</ele>
        <time>2012-07-22T11:06:37Z</time>
      </trkpt>
      <trkpt lat="43.21102" lon="1.90842">
        <ele>330.32998657227</ele>
        <time>2012-07-22T11:06:44Z</time>
      </trkpt>
      <trkpt lat="43.21106" lon="1.90829">
        <ele>330.99499511719</ele>
        <time>2012-07-22T11:06:51Z</time>
      </trkpt>
      <trkpt lat="43.21111" lon="1.90812">
        <ele>331.85900878906</ele>
        <time>2012-07-22T11:06:59Z</time>
      </trkpt>
      <trkpt lat="43.21117" lon="1.90796">
        <ele>332.89099121094</ele>
        <time>2012-07-22T11:07:07Z</time>
      </trkpt>
      <trkpt lat="43.21122" lon="1.9078">
        <ele>333.82800292969</ele>
        <time>2012-07-22T11:07:15Z</time>
      </trkpt>
      <trkpt lat="43.21124" lon="1.90767">
        <ele>334.81500244141</ele>
        <time>2012-07-22T11:07:22Z</time>
      </trkpt>
      <trkpt lat="43.21127" lon="1.90753">
        <ele>335.88900756836</ele>
        <time>2012-07-22T11:07:29Z</time>
      </trkpt>
      <trkpt lat="43.21128" lon="1.90744">
        <ele>336.21798706055</ele>
        <time>2012-07-22T11:07:33Z</time>
      </trkpt>
      <trkpt lat="43.21129" lon="1.90741">
        <ele>336.28298950195</ele>
        <time>2012-07-22T11:07:35Z</time>
      </trkpt>
      <trkpt lat="43.21132" lon="1.90728">
        <ele>336.63598632812</ele>
        <time>2012-07-22T11:07:41Z</time>
      </trkpt>
      <trkpt lat="43.21133" lon="1.90725">
        <ele>336.76800537109</ele>
        <time>2012-07-22T11:07:42Z</time>
      </trkpt>
      <trkpt lat="43.21133" lon="1.90707">
        <ele>337.1969909668</ele>
        <time>2012-07-22T11:07:49Z</time>
      </trkpt>
      <trkpt lat="43.2113" lon="1.90695">
        <ele>337.19198608398</ele>
        <time>2012-07-22T11:07:54Z</time>
      </trkpt>
      <trkpt lat="43.2113" lon="1.90677">
        <ele>337.09799194336</ele>
        <time>2012-07-22T11:08:01Z</time>
      </trkpt>
      <trkpt lat="43.21132" lon="1.90669">
        <ele>337.25601196289</ele>
        <time>2012-07-22T11:08:05Z</time>
      </trkpt>
      <trkpt lat="43.21139" lon="1.90662">
        <ele>337.6549987793</ele>
        <time>2012-07-22T11:08:10Z</time>
      </trkpt>
      <trkpt lat="43.21147" lon="1.90653">
        <ele>337.37600708008</ele>
        <time>2012-07-22T11:08:16Z</time>
      </trkpt>
      <trkpt lat="43.21151" lon="1.90644">
        <ele>337.83599853516</ele>
        <time>2012-07-22T11:08:23Z</time>
      </trkpt>
      <trkpt lat="43.2115" lon="1.90637">
        <ele>337.81500244141</ele>
        <time>2012-07-22T11:08:34Z</time>
      </trkpt>
      <trkpt lat="43.21153" lon="1.90624">
        <ele>338.77899169922</ele>
        <time>2012-07-22T11:08:41Z</time>
      </trkpt>
      <trkpt lat="43.21157" lon="1.90607">
        <ele>340.05999755859</ele>
        <time>2012-07-22T11:08:48Z</time>
      </trkpt>
      <trkpt lat="43.21162" lon="1.90591">
        <ele>340.65899658203</ele>
        <time>2012-07-22T11:08:54Z</time>
      </trkpt>
      <trkpt lat="43.21165" lon="1.90574">
        <ele>341.29000854492</ele>
        <time>2012-07-22T11:08:59Z</time>
      </trkpt>
      <trkpt lat="43.21171" lon="1.90556">
        <ele>342.2380065918</ele>
        <time>2012-07-22T11:09:05Z</time>
      </trkpt>
      <trkpt lat="43.21174" lon="1.90542">
        <ele>343.37701416016</ele>
        <time>2012-07-22T11:09:10Z</time>
      </trkpt>
      <trkpt lat="43.21178" lon="1.9052">
        <ele>345.77899169922</ele>
        <time>2012-07-22T11:09:18Z</time>
      </trkpt>
      <trkpt lat="43.21178" lon="1.90509">
        <ele>347.33700561523</ele>
        <time>2012-07-22T11:09:22Z</time>
      </trkpt>
      <trkpt lat="43.21178" lon="1.90488">
        <ele>349.17199707031</ele>
        <time>2012-07-22T11:09:29Z</time>
      </trkpt>
      <trkpt lat="43.21182" lon="1.90468">
        <ele>349.62799072266</ele>
        <time>2012-07-22T11:09:35Z</time>
      </trkpt>
      <trkpt lat="43.21185" lon="1.9045">
        <ele>349.66000366211</ele>
        <time>2012-07-22T11:09:40Z</time>
      </trkpt>
      <trkpt lat="43.21191" lon="1.90425">
        <ele>350.58999633789</ele>
        <time>2012-07-22T11:09:47Z</time>
      </trkpt>
      <trkpt lat="43.21197" lon="1.90407">
        <ele>350.11199951172</ele>
        <time>2012-07-22T11:09:50Z</time>
      </trkpt>
      <trkpt lat="43.21202" lon="1.90385">
        <ele>349.62100219727</ele>
        <time>2012-07-22T11:09:53Z</time>
      </trkpt>
      <trkpt lat="43.21207" lon="1.90357">
        <ele>349.68600463867</ele>
        <time>2012-07-22T11:09:59Z</time>
      </trkpt>
      <trkpt lat="43.21209" lon="1.90343">
        <ele>350.51699829102</ele>
        <time>2012-07-22T11:10:04Z</time>
      </trkpt>
      <trkpt lat="43.21215" lon="1.90331">
        <ele>351.43301391602</ele>
        <time>2012-07-22T11:10:09Z</time>
      </trkpt>
      <trkpt lat="43.21217" lon="1.90307">
        <ele>352.87899780273</ele>
        <time>2012-07-22T11:10:18Z</time>
      </trkpt>
      <trkpt lat="43.21221" lon="1.90286">
        <ele>354.88400268555</ele>
        <time>2012-07-22T11:10:26Z</time>
      </trkpt>
      <trkpt lat="43.21228" lon="1.90265">
        <ele>356.26300048828</ele>
        <time>2012-07-22T11:10:34Z</time>
      </trkpt>
      <trkpt lat="43.21238" lon="1.90242">
        <ele>355.74499511719</ele>
        <time>2012-07-22T11:10:40Z</time>
      </trkpt>
      <trkpt lat="43.21252" lon="1.90221">
        <ele>355.08898925781</ele>
        <time>2012-07-22T11:10:45Z</time>
      </trkpt>
      <trkpt lat="43.21263" lon="1.902">
        <ele>354.07501220703</ele>
        <time>2012-07-22T11:10:50Z</time>
      </trkpt>
      <trkpt lat="43.21267" lon="1.90186">
        <ele>354.17700195312</ele>
        <time>2012-07-22T11:10:55Z</time>
      </trkpt>
      <trkpt lat="43.21268" lon="1.90181">
        <ele>354.19100952148</ele>
        <time>2012-07-22T11:10:57Z</time>
      </trkpt>
      <trkpt lat="43.2127" lon="1.90179">
        <ele>354.17300415039</ele>
        <time>2012-07-22T11:11:03Z</time>
      </trkpt>
      <trkpt lat="43.21277" lon="1.90175">
        <ele>353.39801025391</ele>
        <time>2012-07-22T11:11:20Z</time>
      </trkpt>
      <trkpt lat="43.21292" lon="1.90164">
        <ele>352.63500976562</ele>
        <time>2012-07-22T11:11:25Z</time>
      </trkpt>
      <trkpt lat="43.21301" lon="1.90158">
        <ele>352.35198974609</ele>
        <time>2012-07-22T11:11:27Z</time>
      </trkpt>
      <trkpt lat="43.2132" lon="1.90147">
        <ele>351.79000854492</ele>
        <time>2012-07-22T11:11:32Z</time>
      </trkpt>
      <trkpt lat="43.2134" lon="1.90136">
        <ele>351.55599975586</ele>
        <time>2012-07-22T11:11:39Z</time>
      </trkpt>
      <trkpt lat="43.2135" lon="1.90129">
        <ele>351.36099243164</ele>
        <time>2012-07-22T11:11:44Z</time>
      </trkpt>
      <trkpt lat="43.21349" lon="1.9014">
        <ele>351.4289855957</ele>
        <time>2012-07-22T11:11:50Z</time>
      </trkpt>
      <trkpt lat="43.21349" lon="1.90142">
        <ele>351.45700073242</ele>
        <time>2012-07-22T11:11:51Z</time>
      </trkpt>
      <trkpt lat="43.21347" lon="1.90161">
        <ele>351.22698974609</ele>
        <time>2012-07-22T11:11:59Z</time>
      </trkpt>
      <trkpt lat="43.21346" lon="1.90172">
        <ele>350.97900390625</ele>
        <time>2012-07-22T11:12:05Z</time>
      </trkpt>
      <trkpt lat="43.21347" lon="1.90187">
        <ele>350.77398681641</ele>
        <time>2012-07-22T11:12:10Z</time>
      </trkpt>
      <trkpt lat="43.21348" lon="1.90199">
        <ele>350.4169921875</ele>
        <time>2012-07-22T11:12:15Z</time>
      </trkpt>
      <trkpt lat="43.21345" lon="1.90214">
        <ele>350.19299316406</ele>
        <time>2012-07-22T11:12:20Z</time>
      </trkpt>
      <trkpt lat="43.21349" lon="1.90237">
        <ele>350.06500244141</ele>
        <time>2012-07-22T11:12:28Z</time>
      </trkpt>
      <trkpt lat="43.21352" lon="1.90251">
        <ele>349.84899902344</ele>
        <time>2012-07-22T11:12:31Z</time>
      </trkpt>
      <trkpt lat="43.21353" lon="1.9027">
        <ele>349.0419921875</ele>
        <time>2012-07-22T11:12:34Z</time>
      </trkpt>
      <trkpt lat="43.21347" lon="1.90292">
        <ele>346.24499511719</ele>
        <time>2012-07-22T11:12:38Z</time>
      </trkpt>
      <trkpt lat="43.21349" lon="1.90298">
        <ele>344.32000732422</ele>
        <time>2012-07-22T11:12:41Z</time>
      </trkpt>
      <trkpt lat="43.2136" lon="1.9031">
        <ele>343.19900512695</ele>
        <time>2012-07-22T11:12:46Z</time>
      </trkpt>
      <trkpt lat="43.21378" lon="1.90328">
        <ele>342.23400878906</ele>
        <time>2012-07-22T11:12:50Z</time>
      </trkpt>
      <trkpt lat="43.2141" lon="1.90358">
        <ele>339.83099365234</ele>
        <time>2012-07-22T11:12:55Z</time>
      </trkpt>
      <trkpt lat="43.21441" lon="1.90386">
        <ele>336.8450012207</ele>
        <time>2012-07-22T11:13:00Z</time>
      </trkpt>
      <trkpt lat="43.21461" lon="1.90406">
        <ele>335.33599853516</ele>
        <time>2012-07-22T11:13:05Z</time>
      </trkpt>
      <trkpt lat="43.21482" lon="1.90426">
        <ele>335.59298706055</ele>
        <time>2012-07-22T11:13:13Z</time>
      </trkpt>
      <trkpt lat="43.21497" lon="1.90437">
        <ele>335.98699951172</ele>
        <time>2012-07-22T11:13:19Z</time>
      </trkpt>
      <trkpt lat="43.21503" lon="1.90426">
        <ele>337.10101318359</ele>
        <time>2012-07-22T11:13:24Z</time>
      </trkpt>
      <trkpt lat="43.21506" lon="1.90419">
        <ele>337.55200195312</ele>
        <time>2012-07-22T11:13:26Z</time>
      </trkpt>
      <trkpt lat="43.21516" lon="1.90389">
        <ele>338.09799194336</ele>
        <time>2012-07-22T11:13:35Z</time>
      </trkpt>
      <trkpt lat="43.21524" lon="1.90365">
        <ele>339.09600830078</ele>
        <time>2012-07-22T11:13:43Z</time>
      </trkpt>
      <trkpt lat="43.21533" lon="1.90337">
        <ele>340.96701049805</ele>
        <time>2012-07-22T11:13:52Z</time>
      </trkpt>
      <trkpt lat="43.21541" lon="1.90315">
        <ele>342.24700927734</ele>
        <time>2012-07-22T11:13:59Z</time>
      </trkpt>
      <trkpt lat="43.21551" lon="1.90286">
        <ele>343.08898925781</ele>
        <time>2012-07-22T11:14:08Z</time>
      </trkpt>
      <trkpt lat="43.2156" lon="1.90259">
        <ele>344.99899291992</ele>
        <time>2012-07-22T11:14:17Z</time>
      </trkpt>
      <trkpt lat="43.21567" lon="1.90237">
        <ele>346.24398803711</ele>
        <time>2012-07-22T11:14:24Z</time>
      </trkpt>
      <trkpt lat="43.21574" lon="1.90215">
        <ele>347.58099365234</ele>
        <time>2012-07-22T11:14:31Z</time>
      </trkpt>
      <trkpt lat="43.21582" lon="1.90192">
        <ele>348.48001098633</ele>
        <time>2012-07-22T11:14:39Z</time>
      </trkpt>
      <trkpt lat="43.21584" lon="1.90187">
        <ele>349.16000366211</ele>
        <time>2012-07-22T11:14:41Z</time>
      </trkpt>
      <trkpt lat="43.21585" lon="1.90181">
        <ele>349.39999389648</ele>
        <time>2012-07-22T11:14:43Z</time>
      </trkpt>
      <trkpt lat="43.2159" lon="1.90178">
        <ele>350.11499023438</ele>
        <time>2012-07-22T11:14:49Z</time>
      </trkpt>
      <trkpt lat="43.21591" lon="1.90179">
        <ele>350.14999389648</ele>
        <time>2012-07-22T11:14:50Z</time>
      </trkpt>
      <trkpt lat="43.21597" lon="1.9019">
        <ele>351.32598876953</ele>
        <time>2012-07-22T11:14:57Z</time>
      </trkpt>
      <trkpt lat="43.21604" lon="1.90194">
        <ele>352.84899902344</ele>
        <time>2012-07-22T11:15:04Z</time>
      </trkpt>
      <trkpt lat="43.21617" lon="1.90191">
        <ele>354.39599609375</ele>
        <time>2012-07-22T11:15:14Z</time>
      </trkpt>
      <trkpt lat="43.21625" lon="1.90183">
        <ele>355.39099121094</ele>
        <time>2012-07-22T11:15:21Z</time>
      </trkpt>
      <trkpt lat="43.2163" lon="1.90178">
        <ele>356.1549987793</ele>
        <time>2012-07-22T11:15:25Z</time>
      </trkpt>
      <trkpt lat="43.21643" lon="1.90175">
        <ele>356.8630065918</ele>
        <time>2012-07-22T11:15:33Z</time>
      </trkpt>
      <trkpt lat="43.21657" lon="1.90178">
        <ele>357.39599609375</ele>
        <time>2012-07-22T11:15:40Z</time>
      </trkpt>
      <trkpt lat="43.2167" lon="1.90181">
        <ele>357.01901245117</ele>
        <time>2012-07-22T11:15:46Z</time>
      </trkpt>
      <trkpt lat="43.2168" lon="1.90187">
        <ele>357.93701171875</ele>
        <time>2012-07-22T11:15:52Z</time>
      </trkpt>
      <trkpt lat="43.21681" lon="1.90189">
        <ele>358.07901000977</ele>
        <time>2012-07-22T11:15:53Z</time>
      </trkpt>
      <trkpt lat="43.21687" lon="1.90206">
        <ele>359.19500732422</ele>
        <time>2012-07-22T11:16:00Z</time>
      </trkpt>
      <trkpt lat="43.2169" lon="1.90226">
        <ele>359.84201049805</ele>
        <time>2012-07-22T11:16:07Z</time>
      </trkpt>
      <trkpt lat="43.21697" lon="1.90244">
        <ele>359.48098754883</ele>
        <time>2012-07-22T11:16:13Z</time>
      </trkpt>
      <trkpt lat="43.21707" lon="1.90255">
        <ele>359.19799804688</ele>
        <time>2012-07-22T11:16:18Z</time>
      </trkpt>
      <trkpt lat="43.21725" lon="1.90256">
        <ele>359.19400024414</ele>
        <time>2012-07-22T11:16:23Z</time>
      </trkpt>
      <trkpt lat="43.21745" lon="1.90252">
        <ele>359.41900634766</ele>
        <time>2012-07-22T11:16:29Z</time>
      </trkpt>
      <trkpt lat="43.21762" lon="1.90247">
        <ele>359.43499755859</ele>
        <time>2012-07-22T11:16:35Z</time>
      </trkpt>
      <trkpt lat="43.21781" lon="1.90247">
        <ele>359.08700561523</ele>
        <time>2012-07-22T11:16:40Z</time>
      </trkpt>
      <trkpt lat="43.21799" lon="1.90248">
        <ele>359.20001220703</ele>
        <time>2012-07-22T11:16:46Z</time>
      </trkpt>
      <trkpt lat="43.21814" lon="1.90246">
        <ele>360.06799316406</ele>
        <time>2012-07-22T11:16:52Z</time>
      </trkpt>
      <trkpt lat="43.2183" lon="1.90247">
        <ele>361.98498535156</ele>
        <time>2012-07-22T11:16:58Z</time>
      </trkpt>
      <trkpt lat="43.2184" lon="1.90249">
        <ele>363.53399658203</ele>
        <time>2012-07-22T11:17:02Z</time>
      </trkpt>
      <trkpt lat="43.21856" lon="1.90254">
        <ele>365.52398681641</ele>
        <time>2012-07-22T11:17:08Z</time>
      </trkpt>
      <trkpt lat="43.21872" lon="1.90258">
        <ele>365.97299194336</ele>
        <time>2012-07-22T11:17:14Z</time>
      </trkpt>
      <trkpt lat="43.21886" lon="1.90252">
        <ele>366.40701293945</ele>
        <time>2012-07-22T11:17:20Z</time>
      </trkpt>
      <trkpt lat="43.21901" lon="1.90239">
        <ele>367.65399169922</ele>
        <time>2012-07-22T11:17:28Z</time>
      </trkpt>
      <trkpt lat="43.21909" lon="1.90225">
        <ele>368.82299804688</ele>
        <time>2012-07-22T11:17:34Z</time>
      </trkpt>
      <trkpt lat="43.21916" lon="1.90211">
        <ele>368.9280090332</ele>
        <time>2012-07-22T11:17:39Z</time>
      </trkpt>
      <trkpt lat="43.21923" lon="1.90198">
        <ele>368.69900512695</ele>
        <time>2012-07-22T11:17:44Z</time>
      </trkpt>
      <trkpt lat="43.21933" lon="1.90185">
        <ele>368.45700073242</ele>
        <time>2012-07-22T11:17:50Z</time>
      </trkpt>
      <trkpt lat="43.21945" lon="1.90182">
        <ele>368.27801513672</ele>
        <time>2012-07-22T11:17:55Z</time>
      </trkpt>
      <trkpt lat="43.21956" lon="1.90183">
        <ele>367.94500732422</ele>
        <time>2012-07-22T11:17:58Z</time>
      </trkpt>
      <trkpt lat="43.2196" lon="1.90176">
        <ele>366.61801147461</ele>
        <time>2012-07-22T11:18:01Z</time>
      </trkpt>
      <trkpt lat="43.21957" lon="1.90169">
        <ele>365.52499389648</ele>
        <time>2012-07-22T11:18:05Z</time>
      </trkpt>
      <trkpt lat="43.21958" lon="1.90162">
        <ele>364.66101074219</ele>
        <time>2012-07-22T11:20:38Z</time>
      </trkpt>
      <trkpt lat="43.21953" lon="1.90146">
        <ele>364.61700439453</ele>
        <time>2012-07-22T11:20:42Z</time>
      </trkpt>
      <trkpt lat="43.21954" lon="1.90103">
        <ele>364.95401000977</ele>
        <time>2012-07-22T11:20:49Z</time>
      </trkpt>
      <trkpt lat="43.21954" lon="1.9009">
        <ele>364.55499267578</ele>
        <time>2012-07-22T11:20:51Z</time>
      </trkpt>
      <trkpt lat="43.21947" lon="1.90029">
        <ele>362.41299438477</ele>
        <time>2012-07-22T11:21:00Z</time>
      </trkpt>
      <trkpt lat="43.21944" lon="1.89987">
        <ele>361.58999633789</ele>
        <time>2012-07-22T11:21:07Z</time>
      </trkpt>
      <trkpt lat="43.21943" lon="1.89944">
        <ele>361.58898925781</ele>
        <time>2012-07-22T11:21:14Z</time>
      </trkpt>
      <trkpt lat="43.21946" lon="1.89908">
        <ele>360.39001464844</ele>
        <time>2012-07-22T11:21:21Z</time>
      </trkpt>
      <trkpt lat="43.21956" lon="1.89862">
        <ele>359.58200073242</ele>
        <time>2012-07-22T11:21:29Z</time>
      </trkpt>
      <trkpt lat="43.2197" lon="1.89816">
        <ele>358.50698852539</ele>
        <time>2012-07-22T11:21:36Z</time>
      </trkpt>
      <trkpt lat="43.21988" lon="1.89764">
        <ele>357.17098999023</ele>
        <time>2012-07-22T11:21:44Z</time>
      </trkpt>
      <trkpt lat="43.22002" lon="1.89714">
        <ele>354.8869934082</ele>
        <time>2012-07-22T11:21:50Z</time>
      </trkpt>
      <trkpt lat="43.22016" lon="1.89666">
        <ele>350.58099365234</ele>
        <time>2012-07-22T11:21:56Z</time>
      </trkpt>
      <trkpt lat="43.2204" lon="1.89616">
        <ele>347.67199707031</ele>
        <time>2012-07-22T11:22:02Z</time>
      </trkpt>
      <trkpt lat="43.22074" lon="1.8955">
        <ele>343.21701049805</ele>
        <time>2012-07-22T11:22:09Z</time>
      </trkpt>
      <trkpt lat="43.22093" lon="1.89513">
        <ele>342.0299987793</ele>
        <time>2012-07-22T11:22:14Z</time>
      </trkpt>
      <trkpt lat="43.22113" lon="1.89473">
        <ele>340.08099365234</ele>
        <time>2012-07-22T11:22:20Z</time>
      </trkpt>
      <trkpt lat="43.2213" lon="1.89435">
        <ele>337.18798828125</ele>
        <time>2012-07-22T11:22:24Z</time>
      </trkpt>
      <trkpt lat="43.22153" lon="1.89384">
        <ele>333.64300537109</ele>
        <time>2012-07-22T11:22:29Z</time>
      </trkpt>
      <trkpt lat="43.22159" lon="1.89358">
        <ele>331.93099975586</ele>
        <time>2012-07-22T11:22:32Z</time>
      </trkpt>
      <trkpt lat="43.22161" lon="1.89336">
        <ele>331.90399169922</ele>
        <time>2012-07-22T11:22:36Z</time>
      </trkpt>
      <trkpt lat="43.22163" lon="1.89315">
        <ele>332.3450012207</ele>
        <time>2012-07-22T11:22:42Z</time>
      </trkpt>
      <trkpt lat="43.22168" lon="1.89298">
        <ele>334.51800537109</ele>
        <time>2012-07-22T11:22:48Z</time>
      </trkpt>
      <trkpt lat="43.22175" lon="1.89279">
        <ele>335.99301147461</ele>
        <time>2012-07-22T11:22:55Z</time>
      </trkpt>
      <trkpt lat="43.22189" lon="1.89249">
        <ele>336.75799560547</ele>
        <time>2012-07-22T11:23:05Z</time>
      </trkpt>
      <trkpt lat="43.22203" lon="1.89219">
        <ele>339.33898925781</ele>
        <time>2012-07-22T11:23:16Z</time>
      </trkpt>
      <trkpt lat="43.22216" lon="1.89193">
        <ele>341.54901123047</ele>
        <time>2012-07-22T11:23:26Z</time>
      </trkpt>
      <trkpt lat="43.22224" lon="1.89175">
        <ele>343.65399169922</ele>
        <time>2012-07-22T11:23:33Z</time>
      </trkpt>
      <trkpt lat="43.22235" lon="1.89152">
        <ele>344.89001464844</ele>
        <time>2012-07-22T11:23:42Z</time>
      </trkpt>
      <trkpt lat="43.22243" lon="1.89134">
        <ele>346.54901123047</ele>
        <time>2012-07-22T11:23:50Z</time>
      </trkpt>
      <trkpt lat="43.22249" lon="1.89125">
        <ele>347.70098876953</ele>
        <time>2012-07-22T11:23:55Z</time>
      </trkpt>
      <trkpt lat="43.22256" lon="1.89133">
        <ele>347.30499267578</ele>
        <time>2012-07-22T11:24:00Z</time>
      </trkpt>
      <trkpt lat="43.22258" lon="1.89137">
        <ele>347.16500854492</ele>
        <time>2012-07-22T11:24:02Z</time>
      </trkpt>
      <trkpt lat="43.22264" lon="1.8916">
        <ele>346.79901123047</ele>
        <time>2012-07-22T11:24:10Z</time>
      </trkpt>
      <trkpt lat="43.2227" lon="1.89179">
        <ele>346.71499633789</ele>
        <time>2012-07-22T11:24:16Z</time>
      </trkpt>
      <trkpt lat="43.22282" lon="1.89216">
        <ele>346.90798950195</ele>
        <time>2012-07-22T11:24:25Z</time>
      </trkpt>
      <trkpt lat="43.22292" lon="1.89252">
        <ele>347.27099609375</ele>
        <time>2012-07-22T11:24:34Z</time>
      </trkpt>
      <trkpt lat="43.22305" lon="1.89271">
        <ele>348.36599731445</ele>
        <time>2012-07-22T11:24:41Z</time>
      </trkpt>
      <trkpt lat="43.22313" lon="1.89277">
        <ele>349.20901489258</ele>
        <time>2012-07-22T11:24:46Z</time>
      </trkpt>
      <trkpt lat="43.22324" lon="1.8928">
        <ele>349.70599365234</ele>
        <time>2012-07-22T11:24:50Z</time>
      </trkpt>
      <trkpt lat="43.22356" lon="1.89272">
        <ele>350.3630065918</ele>
        <time>2012-07-22T11:24:56Z</time>
      </trkpt>
      <trkpt lat="43.22397" lon="1.8926">
        <ele>347.35101318359</ele>
        <time>2012-07-22T11:25:02Z</time>
      </trkpt>
      <trkpt lat="43.22403" lon="1.89259">
        <ele>346.78900146484</ele>
        <time>2012-07-22T11:25:03Z</time>
      </trkpt>
      <trkpt lat="43.22413" lon="1.89256">
        <ele>343.57400512695</ele>
        <time>2012-07-22T11:25:06Z</time>
      </trkpt>
      <trkpt lat="43.22417" lon="1.89254">
        <ele>341.87799072266</ele>
        <time>2012-07-22T11:25:28Z</time>
      </trkpt>
      <trkpt lat="43.2243" lon="1.89249">
        <ele>342.41400146484</ele>
        <time>2012-07-22T11:25:32Z</time>
      </trkpt>
      <trkpt lat="43.22453" lon="1.8923">
        <ele>340.84201049805</ele>
        <time>2012-07-22T11:25:37Z</time>
      </trkpt>
      <trkpt lat="43.22478" lon="1.89209">
        <ele>338.10299682617</ele>
        <time>2012-07-22T11:25:41Z</time>
      </trkpt>
      <trkpt lat="43.22503" lon="1.8918">
        <ele>334.92098999023</ele>
        <time>2012-07-22T11:25:46Z</time>
      </trkpt>
      <trkpt lat="43.22507" lon="1.89189">
        <ele>331.48300170898</ele>
        <time>2012-07-22T11:25:52Z</time>
      </trkpt>
      <trkpt lat="43.22501" lon="1.89203">
        <ele>330.84600830078</ele>
        <time>2012-07-22T11:25:57Z</time>
      </trkpt>
      <trkpt lat="43.2249" lon="1.89224">
        <ele>330.19900512695</ele>
        <time>2012-07-22T11:26:04Z</time>
      </trkpt>
      <trkpt lat="43.22482" lon="1.89249">
        <ele>329.59799194336</ele>
        <time>2012-07-22T11:26:10Z</time>
      </trkpt>
      <trkpt lat="43.22471" lon="1.8928">
        <ele>329.42401123047</ele>
        <time>2012-07-22T11:26:17Z</time>
      </trkpt>
      <trkpt lat="43.22456" lon="1.8931">
        <ele>328.90701293945</ele>
        <time>2012-07-22T11:26:24Z</time>
      </trkpt>
      <trkpt lat="43.22444" lon="1.89335">
        <ele>327.82598876953</ele>
        <time>2012-07-22T11:26:28Z</time>
      </trkpt>
      <trkpt lat="43.22432" lon="1.8936">
        <ele>326.21899414062</ele>
        <time>2012-07-22T11:26:31Z</time>
      </trkpt>
      <trkpt lat="43.22431" lon="1.89385">
        <ele>324.40798950195</ele>
        <time>2012-07-22T11:26:34Z</time>
      </trkpt>
      <trkpt lat="43.22436" lon="1.89393">
        <ele>324.14801025391</ele>
        <time>2012-07-22T11:26:35Z</time>
      </trkpt>
      <trkpt lat="43.22446" lon="1.89407">
        <ele>323.12399291992</ele>
        <time>2012-07-22T11:26:37Z</time>
      </trkpt>
      <trkpt lat="43.22459" lon="1.89431">
        <ele>321.8450012207</ele>
        <time>2012-07-22T11:26:40Z</time>
      </trkpt>
      <trkpt lat="43.22475" lon="1.89462">
        <ele>320.01599121094</ele>
        <time>2012-07-22T11:26:44Z</time>
      </trkpt>
      <trkpt lat="43.22491" lon="1.89483">
        <ele>318.71798706055</ele>
        <time>2012-07-22T11:26:48Z</time>
      </trkpt>
      <trkpt lat="43.22506" lon="1.89493">
        <ele>318.76098632812</ele>
        <time>2012-07-22T11:26:53Z</time>
      </trkpt>
      <trkpt lat="43.22522" lon="1.89504">
        <ele>319.69100952148</ele>
        <time>2012-07-22T11:27:00Z</time>
      </trkpt>
      <trkpt lat="43.2254" lon="1.89514">
        <ele>320.82299804688</ele>
        <time>2012-07-22T11:27:08Z</time>
      </trkpt>
      <trkpt lat="43.22556" lon="1.89519">
        <ele>322.23699951172</ele>
        <time>2012-07-22T11:27:15Z</time>
      </trkpt>
      <trkpt lat="43.22574" lon="1.89515">
        <ele>323.76699829102</ele>
        <time>2012-07-22T11:27:23Z</time>
      </trkpt>
      <trkpt lat="43.22591" lon="1.89509">
        <ele>325.60501098633</ele>
        <time>2012-07-22T11:27:30Z</time>
      </trkpt>
      <trkpt lat="43.22612" lon="1.89501">
        <ele>329.61199951172</ele>
        <time>2012-07-22T11:27:38Z</time>
      </trkpt>
      <trkpt lat="43.22636" lon="1.89488">
        <ele>330.07699584961</ele>
        <time>2012-07-22T11:27:48Z</time>
      </trkpt>
      <trkpt lat="43.22656" lon="1.89489">
        <ele>328.59399414062</ele>
        <time>2012-07-22T11:27:54Z</time>
      </trkpt>
      <trkpt lat="43.2266" lon="1.89489">
        <ele>328.40399169922</ele>
        <time>2012-07-22T11:27:55Z</time>
      </trkpt>
      <trkpt lat="43.22689" lon="1.89496">
        <ele>327.05899047852</ele>
        <time>2012-07-22T11:28:01Z</time>
      </trkpt>
      <trkpt lat="43.22726" lon="1.89504">
        <ele>323.81298828125</ele>
        <time>2012-07-22T11:28:06Z</time>
      </trkpt>
      <trkpt lat="43.22781" lon="1.89514">
        <ele>319.3039855957</ele>
        <time>2012-07-22T11:28:12Z</time>
      </trkpt>
      <trkpt lat="43.22807" lon="1.89519">
        <ele>315.02398681641</ele>
        <time>2012-07-22T11:28:15Z</time>
      </trkpt>
      <trkpt lat="43.22832" lon="1.89538">
        <ele>308.98300170898</ele>
        <time>2012-07-22T11:28:19Z</time>
      </trkpt>
      <trkpt lat="43.22844" lon="1.89554">
        <ele>307.06201171875</ele>
        <time>2012-07-22T11:28:22Z</time>
      </trkpt>
      <trkpt lat="43.22854" lon="1.89566">
        <ele>307.0419921875</ele>
        <time>2012-07-22T11:28:26Z</time>
      </trkpt>
      <trkpt lat="43.22868" lon="1.89583">
        <ele>307.54800415039</ele>
        <time>2012-07-22T11:28:33Z</time>
      </trkpt>
      <trkpt lat="43.22888" lon="1.89604">
        <ele>308.19100952148</ele>
        <time>2012-07-22T11:28:43Z</time>
      </trkpt>
      <trkpt lat="43.2289" lon="1.89607">
        <ele>308.33898925781</ele>
        <time>2012-07-22T11:28:44Z</time>
      </trkpt>
      <trkpt lat="43.2289" lon="1.89623">
        <ele>308.72500610352</ele>
        <time>2012-07-22T11:28:49Z</time>
      </trkpt>
      <trkpt lat="43.22889" lon="1.89626">
        <ele>308.82400512695</ele>
        <time>2012-07-22T11:28:50Z</time>
      </trkpt>
      <trkpt lat="43.22879" lon="1.89663">
        <ele>310.20599365234</ele>
        <time>2012-07-22T11:29:00Z</time>
      </trkpt>
      <trkpt lat="43.22872" lon="1.89689">
        <ele>310.26400756836</ele>
        <time>2012-07-22T11:29:08Z</time>
      </trkpt>
      <trkpt lat="43.22864" lon="1.89715">
        <ele>312.50601196289</ele>
        <time>2012-07-22T11:29:16Z</time>
      </trkpt>
      <trkpt lat="43.22854" lon="1.89747">
        <ele>315.32699584961</ele>
        <time>2012-07-22T11:29:26Z</time>
      </trkpt>
      <trkpt lat="43.22845" lon="1.89773">
        <ele>316.94400024414</ele>
        <time>2012-07-22T11:29:35Z</time>
      </trkpt>
      <trkpt lat="43.22837" lon="1.89795">
        <ele>318.14700317383</ele>
        <time>2012-07-22T11:29:43Z</time>
      </trkpt>
      <trkpt lat="43.22828" lon="1.89818">
        <ele>319.38800048828</ele>
        <time>2012-07-22T11:29:52Z</time>
      </trkpt>
      <trkpt lat="43.22821" lon="1.89838">
        <ele>320.62100219727</ele>
        <time>2012-07-22T11:30:00Z</time>
      </trkpt>
      <trkpt lat="43.22812" lon="1.89862">
        <ele>321.81900024414</ele>
        <time>2012-07-22T11:30:10Z</time>
      </trkpt>
      <trkpt lat="43.22806" lon="1.89878">
        <ele>323.10800170898</ele>
        <time>2012-07-22T11:30:17Z</time>
      </trkpt>
      <trkpt lat="43.22801" lon="1.89897">
        <ele>324.5950012207</ele>
        <time>2012-07-22T11:30:25Z</time>
      </trkpt>
      <trkpt lat="43.22795" lon="1.89913">
        <ele>325.78799438477</ele>
        <time>2012-07-22T11:30:32Z</time>
      </trkpt>
      <trkpt lat="43.22791" lon="1.8993">
        <ele>326.49899291992</ele>
        <time>2012-07-22T11:30:39Z</time>
      </trkpt>
      <trkpt lat="43.22787" lon="1.89953">
        <ele>327.90701293945</ele>
        <time>2012-07-22T11:30:47Z</time>
      </trkpt>
      <trkpt lat="43.22787" lon="1.89979">
        <ele>329.38299560547</ele>
        <time>2012-07-22T11:30:56Z</time>
      </trkpt>
      <trkpt lat="43.22787" lon="1.9">
        <ele>330.36401367188</ele>
        <time>2012-07-22T11:31:03Z</time>
      </trkpt>
      <trkpt lat="43.22786" lon="1.90025">
        <ele>331.53399658203</ele>
        <time>2012-07-22T11:31:11Z</time>
      </trkpt>
      <trkpt lat="43.22787" lon="1.90059">
        <ele>332.54501342773</ele>
        <time>2012-07-22T11:31:21Z</time>
      </trkpt>
      <trkpt lat="43.22786" lon="1.90089">
        <ele>333.89300537109</ele>
        <time>2012-07-22T11:31:30Z</time>
      </trkpt>
      <trkpt lat="43.22783" lon="1.90116">
        <ele>334.62200927734</ele>
        <time>2012-07-22T11:31:38Z</time>
      </trkpt>
      <trkpt lat="43.22781" lon="1.90138">
        <ele>335.22601318359</ele>
        <time>2012-07-22T11:31:45Z</time>
      </trkpt>
      <trkpt lat="43.22779" lon="1.90172">
        <ele>336.98999023438</ele>
        <time>2012-07-22T11:31:56Z</time>
      </trkpt>
      <trkpt lat="43.22778" lon="1.90203">
        <ele>338.9289855957</ele>
        <time>2012-07-22T11:32:06Z</time>
      </trkpt>
      <trkpt lat="43.22775" lon="1.90232">
        <ele>340.89001464844</ele>
        <time>2012-07-22T11:32:17Z</time>
      </trkpt>
      <trkpt lat="43.22773" lon="1.90254">
        <ele>342.76599121094</ele>
        <time>2012-07-22T11:32:26Z</time>
      </trkpt>
      <trkpt lat="43.22771" lon="1.90272">
        <ele>344.12100219727</ele>
        <time>2012-07-22T11:32:33Z</time>
      </trkpt>
      <trkpt lat="43.2277" lon="1.9029">
        <ele>345.42599487305</ele>
        <time>2012-07-22T11:32:40Z</time>
      </trkpt>
      <trkpt lat="43.22769" lon="1.90305">
        <ele>346.63299560547</ele>
        <time>2012-07-22T11:32:46Z</time>
      </trkpt>
      <trkpt lat="43.22767" lon="1.9032">
        <ele>347.55499267578</ele>
        <time>2012-07-22T11:32:52Z</time>
      </trkpt>
      <trkpt lat="43.22765" lon="1.90334">
        <ele>349.03298950195</ele>
        <time>2012-07-22T11:32:58Z</time>
      </trkpt>
      <trkpt lat="43.22759" lon="1.90354">
        <ele>351.69799804688</ele>
        <time>2012-07-22T11:33:07Z</time>
      </trkpt>
      <trkpt lat="43.22756" lon="1.90372">
        <ele>353.44500732422</ele>
        <time>2012-07-22T11:33:14Z</time>
      </trkpt>
      <trkpt lat="43.22751" lon="1.90389">
        <ele>355.32998657227</ele>
        <time>2012-07-22T11:33:22Z</time>
      </trkpt>
      <trkpt lat="43.22751" lon="1.90394">
        <ele>355.6960144043</ele>
        <time>2012-07-22T11:33:24Z</time>
      </trkpt>
      <trkpt lat="43.22749" lon="1.90403">
        <ele>356.68301391602</ele>
        <time>2012-07-22T11:33:31Z</time>
      </trkpt>
      <trkpt lat="43.22749" lon="1.90404">
        <ele>356.99301147461</ele>
        <time>2012-07-22T11:33:37Z</time>
      </trkpt>
      <trkpt lat="43.22749" lon="1.90414">
        <ele>357.46099853516</ele>
        <time>2012-07-22T11:33:44Z</time>
      </trkpt>
      <trkpt lat="43.22747" lon="1.90418">
        <ele>357.59298706055</ele>
        <time>2012-07-22T11:33:46Z</time>
      </trkpt>
      <trkpt lat="43.22744" lon="1.90429">
        <ele>358.42199707031</ele>
        <time>2012-07-22T11:33:54Z</time>
      </trkpt>
      <trkpt lat="43.22747" lon="1.9043">
        <ele>358.62100219727</ele>
        <time>2012-07-22T11:35:39Z</time>
      </trkpt>
      <trkpt lat="43.22745" lon="1.90431">
        <ele>358.76300048828</ele>
        <time>2012-07-22T11:36:38Z</time>
      </trkpt>
      <trkpt lat="43.22744" lon="1.90437">
        <ele>358.59899902344</ele>
        <time>2012-07-22T11:36:41Z</time>
      </trkpt>
      <trkpt lat="43.22745" lon="1.90439">
        <ele>358.3450012207</ele>
        <time>2012-07-22T11:36:43Z</time>
      </trkpt>
      <trkpt lat="43.22748" lon="1.90442">
        <ele>358.00201416016</ele>
        <time>2012-07-22T11:36:46Z</time>
      </trkpt>
      <trkpt lat="43.22753" lon="1.90439">
        <ele>358.25601196289</ele>
        <time>2012-07-22T11:36:50Z</time>
      </trkpt>
      <trkpt lat="43.22763" lon="1.90433">
        <ele>358.35598754883</ele>
        <time>2012-07-22T11:36:57Z</time>
      </trkpt>
      <trkpt lat="43.22776" lon="1.90433">
        <ele>358.67498779297</ele>
        <time>2012-07-22T11:37:04Z</time>
      </trkpt>
      <trkpt lat="43.22791" lon="1.90438">
        <ele>358.98699951172</ele>
        <time>2012-07-22T11:37:11Z</time>
      </trkpt>
      <trkpt lat="43.22802" lon="1.90442">
        <ele>359.44299316406</ele>
        <time>2012-07-22T11:37:16Z</time>
      </trkpt>
      <trkpt lat="43.22813" lon="1.90446">
        <ele>360.38598632812</ele>
        <time>2012-07-22T11:37:21Z</time>
      </trkpt>
      <trkpt lat="43.22826" lon="1.90446">
        <ele>360.59698486328</ele>
        <time>2012-07-22T11:37:26Z</time>
      </trkpt>
      <trkpt lat="43.2284" lon="1.90436">
        <ele>360.44799804688</ele>
        <time>2012-07-22T11:37:32Z</time>
      </trkpt>
      <trkpt lat="43.22852" lon="1.9042">
        <ele>360.3330078125</ele>
        <time>2012-07-22T11:37:37Z</time>
      </trkpt>
      <trkpt lat="43.22866" lon="1.9039">
        <ele>359.28399658203</ele>
        <time>2012-07-22T11:37:43Z</time>
      </trkpt>
      <trkpt lat="43.22878" lon="1.90368">
        <ele>358.27398681641</ele>
        <time>2012-07-22T11:37:47Z</time>
      </trkpt>
      <trkpt lat="43.22888" lon="1.90353">
        <ele>357.64599609375</ele>
        <time>2012-07-22T11:37:50Z</time>
      </trkpt>
      <trkpt lat="43.22902" lon="1.90321">
        <ele>356.90200805664</ele>
        <time>2012-07-22T11:37:57Z</time>
      </trkpt>
      <trkpt lat="43.22915" lon="1.90293">
        <ele>357.05099487305</ele>
        <time>2012-07-22T11:38:04Z</time>
      </trkpt>
      <trkpt lat="43.22929" lon="1.90271">
        <ele>357.93701171875</ele>
        <time>2012-07-22T11:38:10Z</time>
      </trkpt>
      <trkpt lat="43.22942" lon="1.90261">
        <ele>358.13500976562</ele>
        <time>2012-07-22T11:38:13Z</time>
      </trkpt>
      <trkpt lat="43.22964" lon="1.90229">
        <ele>356.98999023438</ele>
        <time>2012-07-22T11:38:18Z</time>
      </trkpt>
      <trkpt lat="43.2299" lon="1.90184">
        <ele>353.96600341797</ele>
        <time>2012-07-22T11:38:24Z</time>
      </trkpt>
      <trkpt lat="43.22998" lon="1.90167">
        <ele>352.93499755859</ele>
        <time>2012-07-22T11:38:26Z</time>
      </trkpt>
      <trkpt lat="43.23035" lon="1.9012">
        <ele>350.73400878906</ele>
        <time>2012-07-22T11:38:33Z</time>
      </trkpt>
      <trkpt lat="43.23061" lon="1.90076">
        <ele>349.25</ele>
        <time>2012-07-22T11:38:39Z</time>
      </trkpt>
      <trkpt lat="43.23082" lon="1.90027">
        <ele>348.02398681641</ele>
        <time>2012-07-22T11:38:45Z</time>
      </trkpt>
      <trkpt lat="43.23088" lon="1.90011">
        <ele>347.52600097656</ele>
        <time>2012-07-22T11:38:47Z</time>
      </trkpt>
      <trkpt lat="43.23096" lon="1.89978">
        <ele>346.63299560547</ele>
        <time>2012-07-22T11:38:51Z</time>
      </trkpt>
      <trkpt lat="43.23097" lon="1.8995">
        <ele>346.02499389648</ele>
        <time>2012-07-22T11:38:55Z</time>
      </trkpt>
      <trkpt lat="43.23088" lon="1.89904">
        <ele>346.9049987793</ele>
        <time>2012-07-22T11:39:04Z</time>
      </trkpt>
      <trkpt lat="43.23084" lon="1.89866">
        <ele>349.01699829102</ele>
        <time>2012-07-22T11:39:12Z</time>
      </trkpt>
      <trkpt lat="43.23087" lon="1.89833">
        <ele>350.07400512695</ele>
        <time>2012-07-22T11:39:19Z</time>
      </trkpt>
      <trkpt lat="43.23089" lon="1.89827">
        <ele>349.57598876953</ele>
        <time>2012-07-22T11:39:20Z</time>
      </trkpt>
      <trkpt lat="43.23093" lon="1.89809">
        <ele>348.84600830078</ele>
        <time>2012-07-22T11:39:23Z</time>
      </trkpt>
      <trkpt lat="43.231" lon="1.89759">
        <ele>347.35400390625</ele>
        <time>2012-07-22T11:39:31Z</time>
      </trkpt>
      <trkpt lat="43.23104" lon="1.89711">
        <ele>346.41799926758</ele>
        <time>2012-07-22T11:39:38Z</time>
      </trkpt>
      <trkpt lat="43.23105" lon="1.89693">
        <ele>345.97100830078</ele>
        <time>2012-07-22T11:39:41Z</time>
      </trkpt>
      <trkpt lat="43.23111" lon="1.89662">
        <ele>345.67098999023</ele>
        <time>2012-07-22T11:39:47Z</time>
      </trkpt>
      <trkpt lat="43.23114" lon="1.8964">
        <ele>346.29998779297</ele>
        <time>2012-07-22T11:39:51Z</time>
      </trkpt>
      <trkpt lat="43.23127" lon="1.89613">
        <ele>347.49798583984</ele>
        <time>2012-07-22T11:39:56Z</time>
      </trkpt>
      <trkpt lat="43.2315" lon="1.89583">
        <ele>344.75399780273</ele>
        <time>2012-07-22T11:40:01Z</time>
      </trkpt>
      <trkpt lat="43.23164" lon="1.89564">
        <ele>342.94400024414</ele>
        <time>2012-07-22T11:40:04Z</time>
      </trkpt>
      <trkpt lat="43.23177" lon="1.89552">
        <ele>341.56600952148</ele>
        <time>2012-07-22T11:40:07Z</time>
      </trkpt>
      <trkpt lat="43.23195" lon="1.89548">
        <ele>341.37600708008</ele>
        <time>2012-07-22T11:40:11Z</time>
      </trkpt>
      <trkpt lat="43.23206" lon="1.89547">
        <ele>341.02301025391</ele>
        <time>2012-07-22T11:40:14Z</time>
      </trkpt>
      <trkpt lat="43.23238" lon="1.89542">
        <ele>342.89001464844</ele>
        <time>2012-07-22T11:40:23Z</time>
      </trkpt>
      <trkpt lat="43.23266" lon="1.89541">
        <ele>343.77200317383</ele>
        <time>2012-07-22T11:40:30Z</time>
      </trkpt>
      <trkpt lat="43.23278" lon="1.89538">
        <ele>343.96499633789</ele>
        <time>2012-07-22T11:40:33Z</time>
      </trkpt>
      <trkpt lat="43.23308" lon="1.89514">
        <ele>342.5299987793</ele>
        <time>2012-07-22T11:40:40Z</time>
      </trkpt>
      <trkpt lat="43.23336" lon="1.89505">
        <ele>342.02600097656</ele>
        <time>2012-07-22T11:40:45Z</time>
      </trkpt>
      <trkpt lat="43.23364" lon="1.89497">
        <ele>341.15600585938</ele>
        <time>2012-07-22T11:40:50Z</time>
      </trkpt>
      <trkpt lat="43.23374" lon="1.89495">
        <ele>340.85699462891</ele>
        <time>2012-07-22T11:40:52Z</time>
      </trkpt>
      <trkpt lat="43.23395" lon="1.89486">
        <ele>339.97698974609</ele>
        <time>2012-07-22T11:40:56Z</time>
      </trkpt>
      <trkpt lat="43.23414" lon="1.89464">
        <ele>338.72900390625</ele>
        <time>2012-07-22T11:41:00Z</time>
      </trkpt>
      <trkpt lat="43.23426" lon="1.89449">
        <ele>336.96301269531</ele>
        <time>2012-07-22T11:41:03Z</time>
      </trkpt>
      <trkpt lat="43.23432" lon="1.89445">
        <ele>336.27700805664</ele>
        <time>2012-07-22T11:41:04Z</time>
      </trkpt>
      <trkpt lat="43.23443" lon="1.89436">
        <ele>335.36599731445</ele>
        <time>2012-07-22T11:41:06Z</time>
      </trkpt>
      <trkpt lat="43.2346" lon="1.89403">
        <ele>333.26098632812</ele>
        <time>2012-07-22T11:41:10Z</time>
      </trkpt>
      <trkpt lat="43.23481" lon="1.89364">
        <ele>329.57598876953</ele>
        <time>2012-07-22T11:41:14Z</time>
      </trkpt>
      <trkpt lat="43.2349" lon="1.89333">
        <ele>325.82998657227</ele>
        <time>2012-07-22T11:41:18Z</time>
      </trkpt>
      <trkpt lat="43.23509" lon="1.89295">
        <ele>324.30999755859</ele>
        <time>2012-07-22T11:41:23Z</time>
      </trkpt>
      <trkpt lat="43.2353" lon="1.89254">
        <ele>320.79000854492</ele>
        <time>2012-07-22T11:41:28Z</time>
      </trkpt>
      <trkpt lat="43.23555" lon="1.89211">
        <ele>317.95401000977</ele>
        <time>2012-07-22T11:41:33Z</time>
      </trkpt>
      <trkpt lat="43.23572" lon="1.8919">
        <ele>317.02899169922</ele>
        <time>2012-07-22T11:41:36Z</time>
      </trkpt>
      <trkpt lat="43.23598" lon="1.89171">
        <ele>316.42199707031</ele>
        <time>2012-07-22T11:41:40Z</time>
      </trkpt>
      <trkpt lat="43.23625" lon="1.89152">
        <ele>314.52499389648</ele>
        <time>2012-07-22T11:41:45Z</time>
      </trkpt>
      <trkpt lat="43.2363" lon="1.89137">
        <ele>313.98199462891</ele>
        <time>2012-07-22T11:41:47Z</time>
      </trkpt>
      <trkpt lat="43.23639" lon="1.891">
        <ele>313.16900634766</ele>
        <time>2012-07-22T11:41:51Z</time>
      </trkpt>
      <trkpt lat="43.23652" lon="1.89047">
        <ele>311.32598876953</ele>
        <time>2012-07-22T11:41:56Z</time>
      </trkpt>
      <trkpt lat="43.23666" lon="1.89021">
        <ele>309.92700195312</ele>
        <time>2012-07-22T11:41:59Z</time>
      </trkpt>
      <trkpt lat="43.2368" lon="1.89008">
        <ele>309.33099365234</ele>
        <time>2012-07-22T11:42:01Z</time>
      </trkpt>
      <trkpt lat="43.2371" lon="1.88996">
        <ele>307.4700012207</ele>
        <time>2012-07-22T11:42:05Z</time>
      </trkpt>
      <trkpt lat="43.23725" lon="1.88998">
        <ele>306.87298583984</ele>
        <time>2012-07-22T11:42:07Z</time>
      </trkpt>
      <trkpt lat="43.23744" lon="1.88984">
        <ele>305.35800170898</ele>
        <time>2012-07-22T11:42:11Z</time>
      </trkpt>
      <trkpt lat="43.2375" lon="1.8897">
        <ele>305.16198730469</ele>
        <time>2012-07-22T11:42:13Z</time>
      </trkpt>
      <trkpt lat="43.23763" lon="1.88938">
        <ele>304.61801147461</ele>
        <time>2012-07-22T11:42:17Z</time>
      </trkpt>
      <trkpt lat="43.2379" lon="1.88898">
        <ele>302.97299194336</ele>
        <time>2012-07-22T11:42:23Z</time>
      </trkpt>
      <trkpt lat="43.23808" lon="1.88879">
        <ele>302.18798828125</ele>
        <time>2012-07-22T11:42:27Z</time>
      </trkpt>
      <trkpt lat="43.23818" lon="1.88873">
        <ele>302.05700683594</ele>
        <time>2012-07-22T11:42:29Z</time>
      </trkpt>
      <trkpt lat="43.23844" lon="1.88889">
        <ele>303.89300537109</ele>
        <time>2012-07-22T11:42:35Z</time>
      </trkpt>
      <trkpt lat="43.23872" lon="1.88905">
        <ele>306.09698486328</ele>
        <time>2012-07-22T11:42:43Z</time>
      </trkpt>
      <trkpt lat="43.23888" lon="1.88916">
        <ele>307.33700561523</ele>
        <time>2012-07-22T11:42:49Z</time>
      </trkpt>
      <trkpt lat="43.239" lon="1.88927">
        <ele>309.64300537109</ele>
        <time>2012-07-22T11:42:56Z</time>
      </trkpt>
      <trkpt lat="43.23909" lon="1.88935">
        <ele>311.28601074219</ele>
        <time>2012-07-22T11:43:01Z</time>
      </trkpt>
      <trkpt lat="43.2392" lon="1.88943">
        <ele>313.41598510742</ele>
        <time>2012-07-22T11:43:07Z</time>
      </trkpt>
      <trkpt lat="43.23925" lon="1.88954">
        <ele>315.4280090332</ele>
        <time>2012-07-22T11:43:12Z</time>
      </trkpt>
      <trkpt lat="43.23932" lon="1.88966">
        <ele>317.35800170898</ele>
        <time>2012-07-22T11:43:18Z</time>
      </trkpt>
      <trkpt lat="43.23937" lon="1.88979">
        <ele>319.15798950195</ele>
        <time>2012-07-22T11:43:24Z</time>
      </trkpt>
      <trkpt lat="43.23938" lon="1.88981">
        <ele>319.375</ele>
        <time>2012-07-22T11:43:25Z</time>
      </trkpt>
      <trkpt lat="43.23947" lon="1.88993">
        <ele>320.62600708008</ele>
        <time>2012-07-22T11:43:31Z</time>
      </trkpt>
      <trkpt lat="43.23955" lon="1.89">
        <ele>322.18099975586</ele>
        <time>2012-07-22T11:43:36Z</time>
      </trkpt>
      <trkpt lat="43.23965" lon="1.89007">
        <ele>323.61599731445</ele>
        <time>2012-07-22T11:43:42Z</time>
      </trkpt>
      <trkpt lat="43.23975" lon="1.89014">
        <ele>324.71099853516</ele>
        <time>2012-07-22T11:43:47Z</time>
      </trkpt>
      <trkpt lat="43.23984" lon="1.89018">
        <ele>326.00201416016</ele>
        <time>2012-07-22T11:43:53Z</time>
      </trkpt>
      <trkpt lat="43.2399" lon="1.8902">
        <ele>326.41400146484</ele>
        <time>2012-07-22T11:43:59Z</time>
      </trkpt>
      <trkpt lat="43.23997" lon="1.89031">
        <ele>326.51800537109</ele>
        <time>2012-07-22T11:44:49Z</time>
      </trkpt>
      <trkpt lat="43.24001" lon="1.8903">
        <ele>326.98001098633</ele>
        <time>2012-07-22T11:45:16Z</time>
      </trkpt>
      <trkpt lat="43.2401" lon="1.89024">
        <ele>326.35900878906</ele>
        <time>2012-07-22T11:45:20Z</time>
      </trkpt>
      <trkpt lat="43.24019" lon="1.89021">
        <ele>325.24200439453</ele>
        <time>2012-07-22T11:45:23Z</time>
      </trkpt>
      <trkpt lat="43.24027" lon="1.89039">
        <ele>323.80801391602</ele>
        <time>2012-07-22T11:45:26Z</time>
      </trkpt>
      <trkpt lat="43.24029" lon="1.89068">
        <ele>321.75</ele>
        <time>2012-07-22T11:45:29Z</time>
      </trkpt>
      <trkpt lat="43.24025" lon="1.89119">
        <ele>318.37701416016</ele>
        <time>2012-07-22T11:45:34Z</time>
      </trkpt>
      <trkpt lat="43.24028" lon="1.89141">
        <ele>313.68200683594</ele>
        <time>2012-07-22T11:45:38Z</time>
      </trkpt>
      <trkpt lat="43.24038" lon="1.89136">
        <ele>311.85400390625</ele>
        <time>2012-07-22T11:45:40Z</time>
      </trkpt>
      <trkpt lat="43.24051" lon="1.89131">
        <ele>310.72100830078</ele>
        <time>2012-07-22T11:45:42Z</time>
      </trkpt>
      <trkpt lat="43.24065" lon="1.89129">
        <ele>309.32299804688</ele>
        <time>2012-07-22T11:45:44Z</time>
      </trkpt>
      <trkpt lat="43.24082" lon="1.89118">
        <ele>304.2799987793</ele>
        <time>2012-07-22T11:45:48Z</time>
      </trkpt>
      <trkpt lat="43.24089" lon="1.89101">
        <ele>301.65301513672</ele>
        <time>2012-07-22T11:45:51Z</time>
      </trkpt>
      <trkpt lat="43.24094" lon="1.891">
        <ele>300.56298828125</ele>
        <time>2012-07-22T11:45:53Z</time>
      </trkpt>
      <trkpt lat="43.241" lon="1.89099">
        <ele>299.18399047852</ele>
        <time>2012-07-22T11:45:55Z</time>
      </trkpt>
      <trkpt lat="43.24114" lon="1.89093">
        <ele>297.86099243164</ele>
        <time>2012-07-22T11:45:58Z</time>
      </trkpt>
      <trkpt lat="43.24144" lon="1.89079">
        <ele>294.85000610352</ele>
        <time>2012-07-22T11:46:03Z</time>
      </trkpt>
      <trkpt lat="43.24151" lon="1.89076">
        <ele>294.57000732422</ele>
        <time>2012-07-22T11:46:04Z</time>
      </trkpt>
      <trkpt lat="43.24158" lon="1.89072">
        <ele>293.92300415039</ele>
        <time>2012-07-22T11:46:05Z</time>
      </trkpt>
      <trkpt lat="43.24186" lon="1.89052">
        <ele>291.80999755859</ele>
        <time>2012-07-22T11:46:09Z</time>
      </trkpt>
      <trkpt lat="43.2422" lon="1.8903">
        <ele>289.87701416016</ele>
        <time>2012-07-22T11:46:14Z</time>
      </trkpt>
      <trkpt lat="43.24251" lon="1.89012">
        <ele>289.66000366211</ele>
        <time>2012-07-22T11:46:19Z</time>
      </trkpt>
      <trkpt lat="43.24268" lon="1.8901">
        <ele>287.95199584961</ele>
        <time>2012-07-22T11:46:24Z</time>
      </trkpt>
      <trkpt lat="43.24271" lon="1.89011">
        <ele>287.63299560547</ele>
        <time>2012-07-22T11:46:25Z</time>
      </trkpt>
      <trkpt lat="43.2428" lon="1.89017">
        <ele>287.04501342773</ele>
        <time>2012-07-22T11:46:27Z</time>
      </trkpt>
      <trkpt lat="43.24292" lon="1.89022">
        <ele>286.0419921875</ele>
        <time>2012-07-22T11:46:29Z</time>
      </trkpt>
      <trkpt lat="43.24333" lon="1.89047">
        <ele>282.06799316406</ele>
        <time>2012-07-22T11:46:35Z</time>
      </trkpt>
      <trkpt lat="43.24374" lon="1.89071">
        <ele>279.47399902344</ele>
        <time>2012-07-22T11:46:41Z</time>
      </trkpt>
      <trkpt lat="43.24411" lon="1.89093">
        <ele>276.34399414062</ele>
        <time>2012-07-22T11:46:47Z</time>
      </trkpt>
      <trkpt lat="43.24428" lon="1.89103">
        <ele>274.63000488281</ele>
        <time>2012-07-22T11:46:50Z</time>
      </trkpt>
      <trkpt lat="43.24439" lon="1.89107">
        <ele>275.01998901367</ele>
        <time>2012-07-22T11:46:53Z</time>
      </trkpt>
      <trkpt lat="43.24453" lon="1.89114">
        <ele>275.95498657227</ele>
        <time>2012-07-22T11:46:59Z</time>
      </trkpt>
      <trkpt lat="43.24466" lon="1.89122">
        <ele>275.86199951172</ele>
        <time>2012-07-22T11:47:03Z</time>
      </trkpt>
      <trkpt lat="43.24492" lon="1.89137">
        <ele>276.32501220703</ele>
        <time>2012-07-22T11:47:10Z</time>
      </trkpt>
      <trkpt lat="43.24509" lon="1.89146">
        <ele>277.79299926758</ele>
        <time>2012-07-22T11:47:16Z</time>
      </trkpt>
      <trkpt lat="43.24536" lon="1.89154">
        <ele>278.88400268555</ele>
        <time>2012-07-22T11:47:25Z</time>
      </trkpt>
      <trkpt lat="43.24558" lon="1.89161">
        <ele>279.89300537109</ele>
        <time>2012-07-22T11:47:33Z</time>
      </trkpt>
      <trkpt lat="43.24578" lon="1.89168">
        <ele>280.4280090332</ele>
        <time>2012-07-22T11:47:40Z</time>
      </trkpt>
      <trkpt lat="43.24596" lon="1.89176">
        <ele>281.41299438477</ele>
        <time>2012-07-22T11:47:47Z</time>
      </trkpt>
      <trkpt lat="43.24611" lon="1.89183">
        <ele>282.21899414062</ele>
        <time>2012-07-22T11:47:53Z</time>
      </trkpt>
      <trkpt lat="43.24629" lon="1.89189">
        <ele>283.51098632812</ele>
        <time>2012-07-22T11:48:01Z</time>
      </trkpt>
      <trkpt lat="43.2464" lon="1.89193">
        <ele>284.88900756836</ele>
        <time>2012-07-22T11:48:07Z</time>
      </trkpt>
      <trkpt lat="43.24657" lon="1.89199">
        <ele>286.22698974609</ele>
        <time>2012-07-22T11:48:15Z</time>
      </trkpt>
      <trkpt lat="43.24671" lon="1.89205">
        <ele>288.17001342773</ele>
        <time>2012-07-22T11:48:22Z</time>
      </trkpt>
      <trkpt lat="43.24686" lon="1.89211">
        <ele>290.07000732422</ele>
        <time>2012-07-22T11:48:30Z</time>
      </trkpt>
      <trkpt lat="43.24698" lon="1.89215">
        <ele>291.74398803711</ele>
        <time>2012-07-22T11:48:37Z</time>
      </trkpt>
      <trkpt lat="43.24712" lon="1.89217">
        <ele>293.86898803711</ele>
        <time>2012-07-22T11:48:44Z</time>
      </trkpt>
      <trkpt lat="43.24716" lon="1.89227">
        <ele>295.59100341797</ele>
        <time>2012-07-22T11:48:50Z</time>
      </trkpt>
      <trkpt lat="43.24708" lon="1.89236">
        <ele>295.7919921875</ele>
        <time>2012-07-22T11:48:57Z</time>
      </trkpt>
      <trkpt lat="43.24708" lon="1.89237">
        <ele>295.875</ele>
        <time>2012-07-22T11:48:58Z</time>
      </trkpt>
      <trkpt lat="43.24711" lon="1.89243">
        <ele>296.70401000977</ele>
        <time>2012-07-22T11:49:05Z</time>
      </trkpt>
      <trkpt lat="43.24712" lon="1.89245">
        <ele>296.8869934082</ele>
        <time>2012-07-22T11:49:06Z</time>
      </trkpt>
      <trkpt lat="43.2472" lon="1.89253">
        <ele>297.9169921875</ele>
        <time>2012-07-22T11:49:14Z</time>
      </trkpt>
      <trkpt lat="43.24728" lon="1.89258">
        <ele>298.7799987793</ele>
        <time>2012-07-22T11:49:21Z</time>
      </trkpt>
      <trkpt lat="43.24739" lon="1.89268">
        <ele>301.10299682617</ele>
        <time>2012-07-22T11:49:31Z</time>
      </trkpt>
      <trkpt lat="43.24749" lon="1.89277">
        <ele>302.38198852539</ele>
        <time>2012-07-22T11:49:40Z</time>
      </trkpt>
      <trkpt lat="43.24757" lon="1.89283">
        <ele>304.36199951172</ele>
        <time>2012-07-22T11:49:48Z</time>
      </trkpt>
      <trkpt lat="43.24767" lon="1.89293">
        <ele>307.27700805664</ele>
        <time>2012-07-22T11:49:58Z</time>
      </trkpt>
      <trkpt lat="43.24776" lon="1.89298">
        <ele>309.0119934082</ele>
        <time>2012-07-22T11:50:06Z</time>
      </trkpt>
      <trkpt lat="43.24786" lon="1.89294">
        <ele>311.38800048828</ele>
        <time>2012-07-22T11:50:15Z</time>
      </trkpt>
      <trkpt lat="43.24791" lon="1.89285">
        <ele>312.98001098633</ele>
        <time>2012-07-22T11:50:22Z</time>
      </trkpt>
      <trkpt lat="43.24793" lon="1.89275">
        <ele>314.04000854492</ele>
        <time>2012-07-22T11:50:28Z</time>
      </trkpt>
      <trkpt lat="43.24794" lon="1.89259">
        <ele>313.71099853516</ele>
        <time>2012-07-22T11:50:35Z</time>
      </trkpt>
      <trkpt lat="43.2479" lon="1.89236">
        <ele>312.9580078125</ele>
        <time>2012-07-22T11:50:39Z</time>
      </trkpt>
      <trkpt lat="43.2479" lon="1.89216">
        <ele>312.54699707031</ele>
        <time>2012-07-22T11:50:43Z</time>
      </trkpt>
      <trkpt lat="43.24794" lon="1.89202">
        <ele>312.25</ele>
        <time>2012-07-22T11:50:49Z</time>
      </trkpt>
      <trkpt lat="43.24797" lon="1.89199">
        <ele>312.25799560547</ele>
        <time>2012-07-22T11:50:51Z</time>
      </trkpt>
      <trkpt lat="43.24803" lon="1.89201">
        <ele>312.67098999023</ele>
        <time>2012-07-22T11:50:55Z</time>
      </trkpt>
      <trkpt lat="43.24806" lon="1.89206">
        <ele>313.32000732422</ele>
        <time>2012-07-22T11:50:58Z</time>
      </trkpt>
      <trkpt lat="43.24813" lon="1.89208">
        <ele>312.81600952148</ele>
        <time>2012-07-22T11:51:05Z</time>
      </trkpt>
      <trkpt lat="43.24815" lon="1.89213">
        <ele>312.31799316406</ele>
        <time>2012-07-22T11:54:27Z</time>
      </trkpt>
      <trkpt lat="43.24825" lon="1.89217">
        <ele>312.32998657227</ele>
        <time>2012-07-22T11:54:34Z</time>
      </trkpt>
      <trkpt lat="43.24836" lon="1.8922">
        <ele>312.35000610352</ele>
        <time>2012-07-22T11:54:41Z</time>
      </trkpt>
      <trkpt lat="43.24853" lon="1.8922">
        <ele>313.17401123047</ele>
        <time>2012-07-22T11:54:49Z</time>
      </trkpt>
      <trkpt lat="43.24867" lon="1.89218">
        <ele>313.26000976562</ele>
        <time>2012-07-22T11:54:56Z</time>
      </trkpt>
      <trkpt lat="43.24884" lon="1.89213">
        <ele>313.94500732422</ele>
        <time>2012-07-22T11:55:04Z</time>
      </trkpt>
      <trkpt lat="43.24895" lon="1.89207">
        <ele>314.45999145508</ele>
        <time>2012-07-22T11:55:09Z</time>
      </trkpt>
      <trkpt lat="43.24906" lon="1.89199">
        <ele>314.96200561523</ele>
        <time>2012-07-22T11:55:15Z</time>
      </trkpt>
      <trkpt lat="43.24916" lon="1.89186">
        <ele>315.97399902344</ele>
        <time>2012-07-22T11:55:22Z</time>
      </trkpt>
      <trkpt lat="43.24923" lon="1.89175">
        <ele>317.04800415039</ele>
        <time>2012-07-22T11:55:28Z</time>
      </trkpt>
      <trkpt lat="43.2493" lon="1.89163">
        <ele>317.61898803711</ele>
        <time>2012-07-22T11:55:33Z</time>
      </trkpt>
      <trkpt lat="43.24937" lon="1.89148">
        <ele>318.00299072266</ele>
        <time>2012-07-22T11:55:39Z</time>
      </trkpt>
      <trkpt lat="43.24947" lon="1.89128">
        <ele>318.55700683594</ele>
        <time>2012-07-22T11:55:46Z</time>
      </trkpt>
      <trkpt lat="43.24958" lon="1.89105">
        <ele>318.57501220703</ele>
        <time>2012-07-22T11:55:53Z</time>
      </trkpt>
      <trkpt lat="43.24976" lon="1.89086">
        <ele>318.58200073242</ele>
        <time>2012-07-22T11:56:00Z</time>
      </trkpt>
      <trkpt lat="43.24998" lon="1.89068">
        <ele>319.75399780273</ele>
        <time>2012-07-22T11:56:08Z</time>
      </trkpt>
      <trkpt lat="43.25016" lon="1.89054">
        <ele>320.64300537109</ele>
        <time>2012-07-22T11:56:15Z</time>
      </trkpt>
      <trkpt lat="43.25035" lon="1.8904">
        <ele>322.23699951172</ele>
        <time>2012-07-22T11:56:22Z</time>
      </trkpt>
      <trkpt lat="43.25051" lon="1.89022">
        <ele>321.85000610352</ele>
        <time>2012-07-22T11:56:28Z</time>
      </trkpt>
      <trkpt lat="43.25055" lon="1.89018">
        <ele>321.59298706055</ele>
        <time>2012-07-22T11:56:29Z</time>
      </trkpt>
      <trkpt lat="43.2508" lon="1.88978">
        <ele>320.46499633789</ele>
        <time>2012-07-22T11:56:36Z</time>
      </trkpt>
      <trkpt lat="43.25102" lon="1.88942">
        <ele>319.10998535156</ele>
        <time>2012-07-22T11:56:41Z</time>
      </trkpt>
      <trkpt lat="43.2512" lon="1.88912">
        <ele>317.97399902344</ele>
        <time>2012-07-22T11:56:45Z</time>
      </trkpt>
      <trkpt lat="43.25136" lon="1.88907">
        <ele>316.01098632812</ele>
        <time>2012-07-22T11:56:49Z</time>
      </trkpt>
      <trkpt lat="43.25137" lon="1.88927">
        <ele>314.5119934082</ele>
        <time>2012-07-22T11:56:52Z</time>
      </trkpt>
      <trkpt lat="43.25134" lon="1.88942">
        <ele>313.67498779297</ele>
        <time>2012-07-22T11:56:54Z</time>
      </trkpt>
      <trkpt lat="43.25116" lon="1.88991">
        <ele>312.06298828125</ele>
        <time>2012-07-22T11:57:00Z</time>
      </trkpt>
      <trkpt lat="43.2511" lon="1.89006">
        <ele>310.15100097656</ele>
        <time>2012-07-22T11:57:03Z</time>
      </trkpt>
      <trkpt lat="43.2511" lon="1.89013">
        <ele>309.13800048828</ele>
        <time>2012-07-22T11:57:05Z</time>
      </trkpt>
      <trkpt lat="43.25113" lon="1.89014">
        <ele>308.3869934082</ele>
        <time>2012-07-22T11:57:09Z</time>
      </trkpt>
      <trkpt lat="43.2512" lon="1.89002">
        <ele>307.80700683594</ele>
        <time>2012-07-22T11:57:14Z</time>
      </trkpt>
      <trkpt lat="43.25123" lon="1.88999">
        <ele>307.44799804688</ele>
        <time>2012-07-22T11:57:15Z</time>
      </trkpt>
      <trkpt lat="43.25154" lon="1.88975">
        <ele>304.67498779297</ele>
        <time>2012-07-22T11:57:21Z</time>
      </trkpt>
      <trkpt lat="43.25197" lon="1.88956">
        <ele>300.21798706055</ele>
        <time>2012-07-22T11:57:26Z</time>
      </trkpt>
      <trkpt lat="43.25246" lon="1.88935">
        <ele>294.95300292969</ele>
        <time>2012-07-22T11:57:31Z</time>
      </trkpt>
      <trkpt lat="43.2532" lon="1.88902">
        <ele>288.48300170898</ele>
        <time>2012-07-22T11:57:38Z</time>
      </trkpt>
      <trkpt lat="43.25415" lon="1.88858">
        <ele>282.34600830078</ele>
        <time>2012-07-22T11:57:47Z</time>
      </trkpt>
      <trkpt lat="43.25452" lon="1.88841">
        <ele>278.93301391602</ele>
        <time>2012-07-22T11:57:51Z</time>
      </trkpt>
      <trkpt lat="43.25484" lon="1.88842">
        <ele>274.78399658203</ele>
        <time>2012-07-22T11:57:55Z</time>
      </trkpt>
      <trkpt lat="43.25493" lon="1.88848">
        <ele>273.23699951172</ele>
        <time>2012-07-22T11:57:57Z</time>
      </trkpt>
      <trkpt lat="43.25494" lon="1.88851">
        <ele>270.62399291992</ele>
        <time>2012-07-22T11:58:00Z</time>
      </trkpt>
      <trkpt lat="43.25495" lon="1.88851">
        <ele>270.82400512695</ele>
        <time>2012-07-22T11:58:07Z</time>
      </trkpt>
      <trkpt lat="43.255" lon="1.8885">
        <ele>270.64498901367</ele>
        <time>2012-07-22T11:58:11Z</time>
      </trkpt>
      <trkpt lat="43.25515" lon="1.88856">
        <ele>270.36099243164</ele>
        <time>2012-07-22T11:58:16Z</time>
      </trkpt>
      <trkpt lat="43.25541" lon="1.88868">
        <ele>269.95001220703</ele>
        <time>2012-07-22T11:58:21Z</time>
      </trkpt>
      <trkpt lat="43.25571" lon="1.88882">
        <ele>267.81600952148</ele>
        <time>2012-07-22T11:58:25Z</time>
      </trkpt>
      <trkpt lat="43.25639" lon="1.8891">
        <ele>265.06201171875</ele>
        <time>2012-07-22T11:58:33Z</time>
      </trkpt>
      <trkpt lat="43.25689" lon="1.88932">
        <ele>262.70999145508</ele>
        <time>2012-07-22T11:58:40Z</time>
      </trkpt>
      <trkpt lat="43.25717" lon="1.88951">
        <ele>262.39001464844</ele>
        <time>2012-07-22T11:58:45Z</time>
      </trkpt>
      <trkpt lat="43.25737" lon="1.88966">
        <ele>262.25601196289</ele>
        <time>2012-07-22T11:58:50Z</time>
      </trkpt>
      <trkpt lat="43.25767" lon="1.88988">
        <ele>263.44198608398</ele>
        <time>2012-07-22T11:58:58Z</time>
      </trkpt>
      <trkpt lat="43.2578" lon="1.88993">
        <ele>264.31900024414</ele>
        <time>2012-07-22T11:59:03Z</time>
      </trkpt>
      <trkpt lat="43.25788" lon="1.8898">
        <ele>264.95199584961</ele>
        <time>2012-07-22T11:59:07Z</time>
      </trkpt>
      <trkpt lat="43.25803" lon="1.88946">
        <ele>264.87100219727</ele>
        <time>2012-07-22T11:59:14Z</time>
      </trkpt>
      <trkpt lat="43.25816" lon="1.88916">
        <ele>264.62200927734</ele>
        <time>2012-07-22T11:59:21Z</time>
      </trkpt>
      <trkpt lat="43.25828" lon="1.88898">
        <ele>264.60598754883</ele>
        <time>2012-07-22T11:59:26Z</time>
      </trkpt>
      <trkpt lat="43.25834" lon="1.88898">
        <ele>263.74600219727</ele>
        <time>2012-07-22T11:59:28Z</time>
      </trkpt>
      <trkpt lat="43.25851" lon="1.88909">
        <ele>264.75698852539</ele>
        <time>2012-07-22T11:59:35Z</time>
      </trkpt>
      <trkpt lat="43.25862" lon="1.88914">
        <ele>265.73498535156</ele>
        <time>2012-07-22T11:59:40Z</time>
      </trkpt>
      <trkpt lat="43.25878" lon="1.88924">
        <ele>267.81900024414</ele>
        <time>2012-07-22T11:59:48Z</time>
      </trkpt>
      <trkpt lat="43.25894" lon="1.88934">
        <ele>269.6130065918</ele>
        <time>2012-07-22T11:59:56Z</time>
      </trkpt>
      <trkpt lat="43.25908" lon="1.88942">
        <ele>271.12899780273</ele>
        <time>2012-07-22T12:00:04Z</time>
      </trkpt>
      <trkpt lat="43.25923" lon="1.88951">
        <ele>272.69500732422</ele>
        <time>2012-07-22T12:00:12Z</time>
      </trkpt>
      <trkpt lat="43.25937" lon="1.88959">
        <ele>274.91400146484</ele>
        <time>2012-07-22T12:00:20Z</time>
      </trkpt>
      <trkpt lat="43.25953" lon="1.88968">
        <ele>275.99099731445</ele>
        <time>2012-07-22T12:00:29Z</time>
      </trkpt>
      <trkpt lat="43.25969" lon="1.88978">
        <ele>277.93499755859</ele>
        <time>2012-07-22T12:00:38Z</time>
      </trkpt>
      <trkpt lat="43.25986" lon="1.88985">
        <ele>279.92599487305</ele>
        <time>2012-07-22T12:00:47Z</time>
      </trkpt>
      <trkpt lat="43.2601" lon="1.88986">
        <ele>282.97299194336</ele>
        <time>2012-07-22T12:00:58Z</time>
      </trkpt>
      <trkpt lat="43.26029" lon="1.88987">
        <ele>285.26998901367</ele>
        <time>2012-07-22T12:01:07Z</time>
      </trkpt>
      <trkpt lat="43.26043" lon="1.88989">
        <ele>287.31399536133</ele>
        <time>2012-07-22T12:01:14Z</time>
      </trkpt>
      <trkpt lat="43.26062" lon="1.88992">
        <ele>289.61999511719</ele>
        <time>2012-07-22T12:01:23Z</time>
      </trkpt>
      <trkpt lat="43.26078" lon="1.88996">
        <ele>291.63000488281</ele>
        <time>2012-07-22T12:01:31Z</time>
      </trkpt>
      <trkpt lat="43.26092" lon="1.89">
        <ele>293.84201049805</ele>
        <time>2012-07-22T12:01:39Z</time>
      </trkpt>
      <trkpt lat="43.26107" lon="1.89003">
        <ele>296.04901123047</ele>
        <time>2012-07-22T12:01:48Z</time>
      </trkpt>
      <trkpt lat="43.26117" lon="1.89008">
        <ele>297.27099609375</ele>
        <time>2012-07-22T12:01:54Z</time>
      </trkpt>
      <trkpt lat="43.26122" lon="1.89014">
        <ele>298.71301269531</ele>
        <time>2012-07-22T12:01:58Z</time>
      </trkpt>
      <trkpt lat="43.26129" lon="1.89033">
        <ele>300.58599853516</ele>
        <time>2012-07-22T12:02:07Z</time>
      </trkpt>
      <trkpt lat="43.2614" lon="1.89055">
        <ele>302.72399902344</ele>
        <time>2012-07-22T12:02:18Z</time>
      </trkpt>
      <trkpt lat="43.26147" lon="1.89071">
        <ele>304.33999633789</ele>
        <time>2012-07-22T12:02:26Z</time>
      </trkpt>
      <trkpt lat="43.26151" lon="1.89087">
        <ele>306.15600585938</ele>
        <time>2012-07-22T12:02:33Z</time>
      </trkpt>
      <trkpt lat="43.26155" lon="1.89103">
        <ele>308.17401123047</ele>
        <time>2012-07-22T12:02:40Z</time>
      </trkpt>
      <trkpt lat="43.26159" lon="1.8912">
        <ele>309.68600463867</ele>
        <time>2012-07-22T12:02:47Z</time>
      </trkpt>
      <trkpt lat="43.26168" lon="1.89139">
        <ele>312.9169921875</ele>
        <time>2012-07-22T12:02:56Z</time>
      </trkpt>
      <trkpt lat="43.26178" lon="1.89152">
        <ele>314.81201171875</ele>
        <time>2012-07-22T12:03:03Z</time>
      </trkpt>
      <trkpt lat="43.26183" lon="1.89173">
        <ele>316.13198852539</ele>
        <time>2012-07-22T12:03:11Z</time>
      </trkpt>
      <trkpt lat="43.26183" lon="1.89195">
        <ele>317.87701416016</ele>
        <time>2012-07-22T12:03:19Z</time>
      </trkpt>
      <trkpt lat="43.26188" lon="1.89215">
        <ele>320.35000610352</ele>
        <time>2012-07-22T12:03:27Z</time>
      </trkpt>
      <trkpt lat="43.26197" lon="1.89234">
        <ele>321.36801147461</ele>
        <time>2012-07-22T12:03:35Z</time>
      </trkpt>
      <trkpt lat="43.26207" lon="1.89255">
        <ele>321.10598754883</ele>
        <time>2012-07-22T12:03:44Z</time>
      </trkpt>
      <trkpt lat="43.2622" lon="1.89268">
        <ele>321.98498535156</ele>
        <time>2012-07-22T12:03:51Z</time>
      </trkpt>
      <trkpt lat="43.26238" lon="1.89271">
        <ele>323.06900024414</ele>
        <time>2012-07-22T12:03:59Z</time>
      </trkpt>
      <trkpt lat="43.26252" lon="1.89274">
        <ele>323.89199829102</ele>
        <time>2012-07-22T12:04:06Z</time>
      </trkpt>
      <trkpt lat="43.2626" lon="1.89279">
        <ele>324.14001464844</ele>
        <time>2012-07-22T12:04:11Z</time>
      </trkpt>
      <trkpt lat="43.26271" lon="1.89282">
        <ele>325.19000244141</ele>
        <time>2012-07-22T12:04:18Z</time>
      </trkpt>
      <trkpt lat="43.26271" lon="1.89288">
        <ele>325.68200683594</ele>
        <time>2012-07-22T12:04:24Z</time>
      </trkpt>
      <trkpt lat="43.26272" lon="1.89288">
        <ele>325.71798706055</ele>
        <time>2012-07-22T12:06:29Z</time>
      </trkpt>
      <trkpt lat="43.26271" lon="1.89289">
        <ele>326.12899780273</ele>
        <time>2012-07-22T12:06:34Z</time>
      </trkpt>
      <trkpt lat="43.26269" lon="1.89304">
        <ele>326.32901000977</ele>
        <time>2012-07-22T12:06:41Z</time>
      </trkpt>
      <trkpt lat="43.26268" lon="1.89323">
        <ele>326.54598999023</ele>
        <time>2012-07-22T12:06:48Z</time>
      </trkpt>
      <trkpt lat="43.26265" lon="1.89339">
        <ele>326.54800415039</ele>
        <time>2012-07-22T12:06:54Z</time>
      </trkpt>
      <trkpt lat="43.26261" lon="1.89359">
        <ele>326.55099487305</ele>
        <time>2012-07-22T12:07:01Z</time>
      </trkpt>
      <trkpt lat="43.26256" lon="1.89378">
        <ele>326.56100463867</ele>
        <time>2012-07-22T12:07:08Z</time>
      </trkpt>
      <trkpt lat="43.26248" lon="1.89397">
        <ele>326.54998779297</ele>
        <time>2012-07-22T12:07:15Z</time>
      </trkpt>
      <trkpt lat="43.26233" lon="1.89423">
        <ele>327.74798583984</ele>
        <time>2012-07-22T12:07:24Z</time>
      </trkpt>
      <trkpt lat="43.26221" lon="1.89443">
        <ele>328.01501464844</ele>
        <time>2012-07-22T12:07:30Z</time>
      </trkpt>
      <trkpt lat="43.26211" lon="1.89474">
        <ele>328.35000610352</ele>
        <time>2012-07-22T12:07:38Z</time>
      </trkpt>
      <trkpt lat="43.26208" lon="1.89511">
        <ele>328.44500732422</ele>
        <time>2012-07-22T12:07:46Z</time>
      </trkpt>
      <trkpt lat="43.26205" lon="1.8955">
        <ele>328.29598999023</ele>
        <time>2012-07-22T12:07:54Z</time>
      </trkpt>
      <trkpt lat="43.26207" lon="1.8958">
        <ele>328.29800415039</ele>
        <time>2012-07-22T12:08:00Z</time>
      </trkpt>
      <trkpt lat="43.26216" lon="1.896">
        <ele>328.3039855957</ele>
        <time>2012-07-22T12:08:04Z</time>
      </trkpt>
      <trkpt lat="43.2623" lon="1.89622">
        <ele>328.32901000977</ele>
        <time>2012-07-22T12:08:08Z</time>
      </trkpt>
      <trkpt lat="43.26238" lon="1.89655">
        <ele>327.54598999023</ele>
        <time>2012-07-22T12:08:13Z</time>
      </trkpt>
      <trkpt lat="43.26237" lon="1.89669">
        <ele>327.27600097656</ele>
        <time>2012-07-22T12:08:15Z</time>
      </trkpt>
      <trkpt lat="43.26226" lon="1.89719">
        <ele>328.09600830078</ele>
        <time>2012-07-22T12:08:24Z</time>
      </trkpt>
      <trkpt lat="43.26215" lon="1.8976">
        <ele>330.48999023438</ele>
        <time>2012-07-22T12:08:32Z</time>
      </trkpt>
      <trkpt lat="43.26212" lon="1.89797">
        <ele>333.06799316406</ele>
        <time>2012-07-22T12:08:40Z</time>
      </trkpt>
      <trkpt lat="43.26213" lon="1.89824">
        <ele>334.1780090332</ele>
        <time>2012-07-22T12:08:47Z</time>
      </trkpt>
      <trkpt lat="43.26211" lon="1.89833">
        <ele>334.80899047852</ele>
        <time>2012-07-22T12:08:50Z</time>
      </trkpt>
      <trkpt lat="43.26203" lon="1.89847">
        <ele>335.92098999023</ele>
        <time>2012-07-22T12:08:56Z</time>
      </trkpt>
      <trkpt lat="43.26191" lon="1.89866">
        <ele>338.00799560547</ele>
        <time>2012-07-22T12:09:04Z</time>
      </trkpt>
      <trkpt lat="43.26178" lon="1.8989">
        <ele>339.75900268555</ele>
        <time>2012-07-22T12:09:13Z</time>
      </trkpt>
      <trkpt lat="43.26168" lon="1.8991">
        <ele>340.53900146484</ele>
        <time>2012-07-22T12:09:20Z</time>
      </trkpt>
      <trkpt lat="43.26157" lon="1.89933">
        <ele>341.20498657227</ele>
        <time>2012-07-22T12:09:28Z</time>
      </trkpt>
      <trkpt lat="43.26144" lon="1.8996">
        <ele>341.78601074219</ele>
        <time>2012-07-22T12:09:37Z</time>
      </trkpt>
      <trkpt lat="43.26129" lon="1.89989">
        <ele>343.67199707031</ele>
        <time>2012-07-22T12:09:46Z</time>
      </trkpt>
      <trkpt lat="43.26116" lon="1.90015">
        <ele>343.57400512695</ele>
        <time>2012-07-22T12:09:53Z</time>
      </trkpt>
      <trkpt lat="43.26103" lon="1.9005">
        <ele>344.90399169922</ele>
        <time>2012-07-22T12:10:02Z</time>
      </trkpt>
      <trkpt lat="43.26097" lon="1.90079">
        <ele>345.9280090332</ele>
        <time>2012-07-22T12:10:09Z</time>
      </trkpt>
      <trkpt lat="43.26097" lon="1.9011">
        <ele>346.85800170898</ele>
        <time>2012-07-22T12:10:17Z</time>
      </trkpt>
      <trkpt lat="43.26104" lon="1.90133">
        <ele>347.87298583984</ele>
        <time>2012-07-22T12:10:24Z</time>
      </trkpt>
      <trkpt lat="43.26113" lon="1.90155">
        <ele>347.48400878906</ele>
        <time>2012-07-22T12:10:29Z</time>
      </trkpt>
      <trkpt lat="43.26133" lon="1.90184">
        <ele>346.97500610352</ele>
        <time>2012-07-22T12:10:35Z</time>
      </trkpt>
      <trkpt lat="43.26141" lon="1.90213">
        <ele>345.80099487305</ele>
        <time>2012-07-22T12:10:39Z</time>
      </trkpt>
      <trkpt lat="43.26136" lon="1.90231">
        <ele>345.24899291992</ele>
        <time>2012-07-22T12:10:41Z</time>
      </trkpt>
      <trkpt lat="43.2612" lon="1.9028">
        <ele>343.34201049805</ele>
        <time>2012-07-22T12:10:46Z</time>
      </trkpt>
      <trkpt lat="43.26113" lon="1.90332">
        <ele>340.9460144043</ele>
        <time>2012-07-22T12:10:51Z</time>
      </trkpt>
      <trkpt lat="43.26111" lon="1.90346">
        <ele>339.83801269531</ele>
        <time>2012-07-22T12:10:54Z</time>
      </trkpt>
      <trkpt lat="43.26112" lon="1.90346">
        <ele>339.13101196289</ele>
        <time>2012-07-22T12:11:02Z</time>
      </trkpt>
      <trkpt lat="43.26112" lon="1.90352">
        <ele>339.14401245117</ele>
        <time>2012-07-22T12:11:37Z</time>
      </trkpt>
      <trkpt lat="43.26107" lon="1.90372">
        <ele>339.14801025391</ele>
        <time>2012-07-22T12:11:44Z</time>
      </trkpt>
      <trkpt lat="43.26098" lon="1.90399">
        <ele>340.71899414062</ele>
        <time>2012-07-22T12:11:53Z</time>
      </trkpt>
      <trkpt lat="43.26089" lon="1.90426">
        <ele>342.61199951172</ele>
        <time>2012-07-22T12:12:01Z</time>
      </trkpt>
      <trkpt lat="43.26084" lon="1.90447">
        <ele>344.43499755859</ele>
        <time>2012-07-22T12:12:08Z</time>
      </trkpt>
      <trkpt lat="43.26079" lon="1.90472">
        <ele>345.60998535156</ele>
        <time>2012-07-22T12:12:16Z</time>
      </trkpt>
      <trkpt lat="43.26081" lon="1.90493">
        <ele>347.29598999023</ele>
        <time>2012-07-22T12:12:23Z</time>
      </trkpt>
      <trkpt lat="43.26088" lon="1.90516">
        <ele>349.02301025391</ele>
        <time>2012-07-22T12:12:31Z</time>
      </trkpt>
      <trkpt lat="43.26099" lon="1.90534">
        <ele>350.73001098633</ele>
        <time>2012-07-22T12:12:39Z</time>
      </trkpt>
      <trkpt lat="43.26113" lon="1.9055">
        <ele>352.11999511719</ele>
        <time>2012-07-22T12:12:48Z</time>
      </trkpt>
      <trkpt lat="43.26128" lon="1.9057">
        <ele>353.63198852539</ele>
        <time>2012-07-22T12:12:58Z</time>
      </trkpt>
      <trkpt lat="43.26136" lon="1.90596">
        <ele>354.94799804688</ele>
        <time>2012-07-22T12:13:07Z</time>
      </trkpt>
      <trkpt lat="43.26136" lon="1.90623">
        <ele>356.01901245117</ele>
        <time>2012-07-22T12:13:15Z</time>
      </trkpt>
      <trkpt lat="43.26133" lon="1.9065">
        <ele>356.23199462891</ele>
        <time>2012-07-22T12:13:23Z</time>
      </trkpt>
      <trkpt lat="43.26134" lon="1.90676">
        <ele>355.92700195312</ele>
        <time>2012-07-22T12:13:30Z</time>
      </trkpt>
      <trkpt lat="43.26136" lon="1.90688">
        <ele>355.51000976562</ele>
        <time>2012-07-22T12:13:32Z</time>
      </trkpt>
      <trkpt lat="43.2614" lon="1.90701">
        <ele>355.2799987793</ele>
        <time>2012-07-22T12:13:34Z</time>
      </trkpt>
      <trkpt lat="43.26145" lon="1.90739">
        <ele>354.10101318359</ele>
        <time>2012-07-22T12:13:39Z</time>
      </trkpt>
      <trkpt lat="43.26139" lon="1.90814">
        <ele>352.28698730469</ele>
        <time>2012-07-22T12:13:49Z</time>
      </trkpt>
      <trkpt lat="43.26139" lon="1.90835">
        <ele>351.94400024414</ele>
        <time>2012-07-22T12:13:52Z</time>
      </trkpt>
      <trkpt lat="43.26141" lon="1.90869">
        <ele>351.39300537109</ele>
        <time>2012-07-22T12:13:58Z</time>
      </trkpt>
      <trkpt lat="43.26142" lon="1.90894">
        <ele>350.95999145508</ele>
        <time>2012-07-22T12:14:04Z</time>
      </trkpt>
      <trkpt lat="43.26141" lon="1.90904">
        <ele>351.10501098633</ele>
        <time>2012-07-22T12:14:06Z</time>
      </trkpt>
      <trkpt lat="43.26132" lon="1.90932">
        <ele>350.88900756836</ele>
        <time>2012-07-22T12:14:12Z</time>
      </trkpt>
      <trkpt lat="43.26131" lon="1.90935">
        <ele>350.63000488281</ele>
        <time>2012-07-22T12:14:13Z</time>
      </trkpt>
      <trkpt lat="43.26131" lon="1.90939">
        <ele>350.41799926758</ele>
        <time>2012-07-22T12:14:17Z</time>
      </trkpt>
      <trkpt lat="43.26141" lon="1.90944">
        <ele>349.75399780273</ele>
        <time>2012-07-22T12:14:23Z</time>
      </trkpt>
      <trkpt lat="43.26145" lon="1.90947">
        <ele>349.3630065918</ele>
        <time>2012-07-22T12:14:24Z</time>
      </trkpt>
      <trkpt lat="43.26161" lon="1.90961">
        <ele>346.03201293945</ele>
        <time>2012-07-22T12:14:28Z</time>
      </trkpt>
      <trkpt lat="43.26165" lon="1.90963">
        <ele>345.35699462891</ele>
        <time>2012-07-22T12:14:29Z</time>
      </trkpt>
      <trkpt lat="43.26175" lon="1.90968">
        <ele>344.85699462891</ele>
        <time>2012-07-22T12:14:31Z</time>
      </trkpt>
      <trkpt lat="43.26209" lon="1.90971">
        <ele>344.44400024414</ele>
        <time>2012-07-22T12:14:37Z</time>
      </trkpt>
      <trkpt lat="43.26237" lon="1.90977">
        <ele>342.54400634766</ele>
        <time>2012-07-22T12:14:42Z</time>
      </trkpt>
      <trkpt lat="43.26247" lon="1.90989">
        <ele>340.48199462891</ele>
        <time>2012-07-22T12:14:45Z</time>
      </trkpt>
      <trkpt lat="43.26269" lon="1.91003">
        <ele>337.09201049805</ele>
        <time>2012-07-22T12:14:50Z</time>
      </trkpt>
      <trkpt lat="43.26296" lon="1.91013">
        <ele>335.67300415039</ele>
        <time>2012-07-22T12:14:54Z</time>
      </trkpt>
      <trkpt lat="43.26322" lon="1.91032">
        <ele>333.49899291992</ele>
        <time>2012-07-22T12:14:58Z</time>
      </trkpt>
      <trkpt lat="43.26339" lon="1.91038">
        <ele>331.72299194336</ele>
        <time>2012-07-22T12:15:01Z</time>
      </trkpt>
      <trkpt lat="43.26345" lon="1.91048">
        <ele>329.19900512695</ele>
        <time>2012-07-22T12:15:03Z</time>
      </trkpt>
      <trkpt lat="43.26355" lon="1.91071">
        <ele>325.61999511719</ele>
        <time>2012-07-22T12:15:07Z</time>
      </trkpt>
      <trkpt lat="43.26366" lon="1.91072">
        <ele>323.45300292969</ele>
        <time>2012-07-22T12:15:11Z</time>
      </trkpt>
      <trkpt lat="43.26376" lon="1.91082">
        <ele>322.28601074219</ele>
        <time>2012-07-22T12:15:15Z</time>
      </trkpt>
      <trkpt lat="43.26381" lon="1.91087">
        <ele>321.84600830078</ele>
        <time>2012-07-22T12:15:17Z</time>
      </trkpt>
      <trkpt lat="43.2639" lon="1.91089">
        <ele>321.61401367188</ele>
        <time>2012-07-22T12:15:22Z</time>
      </trkpt>
      <trkpt lat="43.26395" lon="1.9109">
        <ele>322.3210144043</ele>
        <time>2012-07-22T12:15:25Z</time>
      </trkpt>
      <trkpt lat="43.26404" lon="1.91088">
        <ele>323.69100952148</ele>
        <time>2012-07-22T12:15:30Z</time>
      </trkpt>
      <trkpt lat="43.26417" lon="1.9109">
        <ele>323.29901123047</ele>
        <time>2012-07-22T12:15:34Z</time>
      </trkpt>
      <trkpt lat="43.26428" lon="1.91089">
        <ele>322.4580078125</ele>
        <time>2012-07-22T12:15:37Z</time>
      </trkpt>
      <trkpt lat="43.26436" lon="1.9109">
        <ele>322.07299804688</ele>
        <time>2012-07-22T12:15:39Z</time>
      </trkpt>
      <trkpt lat="43.26451" lon="1.91093">
        <ele>319.89700317383</ele>
        <time>2012-07-22T12:15:44Z</time>
      </trkpt>
      <trkpt lat="43.26461" lon="1.91091">
        <ele>318.83898925781</ele>
        <time>2012-07-22T12:15:47Z</time>
      </trkpt>
      <trkpt lat="43.26469" lon="1.91105">
        <ele>316.97799682617</ele>
        <time>2012-07-22T12:15:52Z</time>
      </trkpt>
      <trkpt lat="43.26485" lon="1.91112">
        <ele>318.22100830078</ele>
        <time>2012-07-22T12:15:59Z</time>
      </trkpt>
      <trkpt lat="43.26495" lon="1.91121">
        <ele>318.43200683594</ele>
        <time>2012-07-22T12:16:03Z</time>
      </trkpt>
      <trkpt lat="43.26519" lon="1.91131">
        <ele>317.61801147461</ele>
        <time>2012-07-22T12:16:08Z</time>
      </trkpt>
      <trkpt lat="43.26534" lon="1.91137">
        <ele>316.91000366211</ele>
        <time>2012-07-22T12:16:11Z</time>
      </trkpt>
      <trkpt lat="43.26555" lon="1.91146">
        <ele>314.98999023438</ele>
        <time>2012-07-22T12:16:15Z</time>
      </trkpt>
      <trkpt lat="43.26573" lon="1.9115">
        <ele>314.21301269531</ele>
        <time>2012-07-22T12:16:18Z</time>
      </trkpt>
      <trkpt lat="43.26586" lon="1.91152">
        <ele>313.43399047852</ele>
        <time>2012-07-22T12:16:20Z</time>
      </trkpt>
      <trkpt lat="43.26597" lon="1.91152">
        <ele>312.64700317383</ele>
        <time>2012-07-22T12:16:22Z</time>
      </trkpt>
      <trkpt lat="43.26612" lon="1.91153">
        <ele>311.41799926758</ele>
        <time>2012-07-22T12:16:25Z</time>
      </trkpt>
      <trkpt lat="43.26631" lon="1.91156">
        <ele>309.80499267578</ele>
        <time>2012-07-22T12:16:29Z</time>
      </trkpt>
      <trkpt lat="43.26647" lon="1.91156">
        <ele>307.75201416016</ele>
        <time>2012-07-22T12:16:33Z</time>
      </trkpt>
      <trkpt lat="43.26654" lon="1.91156">
        <ele>306.77398681641</ele>
        <time>2012-07-22T12:16:37Z</time>
      </trkpt>
      <trkpt lat="43.26656" lon="1.91156">
        <ele>306.7200012207</ele>
        <time>2012-07-22T12:16:38Z</time>
      </trkpt>
      <trkpt lat="43.26662" lon="1.9116">
        <ele>306.62899780273</ele>
        <time>2012-07-22T12:16:41Z</time>
      </trkpt>
      <trkpt lat="43.26678" lon="1.91175">
        <ele>305.99398803711</ele>
        <time>2012-07-22T12:16:45Z</time>
      </trkpt>
      <trkpt lat="43.26694" lon="1.91187">
        <ele>304.20999145508</ele>
        <time>2012-07-22T12:16:50Z</time>
      </trkpt>
      <trkpt lat="43.26703" lon="1.91192">
        <ele>303.47698974609</ele>
        <time>2012-07-22T12:16:54Z</time>
      </trkpt>
      <trkpt lat="43.26707" lon="1.91193">
        <ele>303.42599487305</ele>
        <time>2012-07-22T12:17:18Z</time>
      </trkpt>
      <trkpt lat="43.26721" lon="1.91199">
        <ele>302.59799194336</ele>
        <time>2012-07-22T12:17:23Z</time>
      </trkpt>
      <trkpt lat="43.2674" lon="1.91211">
        <ele>301.87899780273</ele>
        <time>2012-07-22T12:17:28Z</time>
      </trkpt>
      <trkpt lat="43.26772" lon="1.9123">
        <ele>300.13400268555</ele>
        <time>2012-07-22T12:17:34Z</time>
      </trkpt>
      <trkpt lat="43.26823" lon="1.91259">
        <ele>296.82800292969</ele>
        <time>2012-07-22T12:17:42Z</time>
      </trkpt>
      <trkpt lat="43.26837" lon="1.91267">
        <ele>295.46099853516</ele>
        <time>2012-07-22T12:17:44Z</time>
      </trkpt>
      <trkpt lat="43.26859" lon="1.91273">
        <ele>293.6789855957</ele>
        <time>2012-07-22T12:17:47Z</time>
      </trkpt>
      <trkpt lat="43.26866" lon="1.91273">
        <ele>293.66500854492</ele>
        <time>2012-07-22T12:17:48Z</time>
      </trkpt>
      <trkpt lat="43.26891" lon="1.91281">
        <ele>293.375</ele>
        <time>2012-07-22T12:17:52Z</time>
      </trkpt>
      <trkpt lat="43.26913" lon="1.91292">
        <ele>292.37298583984</ele>
        <time>2012-07-22T12:17:56Z</time>
      </trkpt>
      <trkpt lat="43.26929" lon="1.91308">
        <ele>292.15701293945</ele>
        <time>2012-07-22T12:18:00Z</time>
      </trkpt>
      <trkpt lat="43.26943" lon="1.91327">
        <ele>291.41598510742</ele>
        <time>2012-07-22T12:18:03Z</time>
      </trkpt>
      <trkpt lat="43.2698" lon="1.9135">
        <ele>288.98699951172</ele>
        <time>2012-07-22T12:18:08Z</time>
      </trkpt>
      <trkpt lat="43.27003" lon="1.91361">
        <ele>288.17098999023</ele>
        <time>2012-07-22T12:18:11Z</time>
      </trkpt>
      <trkpt lat="43.27033" lon="1.91356">
        <ele>286.83200073242</ele>
        <time>2012-07-22T12:18:15Z</time>
      </trkpt>
      <trkpt lat="43.2706" lon="1.91346">
        <ele>283.56500244141</ele>
        <time>2012-07-22T12:18:19Z</time>
      </trkpt>
      <trkpt lat="43.27074" lon="1.91348">
        <ele>281.28298950195</ele>
        <time>2012-07-22T12:18:21Z</time>
      </trkpt>
      <trkpt lat="43.27122" lon="1.91361">
        <ele>273.90200805664</ele>
        <time>2012-07-22T12:18:27Z</time>
      </trkpt>
      <trkpt lat="43.2714" lon="1.91366">
        <ele>271.63800048828</ele>
        <time>2012-07-22T12:18:29Z</time>
      </trkpt>
      <trkpt lat="43.27173" lon="1.91392">
        <ele>267.31500244141</ele>
        <time>2012-07-22T12:18:33Z</time>
      </trkpt>
      <trkpt lat="43.27209" lon="1.91445">
        <ele>262.75399780273</ele>
        <time>2012-07-22T12:18:38Z</time>
      </trkpt>
      <trkpt lat="43.27251" lon="1.915">
        <ele>261.11099243164</ele>
        <time>2012-07-22T12:18:44Z</time>
      </trkpt>
      <trkpt lat="43.27281" lon="1.91535">
        <ele>259.80200195312</ele>
        <time>2012-07-22T12:18:49Z</time>
      </trkpt>
      <trkpt lat="43.27308" lon="1.91573">
        <ele>260.11199951172</ele>
        <time>2012-07-22T12:18:55Z</time>
      </trkpt>
      <trkpt lat="43.27322" lon="1.91609">
        <ele>259.62100219727</ele>
        <time>2012-07-22T12:19:01Z</time>
      </trkpt>
      <trkpt lat="43.2733" lon="1.91624">
        <ele>259.10000610352</ele>
        <time>2012-07-22T12:19:05Z</time>
      </trkpt>
      <trkpt lat="43.2733" lon="1.91625">
        <ele>259.01098632812</ele>
        <time>2012-07-22T12:19:10Z</time>
      </trkpt>
      <trkpt lat="43.27332" lon="1.9163">
        <ele>258.85400390625</ele>
        <time>2012-07-22T12:19:17Z</time>
      </trkpt>
      <trkpt lat="43.27338" lon="1.91644">
        <ele>258.87399291992</ele>
        <time>2012-07-22T12:19:22Z</time>
      </trkpt>
      <trkpt lat="43.27348" lon="1.91669">
        <ele>258.56600952148</ele>
        <time>2012-07-22T12:19:30Z</time>
      </trkpt>
      <trkpt lat="43.27353" lon="1.91694">
        <ele>257.99099731445</ele>
        <time>2012-07-22T12:19:35Z</time>
      </trkpt>
      <trkpt lat="43.27354" lon="1.91703">
        <ele>256.98098754883</ele>
        <time>2012-07-22T12:19:37Z</time>
      </trkpt>
      <trkpt lat="43.27358" lon="1.91715">
        <ele>254.65199279785</ele>
        <time>2012-07-22T12:19:43Z</time>
      </trkpt>
      <trkpt lat="43.27361" lon="1.91723">
        <ele>254.02099609375</ele>
        <time>2012-07-22T12:20:08Z</time>
      </trkpt>
      <trkpt lat="43.27364" lon="1.91735">
        <ele>253.85099792481</ele>
        <time>2012-07-22T12:20:11Z</time>
      </trkpt>
      <trkpt lat="43.27381" lon="1.91763">
        <ele>252.77000427246</ele>
        <time>2012-07-22T12:20:17Z</time>
      </trkpt>
      <trkpt lat="43.27389" lon="1.91772">
        <ele>251.56700134277</ele>
        <time>2012-07-22T12:20:20Z</time>
      </trkpt>
      <trkpt lat="43.27398" lon="1.91787">
        <ele>250.4700012207</ele>
        <time>2012-07-22T12:20:23Z</time>
      </trkpt>
      <trkpt lat="43.27416" lon="1.91803">
        <ele>250.28700256348</ele>
        <time>2012-07-22T12:20:28Z</time>
      </trkpt>
      <trkpt lat="43.2742" lon="1.91805">
        <ele>250.13299560547</ele>
        <time>2012-07-22T12:20:29Z</time>
      </trkpt>
      <trkpt lat="43.27439" lon="1.91818">
        <ele>248.75900268555</ele>
        <time>2012-07-22T12:20:34Z</time>
      </trkpt>
      <trkpt lat="43.27454" lon="1.91807">
        <ele>247.63400268555</ele>
        <time>2012-07-22T12:20:38Z</time>
      </trkpt>
      <trkpt lat="43.27461" lon="1.91798">
        <ele>247.69599914551</ele>
        <time>2012-07-22T12:20:40Z</time>
      </trkpt>
      <trkpt lat="43.27478" lon="1.9178">
        <ele>246.60800170898</ele>
        <time>2012-07-22T12:20:44Z</time>
      </trkpt>
      <trkpt lat="43.27517" lon="1.91744">
        <ele>245.06599426269</ele>
        <time>2012-07-22T12:20:50Z</time>
      </trkpt>
      <trkpt lat="43.2756" lon="1.91707">
        <ele>241.33599853516</ele>
        <time>2012-07-22T12:20:55Z</time>
      </trkpt>
      <trkpt lat="43.27605" lon="1.91667">
        <ele>237.70199584961</ele>
        <time>2012-07-22T12:21:00Z</time>
      </trkpt>
      <trkpt lat="43.27658" lon="1.91622">
        <ele>234.43499755859</ele>
        <time>2012-07-22T12:21:06Z</time>
      </trkpt>
      <trkpt lat="43.27666" lon="1.91615">
        <ele>234.20899963379</ele>
        <time>2012-07-22T12:21:07Z</time>
      </trkpt>
      <trkpt lat="43.27703" lon="1.91584">
        <ele>231.86199951172</ele>
        <time>2012-07-22T12:21:12Z</time>
      </trkpt>
      <trkpt lat="43.27731" lon="1.91559">
        <ele>231.21699523926</ele>
        <time>2012-07-22T12:21:17Z</time>
      </trkpt>
      <trkpt lat="43.27751" lon="1.91543">
        <ele>230.18499755859</ele>
        <time>2012-07-22T12:21:22Z</time>
      </trkpt>
      <trkpt lat="43.27754" lon="1.9154">
        <ele>229.9700012207</ele>
        <time>2012-07-22T12:21:23Z</time>
      </trkpt>
      <trkpt lat="43.27782" lon="1.91516">
        <ele>229.84700012207</ele>
        <time>2012-07-22T12:21:31Z</time>
      </trkpt>
      <trkpt lat="43.27814" lon="1.91488">
        <ele>231.21800231934</ele>
        <time>2012-07-22T12:21:40Z</time>
      </trkpt>
      <trkpt lat="43.27845" lon="1.91461">
        <ele>231.21600341797</ele>
        <time>2012-07-22T12:21:49Z</time>
      </trkpt>
      <trkpt lat="43.27879" lon="1.91438">
        <ele>231.91299438477</ele>
        <time>2012-07-22T12:21:58Z</time>
      </trkpt>
      <trkpt lat="43.27921" lon="1.91414">
        <ele>233.03500366211</ele>
        <time>2012-07-22T12:22:08Z</time>
      </trkpt>
      <trkpt lat="43.27954" lon="1.91398">
        <ele>233.24299621582</ele>
        <time>2012-07-22T12:22:16Z</time>
      </trkpt>
      <trkpt lat="43.27976" lon="1.91396">
        <ele>231.25100708008</ele>
        <time>2012-07-22T12:22:20Z</time>
      </trkpt>
      <trkpt lat="43.27982" lon="1.91395">
        <ele>230.95599365234</ele>
        <time>2012-07-22T12:22:21Z</time>
      </trkpt>
      <trkpt lat="43.28022" lon="1.91382">
        <ele>229.4640045166</ele>
        <time>2012-07-22T12:22:27Z</time>
      </trkpt>
      <trkpt lat="43.28068" lon="1.91371">
        <ele>228.31399536133</ele>
        <time>2012-07-22T12:22:34Z</time>
      </trkpt>
      <trkpt lat="43.28098" lon="1.9136">
        <ele>226.09800720215</ele>
        <time>2012-07-22T12:22:39Z</time>
      </trkpt>
      <trkpt lat="43.28148" lon="1.91336">
        <ele>224.3809967041</ele>
        <time>2012-07-22T12:22:47Z</time>
      </trkpt>
      <trkpt lat="43.28182" lon="1.91319">
        <ele>224.35600280762</ele>
        <time>2012-07-22T12:22:53Z</time>
      </trkpt>
      <trkpt lat="43.28214" lon="1.91311">
        <ele>224.20799255371</ele>
        <time>2012-07-22T12:22:58Z</time>
      </trkpt>
      <trkpt lat="43.2827" lon="1.91305">
        <ele>219.27699279785</ele>
        <time>2012-07-22T12:23:05Z</time>
      </trkpt>
      <trkpt lat="43.28317" lon="1.91311">
        <ele>215</ele>
        <time>2012-07-22T12:23:10Z</time>
      </trkpt>
      <trkpt lat="43.28362" lon="1.91332">
        <ele>215.38900756836</ele>
        <time>2012-07-22T12:23:15Z</time>
      </trkpt>
      <trkpt lat="43.28387" lon="1.91349">
        <ele>212.6130065918</ele>
        <time>2012-07-22T12:23:18Z</time>
      </trkpt>
      <trkpt lat="43.28407" lon="1.91369">
        <ele>210.60099792481</ele>
        <time>2012-07-22T12:23:21Z</time>
      </trkpt>
      <trkpt lat="43.28441" lon="1.91401">
        <ele>211.68099975586</ele>
        <time>2012-07-22T12:23:26Z</time>
      </trkpt>
      <trkpt lat="43.28447" lon="1.91407">
        <ele>211.93099975586</ele>
        <time>2012-07-22T12:23:27Z</time>
      </trkpt>
      <trkpt lat="43.28492" lon="1.91455">
        <ele>211.28999328613</ele>
        <time>2012-07-22T12:23:34Z</time>
      </trkpt>
      <trkpt lat="43.28519" lon="1.91487">
        <ele>212.625</ele>
        <time>2012-07-22T12:23:39Z</time>
      </trkpt>
      <trkpt lat="43.28548" lon="1.91524">
        <ele>212.02099609375</ele>
        <time>2012-07-22T12:23:45Z</time>
      </trkpt>
      <trkpt lat="43.28558" lon="1.91542">
        <ele>211.55700683594</ele>
        <time>2012-07-22T12:23:47Z</time>
      </trkpt>
      <trkpt lat="43.28567" lon="1.91563">
        <ele>211.25799560547</ele>
        <time>2012-07-22T12:23:49Z</time>
      </trkpt>
      <trkpt lat="43.28576" lon="1.91596">
        <ele>210.39399719238</ele>
        <time>2012-07-22T12:23:52Z</time>
      </trkpt>
      <trkpt lat="43.28592" lon="1.91674">
        <ele>209.16299438477</ele>
        <time>2012-07-22T12:23:59Z</time>
      </trkpt>
      <trkpt lat="43.28604" lon="1.9173">
        <ele>208.55299377441</ele>
        <time>2012-07-22T12:24:05Z</time>
      </trkpt>
      <trkpt lat="43.28616" lon="1.91773">
        <ele>209.29800415039</ele>
        <time>2012-07-22T12:24:11Z</time>
      </trkpt>
      <trkpt lat="43.28626" lon="1.91817">
        <ele>208.7619934082</ele>
        <time>2012-07-22T12:24:18Z</time>
      </trkpt>
      <trkpt lat="43.28634" lon="1.91861">
        <ele>207.79800415039</ele>
        <time>2012-07-22T12:24:23Z</time>
      </trkpt>
      <trkpt lat="43.2864" lon="1.91932">
        <ele>207.54899597168</ele>
        <time>2012-07-22T12:24:30Z</time>
      </trkpt>
      <trkpt lat="43.28637" lon="1.91985">
        <ele>207.56900024414</ele>
        <time>2012-07-22T12:24:34Z</time>
      </trkpt>
      <trkpt lat="43.28636" lon="1.92053">
        <ele>206.71000671387</ele>
        <time>2012-07-22T12:24:39Z</time>
      </trkpt>
      <trkpt lat="43.28637" lon="1.92066">
        <ele>206.45899963379</ele>
        <time>2012-07-22T12:24:40Z</time>
      </trkpt>
      <trkpt lat="43.28648" lon="1.92108">
        <ele>205.9109954834</ele>
        <time>2012-07-22T12:24:44Z</time>
      </trkpt>
      <trkpt lat="43.2867" lon="1.92137">
        <ele>205.65199279785</ele>
        <time>2012-07-22T12:24:49Z</time>
      </trkpt>
      <trkpt lat="43.28694" lon="1.92133">
        <ele>204.79899597168</ele>
        <time>2012-07-22T12:24:53Z</time>
      </trkpt>
      <trkpt lat="43.28706" lon="1.92129">
        <ele>202.30499267578</ele>
        <time>2012-07-22T12:24:56Z</time>
      </trkpt>
      <trkpt lat="43.28708" lon="1.92137">
        <ele>201.60499572754</ele>
        <time>2012-07-22T12:24:58Z</time>
      </trkpt>
      <trkpt lat="43.28704" lon="1.9214">
        <ele>200.67900085449</ele>
        <time>2012-07-22T12:25:01Z</time>
      </trkpt>
    </trkseg>
  </trk>
</gpx>